# Wetter Temperatur Luftdruck Luftfeuchtigkeit Sichtweite Windgeschwindigkeit Windrichtung Zeit
1 Clouds 6 1021 61 10000 8 20 15:55 01.02.2023
2 Clouds 7 1020 65 10000 8 30 13:21 01.02.2023
3 Clouds 8 1020 64 10000 8 30 12:59 01.02.2023
4 Clouds 8 1019 63 10000 8 20 11:57 01.02.2023
5 Clear 12 1021 52 10000 10 20 09:39 01.02.2023
6 Clear 12 1014 50 10000 3 50 03:18 01.02.2023
7 Clear 7 1010 62 10000 3 360 21:45 31.01.2023
8 Clear 9 1008 56 10000 2 360 20:22 31.01.2023
9 Clear 8 1010 51 10000 1 10 18:59 31.01.2023
10 Clear 9 1010 52 10000 1.79 190 16:34 31.01.2023
11 Clear 10 1010 46 10000 1.34 187 15:36 31.01.2023
12 Clear 9 1010 46 10000 1.34 186 15:18 31.01.2023
13 Clear 12 1010 45 10000 3 160 12:33 31.01.2023
14 Clear 12 1015 48 10000 2 170 11:21 31.01.2023
15 Clear 16 1014 44 10000 1.34 205 09:54 31.01.2023
16 Clear 18 1014 43 10000 2 230 08:59 31.01.2023
17 Clear 18 1014 44 10000 2 240 08:35 31.01.2023
18 Clear 15 1016 44 10000 2.68 211 05:46 31.01.2023
19 Clear 5 1013 57 10000 3 160 23:58 30.01.2023
20 Clear 5 1012 56 10000 2.68 151 22:54 30.01.2023
21 Clear 5 1012 57 10000 3.13 153 22:31 30.01.2023
22 Clear 6 1013 56 10000 2 150 21:22 30.01.2023
23 Clear 6 1013 50 10000 3 150 20:34 30.01.2023
24 Clear 6 1014 58 10000 4 160 17:54 30.01.2023
25 Clear 6 1015 57 10000 3.58 148 16:33 30.01.2023
26 Clear 7 1016 49 10000 4 150 14:27 30.01.2023
27 Clear 7 1016 49 10000 4 150 14:27 30.01.2023
28 Clear 8 1017 39 10000 2 150 12:26 30.01.2023
29 Clear 9 1017 37 10000 4 170 11:27 30.01.2023
30 Clear 12 1022 42 10000 4 190 09:54 30.01.2023
31 Clear 13 1022 41 10000 3 190 08:54 30.01.2023
32 Clear 12 1024 38 10000 1 0 06:46 30.01.2023
33 Clear 5 1018 53 10000 1 0 01:39 30.01.2023
34 Clear 2 1020 54 10000 1.34 349 23:35 29.01.2023
35 Clear 2 1020 53 10000 1.79 345 22:37 29.01.2023
36 Clear 2 1020 51 10000 1.79 333 21:35 29.01.2023
37 Clear 3 1020 51 10000 1.79 313 20:36 29.01.2023
38 Clear 3 1020 48 10000 1.79 301 19:33 29.01.2023
39 Clear 4 1020 48 10000 2.24 299 18:44 29.01.2023
40 Clear 4 1020 46 10000 2.24 294 17:31 29.01.2023
41 Clear 5 1020 42 10000 2 240 16:20 29.01.2023
42 Clear 6 1020 39 10000 2 250 14:43 29.01.2023
43 Clear 6 1019 36 10000 3.13 282 13:25 29.01.2023
44 Clear 7 1019 35 10000 3.13 278 12:39 29.01.2023
45 Clear 7 1019 35 10000 3.13 278 12:39 29.01.2023
46 Clear 7 1019 35 10000 3.13 278 12:21 29.01.2023
47 Clear 8 1019 34 10000 3.13 278 11:45 29.01.2023
48 Clear 8 1019 33 10000 3.13 278 11:25 29.01.2023
49 Clear 10 1023 37 10000 4 270 08:56 29.01.2023
50 Clear 9 1023 37 10000 5 270 07:18 29.01.2023
51 Clear 0 1020 46 10000 2.24 243 00:36 29.01.2023
52 Clear 1 1020 42 10000 3 250 21:50 28.01.2023
53 Clear 0 1020 43 10000 3 250 20:24 28.01.2023
54 Clear 0 1021 44 10000 2.24 246 19:46 28.01.2023
55 Clear 1 1021 44 10000 2.24 239 18:21 28.01.2023
56 Clear 1 1022 43 10000 2 220 16:59 28.01.2023
57 Clear 1 1022 43 10000 2 220 16:59 28.01.2023
58 Clear 2 1022 42 10000 2 200 16:20 28.01.2023
59 Clear 2 1022 31 10000 1.34 251 15:38 28.01.2023
60 Clear 2 1022 37 10000 1.34 276 14:21 28.01.2023
61 Clear 3 1023 34 10000 2 230 12:48 28.01.2023
62 Clear 4 1022 31 10000 2.68 325 11:27 28.01.2023
63 Clear 5 1022 30 10000 4 330 10:33 28.01.2023
64 Clear 5 1027 33 10000 6 320 06:35 28.01.2023
65 Clear 1 1024 42 10000 3.58 299 01:35 28.01.2023
66 Clear -1 1024 38 10000 2.68 299 00:23 28.01.2023
67 Clear 0 1023 36 10000 3 290 20:57 27.01.2023
68 Clear 0 1025 40 10000 3.13 318 17:59 27.01.2023
69 Clear 0 1025 40 10000 3.58 319 17:39 27.01.2023
70 Clear 0 1025 40 10000 3.13 317 17:18 27.01.2023
71 Clear 0 1026 38 10000 3 300 16:33 27.01.2023
72 Clear 0 1026 30 10000 4 320 14:46 27.01.2023
73 Clear 1 1026 30 10000 4 330 14:23 27.01.2023
74 Clear 1 1026 34 10000 5.36 359 12:44 27.01.2023
75 Clear 4 1031 34 10000 9 340 08:39 27.01.2023
76 Clouds 3 1027 38 10000 8 330 03:56 27.01.2023
77 Clouds 0 1024 54 10000 5 330 22:52 26.01.2023
78 Clouds 1 1023 55 10000 5 320 21:22 26.01.2023
79 Clouds 1 1023 55 10000 5 320 21:22 26.01.2023
80 Clouds 1 1022 55 10000 5 320 20:35 26.01.2023
81 Clear 3 1022 54 10000 6 340 18:23 26.01.2023
82 Clear 3 1021 53 10000 6 340 17:42 26.01.2023
83 Clear 3 1021 52 10000 7 360 16:27 26.01.2023
84 Clear 3 1021 53 10000 7 350 15:50 26.01.2023
85 Clear 3 1021 53 10000 7 350 15:30 26.01.2023
86 Clear 4 1020 57 10000 6 360 13:58 26.01.2023
87 Clear 6 1019 56 10000 9 20 12:44 26.01.2023
88 Clear 7 1018 45 10000 4 330 11:26 26.01.2023
89 Clear 8 1018 44 10000 5 330 10:28 26.01.2023
90 Clear 8 1022 44 10000 5 340 09:44 26.01.2023
91 Clear 9 1021 41 10000 4 300 08:25 26.01.2023
92 Clear 0 1018 71 10000 1.34 211 23:58 25.01.2023
93 Clear 0 1018 71 10000 1.34 211 23:37 25.01.2023
94 Clear 0 1017 70 10000 1.34 153 21:56 25.01.2023
95 Clear 0 1017 70 10000 1.34 150 21:20 25.01.2023
96 Clear 0 1019 67 10000 1.34 135 18:41 25.01.2023
97 Clear 0 1019 67 10000 1.34 135 18:21 25.01.2023
98 Clear 0 1020 65 10000 3 140 15:42 25.01.2023
99 Clear 0 1021 57 10000 5 150 12:54 25.01.2023
100 Clear 2 1021 44 10000 4 170 10:51 25.01.2023
101 Clear 2 1027 43 10000 3 160 09:44 25.01.2023
102 Clear 2 1028 36 10000 3 210 07:18 25.01.2023
103 Clear -4 1027 50 10000 2 300 01:32 25.01.2023
104 Clear -5 1029 44 10000 4 280 00:23 25.01.2023
105 Clear -5 1029 40 10000 3.58 335 21:33 24.01.2023
106 Clear -5 1029 38 10000 3 340 20:19 24.01.2023
107 Clear -4 1030 31 10000 5 10 18:42 24.01.2023
108 Clear -3 1031 31 10000 6 350 17:30 24.01.2023
109 Clear -3 1031 37 10000 6 360 16:52 24.01.2023
110 Clouds -3 1031 42 10000 6 10 15:21 24.01.2023
111 Clouds -2 1032 42 10000 6 330 13:22 24.01.2023
112 Clear -2 1032 41 10000 7 330 11:20 24.01.2023
113 Clear 0 1036 33 10000 9 330 08:23 24.01.2023
114 Clear 0 1037 32 10000 11 320 07:51 24.01.2023
115 Clear 0 1037 33 10000 10 320 05:32 24.01.2023
116 Clouds 0 1032 45 10000 7 330 01:37 24.01.2023
117 Clouds 0 1031 54 10000 9 330 23:58 23.01.2023
118 Clouds 1 1029 60 10000 9 330 22:27 23.01.2023
119 Clouds 2 1027 61 10000 9 360 19:53 23.01.2023
120 Clouds 3 1026 68 10000 10 20 18:37 23.01.2023
121 Rain 5 1024 73 10000 11 360 16:21 23.01.2023
122 Clouds 6 1023 76 10000 9 10 14:50 23.01.2023
123 Clouds 6 1022 76 10000 10 360 13:44 23.01.2023
124 Clouds 6 1022 76 10000 10 360 13:44 23.01.2023
125 Clouds 6 1021 76 10000 5 10 12:55 23.01.2023
126 Clouds 7 1019 77 10000 7 360 11:45 23.01.2023
127 Clouds 8 1017 77 10000 4.47 12 08:59 23.01.2023
128 Clouds 8 1017 77 10000 4 20 08:22 23.01.2023
129 Mist 8 1016 83 5000 3.13 18 23:37 22.01.2023
130 Clouds 7 1016 83 7000 2.68 335 21:49 22.01.2023
131 Clouds 7 1015 83 8000 3 360 20:58 22.01.2023
132 Clouds 7 1016 83 10000 3.13 336 19:53 22.01.2023
133 Clouds 7 1016 83 10000 4 340 19:20 22.01.2023
134 Clouds 7 1017 82 10000 4 340 18:22 22.01.2023
135 Clouds 7 1017 83 10000 4 340 17:44 22.01.2023
136 Clouds 7 1017 83 8000 4 340 17:21 22.01.2023
137 Clouds 7 1016 83 6000 4.02 347 14:56 22.01.2023
138 Mist 7 1016 82 4000 4 340 13:50 22.01.2023
139 Clouds 7 1016 82 7000 4 340 13:25 22.01.2023
140 Clouds 7 1015 82 10000 6 350 12:26 22.01.2023
141 Clouds 8 1014 81 10000 5 340 09:56 22.01.2023
142 Clouds 8 1014 81 8000 5 340 08:44 22.01.2023
143 Clouds 8 1016 82 10000 3.13 70 02:54 22.01.2023
144 Clouds 8 1015 80 8000 1 0 23:42 21.01.2023
145 Clouds 8 1015 80 8000 2 90 22:47 21.01.2023
146 Clouds 8 1016 78 10000 2 40 20:48 21.01.2023
147 Rain 8 1016 74 10000 3 160 18:49 21.01.2023
148 Clouds 7 1018 69 10000 4 130 15:26 21.01.2023
149 Clear 8 1018 57 10000 6 120 13:31 21.01.2023
150 Clear 8 1018 56 10000 6 130 12:43 21.01.2023
151 Clear 8 1019 54 10000 6 120 11:28 21.01.2023
152 Clear 8 1019 52 10000 7 120 10:47 21.01.2023
153 Clear 10 1024 45 10000 5 130 06:48 21.01.2023
154 Clear 5 1023 58 10000 4 110 00:27 21.01.2023
155 Clear 5 1023 58 10000 3 110 22:26 20.01.2023
156 Clear 5 1023 58 10000 3 100 21:35 20.01.2023
157 Clear 5 1024 58 10000 2 90 20:42 20.01.2023
158 Clear 5 1025 59 10000 3 70 18:23 20.01.2023
159 Clear 5 1025 60 10000 4 50 15:27 20.01.2023
160 Clear 5 1026 60 10000 4 50 14:33 20.01.2023
161 Clear 6 1025 58 10000 5 40 12:24 20.01.2023
162 Clear 9 1029 55 10000 5 30 08:59 20.01.2023
163 Clouds 9 1029 47 10000 4 40 07:41 20.01.2023
164 Clear 7 1025 54 10000 4 340 02:33 20.01.2023
165 Clear 5 1022 55 10000 3 300 22:38 19.01.2023
166 Clear 5 1022 56 10000 3 290 21:59 19.01.2023
167 Clear 4 1022 58 10000 2.24 281 19:46 19.01.2023
168 Clear 4 1022 57 10000 2.24 268 18:57 19.01.2023
169 Clear 6 1021 49 10000 2.24 246 14:55 19.01.2023
170 Clear 9 1020 36 10000 2.68 266 10:44 19.01.2023
171 Clear 9 1024 37 10000 4 250 08:58 19.01.2023
172 Clear 2 1021 60 10000 2 230 22:42 18.01.2023
173 Clear 2 1022 57 10000 1.34 348 20:36 18.01.2023
174 Clear 2 1022 56 10000 1 240 20:18 18.01.2023
175 Clear 2 1022 53 10000 1.34 337 19:36 18.01.2023
176 Clear 3 1023 49 10000 1 0 17:32 18.01.2023
177 Clear 4 1023 45 10000 2 280 14:21 18.01.2023
178 Clear 5 1023 40 10000 3.13 339 12:50 18.01.2023
179 Clear 7 1022 36 10000 4 320 10:29 18.01.2023
180 Clear 8 1027 39 10000 5 280 07:24 18.01.2023
181 Clear 3 1025 60 10000 2.68 303 01:25 18.01.2023
182 Clear 3 1023 53 10000 2.24 296 22:30 17.01.2023
183 Clear 3 1024 49 10000 2.24 304 20:25 17.01.2023
184 Clear 3 1024 47 10000 2.24 306 19:18 17.01.2023
185 Clear 4 1025 45 10000 3 330 17:47 17.01.2023
186 Clear 4 1025 43 10000 3 350 15:35 17.01.2023
187 Clear 5 1025 41 10000 3 340 14:51 17.01.2023
188 Clear 5 1021 35 10000 2.24 334 13:33 17.01.2023
189 Clear 5 1023 37 10000 4 330 11:50 17.01.2023
190 Clear 5 1022 35 10000 3 350 10:34 17.01.2023
191 Clear 7 1022 33 10000 3 310 09:27 17.01.2023
192 Clear 6 1027 34 10000 4 330 07:38 17.01.2023
193 Clear 3 1030 40 10000 2 290 03:50 17.01.2023
194 Clear 1 1024 53 10000 2 320 00:49 17.01.2023
195 Clear 1 1023 46 10000 2.68 336 22:40 16.01.2023
196 Clear 1 1023 47 10000 2.24 338 21:46 16.01.2023
197 Clear 1 1024 46 10000 3 360 19:56 16.01.2023
198 Clear 1 1024 46 10000 3 10 19:25 16.01.2023
199 Clear 1 1024 47 10000 3 340 18:48 16.01.2023
200 Clear 1 1024 46 10000 3 350 18:19 16.01.2023
201 Clear 1 1024 46 10000 2 10 17:20 16.01.2023
202 Clear 1 1024 44 10000 4 340 14:27 16.01.2023
203 Clear 1 1024 46 10000 4 350 13:36 16.01.2023
204 Clear 3 1023 44 10000 4 360 10:26 16.01.2023
205 Clear 4 1029 43 10000 6 350 08:32 16.01.2023
206 Clear -1 1024 50 10000 6 310 22:49 15.01.2023
207 Clear -1 1024 50 10000 5 330 21:24 15.01.2023
208 Clear 0 1024 50 10000 5 320 20:31 15.01.2023
209 Clear -1 1024 51 10000 6 330 19:34 15.01.2023
210 Clouds 0 1024 55 10000 6 330 17:25 15.01.2023
211 Clouds 0 1023 57 10000 6 320 13:55 15.01.2023
212 Clouds 0 1023 60 10000 7 330 12:23 15.01.2023
213 Clouds 0 1023 61 10000 6 320 11:29 15.01.2023
214 Clouds 0 1022 63 10000 6 320 10:24 15.01.2023
215 Clouds 0 1018 80 7000 6 330 08:29 15.01.2023
216 Clouds 0 1021 60 10000 8 340 23:56 14.01.2023
217 Clouds 1 1020 66 10000 9 340 22:44 14.01.2023
218 Snow 1 1020 67 8000 9 340 21:37 14.01.2023
219 Snow 1 1020 67 8000 9 340 21:37 14.01.2023
220 Clouds 2 1020 69 8000 9 340 21:18 14.01.2023
221 Clouds 2 1020 69 6000 10 330 20:56 14.01.2023
222 Clouds 2 1020 69 6000 9 330 20:26 14.01.2023
223 Clouds 4 1018 67 10000 7 340 17:53 14.01.2023
224 Clouds 5 1018 68 10000 8 340 15:38 14.01.2023
225 Clouds 5 1018 68 10000 8 340 15:19 14.01.2023
226 Clouds 5 1017 77 10000 8 360 14:19 14.01.2023
227 Clouds 5 1017 77 10000 10 350 12:50 14.01.2023
228 Clouds 6 1013 79 10000 10 360 10:49 14.01.2023
229 Clouds 8 1011 78 8000 10 360 08:41 14.01.2023
230 Clouds 11 1009 82 8000 7 30 02:35 14.01.2023
231 Mist 11 1006 83 5000 5 50 22:59 13.01.2023
232 Mist 12 1007 84 5000 5 50 22:41 13.01.2023
233 Mist 12 1006 83 5000 4 60 21:58 13.01.2023
234 Mist 13 1006 84 5000 5 60 20:35 13.01.2023
235 Mist 13 1005 85 5000 6 50 19:27 13.01.2023
236 Mist 14 1006 86 5000 4 40 16:58 13.01.2023
237 Rain 16 1003 96 7000 4 40 14:58 13.01.2023
238 Rain 17 1011 97 10000 3 10 12:24 13.01.2023
239 Clouds 17 1004 87 10000 1.79 40 10:41 13.01.2023
240 Clouds 17 1005 87 10000 1 0 10:23 13.01.2023
241 Clouds 17 1004 87 8000 3 150 09:44 13.01.2023
242 Clouds 18 1004 87 8000 4 140 08:51 13.01.2023
243 Clouds 18 1005 89 6000 2 140 06:56 13.01.2023
244 Clouds 18 1005 89 7000 2 140 06:18 13.01.2023
245 Mist 17 1007 87 2000 1.34 233 01:42 13.01.2023
246 Mist 16 1005 83 3500 2.24 228 22:52 12.01.2023
247 Mist 16 1006 83 4000 1 190 21:56 12.01.2023
248 Mist 16 1005 83 5000 2.68 179 20:52 12.01.2023
249 Clear 16 1006 81 10000 2.68 178 18:26 12.01.2023
250 Clouds 16 1006 86 10000 3.58 185 16:59 12.01.2023
251 Clouds 16 1006 86 10000 5 160 14:55 12.01.2023
252 Clouds 17 1006 85 10000 3 200 14:26 12.01.2023
253 Clear 17 1007 83 10000 5 160 13:49 12.01.2023
254 Clear 17 1006 82 10000 4 150 12:19 12.01.2023
255 Clear 18 1006 82 10000 5 140 10:25 12.01.2023
256 Clouds 19 1007 74 10000 5 110 07:26 12.01.2023
257 Clouds 13 1012 84 7000 3.58 129 00:31 12.01.2023
258 Clouds 13 1012 83 10000 3.58 130 23:55 11.01.2023
259 Clouds 13 1012 83 10000 3.58 130 23:36 11.01.2023
260 Clouds 13 1012 83 10000 3.58 130 23:36 11.01.2023
261 Clouds 13 1012 83 10000 3.58 130 23:36 11.01.2023
262 Clouds 13 1012 83 10000 3 160 23:18 11.01.2023
263 Clouds 12 1012 83 10000 2 150 21:22 11.01.2023
264 Clear 12 1014 83 10000 4.02 131 18:51 11.01.2023
265 Clear 12 1014 82 10000 3 140 17:31 11.01.2023
266 Clear 12 1015 79 10000 4 130 15:43 11.01.2023
267 Clear 12 1015 74 10000 4 130 13:57 11.01.2023
268 Clear 13 1015 74 10000 3 120 12:33 11.01.2023
269 Clear 13 1016 72 10000 4 130 11:24 11.01.2023
270 Clouds 16 1015 66 10000 5 130 08:50 11.01.2023
271 Clouds 17 1016 62 10000 4 140 07:29 11.01.2023
272 Clouds 15 1021 59 10000 5 140 06:23 11.01.2023
273 Clear 7 1019 79 10000 2 360 23:44 10.01.2023
274 Clear 7 1019 73 10000 2 360 22:18 10.01.2023
275 Clear 7 1019 73 10000 3 360 21:18 10.01.2023
276 Clear 7 1020 77 10000 3 360 19:53 10.01.2023
277 Clear 7 1020 76 10000 2 360 18:50 10.01.2023
278 Clear 7 1020 76 10000 1.79 62 18:27 10.01.2023
279 Clear 7 1020 75 10000 2 20 16:59 10.01.2023
280 Clear 8 1021 71 10000 2 80 15:33 10.01.2023
281 Clear 8 1021 70 10000 2 80 14:35 10.01.2023
282 Clear 9 1021 67 10000 3 90 12:47 10.01.2023
283 Clear 11 1025 59 10000 3 50 09:43 10.01.2023
284 Clear 11 1025 59 10000 3 50 09:43 10.01.2023
285 Clear 12 1025 55 10000 3 40 08:37 10.01.2023
286 Clear 12 1025 51 10000 3 80 07:55 10.01.2023
287 Clouds 11 1028 53 10000 2 0 04:59 10.01.2023
288 Clouds 7 1023 66 10000 4 40 23:57 09.01.2023
289 Clouds 7 1022 65 10000 3 60 21:55 09.01.2023
290 Clouds 8 1023 65 10000 5 40 20:46 09.01.2023
291 Clouds 8 1023 65 10000 4 50 19:50 09.01.2023
292 Clouds 9 1023 64 10000 4 40 18:21 09.01.2023
293 Clouds 9 1023 64 10000 5 60 17:49 09.01.2023
294 Clouds 9 1023 64 10000 5 60 16:33 09.01.2023
295 Clouds 10 1023 64 8000 8 30 15:31 09.01.2023
296 Clouds 10 1023 65 8000 6 40 14:53 09.01.2023
297 Clouds 10 1023 67 6000 7 50 14:21 09.01.2023
298 Clouds 11 1022 62 6000 6 50 12:49 09.01.2023
299 Clouds 11 1021 68 6000 8 30 11:45 09.01.2023
300 Clouds 11 1021 69 6000 8 30 11:19 09.01.2023
301 Clouds 17 1023 52 8000 5 40 06:53 09.01.2023
302 Clear 14 1016 65 10000 1 0 02:55 09.01.2023
303 Clear 8 1015 85 10000 0 0 00:50 09.01.2023
304 Clear 8 1016 74 10000 1.34 196 21:43 08.01.2023
305 Clear 8 1016 74 10000 1.34 196 21:20 08.01.2023
306 Clear 9 1016 74 10000 1.79 178 20:31 08.01.2023
307 Clear 9 1016 74 10000 2.24 158 17:56 08.01.2023
308 Clear 10 1016 72 10000 2.24 157 17:20 08.01.2023
309 Clear 10 1017 68 10000 2.24 155 15:47 08.01.2023
310 Clear 10 1017 67 10000 2.68 156 15:24 08.01.2023
311 Clear 11 1017 65 10000 2 150 13:57 08.01.2023
312 Clear 12 1016 64 10000 2.68 150 13:29 08.01.2023
313 Clear 12 1016 60 10000 2 150 12:20 08.01.2023
314 Clear 16 1020 49 10000 4 170 09:39 08.01.2023
315 Clear 17 1020 49 10000 6 170 08:45 08.01.2023
316 Clear 16 1020 46 10000 5 170 07:22 08.01.2023
317 Clear 7 1017 60 8000 2.68 145 23:40 07.01.2023
318 Clear 7 1017 60 8000 3.13 149 22:46 07.01.2023
319 Clear 7 1017 59 8000 2 140 22:20 07.01.2023
320 Clear 8 1017 57 8000 3.13 146 21:36 07.01.2023
321 Clear 8 1017 54 6000 4 160 20:29 07.01.2023
322 Haze 8 1018 52 5000 4 160 19:28 07.01.2023
323 Haze 8 1018 50 5000 4 150 18:22 07.01.2023
324 Haze 8 1018 49 5000 4 160 17:43 07.01.2023
325 Haze 8 1019 48 5000 3.13 146 16:54 07.01.2023
326 Clear 8 1019 48 6000 3.13 146 16:29 07.01.2023
327 Clear 9 1019 46 7000 4 150 15:40 07.01.2023
328 Clear 9 1019 45 7000 4 150 15:22 07.01.2023
329 Clear 9 1019 44 7000 3.13 147 14:25 07.01.2023
330 Clear 10 1019 40 7000 3 130 13:43 07.01.2023
331 Clear 10 1019 39 7000 3 130 13:19 07.01.2023
332 Clear 11 1019 36 6000 3 130 12:21 07.01.2023
333 Haze 13 1017 38 5000 4 180 10:29 07.01.2023
334 Clear 15 1022 43 6000 2 200 09:23 07.01.2023
335 Clear 15 1022 40 6000 2 210 08:18 07.01.2023
336 Clear 15 1022 42 6000 2 200 07:41 07.01.2023
337 Clear 14 1023 41 6000 2 300 06:22 07.01.2023
338 Clear 6 1020 61 7000 1.34 301 23:24 06.01.2023
339 Clear 7 1019 57 7000 1.79 315 22:21 06.01.2023
340 Clear 7 1019 58 7000 1.79 313 21:47 06.01.2023
341 Clear 8 1019 57 7000 2 10 20:34 06.01.2023
342 Clear 8 1019 58 7000 2.24 304 19:55 06.01.2023
343 Clear 8 1020 59 7000 2.24 305 19:37 06.01.2023
344 Clear 8 1020 59 7000 1 0 19:18 06.01.2023
345 Clear 9 1020 59 10000 3.13 317 17:44 06.01.2023
346 Clear 9 1020 59 10000 3.13 314 16:52 06.01.2023
347 Clear 10 1020 56 10000 3.13 316 16:22 06.01.2023
348 Clear 10 1020 56 10000 3.13 310 15:51 06.01.2023
349 Clear 10 1019 55 10000 3.13 309 15:28 06.01.2023
350 Clear 11 1018 53 8000 3.58 289 13:38 06.01.2023
351 Clear 11 1018 50 8000 2 260 11:49 06.01.2023
352 Clear 12 1017 46 8000 4.47 275 10:33 06.01.2023
353 Clear 15 1018 35 8000 6 280 08:34 06.01.2023
354 Clear 14 1019 42 6000 4 270 05:20 06.01.2023
355 Clouds 9 1021 72 6000 2 290 22:56 05.01.2023
356 Clouds 9 1021 72 7000 3 290 22:20 05.01.2023
357 Clear 9 1022 77 10000 2 300 20:24 05.01.2023
358 Clear 10 1022 74 10000 1.34 109 17:30 05.01.2023
359 Clear 10 1023 74 10000 1.79 120 16:37 05.01.2023
360 Clear 11 1023 66 10000 1.79 118 15:48 05.01.2023
361 Clear 11 1023 65 10000 1.79 114 14:56 05.01.2023
362 Clear 11 1023 63 10000 2 150 13:28 05.01.2023
363 Clouds 11 1023 63 10000 3 160 12:38 05.01.2023
364 Clear 12 1022 65 10000 4 150 09:57 05.01.2023
365 Clouds 12 1022 64 10000 4 140 09:33 05.01.2023
366 Clouds 13 1027 56 10000 3 170 07:21 05.01.2023
367 Clear 12 1028 53 10000 4 140 06:37 05.01.2023
368 Clear 9 1023 67 10000 3 140 00:27 05.01.2023
369 Clear 8 1023 65 10000 3 140 22:18 04.01.2023
370 Clear 8 1023 65 10000 2.68 102 21:29 04.01.2023
371 Clear 8 1024 65 10000 2.24 110 19:58 04.01.2023
372 Clear 8 1024 65 10000 2.24 109 19:34 04.01.2023
373 Clear 7 1025 65 10000 2.24 104 18:59 04.01.2023
374 Clear 7 1025 65 10000 3 110 16:32 04.01.2023
375 Clear 7 1025 65 10000 3 120 15:56 04.01.2023
376 Clear 7 1025 65 10000 3 110 14:47 04.01.2023
377 Clear 8 1025 54 10000 3.13 105 11:45 04.01.2023
378 Clear 8 1025 51 10000 4 150 11:22 04.01.2023
379 Clear 9 1024 51 10000 4 150 10:43 04.01.2023
380 Clear 9 1024 52 10000 4 150 10:23 04.01.2023
381 Clear 11 1028 45 10000 3 140 08:55 04.01.2023
382 Clear 10 1031 41 10000 2 0 05:36 04.01.2023
383 Clear 3 1027 74 10000 1.34 44 00:32 04.01.2023
384 Clear 3 1026 74 8000 1.34 40 23:35 03.01.2023
385 Clear 3 1026 73 8000 1 190 22:54 03.01.2023
386 Clear 4 1026 71 10000 0.45 85 20:53 03.01.2023
387 Clear 4 1026 70 10000 1 180 19:26 03.01.2023
388 Clear 4 1026 67 10000 1 0 17:38 03.01.2023
389 Clear 4 1026 65 10000 2 160 16:39 03.01.2023
390 Clear 6 1027 61 10000 2 130 13:56 03.01.2023
391 Clear 6 1027 59 10000 3 110 13:31 03.01.2023
392 Clear 7 1026 59 10000 4 140 12:58 03.01.2023
393 Clear 7 1026 54 10000 2 120 12:30 03.01.2023
394 Clear 8 1026 46 10000 3 40 11:21 03.01.2023
395 Clear 9 1030 43 10000 1 0 07:29 03.01.2023
396 Clouds 8 1033 45 10000 3 50 04:22 03.01.2023
397 Clouds 8 1034 57 10000 2 70 03:44 03.01.2023
398 Clear 7 1029 62 10000 3 360 01:56 03.01.2023
399 Clear 6 1027 65 10000 3 350 22:42 02.01.2023
400 Clear 6 1027 65 10000 3 350 22:19 02.01.2023
401 Clear 6 1027 65 10000 3 10 20:40 02.01.2023
402 Clear 6 1027 64 10000 3 350 19:52 02.01.2023
403 Clear 6 1028 62 10000 3 20 17:29 02.01.2023
404 Clear 7 1028 62 10000 3 50 15:19 02.01.2023
405 Clear 7 1027 58 10000 5 50 13:25 02.01.2023
406 Clouds 7 1027 64 10000 4 50 11:57 02.01.2023
407 Clouds 8 1027 66 10000 3 40 10:43 02.01.2023
408 Clouds 9 1026 65 7000 3 50 07:33 02.01.2023
409 Clouds 7 1027 60 6000 2.68 339 00:58 02.01.2023
410 Clouds 7 1026 56 7000 2 330 22:20 01.01.2023
411 Clouds 7 1027 56 7000 2 340 21:28 01.01.2023
412 Clouds 7 1027 54 7000 3 350 20:47 01.01.2023
413 Clouds 7 1027 52 6000 2 60 19:42 01.01.2023
414 Clouds 8 1027 49 7000 3 10 17:56 01.01.2023
415 Clouds 8 1027 48 7000 3 360 17:20 01.01.2023
416 Clouds 8 1027 43 8000 2 120 16:32 01.01.2023
417 Clouds 8 1027 43 8000 3 20 14:47 01.01.2023
418 Clear 8 1027 42 10000 3 40 13:37 01.01.2023
419 Clear 8 1026 43 10000 2.68 63 12:39 01.01.2023
420 Clear 8 1025 43 10000 2.68 73 11:36 01.01.2023
421 Clear 8 1025 42 10000 3 60 10:35 01.01.2023
422 Clear 9 1025 50 10000 3 20 08:49 01.01.2023
423 Clear 9 1025 51 10000 2.68 77 08:18 01.01.2023
424 Clear 10 1022 51 10000 1 0 06:58 01.01.2023
425 Clouds 6 1027 58 6000 1.34 60 00:52 01.01.2023
426 Mist 5 1026 63 5000 2 350 23:41 31.12.2022
427 Mist 5 1025 63 5000 1.79 70 22:32 31.12.2022
428 Mist 5 1026 65 5000 1.34 62 21:34 31.12.2022
429 Mist 5 1026 65 5000 1.34 95 20:52 31.12.2022
430 Mist 4 1026 67 5000 0.89 107 19:33 31.12.2022
431 Clouds 4 1027 66 7000 1 360 18:42 31.12.2022
432 Clouds 4 1027 65 7000 1 360 18:18 31.12.2022
433 Clouds 5 1027 63 7000 1.34 98 17:45 31.12.2022
434 Clouds 5 1027 62 7000 1.34 108 16:40 31.12.2022
435 Clouds 5 1027 62 7000 1.79 108 16:19 31.12.2022
436 Clouds 6 1027 60 7000 1.34 118 14:36 31.12.2022
437 Clear 6 1027 57 7000 2 170 13:28 31.12.2022
438 Clear 6 1027 54 10000 3 200 12:39 31.12.2022
439 Clear 6 1027 53 10000 3 200 12:19 31.12.2022
440 Clear 8 1027 47 10000 3 120 11:45 31.12.2022
441 Clear 9 1026 36 10000 2.24 77 10:28 31.12.2022
442 Clear 9 1031 43 10000 3 60 09:52 31.12.2022
443 Clear 10 1031 40 10000 2 60 08:59 31.12.2022
444 Clear 10 1032 40 10000 2 20 06:52 31.12.2022
445 Clear 2 1028 69 8000 1.79 357 00:35 31.12.2022
446 Clear 2 1028 67 8000 2 20 23:44 30.12.2022
447 Clear 2 1028 69 8000 1.34 351 22:41 30.12.2022
448 Clear 2 1027 70 8000 2 10 21:42 30.12.2022
449 Clear 2 1027 70 8000 2 10 21:21 30.12.2022
450 Clear 2 1027 65 10000 0.45 344 18:57 30.12.2022
451 Clear 3 1025 74 10000 0 0 17:35 30.12.2022
452 Clear 3 1025 78 10000 1 190 16:51 30.12.2022
453 Clear 4 1028 64 10000 1.79 79 15:19 30.12.2022
454 Clear 4 1025 62 10000 2 10 13:32 30.12.2022
455 Clear 7 1032 57 10000 3 360 08:39 30.12.2022
456 Clear 7 1028 60 10000 3 350 04:54 30.12.2022
457 Clear 6 1029 60 10000 2 350 02:28 30.12.2022
458 Clear 4 1028 61 10000 3 350 23:46 29.12.2022
459 Clear 4 1028 63 10000 3 340 22:37 29.12.2022
460 Clear 4 1027 65 10000 3 10 21:29 29.12.2022
461 Clear 5 1028 66 10000 4 10 20:53 29.12.2022
462 Clear 4 1028 68 10000 3 20 19:31 29.12.2022
463 Clear 4 1028 68 10000 4 10 17:53 29.12.2022
464 Clear 4 1028 68 10000 3 360 17:27 29.12.2022
465 Clear 5 1029 65 10000 1 20 16:54 29.12.2022
466 Clear 5 1029 63 10000 3 20 15:57 29.12.2022
467 Clouds 6 1029 59 10000 3 30 13:55 29.12.2022
468 Clear 6 1028 52 10000 3 360 11:57 29.12.2022
469 Clear 7 1027 55 10000 3 10 10:19 29.12.2022
470 Clear 7 1027 52 10000 3 20 05:20 29.12.2022
471 Clear 4 1028 65 10000 2 360 23:29 28.12.2022
472 Clear 5 1027 64 10000 3.13 5 22:20 28.12.2022
473 Clear 5 1027 64 10000 3 10 21:20 28.12.2022
474 Clear 5 1027 64 10000 3 10 20:19 28.12.2022
475 Clear 5 1028 57 10000 3 10 18:47 28.12.2022
476 Clear 6 1028 59 10000 3 10 16:22 28.12.2022
477 Clear 6 1028 59 10000 4 20 14:26 28.12.2022
478 Clouds 7 1027 62 8000 4 10 12:48 28.12.2022
479 Clouds 7 1027 55 6000 4.02 23 11:33 28.12.2022
480 Clouds 8 1026 50 6000 4 350 09:34 28.12.2022
481 Clouds 9 1025 48 7000 4 330 07:43 28.12.2022
482 Clouds 9 1025 48 7000 5 320 06:45 28.12.2022
483 Clouds 6 1026 60 8000 3.13 345 00:57 28.12.2022
484 Clear 6 1025 63 10000 2 340 21:40 27.12.2022
485 Clear 6 1025 61 10000 2 350 19:51 27.12.2022
486 Clear 6 1025 64 10000 2 350 18:27 27.12.2022
487 Clear 6 1025 63 10000 3 360 16:59 27.12.2022
488 Clear 6 1025 61 10000 2.24 17 15:54 27.12.2022
489 Clear 7 1025 55 10000 2 360 14:23 27.12.2022
490 Clear 8 1025 52 10000 2 40 12:23 27.12.2022
491 Clear 9 1024 47 10000 2 10 09:48 27.12.2022
492 Clear 8 1028 48 10000 2 10 09:24 27.12.2022
493 Clouds 8 1028 46 8000 2 10 08:47 27.12.2022
494 Clear 8 1030 44 8000 3 20 04:54 27.12.2022
495 Clear 4 1025 58 10000 2.24 352 23:29 26.12.2022
496 Clear 5 1024 55 10000 2 350 21:41 26.12.2022
497 Clear 4 1024 54 10000 3 340 20:43 26.12.2022
498 Clear 4 1024 53 10000 2 320 19:37 26.12.2022
499 Clear 4 1024 56 10000 2 340 18:41 26.12.2022
500 Clear 5 1024 54 10000 2 360 16:38 26.12.2022
501 Clear 5 1024 52 10000 3 360 15:25 26.12.2022
502 Clear 5 1024 57 10000 3 340 12:55 26.12.2022
503 Clear 6 1023 48 10000 4 330 09:44 26.12.2022
504 Clear 6 1023 59 10000 3.13 329 02:53 26.12.2022
505 Clear 2 1023 71 10000 2.24 334 23:38 25.12.2022
506 Clear 2 1023 70 10000 2.24 329 22:42 25.12.2022
507 Clear 2 1023 69 10000 2.68 324 21:50 25.12.2022
508 Clear 2 1023 67 10000 1.79 320 19:28 25.12.2022
509 Clear 2 1023 66 10000 1.79 332 17:52 25.12.2022
510 Clear 2 1023 63 10000 1 0 17:34 25.12.2022
511 Clear 3 1023 62 10000 2.24 344 16:19 25.12.2022
512 Clear 3 1023 60 10000 3.13 4 13:23 25.12.2022
513 Clear 5 1022 49 10000 3 10 10:59 25.12.2022
514 Clear 4 1029 49 10000 4 330 02:57 25.12.2022
515 Clear 0 1023 54 10000 4.02 311 22:29 24.12.2022
516 Clear 0 1023 49 10000 4.02 307 19:52 24.12.2022
517 Clear 1 1022 46 10000 4 320 16:51 24.12.2022
518 Clear 2 1022 44 10000 5 360 14:55 24.12.2022
519 Clear 2 1022 47 10000 4 330 13:35 24.12.2022
520 Clear 3 1022 45 10000 5 340 11:29 24.12.2022
521 Clear 4 1021 36 10000 6 330 10:22 24.12.2022
522 Clear 4 1026 36 10000 7 340 09:37 24.12.2022
523 Clear 5 1026 36 10000 7 320 07:24 24.12.2022
524 Clear 3 1023 38 10000 7 330 02:50 24.12.2022
525 Clear 0 1021 44 10000 4.92 322 23:47 23.12.2022
526 Clear 0 1021 45 10000 4.47 319 22:29 23.12.2022
527 Clear 1 1020 41 10000 4.02 315 20:42 23.12.2022
528 Clear 1 1020 40 10000 4.02 317 19:39 23.12.2022
529 Clear 1 1020 40 10000 4.02 318 19:21 23.12.2022
530 Clear 1 1020 40 10000 3.58 318 18:46 23.12.2022
531 Clear 1 1020 38 10000 2 340 18:20 23.12.2022
532 Clear 1 1021 37 10000 3 350 16:35 23.12.2022
533 Clear 1 1021 30 10000 4.02 331 15:42 23.12.2022
534 Clear 3 1019 31 10000 3 330 11:58 23.12.2022
535 Clear 4 1024 31 10000 5 320 09:37 23.12.2022
536 Clear 4 1024 31 10000 6 310 08:45 23.12.2022
537 Clear 3 1024 28 10000 6 320 07:18 23.12.2022
538 Clear 3 1024 29 10000 6 320 06:39 23.12.2022
539 Clear -1 1019 38 10000 5 310 23:23 22.12.2022
540 Clear -1 1019 37 10000 5.36 320 22:57 22.12.2022
541 Clear -1 1018 34 10000 4 310 21:23 22.12.2022
542 Clear 0 1019 35 10000 5 330 19:26 22.12.2022
543 Clear 0 1019 31 10000 6.71 324 18:41 22.12.2022
544 Clear 0 1019 33 10000 6.26 322 17:23 22.12.2022
545 Clear 0 1019 33 10000 6.26 322 17:23 22.12.2022
546 Clear 1 1019 31 10000 6 330 16:38 22.12.2022
547 Clear 1 1019 29 10000 8 320 15:34 22.12.2022
548 Clear 1 1018 28 10000 8 330 14:51 22.12.2022
549 Clear 2 1018 33 10000 6 340 13:33 22.12.2022
550 Clear 3 1017 32 10000 7 320 12:46 22.12.2022
551 Clear 4 1015 31 10000 7 320 10:44 22.12.2022
552 Clear 4 1015 31 10000 7 320 10:21 22.12.2022
553 Clear 5 1014 29 10000 11 300 09:20 22.12.2022
554 Clear 5 1019 35 10000 8 320 08:25 22.12.2022
555 Clear 6 1019 34 10000 9 320 05:27 22.12.2022
556 Clear 6 1015 31 10000 9 320 04:18 22.12.2022
557 Clear 5 1009 56 10000 5.36 269 22:57 21.12.2022
558 Clear 5 1009 58 10000 2.68 231 21:57 21.12.2022
559 Clear 5 1009 56 10000 2.68 230 21:22 21.12.2022
560 Clear 5 1010 57 10000 1.79 218 20:49 21.12.2022
561 Clear 5 1010 57 10000 2 210 19:59 21.12.2022
562 Clear 5 1010 58 10000 1 190 19:41 21.12.2022
563 Clear 5 1010 59 10000 1 190 19:22 21.12.2022
564 Clear 5 1010 51 10000 1 0 18:44 21.12.2022
565 Clear 5 1010 51 10000 1 0 18:44 21.12.2022
566 Clear 5 1010 47 10000 1.34 349 17:35 21.12.2022
567 Clear 6 1011 48 10000 2.68 316 14:32 21.12.2022
568 Clear 7 1011 44 10000 3.58 314 12:49 21.12.2022
569 Clear 8 1011 41 10000 4.47 313 11:41 21.12.2022
570 Clear 8 1011 40 10000 4.02 314 11:19 21.12.2022
571 Clear 12 1010 32 10000 8 300 08:52 21.12.2022
572 Clear 11 1015 40 10000 9 290 06:59 21.12.2022
573 Clear 6 1012 65 10000 4.92 275 00:32 21.12.2022
574 Clear 7 1012 67 10000 3 260 22:38 20.12.2022
575 Clouds 7 1012 69 10000 4.47 263 21:18 20.12.2022
576 Clouds 7 1013 69 10000 6 230 20:18 20.12.2022
577 Clouds 8 1013 71 10000 4.47 260 18:49 20.12.2022
578 Clouds 8 1014 72 10000 4.47 259 18:26 20.12.2022
579 Clouds 8 1013 72 10000 4.47 259 18:26 20.12.2022
580 Clouds 8 1014 72 10000 3.13 253 17:51 20.12.2022
581 Clouds 9 1014 71 10000 3.13 266 17:26 20.12.2022
582 Rain 9 1015 70 10000 3 310 16:32 20.12.2022
583 Clear 9 1014 70 10000 1.79 165 14:57 20.12.2022
584 Clear 10 1014 69 10000 2 150 14:36 20.12.2022
585 Clear 10 1014 68 10000 2 130 13:52 20.12.2022
586 Clear 10 1015 65 10000 2 150 12:40 20.12.2022
587 Clear 10 1015 62 10000 2.24 158 11:55 20.12.2022
588 Clear 11 1014 60 10000 4 170 10:42 20.12.2022
589 Clear 13 1020 50 10000 6 170 07:31 20.12.2022
590 Clear 3 1020 62 10000 1.79 113 00:20 20.12.2022
591 Clear 4 1019 61 10000 2.68 128 22:36 19.12.2022
592 Clear 3 1019 59 10000 2.24 120 21:30 19.12.2022
593 Clear 4 1020 58 10000 2.24 130 19:42 19.12.2022
594 Clear 4 1020 57 10000 2.24 130 18:59 19.12.2022
595 Clear 4 1020 47 10000 2.24 134 17:58 19.12.2022
596 Clear 4 1021 49 10000 2.24 139 16:20 19.12.2022
597 Clear 5 1021 45 10000 2.68 144 13:20 19.12.2022
598 Clear 6 1021 41 10000 3 150 11:46 19.12.2022
599 Clear 9 1024 35 10000 1 0 08:23 19.12.2022
600 Clear 8 1025 36 10000 2 0 06:58 19.12.2022
601 Clear 2 1019 52 10000 1 160 00:50 19.12.2022
602 Clear 1 1021 50 10000 1.79 217 21:49 18.12.2022
603 Clear 0 1021 50 10000 1.79 216 21:31 18.12.2022
604 Clear 0 1021 48 10000 1.79 208 20:54 18.12.2022
605 Clear 0 1021 45 10000 1.79 209 19:44 18.12.2022
606 Clear 0 1021 45 10000 1.79 206 18:59 18.12.2022
607 Clear 0 1022 46 10000 1.79 210 17:52 18.12.2022
608 Clear 1 1023 43 10000 1.34 264 15:43 18.12.2022
609 Clear 1 1023 43 10000 1.34 265 15:24 18.12.2022
610 Clear 1 1022 40 10000 2 140 14:58 18.12.2022
611 Clear 1 1023 37 10000 2 190 13:29 18.12.2022
612 Clear 2 1023 36 10000 2.68 290 12:50 18.12.2022
613 Clear 2 1023 33 10000 3.13 297 11:49 18.12.2022
614 Clear 4 1028 33 10000 5 280 09:36 18.12.2022
615 Clear 4 1028 31 10000 5 300 08:46 18.12.2022
616 Clear 3 1029 30 10000 7 290 06:41 18.12.2022
617 Clear 3 1029 30 10000 7 290 06:18 18.12.2022
618 Clear 0 1027 36 10000 5 280 01:53 18.12.2022
619 Clear -2 1027 38 10000 4.02 293 22:57 17.12.2022
620 Clear -2 1028 31 10000 5 310 20:46 17.12.2022
621 Clear -1 1029 38 10000 6 320 17:21 17.12.2022
622 Clear 0 1030 37 10000 7 310 15:32 17.12.2022
623 Clear 1 1030 37 10000 8 320 13:18 17.12.2022
624 Clear 2 1028 37 10000 8 330 11:19 17.12.2022
625 Clear 2 1028 35 10000 9 320 10:40 17.12.2022
626 Clear 4 1027 36 10000 8 320 08:37 17.12.2022
627 Clear 4 1032 44 10000 8 330 06:47 17.12.2022
628 Clear 5 1026 35 10000 8 330 04:41 17.12.2022
629 Clouds 3 1028 67 10000 8 330 22:53 16.12.2022
630 Clouds 4 1027 73 10000 6 340 20:27 16.12.2022
631 Clouds 5 1026 75 10000 7 340 18:22 16.12.2022
632 Clouds 6 1026 70 10000 6 350 15:28 16.12.2022
633 Clouds 6 1026 71 10000 7 360 14:36 16.12.2022
634 Rain 7 1024 72 10000 7 360 12:38 16.12.2022
635 Clouds 8 1024 72 10000 7 10 11:56 16.12.2022
636 Clouds 9 1022 71 10000 8 10 09:40 16.12.2022
637 Clouds 10 1021 65 10000 6 30 08:39 16.12.2022
638 Clouds 10 1020 63 10000 6 30 07:54 16.12.2022
639 Clear 11 1022 62 10000 4 20 02:43 16.12.2022
640 Clear 9 1019 66 10000 5 40 22:33 15.12.2022
641 Clear 10 1019 69 10000 4 20 21:30 15.12.2022
642 Clear 10 1019 67 10000 2.68 47 19:46 15.12.2022
643 Clear 10 1019 66 10000 2 70 18:53 15.12.2022
644 Clear 9 1019 64 10000 2 50 17:27 15.12.2022
645 Clear 9 1019 59 10000 2 70 15:46 15.12.2022
646 Clear 9 1019 57 10000 2 60 14:55 15.12.2022
647 Clear 10 1018 48 10000 2 100 12:51 15.12.2022
648 Clear 10 1018 46 10000 3 120 12:22 15.12.2022
649 Clear 11 1021 46 10000 4 150 08:55 15.12.2022
650 Clear 11 1021 46 10000 3.58 134 08:18 15.12.2022
651 Clear 11 1023 49 10000 2 0 05:43 15.12.2022
652 Clear 4 1020 60 10000 1.34 129 22:40 14.12.2022
653 Clear 4 1020 58 10000 1.34 124 21:24 14.12.2022
654 Clear 4 1021 51 10000 0.89 133 20:36 14.12.2022
655 Clear 3 1021 51 10000 1.34 149 19:51 14.12.2022
656 Clear 5 1022 48 10000 2 140 16:58 14.12.2022
657 Clear 5 1023 47 10000 2 140 16:38 14.12.2022
658 Clear 4 1023 39 10000 1.34 72 14:50 14.12.2022
659 Clear 5 1023 40 10000 3 10 12:56 14.12.2022
660 Clear 6 1023 38 10000 2.24 5 10:45 14.12.2022
661 Clear 7 1023 34 10000 3 360 10:21 14.12.2022
662 Clear 7 1030 38 10000 2 20 06:28 14.12.2022
663 Clear 5 1026 55 10000 4 360 21:57 13.12.2022
664 Clear 5 1026 55 10000 4 360 21:36 13.12.2022
665 Clear 6 1026 50 10000 6 360 20:47 13.12.2022
666 Clear 6 1025 49 10000 5 360 18:55 13.12.2022
667 Clear 7 1025 48 10000 5.36 346 16:31 13.12.2022
668 Clear 8 1024 47 10000 3 10 14:57 13.12.2022
669 Clear 9 1023 42 10000 4.92 341 13:31 13.12.2022
670 Clear 11 1020 38 10000 4.47 331 10:41 13.12.2022
671 Clear 11 1019 38 10000 4.92 329 09:47 13.12.2022
672 Clear 11 1024 41 10000 4 320 07:53 13.12.2022
673 Clear 4 1020 62 10000 2.24 296 22:36 12.12.2022
674 Clear 4 1019 62 10000 2.24 299 21:57 12.12.2022
675 Clear 5 1020 61 10000 3.13 312 19:33 12.12.2022
676 Clear 5 1020 61 10000 3.58 305 17:52 12.12.2022
677 Clear 6 1020 63 10000 3.13 308 15:29 12.12.2022
678 Clear 7 1020 55 10000 4.02 309 13:20 12.12.2022
679 Clear 10 1018 45 10000 6 290 09:20 12.12.2022
680 Clear 9 1023 47 10000 6 310 08:54 12.12.2022
681 Clear 9 1021 55 10000 5 330 03:53 12.12.2022
682 Clear 7 1020 67 10000 5 320 00:18 12.12.2022
683 Clear 6 1019 67 10000 4 360 22:18 11.12.2022
684 Clear 7 1019 66 10000 4 330 20:29 11.12.2022
685 Clear 7 1020 65 10000 3 330 19:37 11.12.2022
686 Clear 7 1020 63 10000 3 330 18:29 11.12.2022
687 Clear 7 1020 60 10000 5 360 17:33 11.12.2022
688 Clear 8 1020 60 10000 4 350 16:52 11.12.2022
689 Clear 8 1021 59 10000 4 330 15:56 11.12.2022
690 Clear 8 1021 59 10000 4 330 15:35 11.12.2022
691 Clear 8 1021 58 10000 4 340 13:33 11.12.2022
692 Clouds 8 1020 57 10000 4 360 12:40 11.12.2022
693 Clouds 9 1020 53 10000 5 20 09:47 11.12.2022
694 Clear 7 1020 68 10000 6 350 00:39 11.12.2022
695 Clear 7 1020 68 10000 6 350 00:21 11.12.2022
696 Clear 7 1019 70 10000 6 350 22:33 10.12.2022
697 Clouds 8 1019 72 7000 8 350 21:26 10.12.2022
698 Clouds 9 1019 71 6000 7 340 20:41 10.12.2022
699 Mist 9 1019 70 4000 7 350 19:55 10.12.2022
700 Mist 9 1019 70 4000 7 350 19:55 10.12.2022
701 Mist 9 1019 70 4000 7 350 19:55 10.12.2022
702 Mist 10 1019 74 2800 6 350 17:18 10.12.2022
703 Mist 10 1019 74 3000 6 360 16:36 10.12.2022
704 Mist 10 1018 70 4000 7 360 15:39 10.12.2022
705 Mist 10 1018 71 4000 7 350 14:59 10.12.2022
706 Mist 11 1016 74 5000 5 360 12:55 10.12.2022
707 Mist 11 1016 74 5000 5 360 12:55 10.12.2022
708 Mist 11 1015 77 5000 4 320 11:49 10.12.2022
709 Mist 11 1015 82 4500 5.36 325 10:45 10.12.2022
710 Mist 12 1014 81 3000 6 320 09:38 10.12.2022
711 Clouds 12 1013 79 6000 4.02 311 07:20 10.12.2022
712 Mist 11 1015 86 2000 4.02 300 01:58 10.12.2022
713 Fog 11 1014 86 1300 3 280 23:20 09.12.2022
714 Mist 11 1014 86 1500 3 280 22:40 09.12.2022
715 Mist 11 1014 86 3000 3 290 21:26 09.12.2022
716 Mist 11 1014 86 4000 2 310 20:42 09.12.2022
717 Clouds 11 1014 86 6000 3 280 18:59 09.12.2022
718 Clouds 11 1014 86 7000 3 280 17:55 09.12.2022
719 Mist 11 1015 86 5000 3 280 16:32 09.12.2022
720 Mist 11 1015 87 5000 3 280 15:45 09.12.2022
721 Clouds 11 1015 86 7000 1 250 15:18 09.12.2022
722 Clouds 13 1014 85 7000 2 260 11:34 09.12.2022
723 Clouds 13 1014 85 7000 2 240 10:35 09.12.2022
724 Mist 13 1014 85 5000 1.34 58 08:42 09.12.2022
725 Mist 13 1016 86 2500 2 290 03:19 09.12.2022
726 Mist 13 1015 84 5000 2 360 00:25 09.12.2022
727 Clouds 13 1015 80 10000 2.24 56 21:54 08.12.2022
728 Clouds 14 1015 79 10000 2 340 20:21 08.12.2022
729 Clear 13 1016 78 10000 2.24 77 17:32 08.12.2022
730 Clear 13 1017 68 10000 3 120 14:52 08.12.2022
731 Clear 13 1017 74 10000 2 110 14:24 08.12.2022
732 Clear 13 1017 74 10000 2.24 90 11:18 08.12.2022
733 Clouds 13 1016 77 10000 3.58 101 09:51 08.12.2022
734 Clouds 13 1017 78 10000 3.58 101 09:21 08.12.2022
735 Clear 11 1019 75 10000 1.79 91 23:56 07.12.2022
736 Clear 10 1019 74 10000 2 330 22:19 07.12.2022
737 Clear 10 1018 73 10000 2 340 21:48 07.12.2022
738 Clear 10 1018 73 10000 1.34 129 20:36 07.12.2022
739 Clear 10 1019 72 10000 2.24 124 19:24 07.12.2022
740 Clear 11 1020 65 10000 1.79 119 16:21 07.12.2022
741 Clear 11 1020 62 10000 2 100 14:40 07.12.2022
742 Clear 12 1020 55 10000 3 100 11:38 07.12.2022
743 Clear 12 1020 55 10000 3.13 86 10:38 07.12.2022
744 Clear 12 1020 53 10000 4 110 09:37 07.12.2022
745 Clear 13 1019 51 10000 2 100 08:44 07.12.2022
746 Clear 12 1026 50 10000 4 90 05:28 07.12.2022
747 Clear 11 1027 47 10000 4 60 03:55 07.12.2022
748 Clear 7 1020 76 10000 1.34 66 22:35 06.12.2022
749 Clear 7 1020 75 10000 1 60 19:45 06.12.2022
750 Clear 8 1021 70 10000 1 120 17:30 06.12.2022
751 Clear 8 1021 61 10000 1 80 16:38 06.12.2022
752 Clear 8 1022 66 10000 1.34 128 15:38 06.12.2022
753 Clear 8 1022 64 10000 1.34 112 14:55 06.12.2022
754 Clear 8 1022 56 10000 1.34 113 14:23 06.12.2022
755 Clear 9 1021 59 10000 1.79 72 12:42 06.12.2022
756 Clear 9 1021 56 10000 2 40 11:59 06.12.2022
757 Clear 11 1025 46 10000 2.68 19 07:51 06.12.2022
758 Clear 11 1025 46 10000 2.68 19 07:51 06.12.2022
759 Clear 8 1028 51 10000 2 0 03:26 06.12.2022
760 Clear 5 1023 77 10000 1.79 358 00:50 06.12.2022
761 Clear 5 1022 77 10000 2.68 359 22:22 05.12.2022
762 Clear 5 1022 75 10000 2.68 356 20:55 05.12.2022
763 Clear 5 1022 76 10000 2.24 356 20:23 05.12.2022
764 Clear 5 1023 76 10000 2.68 359 19:42 05.12.2022
765 Clear 6 1023 74 10000 2.68 358 16:56 05.12.2022
766 Clear 7 1023 71 10000 3 350 15:39 05.12.2022
767 Clear 7 1023 70 10000 3.13 350 14:56 05.12.2022
768 Clear 8 1023 71 10000 4 360 12:58 05.12.2022
769 Clear 8 1023 71 10000 5 10 12:38 05.12.2022
770 Clear 9 1023 70 10000 5 10 11:45 05.12.2022
771 Clouds 9 1023 66 10000 6 10 09:32 05.12.2022
772 Clouds 7 1024 81 10000 5 340 00:19 05.12.2022
773 Clouds 7 1024 80 10000 5 330 22:44 04.12.2022
774 Clouds 7 1024 80 10000 5 330 22:20 04.12.2022
775 Clouds 7 1024 80 10000 5 330 21:39 04.12.2022
776 Clouds 8 1024 80 10000 5 340 20:26 04.12.2022
777 Clouds 7 1023 79 10000 5 360 19:24 04.12.2022
778 Clouds 8 1023 79 10000 6 360 18:37 04.12.2022
779 Clouds 8 1024 77 10000 6 10 17:22 04.12.2022
780 Clouds 8 1024 76 10000 6 10 16:37 04.12.2022
781 Clouds 8 1024 76 10000 6 10 16:19 04.12.2022
782 Clouds 8 1024 73 10000 7 20 15:31 04.12.2022
783 Clouds 8 1024 73 10000 6 40 14:43 04.12.2022
784 Clouds 9 1024 72 10000 7 40 12:59 04.12.2022
785 Clouds 9 1024 70 10000 6 30 12:40 04.12.2022
786 Clouds 9 1023 69 10000 7 40 11:35 04.12.2022
787 Clouds 9 1022 68 10000 7 40 09:19 04.12.2022
788 Mist 10 1023 82 5000 5 40 02:52 04.12.2022
789 Clouds 10 1021 77 10000 6.26 20 23:44 03.12.2022
790 Clouds 10 1020 78 10000 4 20 22:47 03.12.2022
791 Clouds 10 1020 82 10000 6 20 21:53 03.12.2022
792 Clouds 10 1020 83 8000 7 10 20:46 03.12.2022
793 Clouds 10 1019 85 8000 7 10 18:57 03.12.2022
794 Clouds 10 1019 85 6000 6 360 18:31 03.12.2022
795 Mist 10 1019 83 3000 7 360 15:52 03.12.2022
796 Mist 10 1019 85 3000 5 360 13:46 03.12.2022
797 Mist 9 1019 84 3000 4 340 12:51 03.12.2022
798 Mist 9 1019 84 3000 4.47 3 12:18 03.12.2022
799 Mist 9 1016 83 3000 5 360 09:28 03.12.2022
800 Fog 9 1019 82 900 5 350 04:18 03.12.2022
801 Mist 8 1018 82 3000 1 330 00:20 03.12.2022
802 Mist 7 1018 80 5000 1.34 11 21:59 02.12.2022
803 Mist 6 1020 78 5000 3 330 19:50 02.12.2022
804 Clouds 8 1020 70 10000 2 330 17:30 02.12.2022
805 Clear 8 1020 65 10000 3 300 15:57 02.12.2022
806 Clear 8 1020 65 10000 2 310 14:36 02.12.2022
807 Clear 8 1020 64 10000 2 310 14:18 02.12.2022
808 Clear 8 1021 62 10000 1.34 110 11:57 02.12.2022
809 Clear 8 1021 61 10000 2 10 10:35 02.12.2022
810 Clear 8 1021 59 10000 4 330 07:51 02.12.2022
811 Clear 8 1021 59 10000 3 340 07:22 02.12.2022
812 Clear 3 1025 57 10000 4.02 328 22:51 01.12.2022
813 Clear 3 1026 55 10000 4 330 21:42 01.12.2022
814 Clear 4 1026 55 10000 4 320 20:48 01.12.2022
815 Rain 4 1026 54 10000 4.47 328 18:59 01.12.2022
816 Clouds 4 1024 63 10000 3 310 17:21 01.12.2022
817 Clouds 3 1028 65 10000 3 320 14:32 01.12.2022
818 Clear 4 1027 58 10000 5 320 11:20 01.12.2022
819 Clouds 4 1026 58 10000 5 330 09:54 01.12.2022
820 Clouds 4 1026 58 10000 5 330 09:36 01.12.2022
821 Clear 5 1026 56 10000 5 330 06:38 01.12.2022
822 Clouds 3 1027 70 10000 5 330 22:41 30.11.2022
823 Clouds 3 1027 65 10000 4 320 21:45 30.11.2022
824 Rain 3 1027 64 10000 5 320 21:18 30.11.2022
825 Clouds 3 1028 64 10000 5 320 20:23 30.11.2022
826 Clouds 4 1028 62 10000 6 340 18:39 30.11.2022
827 Clouds 4 1028 64 10000 6 340 18:21 30.11.2022
828 Clouds 4 1028 61 10000 5 340 16:26 30.11.2022
829 Clouds 4 1029 70 10000 6 330 14:45 30.11.2022
830 Clouds 4 1029 71 10000 5.36 345 14:25 30.11.2022
831 Clouds 4 1026 79 10000 4 310 11:58 30.11.2022
832 Clouds 4 1034 81 10000 6 330 09:21 30.11.2022
833 Clouds 4 1034 81 10000 6 330 09:21 30.11.2022
834 Clouds 3 1034 87 10000 6 320 07:59 30.11.2022
835 Clouds 5 1026 77 10000 7 330 04:57 30.11.2022
836 Clouds 4 1026 81 10000 6 320 23:26 29.11.2022
837 Clouds 5 1027 78 10000 9 340 21:48 29.11.2022
838 Clouds 6 1027 75 10000 8 340 20:50 29.11.2022
839 Clouds 7 1026 75 10000 10 360 19:46 29.11.2022
840 Clouds 8 1024 72 10000 7 340 17:52 29.11.2022
841 Clouds 8 1024 77 10000 8 360 16:29 29.11.2022
842 Clouds 9 1023 78 10000 10 10 15:21 29.11.2022
843 Clouds 9 1022 73 10000 8 360 13:49 29.11.2022
844 Clouds 10 1021 73 10000 10 10 12:36 29.11.2022
845 Clouds 11 1019 72 10000 12 20 11:30 29.11.2022
846 Clouds 12 1017 68 10000 10 20 10:23 29.11.2022
847 Clouds 12 1015 73 10000 9 360 08:43 29.11.2022
848 Mist 13 1014 83 5000 9 350 05:52 29.11.2022
849 Rain 15 1010 85 7000 10 10 23:38 28.11.2022
850 Rain 15 1009 85 7000 10 10 23:19 28.11.2022
851 Rain 16 1008 85 10000 7 360 21:55 28.11.2022
852 Clouds 16 1008 85 10000 7 360 21:36 28.11.2022
853 Mist 17 1008 86 4000 7 10 20:19 28.11.2022
854 Clouds 18 1007 87 10000 4.02 285 18:39 28.11.2022
855 Clouds 18 1007 87 10000 4.47 283 17:51 28.11.2022
856 Clouds 18 1006 85 10000 5 290 16:57 28.11.2022
857 Clouds 19 1006 88 10000 4.47 271 14:28 28.11.2022
858 Clouds 19 1006 88 10000 3 240 13:52 28.11.2022
859 Clouds 19 1005 89 10000 4.02 257 12:42 28.11.2022
860 Clouds 20 1003 90 10000 3.13 244 10:29 28.11.2022
861 Clouds 20 1002 89 10000 6 170 07:52 28.11.2022
862 Clouds 22 1004 83 10000 7 170 04:44 28.11.2022
863 Clouds 21 1005 82 10000 7 160 03:59 28.11.2022
864 Clouds 21 1006 81 10000 7 150 03:18 28.11.2022
865 Clouds 18 1007 82 10000 6 150 22:47 27.11.2022
866 Clear 18 1007 83 10000 5 160 21:42 27.11.2022
867 Clouds 18 1007 83 10000 6 150 20:26 27.11.2022
868 Clear 18 1008 83 10000 4.47 166 17:49 27.11.2022
869 Clear 18 1008 83 10000 5.81 153 15:20 27.11.2022
870 Clear 18 1007 80 10000 4 160 12:41 27.11.2022
871 Clear 19 1006 75 10000 5 160 10:50 27.11.2022
872 Clear 20 1007 72 10000 7.15 158 08:19 27.11.2022
873 Mist 16 1011 84 5000 4.47 144 00:42 27.11.2022
874 Clouds 15 1011 81 6000 4.02 146 22:22 26.11.2022
875 Clouds 15 1011 81 6000 3.13 129 20:51 26.11.2022
876 Clear 15 1012 80 6000 3.13 125 19:23 26.11.2022
877 Clear 15 1012 83 8000 3.13 118 17:29 26.11.2022
878 Clear 15 1013 79 10000 1 150 15:39 26.11.2022
879 Clear 16 1013 68 10000 2 90 13:31 26.11.2022
880 Clear 17 1013 64 10000 4.02 63 11:36 26.11.2022
881 Clear 19 1012 60 10000 4 50 09:45 26.11.2022
882 Clouds 19 1017 69 10000 4.02 34 08:49 26.11.2022
883 Mist 17 1013 83 4000 3.13 331 01:30 26.11.2022
884 Clouds 15 1011 83 7000 2.24 325 21:42 25.11.2022
885 Clouds 15 1011 83 7000 2.24 325 21:20 25.11.2022
886 Clear 16 1011 83 10000 2.24 330 19:48 25.11.2022
887 Clear 17 1011 74 10000 1.79 269 16:43 25.11.2022
888 Rain 18 1010 74 10000 2.24 185 13:50 25.11.2022
889 Clear 20 1009 69 10000 2 240 09:20 25.11.2022
890 Clear 21 1009 68 10000 2 0 08:40 25.11.2022
891 Clouds 21 1009 67 10000 3 210 06:53 25.11.2022
892 Clouds 18 1013 73 10000 4.02 154 02:31 25.11.2022
893 Clear 15 1013 75 10000 2.68 124 23:47 24.11.2022
894 Clear 15 1013 74 10000 3 140 22:42 24.11.2022
895 Clear 15 1013 74 10000 3 150 21:45 24.11.2022
896 Clear 14 1014 77 10000 2.24 127 19:49 24.11.2022
897 Clear 15 1015 67 10000 2.68 126 17:48 24.11.2022
898 Clear 15 1015 68 10000 2.68 127 17:24 24.11.2022
899 Clear 15 1015 65 10000 2.68 121 16:50 24.11.2022
900 Clear 15 1015 70 10000 2.68 116 14:26 24.11.2022
901 Clear 16 1015 70 10000 2.68 121 13:19 24.11.2022
902 Clear 17 1015 64 10000 3.13 104 11:38 24.11.2022
903 Clear 19 1019 60 10000 3 140 08:59 24.11.2022
904 Clear 18 1019 58 10000 3 110 06:22 24.11.2022
905 Clouds 15 1015 76 10000 1.79 59 00:41 24.11.2022
906 Clear 14 1015 78 10000 1.79 53 23:32 23.11.2022
907 Clear 14 1015 81 10000 1.34 35 21:48 23.11.2022
908 Clear 14 1015 81 10000 1.34 32 20:51 23.11.2022
909 Clear 14 1015 82 10000 2 350 19:34 23.11.2022
910 Clear 14 1015 82 10000 2.24 35 18:55 23.11.2022
911 Clear 14 1015 81 10000 2.24 37 17:29 23.11.2022
912 Clear 15 1016 75 10000 3.13 33 13:42 23.11.2022
913 Clear 15 1016 69 10000 3.13 34 13:23 23.11.2022
914 Clear 16 1016 71 10000 3.58 38 12:23 23.11.2022
915 Clear 16 1016 70 10000 2 50 11:45 23.11.2022
916 Clear 16 1015 67 10000 3.13 47 10:48 23.11.2022
917 Clouds 18 1015 60 10000 3.13 45 09:57 23.11.2022
918 Clouds 18 1015 67 10000 3.13 46 09:27 23.11.2022
919 Clouds 18 1014 67 10000 3 60 08:58 23.11.2022
920 Clouds 18 1015 69 10000 3.58 42 08:35 23.11.2022
921 Clouds 18 1020 61 10000 4 10 05:19 23.11.2022
922 Clouds 15 1016 81 8000 4 340 01:21 23.11.2022
923 Clouds 15 1014 78 8000 3.13 331 22:37 22.11.2022
924 Clouds 15 1013 84 8000 4.02 330 21:34 22.11.2022
925 Clouds 15 1013 83 8000 4.92 336 20:51 22.11.2022
926 Clouds 15 1013 83 8000 4.92 336 20:30 22.11.2022
927 Clouds 15 1013 83 10000 5 330 19:44 22.11.2022
928 Clouds 15 1012 82 10000 6 340 17:48 22.11.2022
929 Clouds 15 1012 84 10000 6 340 16:32 22.11.2022
930 Clouds 16 1012 84 10000 7.15 335 14:31 22.11.2022
931 Clouds 16 1010 75 10000 5 280 12:30 22.11.2022
932 Clouds 17 1009 80 8000 6 280 09:28 22.11.2022
933 Clouds 18 1008 81 7000 6 280 07:59 22.11.2022
934 Clouds 18 1008 82 6000 4 240 06:38 22.11.2022
935 Rain 17 1010 85 4000 4 30 23:42 21.11.2022
936 Rain 17 1011 84 5000 3 50 22:51 21.11.2022
937 Clouds 17 1011 82 6000 5 340 22:20 21.11.2022
938 Clear 17 1010 79 10000 3 110 21:30 21.11.2022
939 Clear 18 1011 80 10000 5 140 19:49 21.11.2022
940 Clear 17 1011 80 10000 4 130 19:31 21.11.2022
941 Clear 17 1011 80 10000 4 130 19:31 21.11.2022
942 Clear 17 1011 80 10000 4 130 19:31 21.11.2022
943 Clear 17 1011 80 10000 4 130 18:46 21.11.2022
944 Clear 17 1013 81 10000 2.24 158 16:59 21.11.2022
945 Clear 17 1013 80 10000 2.68 163 16:40 21.11.2022
946 Clear 18 1013 79 10000 3.13 120 15:54 21.11.2022
947 Clear 17 1013 80 10000 3.13 118 15:23 21.11.2022
948 Clear 18 1013 79 10000 3 140 13:52 21.11.2022
949 Clear 19 1013 75 10000 4 140 11:41 21.11.2022
950 Clouds 20 1017 72 10000 3 140 09:29 21.11.2022
951 Clouds 21 1016 63 10000 4 120 07:43 21.11.2022
952 Clouds 16 1013 82 7000 2 10 22:51 20.11.2022
953 Clouds 16 1014 81 7000 2 310 21:36 20.11.2022
954 Clouds 16 1014 81 7000 2 260 20:34 20.11.2022
955 Clouds 16 1013 80 7000 1 230 18:57 20.11.2022
956 Clouds 17 1014 77 8000 1 0 16:47 20.11.2022
957 Clouds 17 1014 77 8000 2 350 15:32 20.11.2022
958 Clouds 16 1014 71 8000 2 330 14:54 20.11.2022
959 Clouds 17 1013 70 8000 2.24 314 13:51 20.11.2022
960 Clouds 17 1013 75 10000 3 360 12:51 20.11.2022
961 Clouds 17 1012 67 10000 3.13 334 11:38 20.11.2022
962 Clouds 17 1012 68 10000 3.13 341 10:56 20.11.2022
963 Clouds 18 1012 67 10000 5 330 09:42 20.11.2022
964 Clouds 20 1012 59 10000 5 320 08:47 20.11.2022
965 Clouds 20 1012 58 10000 4 320 07:30 20.11.2022
966 Clouds 20 1012 59 9000 6 290 05:23 20.11.2022
967 Clouds 16 1014 75 6000 4.02 293 01:23 20.11.2022
968 Mist 16 1013 82 5000 3 320 00:42 20.11.2022
969 Mist 16 1013 83 5000 3 320 00:24 20.11.2022
970 Mist 15 1013 83 5000 3.13 290 23:53 19.11.2022
971 Mist 16 1013 83 5000 3.13 290 23:25 19.11.2022
972 Mist 16 1012 78 5000 3.58 296 22:41 19.11.2022
973 Clouds 16 1012 78 6000 3.58 293 21:33 19.11.2022
974 Clouds 16 1012 83 6000 3 340 20:57 19.11.2022
975 Clouds 16 1012 83 6000 3.58 299 20:37 19.11.2022
976 Clouds 16 1012 83 6000 4.02 289 19:25 19.11.2022
977 Mist 17 1013 78 5000 5 330 17:41 19.11.2022
978 Mist 17 1013 79 5000 5 330 17:21 19.11.2022
979 Mist 17 1013 85 5000 4 330 16:28 19.11.2022
980 Mist 18 1012 80 5000 4 300 14:39 19.11.2022
981 Mist 18 1012 82 5000 2.68 286 12:23 19.11.2022
982 Mist 18 1012 86 5000 3 300 10:57 19.11.2022
983 Clouds 19 1011 87 8000 4 290 08:43 19.11.2022
984 Clouds 20 1018 72 10000 3 140 04:59 19.11.2022
985 Clouds 19 1019 81 10000 3 140 02:56 19.11.2022
986 Clouds 18 1014 82 10000 2.24 61 23:46 18.11.2022
987 Clouds 18 1014 82 10000 2.24 60 23:19 18.11.2022
988 Clouds 18 1013 82 10000 3.13 79 21:50 18.11.2022
989 Clouds 18 1013 82 10000 2.68 80 21:30 18.11.2022
990 Clouds 18 1013 82 10000 2.68 69 20:34 18.11.2022
991 Clouds 18 1014 81 10000 2.68 83 19:46 18.11.2022
992 Clouds 18 1014 81 10000 3.13 81 18:38 18.11.2022
993 Clouds 18 1014 76 10000 3.13 88 17:42 18.11.2022
994 Clouds 18 1015 80 10000 4 110 13:57 18.11.2022
995 Clouds 18 1015 82 10000 4.02 83 11:31 18.11.2022
996 Clouds 19 1014 79 10000 3 80 08:46 18.11.2022
997 Clouds 20 1015 77 10000 4 90 07:51 18.11.2022
998 Clouds 20 1020 77 10000 5 90 05:18 18.11.2022
999 Clouds 17 1016 83 10000 3 60 00:46 18.11.2022
1000 Clouds 16 1015 82 10000 2 30 21:30 17.11.2022
1001 Clouds 17 1014 81 10000 3 70 20:46 17.11.2022
1002 Clouds 17 1014 81 10000 4.47 58 19:51 17.11.2022
1003 Clouds 16 1015 81 10000 4.47 61 18:35 17.11.2022
1004 Clouds 16 1015 81 10000 4.02 69 17:32 17.11.2022
1005 Clouds 16 1015 81 10000 4 80 16:48 17.11.2022
1006 Clouds 15 1015 83 10000 4 60 13:33 17.11.2022
1007 Clouds 15 1014 85 10000 5 70 11:21 17.11.2022
1008 Clouds 16 1012 83 10000 5 80 08:20 17.11.2022
1009 Clouds 16 1013 85 7000 4 90 02:54 17.11.2022
1010 Mist 15 1013 86 3500 5.36 73 00:20 17.11.2022
1011 Clouds 15 1012 84 8000 4.02 66 22:28 16.11.2022
1012 Clouds 14 1012 84 10000 4.02 103 20:35 16.11.2022
1013 Clouds 14 1012 85 8000 5 130 19:31 16.11.2022
1014 Clouds 14 1013 85 8000 4.47 114 18:35 16.11.2022
1015 Rain 14 1014 82 8000 4 130 16:37 16.11.2022
1016 Rain 15 1014 76 10000 4.02 113 13:30 16.11.2022
1017 Clouds 18 1014 52 8000 6 140 08:45 16.11.2022
1018 Haze 15 1015 62 4000 1 0 01:54 16.11.2022
1019 Mist 11 1016 74 4000 0.89 26 00:40 16.11.2022
1020 Clear 10 1016 75 7000 0.89 26 21:54 15.11.2022
1021 Clear 11 1016 74 7000 1 20 20:32 15.11.2022
1022 Clouds 11 1016 74 7000 0.89 26 19:18 15.11.2022
1023 Clouds 11 1016 72 8000 1 230 17:38 15.11.2022
1024 Clouds 11 1016 70 8000 2 230 16:52 15.11.2022
1025 Clouds 11 1016 69 8000 1 0 16:18 15.11.2022
1026 Clouds 13 1016 61 8000 1.34 80 14:41 15.11.2022
1027 Clouds 13 1016 57 8000 2 340 12:59 15.11.2022
1028 Clouds 14 1015 53 8000 3 330 11:22 15.11.2022
1029 Clouds 17 1015 49 8000 3 360 09:53 15.11.2022
1030 Clear 15 1016 54 7000 3 320 03:48 15.11.2022
1031 Clouds 12 1015 70 8000 4 340 00:26 15.11.2022
1032 Clear 12 1015 71 10000 3 330 22:52 14.11.2022
1033 Clear 11 1015 71 10000 3 330 20:44 14.11.2022
1034 Clear 11 1015 71 10000 3 330 20:44 14.11.2022
1035 Clear 11 1015 70 10000 3 330 19:47 14.11.2022
1036 Rain 11 1015 70 10000 3 330 18:27 14.11.2022
1037 Clouds 11 1016 71 10000 2.24 356 13:21 14.11.2022
1038 Clouds 12 1016 74 10000 3 330 11:49 14.11.2022
1039 Clouds 12 1016 74 10000 5 340 11:25 14.11.2022
1040 Clear 13 1016 65 10000 5 330 08:34 14.11.2022
1041 Clear 13 1016 65 10000 5 330 08:34 14.11.2022
1042 Clear 13 1016 65 10000 5 330 08:34 14.11.2022
1043 Clear 13 1015 66 10000 4 330 07:52 14.11.2022
1044 Clear 13 1017 64 10000 3.13 331 04:24 14.11.2022
1045 Clear 12 1018 69 10000 4 360 23:23 13.11.2022
1046 Clear 12 1018 68 10000 5 350 21:42 13.11.2022
1047 Clear 13 1018 69 10000 5 350 20:50 13.11.2022
1048 Clear 13 1019 69 10000 4 340 18:55 13.11.2022
1049 Clouds 13 1018 69 10000 4 330 17:50 13.11.2022
1050 Clear 13 1019 68 10000 4 360 15:55 13.11.2022
1051 Clouds 14 1019 67 10000 5 360 14:31 13.11.2022
1052 Clouds 14 1019 67 10000 6 360 12:56 13.11.2022
1053 Clouds 14 1018 68 10000 7 10 11:43 13.11.2022
1054 Clouds 14 1017 69 10000 7 360 10:37 13.11.2022
1055 Clouds 15 1017 72 10000 6 350 05:53 13.11.2022
1056 Clouds 15 1016 80 10000 7 350 23:55 12.11.2022
1057 Clouds 16 1014 83 10000 6 350 21:40 12.11.2022
1058 Clouds 16 1013 81 10000 7 360 20:54 12.11.2022
1059 Mist 18 1013 84 5000 7 340 18:59 12.11.2022
1060 Clouds 21 1012 84 8000 7 330 16:55 12.11.2022
1061 Clouds 23 1011 81 8000 5 330 15:48 12.11.2022
1062 Clear 22 1010 85 10000 5.36 344 13:39 12.11.2022
1063 Clear 26 1008 75 10000 4 200 09:39 12.11.2022
1064 Clear 26 1012 74 10000 5 180 07:48 12.11.2022
1065 Mist 21 1010 88 5000 3 160 23:45 11.11.2022
1066 Clouds 21 1011 89 6000 3 150 20:57 11.11.2022
1067 Clouds 21 1011 88 6000 3 160 20:30 11.11.2022
1068 Clouds 21 1012 88 6000 4 140 19:27 11.11.2022
1069 Clouds 21 1012 87 6000 2 150 18:32 11.11.2022
1070 Clouds 21 1012 87 7000 4 130 17:40 11.11.2022
1071 Clouds 21 1012 87 7000 4 130 17:40 11.11.2022
1072 Clouds 21 1013 86 10000 4.02 130 14:31 11.11.2022
1073 Clouds 21 1014 86 10000 6 130 13:42 11.11.2022
1074 Clouds 21 1013 87 10000 6 130 12:26 11.11.2022
1075 Clouds 22 1013 83 10000 4 130 08:57 11.11.2022
1076 Clouds 22 1013 84 10000 5 130 08:26 11.11.2022
1077 Mist 20 1015 89 3000 3 100 00:31 11.11.2022
1078 Clouds 21 1015 87 6000 2.24 98 22:51 10.11.2022
1079 Clouds 21 1014 86 6000 2.68 95 21:44 10.11.2022
1080 Clouds 21 1014 86 6000 3 100 21:26 10.11.2022
1081 Clouds 21 1014 86 6000 3 100 20:24 10.11.2022
1082 Clouds 21 1014 86 7000 2.24 97 19:56 10.11.2022
1083 Clouds 21 1015 85 8000 3 120 18:45 10.11.2022
1084 Clouds 21 1015 83 10000 3 100 16:55 10.11.2022
1085 Clouds 21 1015 83 10000 4 120 16:25 10.11.2022
1086 Clear 20 1015 84 10000 3 80 13:34 10.11.2022
1087 Clear 24 1013 73 7000 4 80 09:30 10.11.2022
1088 Clouds 26 1017 64 10000 3 70 07:21 10.11.2022
1089 Fog 19 1015 87 900 2 160 00:57 10.11.2022
1090 Mist 18 1014 88 2500 2 150 22:47 09.11.2022
1091 Mist 18 1014 88 2500 2 150 22:47 09.11.2022
1092 Mist 19 1013 88 5000 1.34 150 21:21 09.11.2022
1093 Mist 19 1013 87 5000 2 160 20:40 09.11.2022
1094 Mist 19 1013 88 5000 1.79 129 19:59 09.11.2022
1095 Clear 19 1014 87 6000 1.79 129 19:25 09.11.2022
1096 Clouds 19 1014 87 8000 2.24 136 17:41 09.11.2022
1097 Clear 20 1015 84 10000 4 140 14:56 09.11.2022
1098 Clear 20 1015 84 10000 4 150 14:27 09.11.2022
1099 Clear 20 1015 83 10000 4 130 13:44 09.11.2022
1100 Clear 20 1015 81 10000 3.13 117 12:52 09.11.2022
1101 Clouds 23 1014 71 10000 5 150 09:29 09.11.2022
1102 Clouds 23 1014 71 10000 5 150 07:47 09.11.2022
1103 Clouds 22 1016 75 10000 5 150 04:35 09.11.2022
1104 Clear 16 1016 81 10000 3 110 22:35 08.11.2022
1105 Clear 16 1016 80 10000 2.68 106 21:37 08.11.2022
1106 Clear 16 1016 78 10000 2.68 106 20:54 08.11.2022
1107 Clear 16 1016 76 10000 2.68 106 20:18 08.11.2022
1108 Clear 16 1016 75 10000 3 110 19:24 08.11.2022
1109 Clear 17 1017 75 10000 2.68 116 17:35 08.11.2022
1110 Clear 17 1017 75 10000 3 110 15:32 08.11.2022
1111 Clear 18 1017 74 10000 3.13 116 14:31 08.11.2022
1112 Clear 18 1017 74 10000 3.13 116 14:31 08.11.2022
1113 Clear 18 1017 74 10000 3.13 116 14:31 08.11.2022
1114 Clear 18 1017 73 10000 4 110 13:28 08.11.2022
1115 Clear 19 1017 69 10000 5 100 10:58 08.11.2022
1116 Clear 23 1021 60 10000 5 90 07:39 08.11.2022
1117 Clear 22 1023 60 10000 4 140 04:27 08.11.2022
1118 Clear 15 1017 79 10000 1.79 117 22:56 07.11.2022
1119 Clear 15 1017 77 10000 1.79 114 21:40 07.11.2022
1120 Clear 15 1016 77 10000 1.79 113 20:46 07.11.2022
1121 Clear 15 1017 77 10000 1.79 122 19:37 07.11.2022
1122 Clear 16 1017 75 10000 1.79 132 17:41 07.11.2022
1123 Clear 16 1017 76 10000 2.68 147 15:38 07.11.2022
1124 Clear 17 1017 75 10000 2.68 140 14:55 07.11.2022
1125 Clear 18 1017 70 10000 3.58 137 13:21 07.11.2022
1126 Clear 18 1016 67 10000 3.58 137 12:22 07.11.2022
1127 Clouds 20 1020 66 10000 4 170 09:50 07.11.2022
1128 Clouds 22 1019 61 10000 3 190 08:25 07.11.2022
1129 Clouds 22 1020 61 10000 3.13 155 06:29 07.11.2022
1130 Clear 18 1015 76 10000 4 150 01:43 07.11.2022
1131 Clear 14 1016 77 10000 2.24 129 23:23 06.11.2022
1132 Clear 14 1016 76 10000 2.24 129 21:21 06.11.2022
1133 Clear 14 1016 74 10000 2.24 132 20:43 06.11.2022
1134 Clear 14 1016 74 10000 2.68 134 19:56 06.11.2022
1135 Clear 14 1016 72 10000 2.68 137 18:50 06.11.2022
1136 Clear 14 1016 72 10000 3.13 143 18:20 06.11.2022
1137 Clear 14 1016 71 10000 3.13 142 17:22 06.11.2022
1138 Clear 15 1017 69 10000 3 120 16:53 06.11.2022
1139 Clear 15 1017 69 10000 3 140 15:56 06.11.2022
1140 Clear 15 1017 65 10000 3 130 14:43 06.11.2022
1141 Clear 16 1017 63 10000 3.58 135 12:43 06.11.2022
1142 Clear 17 1016 60 10000 4 150 10:49 06.11.2022
1143 Clear 18 1021 61 10000 4 160 09:51 06.11.2022
1144 Clear 18 1022 51 10000 4.02 98 06:40 06.11.2022
1145 Clear 13 1020 68 10000 1.34 72 23:22 05.11.2022
1146 Clear 13 1020 66 10000 1.34 47 19:59 05.11.2022
1147 Clear 13 1020 65 10000 1.79 50 18:21 05.11.2022
1148 Clear 14 1021 62 10000 2.24 53 16:23 05.11.2022
1149 Clear 14 1021 60 10000 3 40 14:34 05.11.2022
1150 Clear 15 1021 60 10000 3.13 50 13:21 05.11.2022
1151 Clear 17 1020 55 10000 3 40 10:42 05.11.2022
1152 Clear 17 1025 54 10000 4 50 08:49 05.11.2022
1153 Clear 18 1025 54 10000 3 20 07:22 05.11.2022
1154 Clear 17 1025 53 10000 3 20 06:54 05.11.2022
1155 Clear 12 1022 68 10000 3 330 23:36 04.11.2022
1156 Clear 12 1021 67 10000 2.24 354 22:43 04.11.2022
1157 -273 0 0 0 0 0 20:30 04.11.2022
1158 Clouds 12 1021 66 10000 2.68 1 20:28 04.11.2022
1159 Clouds 14 1022 61 10000 3.13 1 17:46 04.11.2022
1160 Clouds 14 1022 60 10000 3 360 17:19 04.11.2022
1161 Clear 14 1022 58 10000 5 10 13:46 04.11.2022
1162 Clouds 14 1022 58 10000 7 20 12:26 04.11.2022
1163 Clouds 15 1021 57 10000 5 20 10:38 04.11.2022
1164 Clouds 18 1025 56 10000 6 20 08:39 04.11.2022
1165 Clouds 17 1025 55 10000 6 20 07:42 04.11.2022
1166 Clouds 16 1021 59 10000 8 40 02:29 04.11.2022
1167 Clouds 16 1018 73 10000 4 360 22:47 03.11.2022
1168 Clouds 15 1018 75 10000 4 30 20:50 03.11.2022
1169 Clouds 15 1018 75 10000 4 30 20:50 03.11.2022
1170 Clouds 15 1017 72 10000 4 340 19:44 03.11.2022
1171 Clouds 15 1017 72 10000 4 340 19:18 03.11.2022
1172 Clear 16 1017 68 10000 3.13 5 17:42 03.11.2022
1173 Clear 16 1017 65 10000 3 330 16:18 03.11.2022
1174 Clouds 16 1017 65 10000 4 20 13:54 03.11.2022
1175 Clear 17 1016 64 10000 4 20 12:35 03.11.2022
1176 Clear 17 1016 63 10000 6 10 11:44 03.11.2022
1177 Clouds 19 1014 54 10000 6 20 09:18 03.11.2022
1178 Clouds 20 1013 56 10000 6 20 07:24 03.11.2022
1179 Clear 14 1013 76 10000 2 10 21:24 02.11.2022
1180 Clear 14 1013 74 10000 2 360 20:34 02.11.2022
1181 Clear 15 1013 74 10000 2 350 19:47 02.11.2022
1182 Clear 16 1014 69 10000 1.79 87 16:34 02.11.2022
1183 Clear 16 1014 68 10000 2 80 15:35 02.11.2022
1184 Clear 16 1014 67 10000 4 90 14:25 02.11.2022
1185 Clear 17 1014 66 10000 4 80 12:35 02.11.2022
1186 Clear 18 1014 63 10000 3 80 10:45 02.11.2022
1187 Clear 21 1018 60 10000 3 70 08:48 02.11.2022
1188 Clouds 20 1016 53 10000 3 70 03:39 02.11.2022
1189 Clear 15 1016 76 8000 3 340 23:27 01.11.2022
1190 Clear 15 1016 75 10000 2 350 22:18 01.11.2022
1191 Clear 16 1015 77 10000 3 350 21:24 01.11.2022
1192 Clear 16 1015 78 10000 3 350 20:23 01.11.2022
1193 Clear 16 1016 78 10000 3 10 19:42 01.11.2022
1194 Clear 16 1016 79 10000 4 10 18:32 01.11.2022
1195 Clear 17 1016 79 10000 2 10 16:56 01.11.2022
1196 Clear 17 1016 78 10000 3.13 33 15:19 01.11.2022
1197 Clear 18 1016 74 10000 5 30 13:24 01.11.2022
1198 Clear 18 1016 72 10000 4 50 12:26 01.11.2022
1199 Clear 18 1016 67 10000 5 60 11:21 01.11.2022
1200 Clear 21 1016 64 10000 5 50 09:25 01.11.2022
1201 Clear 21 1016 63 10000 3 40 07:54 01.11.2022
1202 Clear 21 1016 61 10000 5 60 07:28 01.11.2022
1203 Clouds 21 1016 58 10000 6 30 06:46 01.11.2022
1204 Clouds 22 1017 57 10000 5 50 05:23 01.11.2022
1205 Clear 16 1016 78 10000 4.02 13 22:51 31.10.2022
1206 Clear 16 1016 78 10000 3.13 19 21:34 31.10.2022
1207 Clear 16 1016 77 10000 3 360 19:57 31.10.2022
1208 Clear 17 1017 76 10000 3.13 34 18:42 31.10.2022
1209 Clear 17 1017 75 10000 3.58 46 16:44 31.10.2022
1210 Clear 18 1017 73 10000 3 60 15:35 31.10.2022
1211 Clear 19 1017 68 10000 5 40 12:39 31.10.2022
1212 Clouds 21 1020 65 10000 5 60 09:44 31.10.2022
1213 Clouds 22 1020 61 10000 6 40 07:41 31.10.2022
1214 Clouds 21 1017 69 10000 5 70 02:47 31.10.2022
1215 Clear 20 1017 73 10000 5 50 01:48 31.10.2022
1216 Clear 17 1016 83 10000 3.58 54 22:20 30.10.2022
1217 Clear 17 1015 81 10000 3.58 47 20:39 30.10.2022
1218 Clear 18 1016 79 10000 2 30 19:36 30.10.2022
1219 Clear 19 1016 74 10000 3.13 53 16:37 30.10.2022
1220 Clear 19 1016 71 10000 4 90 14:43 30.10.2022
1221 Clear 19 1016 69 10000 4 90 13:50 30.10.2022
1222 Clear 19 1016 66 10000 3 90 12:24 30.10.2022
1223 Clear 20 1015 64 10000 4.47 70 10:25 30.10.2022
1224 Clear 21 1015 63 10000 5 90 09:24 30.10.2022
1225 Clear 23 1016 58 10000 6 80 07:55 30.10.2022
1226 Clouds 17 1016 83 10000 3 360 00:29 30.10.2022
1227 Clouds 17 1016 82 10000 2.68 17 23:46 29.10.2022
1228 Clouds 17 1017 80 10000 3.13 10 21:57 29.10.2022
1229 Clear 16 1017 79 10000 3 350 19:22 29.10.2022
1230 Clear 16 1018 78 10000 3 360 17:22 29.10.2022
1231 Clear 16 1018 74 10000 2 30 15:38 29.10.2022
1232 Clear 17 1018 74 10000 3 40 14:52 29.10.2022
1233 Clear 17 1018 71 10000 5 50 13:45 29.10.2022
1234 Clear 18 1018 69 10000 4 50 12:32 29.10.2022
1235 Clouds 21 1022 62 10000 4 40 09:32 29.10.2022
1236 Clouds 20 1024 61 10000 4 30 06:50 29.10.2022
1237 Clouds 21 1019 56 10000 4 60 05:53 29.10.2022
1238 Clouds 16 1019 72 10000 3.13 32 23:44 28.10.2022
1239 Clear 16 1019 72 10000 3 20 21:33 28.10.2022
1240 Clear 16 1020 72 10000 3 30 19:57 28.10.2022
1241 Clouds 16 1020 72 10000 3.13 32 18:33 28.10.2022
1242 Clear 16 1020 73 10000 3.13 33 17:39 28.10.2022
1243 Clouds 17 1020 70 10000 5 30 14:51 28.10.2022
1244 Clouds 17 1019 70 10000 6 40 13:43 28.10.2022
1245 Clouds 18 1019 67 10000 6 50 11:55 28.10.2022
1246 Clear 18 1019 67 10000 6 30 11:32 28.10.2022
1247 Clear 19 1024 68 10000 5 40 10:45 28.10.2022
1248 Clouds 19 1024 68 10000 6 50 08:40 28.10.2022
1249 Clouds 20 1020 65 10000 6 50 06:51 28.10.2022
1250 Clear 17 1019 75 10000 3 40 00:52 28.10.2022
1251 Clear 16 1019 73 10000 4 40 23:45 27.10.2022
1252 Clear 16 1019 75 10000 4 40 22:32 27.10.2022
1253 Clouds 17 1019 77 10000 5 40 20:53 27.10.2022
1254 Clear 18 1019 76 10000 3 60 18:30 27.10.2022
1255 Clouds 18 1019 75 10000 6 50 16:38 27.10.2022
1256 Clouds 18 1018 82 10000 5 80 11:35 27.10.2022
1257 Clouds 20 1017 68 10000 4 60 07:34 27.10.2022
1258 Clear 19 1018 82 10000 3.58 69 02:50 27.10.2022
1259 Clouds 17 1016 85 10000 3 70 23:53 26.10.2022
1260 Clouds 18 1016 84 10000 4.47 56 22:41 26.10.2022
1261 Clouds 18 1016 85 10000 3 60 21:31 26.10.2022
1262 Clouds 18 1016 81 10000 3.58 80 17:59 26.10.2022
1263 Clouds 19 1017 79 10000 3.58 81 14:54 26.10.2022
1264 Clouds 19 1016 76 10000 3.13 84 13:33 26.10.2022
1265 Clear 20 1016 70 10000 3.58 84 12:19 26.10.2022
1266 Clouds 21 1016 69 10000 4 120 09:19 26.10.2022
1267 Clouds 21 1016 69 10000 4 120 08:53 26.10.2022
1268 Clear 17 1018 65 10000 1.79 101 00:54 26.10.2022
1269 Clear 17 1018 64 10000 2 90 00:35 26.10.2022
1270 Clear 16 1018 63 10000 2.24 104 22:29 25.10.2022
1271 Clear 16 1018 64 10000 3.13 107 21:45 25.10.2022
1272 Clear 16 1018 63 10000 3.13 108 20:33 25.10.2022
1273 Clouds 16 1019 62 10000 3.13 106 18:56 25.10.2022
1274 Clouds 17 1019 63 10000 2.68 103 16:45 25.10.2022
1275 Clear 18 1019 60 10000 4.47 80 11:46 25.10.2022
1276 Clear 19 1024 62 10000 4 90 10:47 25.10.2022
1277 Clear 19 1024 60 10000 4.47 79 10:29 25.10.2022
1278 Clear 20 1024 57 10000 4 80 08:38 25.10.2022
1279 Clear 20 1024 56 10000 4 80 08:18 25.10.2022
1280 Clear 20 1024 57 10000 4 120 07:53 25.10.2022
1281 Clouds 20 1025 55 10000 5 100 06:46 25.10.2022
1282 Clouds 18 1021 55 10000 5 70 03:29 25.10.2022
1283 Clear 16 1020 64 10000 2 10 00:32 25.10.2022
1284 Clear 16 1020 63 10000 2 40 22:28 24.10.2022
1285 Clear 16 1019 64 10000 3 50 21:46 24.10.2022
1286 Clear 16 1019 64 10000 2 20 20:50 24.10.2022
1287 Clear 16 1020 65 10000 2 20 20:19 24.10.2022
1288 Clear 16 1020 62 10000 2.68 45 18:33 24.10.2022
1289 Clear 17 1020 62 10000 3 50 16:55 24.10.2022
1290 Clear 17 1020 62 10000 4 60 15:24 24.10.2022
1291 Clear 18 1020 62 10000 5 40 14:18 24.10.2022
1292 Clear 19 1019 58 10000 4.47 31 12:27 24.10.2022
1293 Clear 22 1023 53 10000 3 50 09:22 24.10.2022
1294 Clear 18 1020 53 10000 3 40 03:21 24.10.2022
1295 Clear 15 1018 68 10000 3.13 16 22:29 23.10.2022
1296 Clear 15 1018 68 10000 4 360 20:38 23.10.2022
1297 Clear 16 1018 67 10000 4.02 15 18:37 23.10.2022
1298 Clear 16 1018 66 10000 4 360 17:28 23.10.2022
1299 Clear 17 1018 64 10000 4.02 18 15:39 23.10.2022
1300 Clear 17 1018 63 10000 5 10 14:52 23.10.2022
1301 Clear 20 1016 51 10000 7 10 11:27 23.10.2022
1302 Clear 21 1021 57 10000 7 10 09:55 23.10.2022
1303 Clouds 21 1018 69 10000 6 10 04:29 23.10.2022
1304 Clouds 18 1016 81 10000 4 360 22:48 22.10.2022
1305 Clouds 19 1016 83 10000 3.58 7 21:43 22.10.2022
1306 Clouds 19 1016 83 10000 3.13 8 20:56 22.10.2022
1307 Clouds 19 1016 81 10000 3 10 19:52 22.10.2022
1308 Clouds 19 1016 80 10000 4 20 19:29 22.10.2022
1309 Clouds 20 1016 82 10000 3 20 17:39 22.10.2022
1310 Clouds 20 1016 81 10000 4 40 15:58 22.10.2022
1311 Clouds 20 1016 81 10000 4 40 15:58 22.10.2022
1312 Clouds 21 1016 80 10000 5 40 14:46 22.10.2022
1313 Clouds 21 1016 78 10000 5 40 13:53 22.10.2022
1314 Clear 25 1019 68 10000 4 360 10:30 22.10.2022
1315 Clouds 25 1018 67 10000 4 10 09:39 22.10.2022
1316 Clouds 25 1018 70 10000 4 10 08:30 22.10.2022
1317 Mist 23 1016 80 5000 3 350 03:42 22.10.2022
1318 Mist 19 1015 87 4000 2 360 23:53 21.10.2022
1319 Clear 19 1014 84 10000 2 350 21:35 21.10.2022
1320 Clear 19 1014 85 10000 2 350 20:59 21.10.2022
1321 Clear 20 1015 85 10000 1 50 19:36 21.10.2022
1322 Clear 20 1016 84 10000 1.34 104 16:51 21.10.2022
1323 Clear 21 1016 80 10000 3 130 13:59 21.10.2022
1324 Clouds 22 1016 77 10000 4 130 12:58 21.10.2022
1325 Clouds 21 1016 76 10000 4 130 12:58 21.10.2022
1326 Clear 24 1015 66 10000 4 160 10:59 21.10.2022
1327 Clear 26 1015 60 10000 5 150 09:50 21.10.2022
1328 Clear 25 1019 66 10000 4 200 08:39 21.10.2022
1329 Clear 25 1020 63 10000 5 160 07:28 21.10.2022
1330 Clear 18 1017 75 10000 1.79 119 01:00 21.10.2022
1331 Clear 17 1017 77 10000 1.79 119 22:26 20.10.2022
1332 Clear 18 1017 73 10000 1.79 120 20:38 20.10.2022
1333 Clear 18 1018 72 10000 2.24 120 19:38 20.10.2022
1334 Clear 18 1018 70 10000 1.79 123 17:53 20.10.2022
1335 Clear 18 1018 69 10000 2.24 127 17:33 20.10.2022
1336 Clear 19 1018 62 10000 5 130 12:37 20.10.2022
1337 Clear 19 1018 62 10000 5 130 12:18 20.10.2022
1338 Clear 20 1023 62 10000 5 90 10:59 20.10.2022
1339 Clear 21 1023 59 10000 5 130 10:29 20.10.2022
1340 Clouds 21 1023 60 10000 3 100 07:46 20.10.2022
1341 Clouds 22 1021 54 10000 4 120 05:18 20.10.2022
1342 Clouds 18 1019 70 10000 1 10 01:49 20.10.2022
1343 Clear 14 1019 71 10000 2.24 84 22:45 19.10.2022
1344 Clear 14 1020 70 10000 2.24 82 21:56 19.10.2022
1345 Clear 14 1020 69 10000 3 360 20:52 19.10.2022
1346 Clear 15 1021 67 10000 2 20 18:49 19.10.2022
1347 Clear 15 1021 64 10000 1.79 89 17:38 19.10.2022
1348 Clear 16 1021 59 10000 3 80 15:41 19.10.2022
1349 Clear 17 1021 58 10000 4 70 12:58 19.10.2022
1350 Clear 19 1025 55 10000 4 40 09:34 19.10.2022
1351 Clear 20 1025 54 10000 3 40 08:28 19.10.2022
1352 Clear 19 1022 50 10000 5 40 04:56 19.10.2022
1353 Clear 14 1021 62 10000 2.68 2 01:25 19.10.2022
1354 Clear 13 1020 66 10000 3 20 22:57 18.10.2022
1355 Clear 14 1020 65 10000 2.68 353 21:38 18.10.2022
1356 Clear 14 1020 65 10000 2.68 352 20:44 18.10.2022
1357 Clear 14 1020 65 10000 2.68 355 19:28 18.10.2022
1358 Clear 14 1020 62 10000 2.68 7 17:34 18.10.2022
1359 Clear 15 1020 62 10000 3.13 9 16:20 18.10.2022
1360 Clear 16 1020 58 10000 4 40 14:19 18.10.2022
1361 Clear 16 1019 53 10000 4 10 12:30 18.10.2022
1362 Clear 18 1024 56 10000 5 10 11:20 18.10.2022
1363 Clear 18 1024 55 10000 5 350 09:27 18.10.2022
1364 Clear 18 1024 53 10000 5 20 07:43 18.10.2022
1365 Clear 15 1018 55 10000 5 330 01:57 18.10.2022
1366 Clear 14 1019 54 10000 6 10 21:50 17.10.2022
1367 Clear 15 1019 56 10000 5 10 20:50 17.10.2022
1368 Clear 15 1019 54 10000 5 360 20:30 17.10.2022
1369 Clear 15 1019 54 10000 5 360 20:30 17.10.2022
1370 Clear 15 1019 52 10000 4 350 19:50 17.10.2022
1371 Clear 15 1019 53 10000 5 340 18:42 17.10.2022
1372 Clear 15 1020 55 10000 4 350 16:39 17.10.2022
1373 Clear 16 1020 55 10000 5 360 15:29 17.10.2022
1374 Clear 16 1020 55 10000 5 360 14:34 17.10.2022
1375 Clear 19 1023 58 10000 9 20 10:29 17.10.2022
1376 Clouds 20 1017 65 10000 9 40 03:58 17.10.2022
1377 Clear 18 1015 81 8000 3 360 23:25 16.10.2022
1378 Clouds 18 1015 81 8000 3.58 6 21:46 16.10.2022
1379 Clouds 18 1015 80 10000 3.58 4 20:33 16.10.2022
1380 Clouds 17 1015 80 10000 3 10 19:45 16.10.2022
1381 Clear 17 1015 79 10000 3 360 17:50 16.10.2022
1382 Clear 18 1015 77 10000 4.02 8 16:32 16.10.2022
1383 Clear 18 1015 77 10000 3.58 14 15:56 16.10.2022
1384 Clear 19 1014 72 10000 4.47 13 13:27 16.10.2022
1385 Clear 20 1014 71 10000 6 20 12:21 16.10.2022
1386 Clouds 22 1012 73 10000 4.47 24 10:27 16.10.2022
1387 Clouds 22 1012 74 10000 4 360 08:35 16.10.2022
1388 Clear 18 1013 83 10000 1.79 352 23:50 15.10.2022
1389 Clear 18 1012 81 10000 3 340 22:18 15.10.2022
1390 Clear 17 1012 81 10000 3 350 21:21 15.10.2022
1391 Clear 18 1012 81 10000 2 340 20:23 15.10.2022
1392 Clear 18 1013 79 10000 3 360 17:26 15.10.2022
1393 Clear 19 1013 76 10000 2.68 28 15:45 15.10.2022
1394 Clouds 19 1010 69 10000 0.45 35 13:42 15.10.2022
1395 Clouds 21 1012 71 10000 4 50 11:51 15.10.2022
1396 Clouds 22 1012 67 10000 4 20 09:57 15.10.2022
1397 Clouds 23 1016 67 10000 4 20 08:20 15.10.2022
1398 Clear 16 1013 83 10000 2.24 6 00:41 15.10.2022
1399 Clear 16 1013 82 10000 2.24 350 22:59 14.10.2022
1400 Clear 16 1012 83 10000 2.24 350 22:22 14.10.2022
1401 Clear 17 1012 82 10000 1.79 349 21:24 14.10.2022
1402 Clear 17 1012 83 10000 2 350 19:22 14.10.2022
1403 Clear 18 1013 79 10000 3 10 16:19 14.10.2022
1404 Clear 19 1013 77 10000 4 50 13:20 14.10.2022
1405 Clouds 20 1012 73 10000 5 30 11:36 14.10.2022
1406 Clouds 22 1012 69 10000 5 40 08:59 14.10.2022
1407 Clouds 22 1013 64 10000 3 40 06:51 14.10.2022
1408 Clouds 22 1018 68 10000 4 50 06:18 14.10.2022
1409 Clouds 22 1014 66 10000 4 80 05:42 14.10.2022
1410 Clear 21 1015 72 10000 4 40 03:20 14.10.2022
1411 Clear 16 1014 82 10000 2.68 23 23:42 13.10.2022
1412 Clear 17 1014 80 10000 3.13 47 21:45 13.10.2022
1413 Clear 17 1013 79 10000 3.13 51 21:20 13.10.2022
1414 Clear 17 1014 79 10000 3.13 38 19:43 13.10.2022
1415 Clear 18 1014 77 10000 2 10 18:52 13.10.2022
1416 Clear 18 1015 77 10000 2 10 18:21 13.10.2022
1417 Clear 18 1016 75 10000 3 40 15:51 13.10.2022
1418 Clear 18 1016 75 10000 3 30 15:33 13.10.2022
1419 Clear 19 1015 75 10000 3 70 13:54 13.10.2022
1420 Clear 20 1015 71 10000 4 60 12:43 13.10.2022
1421 Clouds 21 1020 69 10000 5 70 10:59 13.10.2022
1422 Clouds 22 1020 64 10000 4 50 08:34 13.10.2022
1423 Clouds 21 1021 63 10000 3 60 07:38 13.10.2022
1424 Clear 21 1018 61 10000 3 0 04:25 13.10.2022
1425 Clear 18 1016 76 10000 3 20 01:40 13.10.2022
1426 Clear 16 1017 75 10000 3.13 53 00:34 13.10.2022
1427 Clear 15 1017 73 10000 2.24 47 22:45 12.10.2022
1428 Clear 15 1017 73 10000 2 350 21:46 12.10.2022
1429 Clear 15 1017 71 10000 2.24 43 21:19 12.10.2022
1430 Clear 16 1018 69 10000 3 340 20:33 12.10.2022
1431 Clear 16 1018 67 10000 2.24 54 19:22 12.10.2022
1432 Clear 17 1019 64 10000 2 70 17:57 12.10.2022
1433 Clear 17 1019 62 10000 2 80 16:59 12.10.2022
1434 Clear 18 1017 61 10000 4 70 14:27 12.10.2022
1435 Clear 18 1024 64 10000 5 70 13:53 12.10.2022
1436 Clear 19 1019 59 10000 5 70 11:47 12.10.2022
1437 Clear 20 1023 58 10000 5 30 09:27 12.10.2022
1438 Clear 21 1024 56 10000 4 30 07:42 12.10.2022
1439 Clear 21 1020 54 10000 4 60 06:44 12.10.2022
1440 Clear 20 1020 56 10000 4 40 05:18 12.10.2022
1441 Clear 15 1019 71 10000 2.68 19 23:40 11.10.2022
1442 Clear 15 1019 72 10000 2.24 19 20:59 11.10.2022
1443 Clear 15 1019 71 10000 2.24 19 20:26 11.10.2022
1444 Clear 16 1019 70 10000 2.68 48 17:56 11.10.2022
1445 Clear 17 1020 65 10000 3.13 42 15:55 11.10.2022
1446 Clear 17 1019 59 10000 3 60 13:37 11.10.2022
1447 Clear 19 1023 58 10000 4 10 10:47 11.10.2022
1448 Clear 19 1023 57 10000 3 40 10:26 11.10.2022
1449 Clear 20 1023 54 10000 4 10 08:32 11.10.2022
1450 Clear 15 1021 48 10000 3.58 319 02:59 11.10.2022
1451 Clear 12 1020 57 10000 2.68 306 00:39 11.10.2022
1452 Clear 13 1019 52 10000 2.68 310 22:54 10.10.2022
1453 Clear 13 1019 52 10000 3 330 20:48 10.10.2022
1454 Clear 13 1020 51 10000 3 340 19:40 10.10.2022
1455 Clear 13 1020 51 10000 2 350 17:34 10.10.2022
1456 Clear 14 1020 50 10000 4 350 16:36 10.10.2022
1457 Clear 15 1020 46 10000 4.47 342 13:59 10.10.2022
1458 Clear 15 1019 44 10000 5 340 12:23 10.10.2022
1459 Clear 18 1022 45 10000 7 340 09:38 10.10.2022
1460 Clear 17 1024 45 10000 8 300 06:50 10.10.2022
1461 Clear 18 1020 39 10000 8 310 05:34 10.10.2022
1462 Clear 13 1020 50 10000 6 320 01:58 10.10.2022
1463 Clear 13 1020 55 10000 4.47 304 00:23 10.10.2022
1464 Clear 13 1019 57 10000 4 290 22:26 09.10.2022
1465 Clear 13 1019 56 10000 4.47 310 21:40 09.10.2022
1466 Clear 14 1019 53 10000 4 310 20:44 09.10.2022
1467 Clear 14 1019 53 10000 5 310 19:50 09.10.2022
1468 Clear 15 1019 53 10000 5.81 320 18:50 09.10.2022
1469 Clear 16 1019 52 10000 8 330 17:44 09.10.2022
1470 Clear 16 1019 53 10000 7 330 16:55 09.10.2022
1471 Clear 17 1019 52 10000 6 320 16:20 09.10.2022
1472 Clouds 17 1018 58 10000 9 330 14:56 09.10.2022
1473 Clouds 18 1018 61 10000 9 340 14:26 09.10.2022
1474 Clear 19 1016 67 10000 5 320 12:50 09.10.2022
1475 Clear 20 1015 67 10000 6 330 11:27 09.10.2022
1476 Clear 21 1014 60 10000 6 310 08:33 09.10.2022
1477 Clear 20 1016 59 10000 4 310 05:59 09.10.2022
1478 Clear 16 1021 71 10000 4 320 03:26 09.10.2022
1479 Clear 15 1015 80 10000 2 290 01:54 09.10.2022
1480 Clear 15 1015 80 10000 4 350 23:33 08.10.2022
1481 Clear 15 1015 82 10000 3.58 4 22:51 08.10.2022
1482 Clouds 15 1015 83 10000 3.58 351 20:43 08.10.2022
1483 Clouds 15 1016 84 8000 3 340 19:38 08.10.2022
1484 Clouds 16 1016 79 10000 1.79 338 17:44 08.10.2022
1485 Clouds 16 1017 78 10000 2 190 15:36 08.10.2022
1486 Clouds 18 1016 73 10000 2.24 57 13:53 08.10.2022
1487 Clear 18 1015 65 10000 1 0 12:20 08.10.2022
1488 Clouds 19 1015 65 10000 3 80 10:35 08.10.2022
1489 Clouds 20 1015 62 10000 3 80 09:35 08.10.2022
1490 Clear 20 1016 58 10000 2 60 07:25 08.10.2022
1491 Clear 18 1016 77 10000 1 0 02:34 08.10.2022
1492 Clouds 16 1017 77 10000 2.24 25 23:49 07.10.2022
1493 Clouds 16 1017 77 10000 2 40 23:20 07.10.2022
1494 Clouds 16 1017 77 10000 2.24 18 22:19 07.10.2022
1495 Clear 17 1018 68 10000 3 350 20:23 07.10.2022
1496 Clear 18 1018 67 10000 2.24 22 18:22 07.10.2022
1497 Clear 18 1019 66 10000 3.13 24 16:53 07.10.2022
1498 Clear 18 1019 65 10000 3.58 24 15:44 07.10.2022
1499 Clear 18 1019 64 10000 3.58 20 14:22 07.10.2022
1500 Clouds 18 1017 68 10000 4.02 25 11:41 07.10.2022
1501 Clear 18 1016 68 10000 4.47 23 09:25 07.10.2022
1502 Clouds 18 1016 68 10000 7 10 08:29 07.10.2022
1503 Clouds 16 1023 75 10000 4 360 04:39 07.10.2022
1504 Rain 15 1017 85 8000 5 360 23:52 06.10.2022
1505 Rain 14 1017 85 8000 4 360 22:50 06.10.2022
1506 Clouds 14 1017 85 8000 5 360 21:39 06.10.2022
1507 Clouds 15 1017 85 8000 5 360 20:41 06.10.2022
1508 Clouds 15 1017 85 8000 5 10 18:58 06.10.2022
1509 Clouds 14 1017 85 6000 4.02 6 18:32 06.10.2022
1510 Rain 15 1017 83 6000 4.92 15 15:40 06.10.2022
1511 Clouds 15 1016 81 10000 6 20 13:49 06.10.2022
1512 Rain 17 1015 78 10000 4 30 10:43 06.10.2022
1513 Clouds 18 1016 76 10000 4 60 05:20 06.10.2022
1514 Clouds 16 1018 82 10000 4 30 02:22 06.10.2022
1515 Clouds 17 1016 75 10000 4 10 22:28 05.10.2022
1516 Clouds 16 1017 77 10000 4.47 21 19:54 05.10.2022
1517 Clouds 16 1018 80 10000 5 40 17:38 05.10.2022
1518 Clouds 15 1018 81 10000 5.36 23 16:45 05.10.2022
1519 Clouds 16 1018 77 10000 6 20 15:23 05.10.2022
1520 Clouds 16 1018 77 10000 7 20 14:38 05.10.2022
1521 Clouds 17 1018 72 10000 8 10 13:31 05.10.2022
1522 Clouds 18 1016 69 10000 6 30 11:53 05.10.2022
1523 Clouds 20 1016 63 10000 5 30 08:28 05.10.2022
1524 Clouds 21 1016 63 10000 5 30 07:21 05.10.2022
1525 Clouds 20 1017 62 10000 5 30 05:32 05.10.2022
1526 Clouds 19 1018 68 10000 6 10 02:33 05.10.2022
1527 Clouds 18 1017 69 10000 4.47 12 00:28 05.10.2022
1528 Clouds 18 1017 70 10000 4 360 23:58 04.10.2022
1529 Clouds 19 1017 68 10000 6 10 21:25 04.10.2022
1530 Clouds 19 1017 69 10000 5.36 6 19:56 04.10.2022
1531 Clouds 19 1017 68 10000 7 10 18:55 04.10.2022
1532 Clear 19 1017 67 10000 7 10 17:57 04.10.2022
1533 Clouds 19 1018 67 10000 6 10 16:56 04.10.2022
1534 Clouds 19 1017 66 10000 7 20 14:29 04.10.2022
1535 Clouds 19 1015 83 10000 8 10 10:23 04.10.2022
1536 Clouds 21 1014 82 10000 9 10 07:50 04.10.2022
1537 Clouds 23 1013 81 10000 8 20 04:43 04.10.2022
1538 Clouds 27 1013 83 10000 3 350 23:49 03.10.2022
1539 Clear 27 1007 83 10000 3.13 342 22:28 03.10.2022
1540 Clear 27 1005 83 10000 4 180 21:27 03.10.2022
1541 Clear 27 1005 83 10000 4 180 21:27 03.10.2022
1542 Clear 28 1005 82 10000 4 180 20:35 03.10.2022
1543 Clear 28 1006 82 10000 4.47 169 18:52 03.10.2022
1544 Clear 28 1006 82 10000 4.02 165 17:32 03.10.2022
1545 Clear 29 1006 82 10000 4.47 160 15:55 03.10.2022
1546 Clear 29 1006 79 10000 4 150 14:26 03.10.2022
1547 Clear 31 1006 75 10000 4.47 156 12:36 03.10.2022
1548 Clear 33 1009 76 10000 6 170 10:53 03.10.2022
1549 Clear 35 1009 73 10000 4 180 09:46 03.10.2022
1550 Clear 35 1009 76 10000 5 180 08:45 03.10.2022
1551 Clear 32 1008 68 10000 4 180 04:41 03.10.2022
1552 Clear 26 1006 85 10000 4.47 162 22:56 02.10.2022
1553 Clear 26 1006 86 10000 4.47 160 21:38 02.10.2022
1554 Clear 26 1007 87 10000 4.92 160 19:47 02.10.2022
1555 Clear 27 1007 86 10000 4 150 17:55 02.10.2022
1556 Clear 27 1007 86 10000 4.92 160 16:51 02.10.2022
1557 Clear 27 1007 86 10000 4 150 16:30 02.10.2022
1558 Clear 28 1007 84 10000 4 150 14:58 02.10.2022
1559 Clear 28 1005 79 10000 5 150 13:46 02.10.2022
1560 Clear 29 1006 76 10000 6 150 12:39 02.10.2022
1561 Clear 30 1010 78 10000 5 150 11:43 02.10.2022
1562 Clear 31 1006 71 10000 5 150 11:23 02.10.2022
1563 Clear 32 1010 71 10000 5 170 10:19 02.10.2022
1564 Clear 33 1010 70 10000 4 180 08:27 02.10.2022
1565 Clear 32 1007 66 10000 5 170 05:19 02.10.2022
1566 Clear 25 1007 84 10000 4.47 162 00:57 02.10.2022
1567 Clear 25 1007 83 10000 3 160 00:37 02.10.2022
1568 Clear 25 1007 83 10000 4.47 162 23:24 01.10.2022
1569 Clear 26 1007 82 10000 4.92 163 21:38 01.10.2022
1570 Clear 26 1007 84 10000 5 160 18:54 01.10.2022
1571 Clear 26 1008 86 10000 5 150 17:25 01.10.2022
1572 Clear 27 1012 86 10000 4 140 14:44 01.10.2022
1573 Clear 28 1012 85 10000 3 140 13:43 01.10.2022
1574 Clear 28 1012 83 10000 3 150 12:34 01.10.2022
1575 Clear 30 1011 78 10000 5 150 11:22 01.10.2022
1576 Clear 30 1011 75 10000 5 140 10:44 01.10.2022
1577 Clear 31 1011 75 10000 5 140 10:25 01.10.2022
1578 Rain 32 1011 75 10000 5 140 09:18 01.10.2022
1579 Clear 32 1011 74 10000 4 150 08:19 01.10.2022
1580 Clear 28 1008 82 10000 3 130 03:37 01.10.2022
1581 Clouds 25 1009 91 6000 2.24 114 01:22 01.10.2022
1582 Clouds 24 1008 90 8000 2.68 116 23:20 30.09.2022
1583 Clouds 24 1008 90 8000 2.68 117 21:44 30.09.2022
1584 Clouds 24 1008 89 8000 2.68 122 20:45 30.09.2022
1585 Clouds 24 1008 89 8000 2.68 124 20:20 30.09.2022
1586 Clouds 24 1009 89 10000 3 140 17:41 30.09.2022
1587 Clouds 24 1009 89 10000 3 140 16:29 30.09.2022
1588 Clouds 24 1009 86 10000 3 120 14:22 30.09.2022
1589 Clouds 25 1008 85 10000 4 130 12:29 30.09.2022
1590 Clouds 25 1008 84 10000 4 140 11:54 30.09.2022
1591 Clouds 26 1008 81 10000 4 110 08:51 30.09.2022
1592 Clouds 25 1009 82 10000 5 120 06:34 30.09.2022
1593 Clouds 23 1010 83 10000 4 120 02:50 30.09.2022
1594 Clouds 22 1010 83 10000 3 110 00:35 30.09.2022
1595 Clouds 22 1009 84 10000 2 110 21:39 29.09.2022
1596 Clouds 22 1009 84 10000 2 110 21:18 29.09.2022
1597 Clear 22 1010 83 10000 3 120 18:48 29.09.2022
1598 Clear 22 1010 84 10000 3 130 17:45 29.09.2022
1599 Clouds 23 1010 84 10000 2 110 16:28 29.09.2022
1600 Clouds 23 1010 83 10000 3 100 15:36 29.09.2022
1601 Clouds 23 1010 81 10000 4 100 14:54 29.09.2022
1602 Clear 25 1008 75 10000 4.02 86 11:48 29.09.2022
1603 Clouds 27 1013 71 10000 1 0 07:31 29.09.2022
1604 Clear 22 1010 80 10000 3 50 02:55 29.09.2022
1605 Clouds 21 1009 85 10000 3 360 00:28 29.09.2022
1606 Clear 21 1008 84 10000 1.79 21 23:19 28.09.2022
1607 Clouds 21 1008 83 10000 3 360 21:30 28.09.2022
1608 Clear 21 1008 84 10000 3 350 20:31 28.09.2022
1609 Clouds 21 1008 84 10000 2 360 18:42 28.09.2022
1610 Clear 20 1009 85 10000 2 10 15:34 28.09.2022
1611 Clouds 20 1008 85 10000 2 30 13:28 28.09.2022
1612 Clouds 20 1008 86 8000 2 40 11:34 28.09.2022
1613 Mist 20 1007 87 4000 5 20 09:25 28.09.2022
1614 Clouds 22 1008 84 8000 6 20 07:40 28.09.2022
1615 Clouds 24 1008 77 10000 3 60 04:41 28.09.2022
1616 Clear 23 1008 76 10000 2 70 01:38 28.09.2022
1617 Clear 22 1008 75 10000 2 80 23:27 27.09.2022
1618 Clear 23 1007 75 10000 2 90 21:48 27.09.2022
1619 Clear 22 1008 73 10000 2 60 20:49 27.09.2022
1620 Clear 22 1008 72 10000 2 90 19:49 27.09.2022
1621 Rain 22 1008 75 10000 2 70 18:49 27.09.2022
1622 Clear 22 1009 74 10000 3 70 17:46 27.09.2022
1623 Clear 23 1010 69 10000 3 90 15:58 27.09.2022
1624 Clear 23 1010 69 10000 3 80 14:58 27.09.2022
1625 Clear 24 1009 63 10000 4 80 12:53 27.09.2022
1626 Clear 24 1009 61 10000 4 70 12:21 27.09.2022
1627 Clear 26 1008 57 10000 5 50 09:34 27.09.2022
1628 Clouds 27 1014 62 10000 3 100 06:56 27.09.2022
1629 Clouds 23 1011 77 10000 3 80 02:41 27.09.2022
1630 Clouds 23 1011 80 10000 3 90 01:35 27.09.2022
1631 Clouds 23 1010 81 10000 3 100 23:26 26.09.2022
1632 Clouds 22 1010 80 10000 3.13 87 22:40 26.09.2022
1633 Rain 22 1010 81 10000 3.58 87 20:46 26.09.2022
1634 Clear 22 1010 83 10000 3.58 77 19:32 26.09.2022
1635 Clear 22 1010 85 10000 3.13 72 18:32 26.09.2022
1636 Clear 22 1011 85 10000 4.02 78 16:36 26.09.2022
1637 Clear 23 1011 78 10000 3 50 14:37 26.09.2022
1638 Clear 24 1010 72 10000 5 40 11:30 26.09.2022
1639 Clouds 24 1009 71 10000 6 40 10:39 26.09.2022
1640 Clouds 24 1009 71 10000 6 40 10:20 26.09.2022
1641 Clouds 25 1009 70 10000 6 30 09:55 26.09.2022
1642 Clouds 25 1009 67 10000 6 30 09:24 26.09.2022
1643 Clouds 26 1009 66 10000 4 10 07:56 26.09.2022
1644 Clouds 23 1011 73 10000 2 60 02:54 26.09.2022
1645 Clear 21 1011 81 10000 2 350 23:50 25.09.2022
1646 Clear 21 1010 80 10000 2 360 22:29 25.09.2022
1647 Clear 21 1010 79 10000 1.34 65 21:35 25.09.2022
1648 Clear 21 1010 77 10000 1.34 68 20:48 25.09.2022
1649 Clear 21 1010 76 10000 1.79 76 19:43 25.09.2022
1650 Clear 21 1010 75 10000 2 80 18:43 25.09.2022
1651 Clear 21 1010 75 10000 2.24 79 18:20 25.09.2022
1652 Clear 22 1011 74 10000 2.68 65 16:36 25.09.2022
1653 Clear 22 1011 72 10000 3 40 15:44 25.09.2022
1654 Clear 22 1011 71 10000 4 50 14:22 25.09.2022
1655 Clear 23 1010 71 10000 4 30 12:55 25.09.2022
1656 Clear 26 1015 60 10000 5 350 10:32 25.09.2022
1657 Clear 26 1014 63 10000 4 330 08:24 25.09.2022
1658 Clouds 26 1011 58 10000 2 350 05:38 25.09.2022
1659 Clear 22 1008 70 10000 2 10 01:32 25.09.2022
1660 Clear 21 1010 73 10000 2 50 22:35 24.09.2022
1661 Clear 21 1010 73 10000 2 50 20:55 24.09.2022
1662 Clear 21 1011 68 10000 3 70 19:22 24.09.2022
1663 Clear 21 1011 68 10000 3 80 17:19 24.09.2022
1664 Clear 22 1012 67 10000 3 80 16:24 24.09.2022
1665 Clear 22 1012 67 10000 4 80 15:19 24.09.2022
1666 Clear 22 1012 65 10000 4 70 13:25 24.09.2022
1667 Clear 22 1012 66 10000 4 70 12:49 24.09.2022
1668 Clear 24 1015 63 10000 5 40 10:38 24.09.2022
1669 Clear 25 1015 62 10000 5 70 09:35 24.09.2022
1670 Clear 25 1016 62 10000 4 40 08:43 24.09.2022
1671 Clouds 24 1017 60 10000 4.47 42 06:26 24.09.2022
1672 Clouds 24 1014 58 10000 3 70 04:35 24.09.2022
1673 Clouds 20 1014 66 10000 4 30 01:45 24.09.2022
1674 Clear 19 1012 69 10000 3 10 22:24 23.09.2022
1675 Clear 19 1013 69 10000 4.02 16 21:26 23.09.2022
1676 Clear 19 1013 69 10000 3 10 20:55 23.09.2022
1677 Clear 19 1013 69 10000 3 10 19:46 23.09.2022
1678 Clear 20 1013 68 10000 5 10 18:24 23.09.2022
1679 Clear 22 1010 59 10000 7 10 13:41 23.09.2022
1680 Clear 24 1016 66 10000 7 10 10:26 23.09.2022
1681 Clear 25 1015 65 10000 8 10 08:56 23.09.2022
1682 Clear 27 1011 58 10000 8 10 04:42 23.09.2022
1683 Clear 22 1008 79 10000 1.34 284 23:30 22.09.2022
1684 Clear 22 1008 79 10000 0.89 272 22:28 22.09.2022
1685 Clear 21 1008 76 10000 0.45 222 21:39 22.09.2022
1686 Clear 21 1008 77 10000 0.89 240 20:31 22.09.2022
1687 Clear 22 1008 77 10000 1.34 163 19:20 22.09.2022
1688 Clear 23 1008 73 10000 3 150 16:23 22.09.2022
1689 Clear 26 1006 70 10000 3.58 133 10:56 22.09.2022
1690 Clear 27 1006 68 10000 4 200 10:19 22.09.2022
1691 Clear 28 1006 63 10000 3 210 08:22 22.09.2022
1692 Clouds 27 1011 66 10000 2.24 151 06:18 22.09.2022
1693 Clear 22 1006 82 10000 1 0 01:27 22.09.2022
1694 Clear 21 1008 76 10000 1.34 126 22:29 21.09.2022
1695 Clear 21 1009 76 10000 1.34 120 21:26 21.09.2022
1696 Clear 21 1009 71 10000 1.34 113 19:22 21.09.2022
1697 Clear 22 1010 70 10000 1 0 17:45 21.09.2022
1698 Clear 21 1010 70 10000 3 100 16:20 21.09.2022
1699 Clear 22 1010 66 10000 2 90 13:56 21.09.2022
1700 Clouds 23 1010 64 10000 3 30 11:44 21.09.2022
1701 Clouds 23 1010 64 10000 3.13 70 11:21 21.09.2022
1702 Clouds 24 1014 65 10000 4 30 09:44 21.09.2022
1703 Clouds 25 1010 60 10000 4 20 08:50 21.09.2022
1704 Clouds 24 1012 61 10000 4 30 04:57 21.09.2022
1705 Clear 22 1012 68 10000 5 30 02:40 21.09.2022
1706 Clear 21 1012 70 10000 4 40 01:58 21.09.2022
1707 Clear 21 1011 72 10000 4 30 00:20 21.09.2022
1708 Clouds 21 1010 75 10000 5 30 21:53 20.09.2022
1709 Clouds 21 1011 75 10000 4.02 21 20:33 20.09.2022
1710 Clear 21 1011 75 10000 4.02 13 18:51 20.09.2022
1711 Clouds 22 1011 69 10000 5 20 15:51 20.09.2022
1712 Clouds 22 1011 68 10000 5 10 14:18 20.09.2022
1713 Clouds 23 1009 65 10000 7 20 11:51 20.09.2022
1714 Clouds 25 1013 63 10000 7 350 08:44 20.09.2022
1715 Clouds 25 1013 63 10000 7 350 08:23 20.09.2022
1716 Clouds 24 1009 61 10000 6 20 04:40 20.09.2022
1717 Clouds 22 1009 65 10000 6 360 02:24 20.09.2022
1718 Clear 21 1008 74 10000 4 10 22:44 19.09.2022
1719 Clear 21 1008 72 10000 4.92 4 21:28 19.09.2022
1720 Clear 21 1008 71 10000 3 350 20:40 19.09.2022
1721 Clear 22 1008 69 10000 4 360 18:49 19.09.2022
1722 Clear 22 1008 69 10000 5 360 17:36 19.09.2022
1723 Clear 24 1011 71 10000 8 360 13:49 19.09.2022
1724 Clear 24 1011 61 10000 9 350 12:26 19.09.2022
1725 Clear 26 1009 53 10000 9 360 10:19 19.09.2022
1726 Clear 27 1008 62 10000 9 360 08:37 19.09.2022
1727 Clouds 25 1004 68 10000 7 330 03:39 19.09.2022
1728 Clouds 23 1002 82 6000 6.26 334 00:48 19.09.2022
1729 Clouds 24 1001 83 10000 5.36 330 22:33 18.09.2022
1730 Clear 24 1001 81 10000 4 320 21:19 18.09.2022
1731 Clouds 24 1005 78 10000 5.36 323 19:33 18.09.2022
1732 Clouds 24 1001 76 10000 5 320 17:52 18.09.2022
1733 Clouds 24 1001 77 10000 5 320 16:47 18.09.2022
1734 Clouds 25 999 74 10000 7 350 14:51 18.09.2022
1735 Clouds 26 1001 72 10000 7 340 13:35 18.09.2022
1736 Clouds 27 998 69 10000 7 340 12:20 18.09.2022
1737 Clouds 28 1003 74 10000 7 340 09:25 18.09.2022
1738 Clouds 24 1001 85 10000 3 320 01:43 18.09.2022
1739 Clouds 25 1001 84 10000 3 320 01:20 18.09.2022
1740 Clouds 24 1000 85 10000 5 350 22:56 17.09.2022
1741 Clouds 24 1000 85 7000 3 360 20:53 17.09.2022
1742 Clouds 24 1001 85 10000 3 360 19:37 17.09.2022
1743 Clouds 25 1002 83 10000 4 30 17:44 17.09.2022
1744 Clouds 26 1002 81 10000 3 50 14:24 17.09.2022
1745 Clouds 26 1002 77 10000 4 60 13:26 17.09.2022
1746 Clouds 29 1006 68 10000 5 20 10:49 17.09.2022
1747 Clouds 29 1006 69 10000 3 20 06:53 17.09.2022
1748 Clouds 30 1003 67 10000 3 340 05:49 17.09.2022
1749 Clear 23 1006 84 10000 1 360 23:39 16.09.2022
1750 Clouds 24 1001 83 8000 2 320 21:57 16.09.2022
1751 Clouds 23 1006 84 8000 2 350 20:44 16.09.2022
1752 Clear 23 1006 85 10000 2 10 18:43 16.09.2022
1753 Clear 25 1006 77 10000 2 50 16:22 16.09.2022
1754 Clear 26 1002 78 10000 3 30 14:50 16.09.2022
1755 Clear 27 1006 75 10000 3 280 12:52 16.09.2022
1756 Clouds 29 1004 69 10000 4 280 09:55 16.09.2022
1757 Clouds 29 1001 69 10000 4 0 07:23 16.09.2022
1758 Clouds 28 1005 75 10000 4 270 06:48 16.09.2022
1759 Clouds 28 1002 72 10000 3 240 05:55 16.09.2022
1760 Clouds 23 1001 81 8000 2.24 254 01:31 16.09.2022
1761 Clouds 22 1000 87 8000 3 190 21:31 15.09.2022
1762 Clouds 23 1000 88 8000 2 210 20:29 15.09.2022
1763 Clouds 23 1001 86 10000 3 220 18:57 15.09.2022
1764 Clouds 23 1001 86 10000 3 220 17:38 15.09.2022
1765 Clouds 23 1001 85 10000 3 220 17:20 15.09.2022
1766 Clouds 23 1001 83 10000 3 230 15:37 15.09.2022
1767 Clouds 24 1000 83 10000 5 260 12:49 15.09.2022
1768 Clouds 25 1000 81 10000 4 250 11:47 15.09.2022
1769 Clouds 25 999 79 10000 6 240 09:43 15.09.2022
1770 Clouds 24 998 83 10000 7 240 05:22 15.09.2022
1771 Clouds 22 997 88 10000 9 230 02:57 15.09.2022
1772 Rain 23 987 90 6000 12 230 22:44 14.09.2022
1773 Rain 24 976 91 7000 14 320 20:24 14.09.2022
1774 Rain 24 977 91 7000 16 360 19:32 14.09.2022
1775 Rain 25 989 90 7000 10 40 17:28 14.09.2022
1776 Rain 25 992 91 3500 12 20 16:36 14.09.2022
1777 Rain 25 995 90 10000 10 20 14:46 14.09.2022
1778 Rain 25 997 91 10000 6 10 12:24 14.09.2022
1779 Rain 25 998 90 3000 6 350 09:49 14.09.2022
1780 Rain 25 1000 90 8000 5 360 07:47 14.09.2022
1781 Rain 25 1000 90 10000 6 360 06:48 14.09.2022
1782 Rain 25 1001 86 8000 6 350 04:52 14.09.2022
1783 Mist 24 1001 91 4000 6.71 8 01:53 14.09.2022
1784 Clouds 24 1001 91 10000 6 350 01:29 14.09.2022
1785 Clouds 24 999 87 10000 5 360 00:52 14.09.2022
1786 Clouds 24 1001 90 10000 4 350 23:54 13.09.2022
1787 Clouds 24 1000 91 7000 5 340 23:36 13.09.2022
1788 Clouds 24 1000 91 7000 6.26 10 23:18 13.09.2022
1789 Clouds 23 1001 91 7000 6.71 3 22:21 13.09.2022
1790 Clouds 24 1002 91 10000 5 340 20:21 13.09.2022
1791 Clouds 23 1003 88 10000 5.36 18 18:20 13.09.2022
1792 Clouds 23 1004 89 10000 6.71 25 15:55 13.09.2022
1793 Clouds 23 1005 90 8000 6.71 30 14:36 13.09.2022
1794 Rain 23 1004 88 10000 7 10 13:20 13.09.2022
1795 Rain 24 1004 87 10000 7 20 09:23 13.09.2022
1796 Clouds 25 1010 85 10000 7 20 06:59 13.09.2022
1797 Clouds 23 1005 88 10000 5 50 00:23 13.09.2022
1798 Clouds 23 1004 88 10000 3 60 22:51 12.09.2022
1799 Clouds 23 1004 88 10000 3 30 22:18 12.09.2022
1800 Rain 23 1005 90 10000 2 60 20:39 12.09.2022
1801 Rain 23 1005 88 10000 4.47 57 18:51 12.09.2022
1802 Clouds 24 1005 88 10000 4.02 57 17:25 12.09.2022
1803 Rain 23 1010 87 10000 4.47 60 14:37 12.09.2022
1804 Rain 23 1010 90 8000 4 40 11:31 12.09.2022
1805 Rain 24 1009 88 8000 4 360 09:56 12.09.2022
1806 Rain 26 1011 78 10000 3 10 04:54 12.09.2022
1807 Clouds 26 1011 78 10000 3 360 04:25 12.09.2022
1808 Clear 24 1005 86 10000 4 360 23:39 11.09.2022
1809 Clear 24 1005 84 10000 4 360 22:28 11.09.2022
1810 Clear 25 1005 84 10000 4 20 20:50 11.09.2022
1811 Clear 24 1006 84 10000 4 10 19:57 11.09.2022
1812 Clear 25 1006 83 10000 3 20 19:25 11.09.2022
1813 Clear 25 1006 80 10000 3 10 18:36 11.09.2022
1814 Clear 26 1007 79 10000 2 40 16:47 11.09.2022
1815 Clear 26 1007 74 10000 5 60 14:53 11.09.2022
1816 Clear 27 1006 74 10000 5 20 12:50 11.09.2022
1817 Clear 29 1010 70 10000 4 30 09:25 11.09.2022
1818 Clear 29 1010 70 10000 4 30 09:25 11.09.2022
1819 Clouds 29 1011 71 10000 5 10 07:19 11.09.2022
1820 Clouds 24 1008 84 10000 3 10 00:54 11.09.2022
1821 Clear 23 1007 83 10000 2 360 22:56 10.09.2022
1822 Clear 24 1008 82 10000 2 40 21:33 10.09.2022
1823 Clouds 24 1012 84 10000 2.24 59 19:48 10.09.2022
1824 Clouds 25 1008 81 10000 2.24 58 19:29 10.09.2022
1825 Clear 24 1008 80 10000 2 70 18:54 10.09.2022
1826 Clear 25 1009 79 10000 3 80 16:51 10.09.2022
1827 Clear 26 1009 76 10000 4 80 14:43 10.09.2022
1828 Clear 26 1006 70 10000 3 90 12:53 10.09.2022
1829 Clear 28 1012 70 10000 4 80 11:19 10.09.2022
1830 Clear 30 1012 66 10000 2 70 09:50 10.09.2022
1831 Clear 29 1012 63 10000 4.02 63 08:37 10.09.2022
1832 Clear 29 1013 66 10000 2 60 07:22 10.09.2022
1833 Clear 23 1007 81 10000 1 340 00:41 10.09.2022
1834 Clear 23 1009 78 10000 1.34 62 23:33 09.09.2022
1835 Clear 22 1009 75 10000 2 360 22:18 09.09.2022
1836 Clouds 23 1010 75 10000 2 50 20:47 09.09.2022
1837 Clouds 23 1010 74 10000 2 80 19:25 09.09.2022
1838 Clouds 24 1011 75 10000 3 80 18:47 09.09.2022
1839 Clear 24 1011 73 10000 3 30 16:23 09.09.2022
1840 Clear 25 1011 68 10000 4 30 13:49 09.09.2022
1841 Clear 25 1015 68 10000 4 30 12:32 09.09.2022
1842 Clear 28 1014 64 10000 4 60 09:55 09.09.2022
1843 Clear 28 1012 56 10000 5 20 05:18 09.09.2022
1844 Clear 26 1012 59 10000 3 40 03:20 09.09.2022
1845 Clear 24 1011 73 10000 3 50 21:52 08.09.2022
1846 Clear 24 1011 72 10000 2 60 20:51 08.09.2022
1847 Clear 24 1011 72 10000 2 80 20:31 08.09.2022
1848 Clear 24 1012 70 10000 2 80 19:49 08.09.2022
1849 Clear 25 1012 69 10000 4 80 17:48 08.09.2022
1850 Clear 25 1012 72 10000 4 60 16:19 08.09.2022
1851 Clear 26 1009 59 10000 3 70 14:40 08.09.2022
1852 Clear 27 1011 65 10000 4 90 13:23 08.09.2022
1853 Rain 28 1015 56 10000 5 90 11:37 08.09.2022
1854 Clear 29 1015 48 10000 5 70 10:23 08.09.2022
1855 Clear 32 1010 59 10000 1 0 07:49 08.09.2022
1856 Clear 31 1012 60 10000 2 0 05:51 08.09.2022
1857 Clear 28 1010 64 10000 2 90 02:36 08.09.2022
1858 Clear 28 1010 65 10000 2 90 02:18 08.09.2022
1859 Clear 23 1016 80 10000 1.79 103 00:22 08.09.2022
1860 Clear 24 1015 77 10000 1.34 98 22:19 07.09.2022
1861 Clear 24 1015 77 10000 1.79 104 21:39 07.09.2022
1862 Clear 25 1011 74 10000 1.34 121 20:31 07.09.2022
1863 Clear 26 1011 73 10000 1.34 147 19:26 07.09.2022
1864 Clear 27 1012 71 10000 3.13 141 17:22 07.09.2022
1865 Clear 29 1015 61 10000 4 140 12:41 07.09.2022
1866 Clear 32 1015 58 10000 4 180 10:45 07.09.2022
1867 Clear 34 1014 68 10000 2 250 08:33 07.09.2022
1868 Clear 32 1015 66 10000 2 250 06:50 07.09.2022
1869 Mist 24 1010 88 5000 3 150 00:53 07.09.2022
1870 Clear 23 1009 86 10000 2.24 167 22:28 06.09.2022
1871 Clear 24 1009 84 10000 2 160 21:38 06.09.2022
1872 Clear 25 1009 79 10000 3.13 165 19:40 06.09.2022
1873 Clear 24 1010 77 10000 3.13 164 18:40 06.09.2022
1874 Clear 25 1010 78 10000 3 150 17:50 06.09.2022
1875 Clear 25 1010 78 10000 3 150 17:50 06.09.2022
1876 Clear 26 1009 78 10000 2.24 162 16:47 06.09.2022
1877 Clear 26 1009 78 10000 2.24 164 16:24 06.09.2022
1878 Clear 27 1009 74 10000 2.68 154 14:27 06.09.2022
1879 Clear 27 1013 79 10000 4 180 13:44 06.09.2022
1880 Clear 27 1012 78 10000 3 200 13:18 06.09.2022
1881 Clear 30 1012 69 10000 2 230 10:55 06.09.2022
1882 Clouds 30 1011 68 10000 3 210 09:22 06.09.2022
1883 Clouds 30 1012 69 10000 3 210 07:53 06.09.2022
1884 Clouds 30 1007 64 10000 3 0 06:20 06.09.2022
1885 Clear 22 1006 82 10000 2.24 297 01:20 06.09.2022
1886 Clear 21 1004 83 10000 3.58 316 22:53 05.09.2022
1887 Clear 21 1003 82 10000 4.02 309 21:38 05.09.2022
1888 Clear 21 1002 81 10000 4.02 299 20:20 05.09.2022
1889 Clear 21 1002 80 10000 4.47 318 18:53 05.09.2022
1890 Clear 21 1002 80 10000 4 310 18:24 05.09.2022
1891 Clear 22 1002 80 10000 5.36 323 17:50 05.09.2022
1892 Clouds 22 1001 77 10000 5 320 15:53 05.09.2022
1893 Clouds 22 1000 74 10000 7 330 14:34 05.09.2022
1894 Clouds 22 998 84 10000 6 320 12:51 05.09.2022
1895 Clouds 23 996 88 8000 9 330 10:37 05.09.2022
1896 Clouds 23 993 87 10000 11 340 08:45 05.09.2022
1897 Mist 24 993 90 5000 10 340 03:47 05.09.2022
1898 Mist 24 993 90 5000 10 340 03:47 05.09.2022
1899 Mist 24 993 89 5000 9 330 00:18 05.09.2022
1900 Clouds 24 993 89 7000 8 340 22:28 04.09.2022
1901 Clouds 24 993 89 8000 8 350 21:49 04.09.2022
1902 Clouds 24 994 89 7000 8 350 19:50 04.09.2022
1903 Clouds 25 995 90 6000 8 360 18:33 04.09.2022
1904 Rain 25 996 90 4000 9 360 17:26 04.09.2022
1905 Clouds 25 997 89 10000 8 10 15:23 04.09.2022
1906 Clouds 25 997 89 10000 10 10 14:22 04.09.2022
1907 Clouds 27 996 88 7000 10 20 12:26 04.09.2022
1908 Clouds 29 1001 82 10000 7 50 10:59 04.09.2022
1909 Clouds 30 1000 78 10000 8 50 09:24 04.09.2022
1910 Clouds 30 1002 85 10000 5 60 06:27 04.09.2022
1911 Clouds 27 1003 87 10000 5 20 02:31 04.09.2022
1912 Clouds 26 999 88 10000 2.68 82 22:26 03.09.2022
1913 Clouds 26 999 88 10000 2.68 82 22:26 03.09.2022
1914 Clouds 26 1003 88 10000 3 40 21:24 03.09.2022
1915 Clouds 26 1003 86 10000 2 40 20:51 03.09.2022
1916 Clouds 27 1000 88 10000 2.24 92 17:37 03.09.2022
1917 Clouds 27 1000 88 10000 2.24 91 16:49 03.09.2022
1918 Clouds 28 1000 87 10000 3 90 14:47 03.09.2022
1919 Clouds 27 1000 88 10000 2.24 82 14:28 03.09.2022
1920 Clouds 28 1000 86 10000 3 90 13:43 03.09.2022
1921 Clouds 29 999 82 10000 4 80 11:24 03.09.2022
1922 Clouds 30 999 76 10000 4 40 08:55 03.09.2022
1923 Clouds 28 1004 85 10000 5 20 06:59 03.09.2022
1924 Clouds 28 1001 90 8000 4 40 04:45 03.09.2022
1925 Clouds 25 1001 90 7000 4 10 00:48 03.09.2022
1926 Clouds 24 1000 89 10000 5 350 23:28 02.09.2022
1927 Mist 24 1001 89 5000 6 20 21:36 02.09.2022
1928 Clouds 24 1001 89 8000 6 20 20:39 02.09.2022
1929 Mist 24 1002 89 5000 6.26 22 19:35 02.09.2022
1930 Mist 24 1003 89 5000 6 10 18:43 02.09.2022
1931 Mist 24 1003 89 5000 6 10 18:24 02.09.2022
1932 Clouds 25 1004 86 8000 4 350 16:50 02.09.2022
1933 Clouds 25 1004 86 8000 6.26 32 15:40 02.09.2022
1934 Clouds 26 1008 79 10000 8 20 12:49 02.09.2022
1935 Clouds 27 1009 65 10000 8 30 10:25 02.09.2022
1936 Clouds 28 1009 61 10000 10 20 09:41 02.09.2022
1937 Clouds 27 1009 69 10000 9 30 07:54 02.09.2022
1938 Clouds 28 1010 65 10000 9 40 06:41 02.09.2022
1939 Clouds 26 1006 75 10000 7 20 03:52 02.09.2022
1940 Clouds 25 1005 77 10000 5 20 22:45 01.09.2022
1941 Clouds 25 1006 78 10000 4 10 21:44 01.09.2022
1942 Clouds 25 1006 78 10000 5 360 21:25 01.09.2022
1943 Clouds 25 1006 79 10000 5 10 20:46 01.09.2022
1944 Clouds 25 1007 76 10000 5 20 18:57 01.09.2022
1945 Clouds 24 1008 76 10000 5 30 17:33 01.09.2022
1946 Clouds 25 1008 75 10000 7 30 15:59 01.09.2022
1947 Clear 25 1008 73 10000 6 20 14:33 01.09.2022
1948 Clear 26 1011 70 10000 6 40 12:58 01.09.2022
1949 Clear 27 1011 68 10000 6 20 11:53 01.09.2022
1950 Clear 27 1011 65 10000 8 360 11:31 01.09.2022
1951 Clear 28 1011 66 10000 8 10 10:23 01.09.2022
1952 Clear 28 1011 64 10000 6 40 08:30 01.09.2022
1953 Clouds 29 1008 60 10000 6 40 06:22 01.09.2022
1954 Clear 25 1008 71 10000 5 20 01:32 01.09.2022
1955 Clear 25 1008 71 10000 5 20 01:32 01.09.2022
1956 Clear 25 1008 71 10000 5 20 01:32 01.09.2022
1957 Clear 25 1008 71 10000 5 20 01:32 01.09.2022
1958 Clear 25 1008 75 10000 3 360 23:29 31.08.2022
1959 Clear 25 1007 74 10000 4 30 21:32 31.08.2022
1960 Clear 25 1007 74 10000 4 30 19:50 31.08.2022
1961 Clear 25 1007 77 10000 4 360 18:18 31.08.2022
1962 Clouds 25 1007 78 10000 6 360 15:45 31.08.2022
1963 Clouds 24 1006 81 10000 4 10 14:27 31.08.2022
1964 Clouds 25 1005 81 10000 5 360 12:21 31.08.2022
1965 Clouds 26 1005 78 10000 7 10 10:52 31.08.2022
1966 Clouds 26 1009 75 10000 6 340 08:35 31.08.2022
1967 Clouds 24 1011 85 10000 5 360 04:26 31.08.2022
1968 Clouds 25 1004 86 10000 5 360 22:58 30.08.2022
1969 Clouds 26 1004 86 10000 6 360 21:33 30.08.2022
1970 Clouds 27 1005 85 10000 3 20 20:47 30.08.2022
1971 Clouds 27 1009 83 10000 3 350 17:30 30.08.2022
1972 Clouds 27 1009 80 10000 5 360 14:42 30.08.2022
1973 Clouds 27 1008 82 10000 5 340 13:24 30.08.2022
1974 Clouds 30 1004 80 10000 5 360 11:21 30.08.2022
1975 Clouds 29 1008 81 10000 4 360 10:35 30.08.2022
1976 Clouds 32 1008 81 6000 7 340 06:49 30.08.2022
1977 Clouds 29 1002 83 10000 3 190 01:45 30.08.2022
1978 Clouds 29 1002 83 10000 3 190 01:45 30.08.2022
1979 Clouds 29 1002 83 10000 3 190 01:45 30.08.2022
1980 Clear 28 1004 87 10000 2.24 142 22:47 29.08.2022
1981 Clear 28 1004 86 10000 3 140 22:18 29.08.2022
1982 Clear 28 1005 86 10000 3 150 21:23 29.08.2022
1983 Clear 28 1005 85 10000 4 150 19:42 29.08.2022
1984 Clear 28 1010 86 10000 4 150 17:42 29.08.2022
1985 Clear 28 1010 85 10000 4 150 17:24 29.08.2022
1986 Clear 29 1010 83 10000 4 130 15:41 29.08.2022
1987 Clear 30 1010 81 10000 4 160 14:18 29.08.2022
1988 Clear 32 1008 78 10000 3 140 12:34 29.08.2022
1989 Clouds 33 1008 76 10000 4 160 10:49 29.08.2022
1990 Rain 33 1008 74 10000 2 190 09:30 29.08.2022
1991 Clouds 33 1009 73 10000 3 170 07:35 29.08.2022
1992 Clouds 28 1006 76 10000 5 160 02:34 29.08.2022
1993 Clear 25 1005 83 10000 3 130 23:37 28.08.2022
1994 Clear 26 1005 80 10000 3.58 139 21:49 28.08.2022
1995 Clear 25 1009 82 10000 3.13 138 21:29 28.08.2022
1996 Clear 25 1009 81 10000 3 140 20:23 28.08.2022
1997 Clear 26 1006 77 10000 4 130 18:37 28.08.2022
1998 Clear 26 1006 76 10000 4 130 18:18 28.08.2022
1999 Clear 26 1011 78 10000 5 120 16:49 28.08.2022
2000 Clear 27 1011 77 10000 4 120 15:34 28.08.2022
2001 Clear 27 1010 74 10000 4 120 13:32 28.08.2022
2002 Clear 28 1009 70 10000 5 150 11:59 28.08.2022
2003 Clear 29 1009 68 10000 5 140 10:22 28.08.2022
2004 Clear 29 1010 68 10000 4 130 09:24 28.08.2022
2005 Clear 28 1011 69 10000 4 90 07:56 28.08.2022
2006 Clear 29 1011 67 10000 4 110 07:26 28.08.2022
2007 Clouds 25 1008 71 10000 5 90 00:38 28.08.2022
2008 Clouds 26 1007 71 10000 4 80 23:28 27.08.2022
2009 Clouds 25 1011 74 10000 4 70 22:27 27.08.2022
2010 Clouds 25 1011 79 10000 5 60 20:35 27.08.2022
2011 Clouds 26 1006 78 10000 6 70 19:26 27.08.2022
2012 Clouds 27 1007 72 10000 3.13 59 16:29 27.08.2022
2013 Clouds 27 1007 73 10000 4 70 15:31 27.08.2022
2014 Clear 26 1010 78 10000 3 60 13:22 27.08.2022
2015 Clouds 27 1009 77 10000 3 70 11:59 27.08.2022
2016 Clouds 28 1009 77 10000 4 60 10:27 27.08.2022
2017 Clear 27 1009 72 10000 3.13 44 09:33 27.08.2022
2018 Clouds 27 1010 69 10000 4 80 06:52 27.08.2022
2019 Clouds 25 1008 82 10000 4.02 39 00:52 27.08.2022
2020 Rain 25 1008 82 10000 2 40 23:46 26.08.2022
2021 Clouds 26 1008 85 10000 3 10 21:46 26.08.2022
2022 Clouds 27 1008 77 10000 0.89 67 19:50 26.08.2022
2023 Clear 27 1008 79 10000 2 150 17:53 26.08.2022
2024 Clear 27 1009 73 10000 3 170 15:45 26.08.2022
2025 Clouds 28 1008 77 10000 2 130 15:24 26.08.2022
2026 Clouds 28 1008 78 10000 3 140 12:59 26.08.2022
2027 Clouds 29 1007 76 10000 3 100 11:47 26.08.2022
2028 Clouds 29 1007 76 10000 3 100 11:21 26.08.2022
2029 Clouds 29 1007 77 10000 4 130 08:21 26.08.2022
2030 Clouds 28 1008 83 10000 4 60 03:51 26.08.2022
2031 Clouds 27 1007 85 10000 2.68 27 23:47 25.08.2022
2032 Clouds 27 1006 85 10000 2 10 22:20 25.08.2022
2033 Clouds 28 1007 85 10000 2 60 20:53 25.08.2022
2034 Clouds 27 1007 80 10000 2 50 19:27 25.08.2022
2035 Clouds 27 1007 80 10000 3 60 18:29 25.08.2022
2036 Clouds 27 1008 80 10000 3 90 17:31 25.08.2022
2037 Clouds 27 1008 80 10000 3 70 16:27 25.08.2022
2038 Clouds 29 1009 87 10000 3 80 15:28 25.08.2022
2039 Clouds 29 1007 84 10000 4 90 12:56 25.08.2022
2040 Clouds 31 1007 80 10000 5 90 10:49 25.08.2022
2041 Clouds 32 1005 81 10000 5 60 09:46 25.08.2022
2042 Clouds 33 1006 76 10000 1 0 07:31 25.08.2022
2043 Clouds 28 1007 79 10000 5 120 02:29 25.08.2022
2044 Clouds 27 1003 81 10000 2.68 80 23:29 24.08.2022
2045 Clouds 28 1003 77 10000 3.13 76 22:46 24.08.2022
2046 Clouds 27 1007 84 10000 3 110 21:37 24.08.2022
2047 Clouds 27 1007 84 10000 3 110 21:19 24.08.2022
2048 Clouds 27 1008 82 10000 3 120 19:34 24.08.2022
2049 Clouds 27 1008 80 10000 3 80 16:49 24.08.2022
2050 Clouds 26 1009 77 10000 3 80 15:52 24.08.2022
2051 Clouds 27 1005 76 10000 4 110 13:48 24.08.2022
2052 Clouds 28 1004 74 10000 4 60 11:59 24.08.2022
2053 Clouds 29 1004 76 10000 4 60 11:18 24.08.2022
2054 Clouds 29 1004 75 10000 4 60 08:26 24.08.2022
2055 Clouds 28 1009 81 10000 5 20 03:32 24.08.2022
2056 Clouds 27 1008 84 10000 4 50 23:35 23.08.2022
2057 Clouds 27 1008 86 10000 4 20 22:33 23.08.2022
2058 Clouds 27 1008 86 10000 5 30 21:35 23.08.2022
2059 Clouds 27 1008 87 10000 5 20 20:30 23.08.2022
2060 Clouds 28 1008 89 10000 6 30 18:50 23.08.2022
2061 Clouds 28 1008 89 10000 7 40 17:50 23.08.2022
2062 Clouds 29 1004 86 10000 6 30 17:18 23.08.2022
2063 Clouds 29 1004 86 10000 7 30 15:39 23.08.2022
2064 Rain 28 1002 80 10000 5 30 13:36 23.08.2022
2065 Clouds 30 1000 71 10000 6 60 11:33 23.08.2022
2066 Thunderstorm 32 998 63 10000 7 120 10:51 23.08.2022
2067 Thunderstorm 32 1004 80 10000 7 120 10:26 23.08.2022
2068 Clouds 39 1000 60 10000 4 320 08:53 23.08.2022
2069 Clouds 38 1004 71 10000 3 10 08:21 23.08.2022
2070 Clouds 39 1004 71 10000 2 0 07:38 23.08.2022
2071 Clouds 40 1001 59 10000 4 330 06:29 23.08.2022
2072 Clouds 40 1001 59 10000 4 330 06:29 23.08.2022
2073 Clear 38 1001 61 10000 2 20 04:45 23.08.2022
2074 Clear 32 1000 76 10000 0.45 111 00:28 23.08.2022
2075 Clear 32 1000 75 10000 1.34 170 23:54 22.08.2022
2076 Clear 32 1003 80 10000 1.34 161 22:45 22.08.2022
2077 Clear 31 1003 82 10000 1 0 21:45 22.08.2022
2078 Clear 33 1000 75 10000 2 150 19:48 22.08.2022
2079 Clear 33 999 77 10000 3 150 19:18 22.08.2022
2080 Clouds 33 997 76 10000 0.45 282 17:22 22.08.2022
2081 Clear 34 1000 74 10000 5 130 15:39 22.08.2022
2082 Clear 35 1003 55 10000 3 150 14:31 22.08.2022
2083 Clear 38 1001 66 10000 4 270 10:43 22.08.2022
2084 Clouds 38 1001 75 10000 4 260 07:59 22.08.2022
2085 Clear 34 1000 71 10000 2 260 04:25 22.08.2022
2086 Clear 30 999 88 10000 3 150 00:43 22.08.2022
2087 Clear 29 1003 92 10000 3 150 00:23 22.08.2022
2088 Clear 28 998 88 10000 2 140 22:22 21.08.2022
2089 Clear 28 998 88 10000 3 130 21:25 21.08.2022
2090 Clear 29 996 88 10000 2 140 20:47 21.08.2022
2091 Clear 28 997 87 10000 3 160 19:25 21.08.2022
2092 Clear 29 1000 84 10000 3 140 17:24 21.08.2022
2093 Clear 29 1000 83 10000 4 120 15:53 21.08.2022
2094 Clear 29 1001 83 10000 4 130 15:21 21.08.2022
2095 Clear 29 1001 83 10000 4 130 13:52 21.08.2022
2096 Clear 29 1004 86 10000 5 140 13:26 21.08.2022
2097 Clouds 30 1004 82 10000 5 130 11:34 21.08.2022
2098 Thunderstorm 31 1004 83 10000 5 120 09:31 21.08.2022
2099 Clouds 31 1004 83 10000 4 100 08:56 21.08.2022
2100 Clouds 31 1004 84 10000 3 100 08:38 21.08.2022
2101 Clouds 33 1001 73 10000 1 0 07:26 21.08.2022
2102 Clouds 32 1003 78 10000 1 0 03:39 21.08.2022
2103 Clouds 28 1005 89 10000 2 20 00:22 21.08.2022
2104 Clear 28 1004 89 10000 2 10 22:37 20.08.2022
2105 Clear 28 1004 89 10000 3 360 21:34 20.08.2022
2106 Clear 28 1004 89 10000 1.34 31 20:28 20.08.2022
2107 Clouds 28 1005 87 10000 0.45 46 19:40 20.08.2022
2108 Clouds 28 1005 88 10000 1 0 18:27 20.08.2022
2109 Clouds 28 1005 87 10000 2 110 17:40 20.08.2022
2110 Clouds 28 1005 86 10000 2 70 16:40 20.08.2022
2111 Clear 28 1005 83 10000 3 10 15:23 20.08.2022
2112 Rain 27 1004 85 10000 2 50 12:46 20.08.2022
2113 Thunderstorm 27 1005 92 6000 6 30 11:47 20.08.2022
2114 Clear 38 1002 72 10000 4 280 09:33 20.08.2022
2115 Clear 37 1003 70 10000 6 320 08:29 20.08.2022
2116 Rain 37 1001 61 10000 7 290 05:49 20.08.2022
2117 Clear 32 1003 86 10000 2.24 246 00:58 20.08.2022
2118 Clear 32 1003 86 10000 2.24 245 00:30 20.08.2022
2119 Clear 31 1003 79 10000 2 190 22:53 19.08.2022
2120 Clear 32 1002 86 10000 2 190 21:34 19.08.2022
2121 Clear 32 1002 85 10000 3 190 19:43 19.08.2022
2122 Clear 33 999 76 10000 3 150 16:40 19.08.2022
2123 Clear 34 997 76 10000 3 160 14:37 19.08.2022
2124 Clear 35 1002 68 10000 5 190 12:47 19.08.2022
2125 Clear 39 1000 70 10000 3 0 10:43 19.08.2022
2126 Clear 39 1000 65 10000 3 300 09:39 19.08.2022
2127 Clear 35 999 67 10000 4 210 04:59 19.08.2022
2128 Clear 30 999 80 10000 4.02 172 00:45 19.08.2022
2129 Clear 30 999 81 10000 4.02 172 00:20 19.08.2022
2130 Clear 30 999 81 10000 5 170 22:59 18.08.2022
2131 Clear 30 999 82 10000 4 170 22:26 18.08.2022
2132 Clear 30 999 82 10000 5 160 21:51 18.08.2022
2133 Clear 30 999 82 10000 5 160 20:56 18.08.2022
2134 Clear 30 1002 86 10000 4 150 19:40 18.08.2022
2135 Clear 30 999 82 10000 4 150 19:20 18.08.2022
2136 Clear 30 1004 86 10000 5 150 17:38 18.08.2022
2137 Clear 32 1004 83 10000 5 150 16:18 18.08.2022
2138 Clear 32 1004 79 10000 4 140 14:22 18.08.2022
2139 Clear 32 1005 74 10000 4 130 13:44 18.08.2022
2140 Clear 32 1005 74 10000 4 130 13:44 18.08.2022
2141 Clear 32 1005 74 10000 4 130 13:44 18.08.2022
2142 Clear 32 1005 74 10000 4 130 13:44 18.08.2022
2143 Clear 33 1003 77 10000 5 140 12:30 18.08.2022
2144 Clear 35 1004 72 10000 5 140 11:20 18.08.2022
2145 Clouds 35 1004 72 10000 6 130 09:43 18.08.2022
2146 Clouds 34 1004 75 10000 3 140 07:53 18.08.2022
2147 Clouds 34 1005 75 10000 2 120 06:37 18.08.2022
2148 Clouds 31 1002 77 10000 3 120 02:22 18.08.2022
2149 Clear 29 1005 88 10000 1 0 22:47 17.08.2022
2150 Clear 29 1005 85 10000 1.79 86 20:30 17.08.2022
2151 Clear 29 1005 83 10000 2 80 19:58 17.08.2022
2152 Clear 29 1006 83 10000 2 110 18:37 17.08.2022
2153 Clear 30 1003 79 10000 3 110 17:21 17.08.2022
2154 Clear 30 1007 81 10000 3 110 15:46 17.08.2022
2155 Clouds 30 1006 79 10000 3 90 14:40 17.08.2022
2156 Clouds 31 1005 82 10000 4 110 12:29 17.08.2022
2157 Clouds 32 1001 75 10000 4 90 11:23 17.08.2022
2158 Clouds 33 1001 74 10000 7 30 09:19 17.08.2022
2159 Clear 36 1002 67 10000 2.24 11 06:29 17.08.2022
2160 Clear 29 1005 83 10000 1 0 00:50 17.08.2022
2161 Clear 29 1005 84 10000 2 270 23:27 16.08.2022
2162 Clear 29 1005 79 10000 1 0 21:32 16.08.2022
2163 Clear 29 1004 82 10000 1.34 357 20:20 16.08.2022
2164 Rain 29 1005 79 10000 2 320 19:26 16.08.2022
2165 Clear 29 1006 74 10000 2 170 17:55 16.08.2022
2166 Clouds 31 1007 66 10000 4 290 16:48 16.08.2022
2167 Clear 30 1006 74 10000 2 180 15:45 16.08.2022
2168 Clear 32 1005 62 10000 3 100 14:54 16.08.2022
2169 Clear 32 1005 62 10000 3 100 14:36 16.08.2022
2170 Rain 31 1003 71 10000 3 50 12:33 16.08.2022
2171 Rain 32 1003 69 10000 6 10 10:23 16.08.2022
2172 Rain 36 1002 57 10000 5 230 08:53 16.08.2022
2173 Clouds 36 1002 56 10000 5 250 08:21 16.08.2022
2174 Clouds 38 1002 79 10000 4 280 06:31 16.08.2022
2175 Clear 31 998 77 10000 4 180 23:56 15.08.2022
2176 Clear 31 1001 83 10000 5 180 22:23 15.08.2022
2177 Clear 31 1001 83 10000 4 190 21:50 15.08.2022
2178 Clear 31 1002 83 10000 4.47 177 20:32 15.08.2022
2179 Clear 32 998 76 10000 4.02 172 19:22 15.08.2022
2180 Clear 32 1002 80 10000 5 160 17:59 15.08.2022
2181 Clear 32 1003 80 10000 5 160 16:25 15.08.2022
2182 Clear 33 1002 79 10000 5 160 15:27 15.08.2022
2183 Clear 34 996 75 10000 6 160 13:45 15.08.2022
2184 Clouds 38 1001 72 10000 3 190 10:38 15.08.2022
2185 Clouds 39 1001 70 10000 3 220 09:40 15.08.2022
2186 Clear 38 999 60 10000 3 210 06:51 15.08.2022
2187 Clear 35 1000 63 10000 4 200 04:32 15.08.2022
2188 Clear 30 1003 81 10000 5 170 23:49 14.08.2022
2189 Clear 30 999 77 10000 5 170 22:28 14.08.2022
2190 Clear 30 999 80 10000 5 160 21:25 14.08.2022
2191 Clear 31 999 81 10000 5 160 19:46 14.08.2022
2192 Clear 31 1004 87 10000 6 150 18:41 14.08.2022
2193 Clear 31 1004 86 10000 5 150 17:44 14.08.2022
2194 Clear 31 1004 85 10000 4 150 16:31 14.08.2022
2195 Clear 32 1003 83 10000 5 150 15:45 14.08.2022
2196 Clear 33 1004 65 10000 5 160 13:52 14.08.2022
2197 Clear 34 1003 76 10000 5 150 13:34 14.08.2022
2198 Clear 34 1002 77 10000 5 140 12:54 14.08.2022
2199 Clear 36 1002 75 10000 5 150 11:31 14.08.2022
2200 Clear 37 1002 68 10000 6 150 10:18 14.08.2022
2201 Clear 38 1003 69 10000 4 150 08:18 14.08.2022
2202 Clear 36 1004 71 10000 2 190 06:18 14.08.2022
2203 Clear 31 1001 78 10000 4 150 01:48 14.08.2022
2204 Clear 29 1000 84 10000 3 140 23:23 13.08.2022
2205 Clear 30 1000 83 10000 4 150 22:28 13.08.2022
2206 Clear 30 1004 86 10000 3 140 20:56 13.08.2022
2207 Clear 31 1000 82 10000 3 150 19:49 13.08.2022
2208 Clear 32 1004 87 10000 3 150 19:19 13.08.2022
2209 Clear 32 1004 84 10000 4 140 17:22 13.08.2022
2210 Clear 33 1004 80 10000 3.13 150 14:51 13.08.2022
2211 Clear 33 1004 80 10000 3.13 150 14:24 13.08.2022
2212 Clear 34 1003 79 10000 3.58 147 13:34 13.08.2022
2213 Clear 34 1002 79 10000 4 160 11:33 13.08.2022
2214 Clear 34 1004 52 10000 6 110 09:26 13.08.2022
2215 Clouds 39 1004 77 10000 2 0 07:43 13.08.2022
2216 Clear 30 1004 82 10000 3 180 01:52 13.08.2022
2217 Clear 29 1004 88 10000 3 150 23:32 12.08.2022
2218 Clear 30 1004 85 10000 2.24 195 21:39 12.08.2022
2219 Clear 30 1004 81 10000 2 160 19:49 12.08.2022
2220 Clear 30 1004 83 10000 2 150 19:23 12.08.2022
2221 Clear 30 1004 83 10000 3 160 18:26 12.08.2022
2222 Clear 30 1005 79 10000 4 150 16:27 12.08.2022
2223 Clear 30 1005 79 10000 3.13 135 15:19 12.08.2022
2224 Clear 30 1004 78 10000 3 150 13:47 12.08.2022
2225 Clear 29 1004 79 10000 4.02 205 12:32 12.08.2022
2226 Rain 30 1006 74 10000 6 70 08:52 12.08.2022
2227 Clouds 35 1004 73 10000 3 190 07:45 12.08.2022
2228 Clear 38 1005 71 10000 4 230 06:21 12.08.2022
2229 Clear 30 1005 88 10000 2 140 00:32 12.08.2022
2230 Clear 30 1005 87 10000 2 150 23:58 11.08.2022
2231 Clear 30 1006 87 10000 2 150 23:22 11.08.2022
2232 Clear 31 1004 82 10000 2 150 21:53 11.08.2022
2233 Clear 31 1005 74 10000 3 150 21:28 11.08.2022
2234 Clear 31 1005 74 10000 3 150 21:28 11.08.2022
2235 Clear 31 1005 82 10000 2 160 20:30 11.08.2022
2236 Clear 32 1006 66 10000 3 180 19:33 11.08.2022
2237 Clear 32 1006 66 10000 3 170 18:53 11.08.2022
2238 Clear 32 1006 66 10000 3 160 16:46 11.08.2022
2239 Clouds 27 1008 86 10000 1.25 331 15:42 11.08.2022
2240 Clear 34 1006 55 10000 3 140 14:36 11.08.2022
2241 Clouds 33 1003 76 10000 3 150 11:56 11.08.2022
2242 Clouds 39 1004 73 10000 6 320 08:57 11.08.2022
2243 Clear 38 1005 78 10000 3 230 05:58 11.08.2022
2244 Clear 33 1000 66 10000 3 200 02:33 11.08.2022
2245 Clear 30 1001 83 10000 3 150 22:59 10.08.2022
2246 Clear 30 1004 85 10000 4 170 21:46 10.08.2022
2247 Clear 31 1001 80 10000 3.13 165 20:56 10.08.2022
2248 Clear 31 1004 83 10000 3.13 165 20:24 10.08.2022
2249 Clear 31 1005 84 10000 3 180 18:46 10.08.2022
2250 Clear 32 1005 84 10000 3 170 17:26 10.08.2022
2251 Clear 33 1005 80 10000 5 150 14:25 10.08.2022
2252 Clouds 33 1005 74 10000 5 90 12:54 10.08.2022
2253 Clear 36 1004 72 10000 6 180 10:31 10.08.2022
2254 Clouds 39 1004 68 10000 3 170 08:37 10.08.2022
2255 Clear 38 1005 66 10000 2 250 07:22 10.08.2022
2256 Clear 35 1005 71 10000 3 210 04:50 10.08.2022
2257 Clear 30 1005 80 10000 5 170 00:50 10.08.2022
2258 Clear 29 1005 82 10000 3.58 171 23:27 09.08.2022
2259 Clear 30 1001 80 10000 4.47 170 21:38 09.08.2022
2260 Clear 31 1001 80 10000 4 150 20:56 09.08.2022
2261 Clear 30 1005 85 10000 5 160 18:56 09.08.2022
2262 Clear 31 1006 85 10000 5 150 17:31 09.08.2022
2263 Clear 31 1006 85 10000 5 150 17:31 09.08.2022
2264 Clear 31 1006 85 10000 5 150 16:43 09.08.2022
2265 Clear 32 1006 82 10000 5 150 15:59 09.08.2022
2266 Clear 32 1005 82 10000 6 160 14:30 09.08.2022
2267 Clear 36 1003 69 10000 5 190 10:53 09.08.2022
2268 Clear 38 1004 66 10000 2 0 08:52 09.08.2022
2269 Clear 38 1001 59 10000 4 200 07:54 09.08.2022
2270 Clear 34 1006 71 10000 5 190 04:43 09.08.2022
2271 Clear 29 1002 79 10000 4 170 23:58 08.08.2022
2272 Clear 29 1002 79 10000 5 170 22:58 08.08.2022
2273 Clear 29 1002 80 10000 5 170 22:35 08.08.2022
2274 Clear 30 1002 79 10000 6 170 21:30 08.08.2022
2275 Clear 30 1002 80 10000 6 160 19:57 08.08.2022
2276 Clear 30 1002 80 10000 6 170 19:22 08.08.2022
2277 Clear 30 1003 81 10000 6 150 17:34 08.08.2022
2278 Clear 31 1003 80 10000 6 150 15:45 08.08.2022
2279 Clear 32 1002 78 10000 7 150 14:33 08.08.2022
2280 Clear 34 1005 77 10000 7 150 12:29 08.08.2022
2281 Clear 36 1004 72 10000 5 150 10:19 08.08.2022
2282 Clear 36 1002 61 10000 5 200 06:54 08.08.2022
2283 Clear 33 1003 66 10000 6 170 03:31 08.08.2022
2284 Clear 30 1006 82 10000 4 170 22:44 07.08.2022
2285 Clear 30 1005 81 10000 5 160 21:40 07.08.2022
2286 Clear 30 1005 80 10000 6 170 20:42 07.08.2022
2287 Clear 31 1001 76 10000 6 170 20:18 07.08.2022
2288 Clear 31 1001 76 10000 5 170 19:41 07.08.2022
2289 Clear 30 1005 83 10000 5 170 18:36 07.08.2022
2290 Clear 31 1005 84 10000 5 160 16:55 07.08.2022
2291 Clear 31 1005 84 10000 5 150 16:35 07.08.2022
2292 Clear 31 1005 84 10000 6 160 15:23 07.08.2022
2293 Clear 33 1004 80 10000 5 140 13:37 07.08.2022
2294 Clear 34 1004 77 10000 4 150 11:58 07.08.2022
2295 Clear 36 1004 73 10000 5 190 10:34 07.08.2022
2296 Clear 38 1001 61 10000 4 190 07:38 07.08.2022
2297 Clear 31 1002 68 10000 5 210 03:20 07.08.2022
2298 Clear 29 1002 79 10000 3 190 00:57 07.08.2022
2299 Clear 28 1001 79 10000 3 190 22:25 06.08.2022
2300 Clear 28 1005 82 10000 2 180 20:46 06.08.2022
2301 Clear 28 1005 82 10000 2 200 19:41 06.08.2022
2302 Clear 29 1005 81 10000 4 190 18:30 06.08.2022
2303 Clear 29 1006 79 10000 3 180 17:32 06.08.2022
2304 Clear 28 1005 80 10000 3 150 14:48 06.08.2022
2305 Clear 29 1005 81 10000 1 0 13:49 06.08.2022
2306 Clear 30 1005 78 10000 4 200 11:55 06.08.2022
2307 Clouds 30 1005 77 10000 1 0 10:32 06.08.2022
2308 Thunderstorm 28 1004 83 10000 6 340 08:40 06.08.2022
2309 Clear 38 1000 58 10000 4 340 03:53 06.08.2022
2310 Clear 31 1001 83 10000 1 0 23:50 05.08.2022
2311 Clear 31 1004 86 10000 2 160 22:32 05.08.2022
2312 Clear 31 1005 85 10000 1 0 19:46 05.08.2022
2313 Clear 32 1005 85 10000 3 130 18:46 05.08.2022
2314 Clear 32 1005 85 10000 3 130 18:22 05.08.2022
2315 Clear 32 1005 84 10000 3 150 16:49 05.08.2022
2316 Clear 33 1004 78 10000 5 150 15:22 05.08.2022
2317 Clear 33 1004 77 10000 4 150 14:31 05.08.2022
2318 Clear 34 1004 80 10000 5 140 13:24 05.08.2022
2319 Clouds 35 1003 76 10000 6 180 12:29 05.08.2022
2320 Clouds 38 1003 70 10000 2 270 10:51 05.08.2022
2321 Clouds 40 1000 56 10000 2 240 08:27 05.08.2022
2322 Clouds 38 1001 61 10000 3 0 06:56 05.08.2022
2323 Clouds 38 1001 61 10000 3 0 06:56 05.08.2022
2324 Clear 30 1003 79 10000 3 180 00:46 05.08.2022
2325 Clear 30 1002 80 10000 3 170 22:31 04.08.2022
2326 Clear 31 1002 80 10000 10.73 178 21:27 04.08.2022
2327 Clear 31 1002 80 10000 10.73 177 20:43 04.08.2022
2328 Clear 31 1002 81 10000 4 160 19:46 04.08.2022
2329 Clear 31 1006 87 10000 4 150 18:37 04.08.2022
2330 Clear 31 1006 87 10000 4 150 18:18 04.08.2022
2331 Clear 32 1005 80 10000 6 150 14:23 04.08.2022
2332 Clear 33 1005 78 10000 6 150 12:57 04.08.2022
2333 Clear 35 1005 72 10000 5 170 11:18 04.08.2022
2334 Clear 37 1003 63 10000 7 180 07:53 04.08.2022
2335 Clear 35 1004 66 10000 5 200 05:46 04.08.2022
2336 Clear 31 1004 71 10000 6 180 02:33 04.08.2022
2337 Clear 30 1004 78 10000 4 170 23:45 03.08.2022
2338 Clear 29 1004 79 10000 5 170 22:55 03.08.2022
2339 Clear 30 1003 81 10000 4 170 20:50 03.08.2022
2340 Clouds 30 1003 80 10000 5 160 19:46 03.08.2022
2341 Clouds 30 1003 82 10000 5 150 18:37 03.08.2022
2342 Clear 30 1003 81 10000 6 150 16:25 03.08.2022
2343 Clear 31 1007 82 10000 5 140 14:51 03.08.2022
2344 Clouds 32 1006 79 10000 5 160 12:41 03.08.2022
2345 Clouds 35 1001 69 10000 6 150 08:54 03.08.2022
2346 Clouds 33 1004 71 10000 5 160 04:47 03.08.2022
2347 Clouds 32 1004 72 10000 5 150 03:37 03.08.2022
2348 Clouds 30 1004 79 10000 5 150 01:36 03.08.2022
2349 Clouds 29 1004 87 10000 4 150 23:27 02.08.2022
2350 Clouds 29 1003 87 10000 5 150 21:55 02.08.2022
2351 Clouds 29 1003 87 10000 4 140 21:33 02.08.2022
2352 Clouds 29 1004 86 10000 4 150 19:19 02.08.2022
2353 Clear 30 1004 83 10000 4 140 16:38 02.08.2022
2354 Clouds 32 1003 77 10000 7 140 12:55 02.08.2022
2355 Clouds 36 1006 78 10000 6 160 09:42 02.08.2022
2356 Clouds 37 1002 68 10000 5 170 07:56 02.08.2022
2357 Clouds 36 1002 69 10000 5 140 07:25 02.08.2022
2358 Clouds 33 1004 72 10000 4 130 04:55 02.08.2022
2359 Clear 29 1003 86 10000 1.34 163 23:52 01.08.2022
2360 Clear 28 1006 89 10000 2 150 22:50 01.08.2022
2361 Clear 29 1006 90 10000 3 140 20:53 01.08.2022
2362 Clear 29 1005 90 10000 3 140 19:34 01.08.2022
2363 Clear 29 1005 89 10000 3 140 18:43 01.08.2022
2364 Clear 28 1006 91 10000 4 220 16:54 01.08.2022
2365 Clouds 29 1002 89 10000 2 210 16:28 01.08.2022
2366 Clouds 29 1002 90 3000 4 110 15:31 01.08.2022
2367 Clouds 29 1001 88 3000 5 160 14:43 01.08.2022
2368 Clouds 32 1004 78 10000 5 100 12:51 01.08.2022
2369 Clear 35 1003 77 10000 1 0 10:29 01.08.2022
2370 Clear 35 1003 70 10000 3 0 08:39 01.08.2022
2371 Clouds 35 1000 63 10000 5 340 06:21 01.08.2022
2372 Clouds 32 1001 69 10000 4 290 04:20 01.08.2022
2373 Clouds 29 1004 83 10000 2.24 309 00:49 01.08.2022
2374 Clear 28 1002 81 10000 3 360 22:41 31.07.2022
2375 Clear 28 1002 84 10000 3 360 21:33 31.07.2022
2376 Clear 30 1002 81 10000 3 20 19:56 31.07.2022
2377 Clear 30 1002 79 10000 3 10 18:36 31.07.2022
2378 Clear 31 1002 81 10000 3 20 15:54 31.07.2022
2379 Clear 31 1001 79 10000 5 360 13:51 31.07.2022
2380 Clear 33 1000 75 10000 5 350 12:28 31.07.2022
2381 Clear 35 999 68 10000 5 310 09:55 31.07.2022
2382 Clear 35 1000 70 10000 5 320 08:18 31.07.2022
2383 Clouds 31 998 72 10000 4 280 03:28 31.07.2022
2384 Clear 28 997 86 10000 3.13 292 23:46 30.07.2022
2385 Clear 27 1001 86 10000 3 320 22:19 30.07.2022
2386 Clear 27 1001 86 10000 3 320 22:19 30.07.2022
2387 Clear 27 1001 87 10000 3 320 21:49 30.07.2022
2388 Rain 28 1001 86 10000 3 330 20:58 30.07.2022
2389 Clear 28 1001 85 10000 2 320 19:59 30.07.2022
2390 Clear 28 1001 84 10000 3 320 18:57 30.07.2022
2391 Clear 29 1002 85 10000 3 360 17:45 30.07.2022
2392 Clouds 30 1002 86 10000 5 10 15:54 30.07.2022
2393 Clear 30 1002 85 10000 5 10 15:24 30.07.2022
2394 Clouds 30 1001 81 10000 3.13 20 13:19 30.07.2022
2395 Clouds 31 1001 82 10000 3.13 20 12:19 30.07.2022
2396 Clouds 32 1002 77 10000 3 10 10:31 30.07.2022
2397 Clouds 32 1002 77 10000 3 10 10:31 30.07.2022
2398 Clouds 32 1002 76 10000 3.58 41 09:56 30.07.2022
2399 Clouds 32 997 76 10000 2 40 07:55 30.07.2022
2400 Clouds 31 1000 80 10000 1 0 03:55 30.07.2022
2401 Clouds 30 1004 82 10000 3 130 02:25 30.07.2022
2402 Clouds 28 1004 86 10000 3 80 22:44 29.07.2022
2403 Clouds 28 1004 86 10000 3 110 21:24 29.07.2022
2404 Clouds 29 1000 84 10000 2 140 20:39 29.07.2022
2405 Clouds 29 1001 84 10000 5 120 18:18 29.07.2022
2406 Clouds 30 1006 85 10000 5 100 15:35 29.07.2022
2407 Clouds 30 1005 81 10000 5 100 13:19 29.07.2022
2408 Clouds 33 1004 75 10000 5 100 11:22 29.07.2022
2409 Clouds 34 1001 65 10000 6 110 08:50 29.07.2022
2410 Clouds 34 1001 65 10000 7 140 08:18 29.07.2022
2411 Clouds 29 1003 78 10000 5 130 01:58 29.07.2022
2412 Clear 28 1002 87 10000 4 140 22:53 28.07.2022
2413 Clear 29 1002 85 10000 5 140 21:28 28.07.2022
2414 Clouds 29 1002 84 10000 5 130 20:32 28.07.2022
2415 Clear 29 999 82 10000 1.34 186 19:43 28.07.2022
2416 Clear 29 1002 84 10000 6 140 19:23 28.07.2022
2417 Clear 30 1002 79 10000 7 140 17:44 28.07.2022
2418 Clear 30 1002 77 10000 6 130 16:55 28.07.2022
2419 Clear 30 1006 78 10000 6 150 15:32 28.07.2022
2420 Clouds 31 1006 70 10000 7 150 13:29 28.07.2022
2421 Clear 35 1003 69 10000 7 130 10:37 28.07.2022
2422 Clear 37 1001 63 10000 3 190 06:42 28.07.2022
2423 Clear 36 999 53 10000 3 200 05:29 28.07.2022
2424 Clear 29 1001 79 10000 2 160 00:49 28.07.2022
2425 Clear 29 1005 84 10000 2 170 22:40 27.07.2022
2426 Clear 29 1004 84 10000 2 210 21:28 27.07.2022
2427 Clear 29 1004 83 10000 1.79 115 19:41 27.07.2022
2428 Clear 29 1005 83 10000 3 160 17:49 27.07.2022
2429 Clear 30 1005 88 10000 4 150 15:52 27.07.2022
2430 Clear 30 1005 85 10000 2.68 108 14:57 27.07.2022
2431 Clear 30 1004 86 10000 2.24 109 14:34 27.07.2022
2432 Rain 30 1004 85 10000 2 210 12:49 27.07.2022
2433 Clear 36 1004 71 10000 1 0 07:53 27.07.2022
2434 Clear 35 1005 72 10000 1 0 06:21 27.07.2022
2435 Clear 29 1002 76 10000 1.34 253 01:35 27.07.2022
2436 Clear 28 1004 81 10000 2 230 22:26 26.07.2022
2437 Clear 28 1004 79 10000 2.24 268 21:20 26.07.2022
2438 Clear 28 1004 78 10000 2.24 259 20:25 26.07.2022
2439 Clear 29 1005 81 10000 2 240 18:42 26.07.2022
2440 Clear 28 1005 82 10000 2 240 17:57 26.07.2022
2441 Rain 28 1005 82 10000 2.24 157 15:58 26.07.2022
2442 Clear 28 1004 83 10000 2.68 141 14:57 26.07.2022
2443 Rain 28 1006 86 10000 2 60 13:20 26.07.2022
2444 Clouds 35 1003 95 10000 0.89 170 10:59 26.07.2022
2445 Clear 36 999 68 10000 4 190 08:46 26.07.2022
2446 Clear 36 1001 70 10000 4 200 05:49 26.07.2022
2447 Clear 29 1001 79 10000 4 150 00:28 26.07.2022
2448 Clear 28 1005 83 10000 2 110 22:53 25.07.2022
2449 Clear 28 1005 83 10000 1.79 72 22:22 25.07.2022
2450 Clear 29 1001 77 10000 2.24 119 21:38 25.07.2022
2451 Clouds 29 1006 84 10000 3 180 20:40 25.07.2022
2452 Clouds 29 1002 81 10000 4 160 19:27 25.07.2022
2453 Clouds 30 1002 86 10000 5 140 18:18 25.07.2022
2454 Clouds 30 1006 87 10000 3 120 17:27 25.07.2022
2455 Clouds 30 1007 85 10000 6 140 14:32 25.07.2022
2456 Clear 32 1000 71 10000 5 130 11:50 25.07.2022
2457 Clouds 35 1002 68 10000 4 160 08:32 25.07.2022
2458 Clear 30 1004 70 10000 4 140 02:21 25.07.2022
2459 Clear 28 1007 82 10000 2.24 114 23:51 24.07.2022
2460 Clear 27 1006 83 10000 2.24 113 22:54 24.07.2022
2461 Clear 28 1006 82 10000 3 120 22:24 24.07.2022
2462 Clear 28 1002 81 10000 3 130 21:18 24.07.2022
2463 Clear 28 1002 81 10000 3 130 20:46 24.07.2022
2464 Clear 28 1006 84 10000 4 150 19:38 24.07.2022
2465 Clear 28 1007 84 10000 3 140 18:30 24.07.2022
2466 Clear 28 1007 82 10000 4 110 15:57 24.07.2022
2467 Clear 29 1006 82 10000 4 120 15:33 24.07.2022
2468 Clear 29 1005 82 10000 4 120 13:54 24.07.2022
2469 Clear 29 1006 79 10000 4 110 12:52 24.07.2022
2470 Clear 31 1004 77 10000 2 10 11:37 24.07.2022
2471 Clear 31 1004 74 10000 2 50 10:48 24.07.2022
2472 Clear 32 1005 59 10000 2 80 08:30 24.07.2022
2473 Clear 33 1005 71 10000 2 0 07:46 24.07.2022
2474 Clear 30 1006 73 10000 4 340 03:57 24.07.2022
2475 Clear 27 1004 78 10000 3 330 23:48 23.07.2022
2476 Rain 27 1005 69 10000 4 320 20:51 23.07.2022
2477 Clear 28 1005 83 10000 3 30 19:44 23.07.2022
2478 Rain 28 1004 79 10000 5 360 18:50 23.07.2022
2479 Clear 29 1004 78 10000 4 350 17:28 23.07.2022
2480 Clear 31 1004 79 10000 6 340 16:30 23.07.2022
2481 Clear 35 1004 55 10000 6 330 15:22 23.07.2022
2482 Clear 35 1003 55 10000 5 340 14:56 23.07.2022
2483 Clear 33 1003 76 10000 4.47 338 14:24 23.07.2022
2484 Clear 33 1003 76 10000 4.47 338 14:24 23.07.2022
2485 Clear 37 996 48 10000 3 260 12:22 23.07.2022
2486 Clear 39 998 57 10000 6 290 10:44 23.07.2022
2487 Clear 39 998 57 10000 7 270 09:53 23.07.2022
2488 Clear 38 998 60 10000 7 280 08:24 23.07.2022
2489 Clear 34 1000 69 10000 6 230 03:38 23.07.2022
2490 Clear 30 1000 86 10000 3 190 00:39 23.07.2022
2491 Clouds 29 1004 90 8000 3 150 21:41 22.07.2022
2492 Clouds 29 1000 89 8000 3 150 20:33 22.07.2022
2493 Clouds 29 1005 86 8000 4 150 18:57 22.07.2022
2494 Clouds 30 1007 79 8000 5 150 17:52 22.07.2022
2495 Clouds 30 1006 83 8000 4 130 16:31 22.07.2022
2496 Clear 30 1006 77 10000 5 140 13:50 22.07.2022
2497 Clear 35 1006 52 10000 2 0 10:40 22.07.2022
2498 Clear 35 1002 65 10000 1 0 09:25 22.07.2022
2499 Clear 35 1006 70 10000 1 0 08:26 22.07.2022
2500 Clouds 32 1004 68 10000 4 290 04:24 22.07.2022
2501 Clear 27 1008 89 10000 1.79 298 23:44 21.07.2022
2502 Clear 28 1008 87 10000 2 280 21:55 21.07.2022
2503 Clear 28 1008 88 10000 2 290 20:28 21.07.2022
2504 Clear 28 1008 89 10000 2 250 18:43 21.07.2022
2505 Clear 28 1009 89 10000 2 240 17:22 21.07.2022
2506 Clear 28 1009 89 10000 2 230 16:31 21.07.2022
2507 Rain 28 1008 90 10000 2 230 14:46 21.07.2022
2508 Clear 28 1008 90 10000 2 190 13:58 21.07.2022
2509 Rain 28 1003 88 10000 1 0 12:18 21.07.2022
2510 Clouds 32 1003 74 10000 7 340 10:21 21.07.2022
2511 Clouds 32 1006 77 10000 4 310 08:53 21.07.2022
2512 Clouds 32 1008 70 10000 5 340 08:18 21.07.2022
2513 Rain 33 1004 71 10000 6 300 06:45 21.07.2022
2514 Clear 31 1004 73 10000 4 310 02:59 21.07.2022
2515 Clear 29 1006 82 10000 3 310 22:49 20.07.2022
2516 Rain 29 1005 83 10000 2 340 22:19 20.07.2022
2517 Clear 30 1001 77 10000 2 290 20:46 20.07.2022
2518 Rain 30 1005 81 10000 2 280 19:47 20.07.2022
2519 Clear 31 1007 75 10000 3 270 18:54 20.07.2022
2520 Clear 31 1007 76 10000 5 280 18:31 20.07.2022
2521 Clouds 34 1006 59 10000 3 270 17:28 20.07.2022
2522 Clear 34 1006 59 10000 3 230 15:33 20.07.2022
2523 Clear 34 1005 59 10000 2 240 14:49 20.07.2022
2524 Clear 35 1004 55 10000 4 230 13:21 20.07.2022
2525 Clear 37 999 64 10000 6 230 10:59 20.07.2022
2526 Clear 36 1000 64 10000 6 210 06:35 20.07.2022
2527 Clear 29 1001 84 10000 3 190 01:47 20.07.2022
2528 Clear 29 1001 88 10000 2 190 00:42 20.07.2022
2529 Rain 28 1004 82 10000 2 190 22:37 19.07.2022
2530 Rain 28 1004 87 10000 2 190 22:18 19.07.2022
2531 Clear 28 1004 87 10000 3 200 20:50 19.07.2022
2532 Clear 28 1004 85 10000 2 180 19:32 19.07.2022
2533 Clear 28 1005 85 10000 3 170 18:42 19.07.2022
2534 Clear 28 1005 88 10000 3 180 17:54 19.07.2022
2535 Clouds 28 1005 83 10000 3 150 15:49 19.07.2022
2536 Clouds 28 1004 85 10000 3 150 13:37 19.07.2022
2537 Clouds 29 1003 86 10000 3 150 11:33 19.07.2022
2538 Clouds 28 1003 82 10000 1 0 09:52 19.07.2022
2539 Clouds 29 1003 85 10000 3 220 08:47 19.07.2022
2540 Clouds 32 1003 80 10000 2 50 07:46 19.07.2022
2541 Clouds 31 1003 83 10000 3 20 07:18 19.07.2022
2542 Clouds 32 1000 73 10000 4 150 05:18 19.07.2022
2543 Clouds 30 1000 75 10000 1 0 02:38 19.07.2022
2544 Clear 27 1003 89 10000 2 140 23:54 18.07.2022
2545 Clear 27 1002 89 10000 2 140 23:20 18.07.2022
2546 Clear 27 1002 89 10000 3 160 22:26 18.07.2022
2547 Clouds 28 1002 88 10000 3 140 21:20 18.07.2022
2548 Clouds 28 1002 86 10000 2 160 20:22 18.07.2022
2549 Clear 27 1002 82 10000 3 10 18:29 18.07.2022
2550 Clear 27 1003 83 10000 3 10 16:30 18.07.2022
2551 Clear 28 1002 81 10000 4 10 15:26 18.07.2022
2552 Clouds 30 1000 80 10000 4 340 13:32 18.07.2022
2553 Clouds 30 995 77 10000 5 340 11:43 18.07.2022
2554 Clouds 31 995 76 10000 5 310 09:55 18.07.2022
2555 Clouds 32 995 78 10000 6 310 07:54 18.07.2022
2556 Clear 30 996 77 10000 5 230 03:32 18.07.2022
2557 Clear 28 998 80 10000 3 220 22:56 17.07.2022
2558 Clear 28 998 80 10000 2 230 22:29 17.07.2022
2559 Clear 28 998 82 10000 3 240 21:35 17.07.2022
2560 Clear 28 999 85 10000 4.47 256 20:45 17.07.2022
2561 Clear 28 998 89 10000 3 220 19:49 17.07.2022
2562 Rain 28 995 88 10000 3 210 19:20 17.07.2022
2563 Rain 28 994 85 10000 3 200 17:42 17.07.2022
2564 Rain 28 999 87 10000 3 200 17:22 17.07.2022
2565 Rain 28 999 87 10000 3 180 16:28 17.07.2022
2566 Rain 28 999 88 10000 3.13 179 15:37 17.07.2022
2567 Rain 28 997 80 10000 1 0 13:51 17.07.2022
2568 Rain 27 998 82 10000 2 140 12:40 17.07.2022
2569 Rain 29 992 77 10000 11 280 10:19 17.07.2022
2570 Clear 36 994 66 10000 3 230 06:58 17.07.2022
2571 Clear 30 999 82 10000 3 200 02:34 17.07.2022
2572 Clear 33 994 69 10000 3 200 02:34 17.07.2022
2573 Clouds 28 999 87 7000 3 160 23:23 16.07.2022
2574 Clear 29 999 89 10000 3 160 21:59 16.07.2022
2575 Clear 29 1000 88 10000 2 180 20:28 16.07.2022
2576 Clear 29 996 83 10000 3 140 18:43 16.07.2022
2577 Clear 29 1001 82 10000 4 140 17:25 16.07.2022
2578 Clear 30 1002 79 10000 4 120 15:50 16.07.2022
2579 Rain 32 1000 70 10000 2 360 11:55 16.07.2022
2580 Rain 33 1001 73 10000 2 10 09:41 16.07.2022
2581 Clouds 33 1000 80 10000 2 10 09:22 16.07.2022
2582 Clouds 33 1000 77 10000 3 340 08:35 16.07.2022
2583 Clouds 32 997 72 10000 2 330 06:47 16.07.2022
2584 Rain 28 996 87 10000 3 20 03:31 16.07.2022
2585 Clouds 29 999 89 6000 2 160 23:52 15.07.2022
2586 Clear 29 999 89 10000 1 0 22:46 15.07.2022
2587 Clear 29 999 89 10000 2 160 21:52 15.07.2022
2588 Clear 29 999 88 10000 2 150 20:32 15.07.2022
2589 Clear 30 999 86 10000 1 220 18:46 15.07.2022
2590 Clear 30 1000 86 10000 1 360 17:49 15.07.2022
2591 Clear 29 1000 83 10000 1 0 15:41 15.07.2022
2592 Clear 29 996 81 10000 4 290 13:22 15.07.2022
2593 Clear 30 994 70 10000 4 280 11:48 15.07.2022
2594 Clouds 29 1000 79 10000 2 120 10:51 15.07.2022
2595 Rain 36 1000 52 10000 3 290 07:47 15.07.2022
2596 Clear 33 1000 77 10000 4 280 02:39 15.07.2022
2597 Clear 33 997 76 10000 2 240 00:38 15.07.2022
2598 Clear 33 996 78 10000 2 260 22:54 14.07.2022
2599 Rain 33 996 78 10000 2 230 21:56 14.07.2022
2600 Rain 33 996 78 10000 2 210 21:32 14.07.2022
2601 Rain 33 996 78 10000 3 190 20:46 14.07.2022
2602 Clear 33 997 78 10000 2.24 199 20:28 14.07.2022
2603 Clear 33 997 78 10000 3 190 19:58 14.07.2022
2604 Clear 34 998 75 10000 4 130 16:23 14.07.2022
2605 Clear 34 997 71 10000 4 100 15:54 14.07.2022
2606 Clear 35 997 65 10000 1 0 14:44 14.07.2022
2607 Clear 37 1001 41 10000 2 0 13:32 14.07.2022
2608 Clear 38 995 41 10000 4 310 12:18 14.07.2022
2609 Clear 38 1000 65 10000 3 300 11:25 14.07.2022
2610 Clear 39 1000 63 10000 3 220 10:39 14.07.2022
2611 Clear 40 997 56 10000 4 270 08:21 14.07.2022
2612 Clear 36 998 61 10000 3 310 03:29 14.07.2022
2613 Clear 33 998 76 10000 2 210 00:54 14.07.2022
2614 Clear 32 997 79 10000 3 150 23:35 13.07.2022
2615 Clear 32 997 77 10000 2 160 22:23 13.07.2022
2616 Clear 33 997 77 10000 1.34 164 21:21 13.07.2022
2617 Clear 33 997 76 10000 2 140 20:23 13.07.2022
2618 Clear 33 1001 81 10000 3 180 17:54 13.07.2022
2619 Clear 34 998 74 10000 3 190 16:47 13.07.2022
2620 Clear 34 1002 82 10000 3 190 15:43 13.07.2022
2621 Clear 37 995 37 10000 3 290 13:24 13.07.2022
2622 Clear 40 1001 47 10000 4 0 10:46 13.07.2022
2623 Clouds 40 997 57 10000 5 290 10:28 13.07.2022
2624 Clouds 40 997 57 10000 5 290 10:28 13.07.2022
2625 Clouds 40 997 58 10000 4 230 09:27 13.07.2022
2626 Clouds 40 997 59 10000 4 240 07:53 13.07.2022
2627 Clear 34 999 71 10000 2 180 03:26 13.07.2022
2628 Clear 30 999 80 10000 2.24 178 00:24 13.07.2022
2629 Clear 30 998 80 10000 3 140 22:19 12.07.2022
2630 Clear 31 998 79 10000 4 150 21:36 12.07.2022
2631 Clear 31 998 79 10000 4 160 20:42 12.07.2022
2632 Clear 31 998 79 10000 4 180 19:42 12.07.2022
2633 Clear 32 999 76 10000 3 150 18:21 12.07.2022
2634 Clear 33 1000 74 10000 3 130 16:20 12.07.2022
2635 Clear 33 999 75 10000 5 150 14:31 12.07.2022
2636 Clear 34 998 73 10000 5 150 13:24 12.07.2022
2637 Clear 37 998 68 10000 5 150 11:46 12.07.2022
2638 Clear 38 996 53 10000 6 140 10:25 12.07.2022
2639 Rain 39 998 61 10000 4 190 08:38 12.07.2022
2640 Clouds 39 1002 71 10000 3 230 07:38 12.07.2022
2641 Clear 39 1000 63 10000 3 240 05:44 12.07.2022
2642 Clear 35 1004 79 10000 4 190 03:50 12.07.2022
2643 Clear 30 1004 83 10000 3 150 23:50 11.07.2022
2644 Clear 30 1003 83 10000 3 160 22:37 11.07.2022
2645 Clear 30 1004 80 10000 4 150 20:54 11.07.2022
2646 Clear 31 1004 80 10000 4 150 20:29 11.07.2022
2647 Clear 31 1001 73 10000 3 150 18:39 11.07.2022
2648 Clear 31 1005 79 10000 4 150 17:57 11.07.2022
2649 Clear 32 1005 76 10000 4 150 16:22 11.07.2022
2650 Clear 32 999 58 10000 4 150 14:52 11.07.2022
2651 Clear 35 1003 77 10000 5 190 12:28 11.07.2022
2652 Clear 36 1003 77 10000 3 0 10:54 11.07.2022
2653 Clear 36 1003 77 10000 1 0 09:54 11.07.2022
2654 Clear 36 1004 49 10000 4 190 08:36 11.07.2022
2655 Clear 35 1005 55 10000 4 190 07:32 11.07.2022
2656 Clear 28 1004 82 10000 2 150 00:47 11.07.2022
2657 Clear 28 1003 86 10000 2.68 49 23:48 10.07.2022
2658 Rain 27 1002 86 10000 2 30 22:26 10.07.2022
2659 Rain 27 1002 87 10000 2.68 86 20:55 10.07.2022
2660 Rain 29 998 83 10000 4 40 19:55 10.07.2022
2661 Thunderstorm 29 997 84 10000 9 360 19:20 10.07.2022
2662 Rain 33 1003 62 10000 3 190 17:50 10.07.2022
2663 Clear 33 1002 77 10000 4 170 16:59 10.07.2022
2664 Clear 34 1002 79 10000 5 180 16:20 10.07.2022
2665 Clear 35 1002 67 10000 5 180 14:35 10.07.2022
2666 Clear 38 1001 44 10000 3 270 12:38 10.07.2022
2667 Clear 38 1000 70 10000 5 230 11:34 10.07.2022
2668 Clouds 38 1002 44 10000 4 220 09:28 10.07.2022
2669 Clouds 39 1002 51 10000 3 220 08:38 10.07.2022
2670 Clouds 36 999 64 10000 4 270 05:36 10.07.2022
2671 Clear 30 1002 86 10000 2.24 169 23:32 09.07.2022
2672 Clear 30 1002 83 10000 2 190 22:26 09.07.2022
2673 Clear 30 1002 83 10000 2 190 22:26 09.07.2022
2674 Clear 30 1002 81 10000 2 160 21:31 09.07.2022
2675 Clear 31 1002 82 10000 2 180 19:19 09.07.2022
2676 Clear 31 1002 80 10000 3 150 18:22 09.07.2022
2677 Clear 32 1004 62 10000 4 160 16:59 09.07.2022
2678 Clear 32 1004 70 10000 5 150 15:54 09.07.2022
2679 Clear 32 1004 70 10000 4 150 15:35 09.07.2022
2680 Clear 33 1003 62 10000 4 110 13:54 09.07.2022
2681 Rain 33 999 74 10000 5 100 13:27 09.07.2022
2682 Rain 34 997 70 10000 3 90 11:33 09.07.2022
2683 Clouds 35 997 70 10000 4 70 10:24 09.07.2022
2684 Clouds 38 1002 47 10000 5 240 08:25 09.07.2022
2685 Clouds 37 1002 49 10000 3 230 06:59 09.07.2022
2686 Clouds 35 999 63 10000 3 300 04:34 09.07.2022
2687 Clear 31 998 77 10000 1.34 305 23:22 08.07.2022
2688 Clear 31 1001 81 10000 1 0 21:59 08.07.2022
2689 Clear 32 998 75 10000 2 230 21:18 08.07.2022
2690 Clear 32 998 75 10000 2 220 20:30 08.07.2022
2691 Clear 32 1002 81 10000 2 190 18:33 08.07.2022
2692 Clear 32 1003 80 10000 3 200 17:33 08.07.2022
2693 Clear 32 1003 80 10000 3 200 17:33 08.07.2022
2694 Clear 34 1003 65 10000 3 220 14:55 08.07.2022
2695 Clear 34 1002 78 10000 3 220 14:29 08.07.2022
2696 Clear 36 997 49 10000 4 290 12:28 08.07.2022
2697 Clear 38 1002 41 10000 5 310 10:45 08.07.2022
2698 Clear 37 1003 47 10000 4 300 08:51 08.07.2022
2699 Clear 37 999 62 10000 4 0 06:54 08.07.2022
2700 Clear 33 1001 71 10000 3 260 02:53 08.07.2022
2701 Clear 30 1004 89 10000 1.79 285 23:41 07.07.2022
2702 Clear 30 1004 89 10000 2 200 22:40 07.07.2022
2703 Clear 30 1004 87 10000 1.34 246 20:56 07.07.2022
2704 Clear 31 1005 86 10000 1.34 208 18:37 07.07.2022
2705 Clear 31 1005 87 10000 2 200 17:19 07.07.2022
2706 Clear 31 1005 86 10000 2 270 15:18 07.07.2022
2707 Rain 31 1000 81 10000 3 140 13:25 07.07.2022
2708 Clear 32 1000 77 10000 2 210 12:37 07.07.2022
2709 Clear 33 999 76 10000 2 210 12:18 07.07.2022
2710 Clouds 35 999 69 10000 4 240 11:29 07.07.2022
2711 Clear 36 1003 78 10000 4 240 10:42 07.07.2022
2712 Clear 36 1003 78 10000 4 240 10:24 07.07.2022
2713 Clouds 36 1000 64 10000 4 300 07:40 07.07.2022
2714 Clouds 33 1001 71 10000 4 230 04:18 07.07.2022
2715 Clouds 30 1003 86 10000 0.45 331 23:37 06.07.2022
2716 Clear 30 1003 86 10000 2 190 23:18 06.07.2022
2717 Clear 30 1003 86 10000 2 190 22:56 06.07.2022
2718 Clear 30 1003 85 10000 3 190 22:38 06.07.2022
2719 Clear 31 1002 84 10000 3 190 20:54 06.07.2022
2720 Clear 31 1002 84 10000 4 190 19:35 06.07.2022
2721 Clear 31 999 79 10000 5 180 17:32 06.07.2022
2722 Clear 31 998 79 10000 4 160 15:59 06.07.2022
2723 Clear 32 997 77 10000 5 150 14:33 06.07.2022
2724 Clear 34 1000 78 10000 5 170 12:31 06.07.2022
2725 Clear 35 996 70 10000 6 170 11:45 06.07.2022
2726 Clear 36 995 67 10000 6 180 10:18 06.07.2022
2727 Clear 36 997 66 10000 6 220 07:44 06.07.2022
2728 Clear 36 997 66 10000 5 200 07:44 06.07.2022
2729 Clear 36 997 66 10000 5 200 07:20 06.07.2022
2730 Clear 30 997 75 10000 6 170 01:42 06.07.2022
2731 Clear 29 996 82 10000 5 160 22:45 05.07.2022
2732 Clear 29 996 83 10000 4 150 21:32 05.07.2022
2733 Clear 29 996 83 10000 4 150 21:32 05.07.2022
2734 Clear 30 996 81 10000 5 160 20:38 05.07.2022
2735 Clear 30 996 82 10000 7 170 19:41 05.07.2022
2736 Clear 30 996 82 10000 5 150 18:26 05.07.2022
2737 Clear 31 996 81 10000 5 150 17:41 05.07.2022
2738 Clear 31 996 80 10000 5 150 16:39 05.07.2022
2739 Clear 32 996 80 10000 5 150 15:23 05.07.2022
2740 Clear 33 996 76 10000 5 150 13:36 05.07.2022
2741 Clouds 33 993 67 10000 6 150 12:41 05.07.2022
2742 Clouds 36 998 76 10000 5 140 10:46 05.07.2022
2743 Clouds 36 998 75 10000 5 150 10:25 05.07.2022
2744 Clouds 36 996 68 10000 4 140 08:24 05.07.2022
2745 Clouds 36 997 67 10000 4 140 07:21 05.07.2022
2746 Clouds 33 998 72 10000 4 90 04:40 05.07.2022
2747 Clear 28 1002 79 10000 3 110 01:54 05.07.2022
2748 Clouds 28 997 86 10000 4 120 23:40 04.07.2022
2749 Clouds 27 1001 89 10000 4 130 22:58 04.07.2022
2750 Clear 27 997 87 10000 4 120 22:19 04.07.2022
2751 Clouds 28 997 85 10000 4 120 20:58 04.07.2022
2752 Clouds 28 998 84 10000 4 120 20:37 04.07.2022
2753 Clouds 28 998 83 10000 5 130 19:57 04.07.2022
2754 Clouds 28 998 84 10000 5 130 19:37 04.07.2022
2755 Clouds 28 998 84 10000 5 130 18:54 04.07.2022
2756 Clear 28 999 81 10000 5 140 16:58 04.07.2022
2757 Clouds 29 999 81 10000 7 140 15:40 04.07.2022
2758 Clouds 29 999 78 10000 5 120 14:21 04.07.2022
2759 Clear 30 1002 75 10000 6 120 12:56 04.07.2022
2760 Clouds 33 1000 76 10000 5 110 11:32 04.07.2022
2761 Clouds 34 1000 75 10000 4 120 10:33 04.07.2022
2762 Clouds 34 1000 74 10000 2 150 09:23 04.07.2022
2763 Clouds 32 1002 75 10000 3 0 06:28 04.07.2022
2764 Clouds 29 999 74 10000 4 150 02:59 04.07.2022
2765 Clouds 26 998 81 10000 3 110 23:53 03.07.2022
2766 Clouds 27 998 86 10000 2 100 22:36 03.07.2022
2767 Clouds 27 998 85 10000 3 140 20:46 03.07.2022
2768 Clouds 27 999 85 10000 3 130 19:52 03.07.2022
2769 Clouds 27 999 85 10000 3 130 19:24 03.07.2022
2770 Clouds 27 999 85 10000 4 130 18:30 03.07.2022
2771 Clouds 27 1000 84 10000 5 120 17:41 03.07.2022
2772 Clear 28 1000 82 10000 3 110 15:28 03.07.2022
2773 Clear 28 1000 80 10000 5 120 14:53 03.07.2022
2774 Clear 29 1000 80 10000 5 100 13:50 03.07.2022
2775 Clear 30 1003 80 10000 5 100 12:47 03.07.2022
2776 Clouds 31 1003 79 10000 5 110 12:18 03.07.2022
2777 Rain 32 1002 76 10000 5 130 10:54 03.07.2022
2778 Clouds 32 1003 76 10000 4 140 10:35 03.07.2022
2779 Clouds 33 1001 70 10000 5 130 07:38 03.07.2022
2780 Clouds 32 1001 71 10000 5 140 06:35 03.07.2022
2781 Clouds 27 1002 80 10000 4 120 00:39 03.07.2022
2782 Clouds 26 1001 86 10000 3 110 23:37 02.07.2022
2783 Clouds 27 1001 86 10000 4 120 22:31 02.07.2022
2784 Clouds 27 1002 85 10000 3 110 20:28 02.07.2022
2785 Clouds 27 1002 86 10000 3 160 19:49 02.07.2022
2786 Clouds 27 1003 85 10000 5 140 18:24 02.07.2022
2787 Clouds 28 1003 82 10000 4 120 17:38 02.07.2022
2788 Clouds 28 1003 82 10000 5 130 15:56 02.07.2022
2789 Clouds 29 1002 80 10000 5 120 13:35 02.07.2022
2790 Clouds 30 1006 77 10000 6 120 11:48 02.07.2022
2791 Clouds 31 1006 78 10000 5 120 10:50 02.07.2022
2792 Clouds 32 1003 70 10000 8 150 09:49 02.07.2022
2793 Clouds 32 1003 69 10000 7 140 08:37 02.07.2022
2794 Clouds 33 1003 69 10000 7 140 08:19 02.07.2022
2795 Clouds 29 1005 77 10000 5 160 02:59 02.07.2022
2796 Clouds 27 1005 85 10000 5 130 00:28 02.07.2022
2797 Clouds 26 1004 86 10000 4 130 23:21 01.07.2022
2798 Clouds 27 1004 85 10000 5 130 22:29 01.07.2022
2799 Clouds 27 1004 87 10000 5 140 21:37 01.07.2022
2800 Clouds 27 1004 86 10000 3 150 20:58 01.07.2022
2801 Clouds 27 1004 85 10000 5 130 20:20 01.07.2022
2802 Clouds 27 1005 85 10000 6 140 19:36 01.07.2022
2803 Clouds 27 1005 86 10000 8 150 16:41 01.07.2022
2804 Clouds 28 1005 82 10000 7 140 14:29 01.07.2022
2805 Clouds 28 1004 81 10000 6 150 13:33 01.07.2022
2806 Clouds 31 1004 72 10000 8 160 10:53 01.07.2022
2807 Clouds 31 1004 73 10000 7 150 10:19 01.07.2022
2808 Clouds 31 1005 76 10000 9 150 06:31 01.07.2022
2809 Clouds 28 1005 76 10000 6 150 02:43 01.07.2022
2810 Clear 27 1004 86 10000 5 150 23:44 30.06.2022
2811 Clear 27 1004 87 10000 5 150 22:50 30.06.2022
2812 Clear 26 1004 87 10000 5 150 22:31 30.06.2022
2813 Clouds 26 1004 87 10000 5 150 21:53 30.06.2022
2814 Clouds 27 1004 87 10000 5 150 20:49 30.06.2022
2815 Clear 27 1003 86 10000 5 150 20:20 30.06.2022
2816 Clear 27 1004 84 10000 5 150 19:47 30.06.2022
2817 Clear 27 1004 85 10000 6 160 18:52 30.06.2022
2818 Clear 27 1004 85 10000 7 150 17:53 30.06.2022
2819 Clouds 28 1004 85 10000 5 160 17:18 30.06.2022
2820 Clouds 28 1004 86 10000 5 160 16:18 30.06.2022
2821 Rain 28 1003 85 10000 4 150 13:59 30.06.2022
2822 Rain 28 1003 85 10000 4 150 13:20 30.06.2022
2823 Rain 28 1003 84 10000 5 140 12:33 30.06.2022
2824 Rain 30 1001 78 10000 5 150 10:49 30.06.2022
2825 Rain 31 1002 78 10000 7 150 09:47 30.06.2022
2826 Clouds 32 1001 74 10000 7 150 08:31 30.06.2022
2827 Clouds 32 1002 72 10000 6 170 07:41 30.06.2022
2828 Clouds 32 1002 71 10000 6 170 05:45 30.06.2022
2829 Rain 27 1005 88 10000 3 150 23:39 29.06.2022
2830 Rain 27 1001 86 10000 4.92 178 22:42 29.06.2022
2831 Rain 27 1004 87 10000 4.92 179 22:19 29.06.2022
2832 Clear 27 1004 84 10000 3 170 20:35 29.06.2022
2833 Clear 27 1000 81 10000 4 180 19:57 29.06.2022
2834 Clear 27 1000 85 10000 5 170 18:46 29.06.2022
2835 Clear 28 1000 85 10000 4.92 165 17:38 29.06.2022
2836 Rain 28 1000 85 10000 3 150 16:24 29.06.2022
2837 Rain 27 999 88 10000 4.47 162 13:52 29.06.2022
2838 Rain 27 998 87 10000 5.81 193 12:38 29.06.2022
2839 Rain 28 1003 83 10000 1 0 10:18 29.06.2022
2840 Thunderstorm 27 1003 89 10000 4 180 09:27 29.06.2022
2841 Clouds 33 997 59 10000 4 350 06:32 29.06.2022
2842 Clouds 35 1003 55 10000 5 180 04:44 29.06.2022
2843 Clear 28 1001 77 10000 5 180 00:53 29.06.2022
2844 Clear 28 1001 79 10000 3 180 00:34 29.06.2022
2845 Clear 28 1001 80 10000 5 180 22:52 28.06.2022
2846 Clear 28 1000 84 10000 4 180 21:59 28.06.2022
2847 Clear 28 1000 83 10000 5 170 21:40 28.06.2022
2848 Clear 28 997 81 10000 5 170 21:22 28.06.2022
2849 Clear 28 1000 79 10000 6 170 19:54 28.06.2022
2850 Clear 28 1000 79 10000 5 170 19:30 28.06.2022
2851 Clear 28 1000 79 10000 7 170 18:40 28.06.2022
2852 Clear 28 1001 83 10000 5 150 17:25 28.06.2022
2853 Clear 29 997 80 10000 6 150 15:55 28.06.2022
2854 Rain 29 996 81 10000 6 150 14:52 28.06.2022
2855 Rain 29 996 81 10000 6 140 14:19 28.06.2022
2856 Clear 30 996 81 10000 6 160 13:45 28.06.2022
2857 Clear 31 995 78 10000 6 150 12:30 28.06.2022
2858 Rain 33 996 70 10000 6 170 10:23 28.06.2022
2859 Rain 34 995 68 10000 6 190 08:55 28.06.2022
2860 Rain 34 996 67 10000 8 200 08:33 28.06.2022
2861 Rain 34 996 67 10000 8 200 07:20 28.06.2022
2862 Clear 30 997 74 10000 6 180 03:55 28.06.2022
2863 Rain 28 997 79 10000 7 180 23:51 27.06.2022
2864 Rain 28 997 78 10000 8 180 23:26 27.06.2022
2865 Rain 28 997 78 10000 7 170 21:53 27.06.2022
2866 Rain 28 997 80 10000 7 170 21:22 27.06.2022
2867 Rain 28 997 80 10000 7 170 20:33 27.06.2022
2868 Clear 28 998 76 10000 9 160 18:51 27.06.2022
2869 Clear 28 998 74 10000 7 160 17:38 27.06.2022
2870 Clear 29 998 74 10000 7 160 15:50 27.06.2022
2871 Clear 30 998 76 10000 6 150 14:18 27.06.2022
2872 Clear 31 997 75 10000 7 150 12:58 27.06.2022
2873 Clear 32 997 73 10000 7 140 11:40 27.06.2022
2874 Rain 35 998 66 10000 7 180 09:45 27.06.2022
2875 Clear 35 998 64 10000 8 180 08:43 27.06.2022
2876 Clear 35 998 63 10000 7 190 07:49 27.06.2022
2877 Clear 34 999 65 10000 8 190 05:50 27.06.2022
2878 Clear 29 1001 75 10000 6 170 01:24 27.06.2022
2879 Clear 28 1000 77 10000 6 170 22:59 26.06.2022
2880 Clear 28 1000 77 10000 6 170 21:38 26.06.2022
2881 Clear 28 1000 78 10000 6 170 20:28 26.06.2022
2882 Clear 29 1000 79 10000 8 170 18:33 26.06.2022
2883 Rain 29 1001 78 10000 7 170 17:40 26.06.2022
2884 Clear 30 1000 77 10000 6 160 15:36 26.06.2022
2885 Clear 30 1000 78 10000 6 150 14:22 26.06.2022
2886 Clear 31 1000 78 10000 6 150 13:24 26.06.2022
2887 Clear 32 1000 72 10000 6 160 11:39 26.06.2022
2888 Clear 34 1000 70 10000 8 170 10:42 26.06.2022
2889 Clear 33 1000 69 10000 7 160 09:58 26.06.2022
2890 Clear 35 1001 68 10000 5.36 171 07:47 26.06.2022
2891 Clear 35 1001 68 10000 5.36 171 07:47 26.06.2022
2892 Clear 33 1002 69 10000 5 200 05:26 26.06.2022
2893 Clear 28 1001 75 10000 5 170 00:36 26.06.2022
2894 Clear 28 1001 75 10000 5 170 00:18 26.06.2022
2895 Clear 28 1001 80 10000 4 160 23:29 25.06.2022
2896 Clear 28 1000 81 10000 4.02 161 22:42 25.06.2022
2897 Clear 28 1000 82 10000 4.02 162 22:24 25.06.2022
2898 Clear 28 999 83 10000 3 160 21:21 25.06.2022
2899 Clear 28 1000 82 10000 3 150 20:36 25.06.2022
2900 Clear 28 1000 83 10000 3 160 19:56 25.06.2022
2901 Clear 29 1000 83 10000 4 150 18:22 25.06.2022
2902 Clear 29 1000 84 10000 5 150 17:26 25.06.2022
2903 Clear 30 1000 81 10000 4 150 16:25 25.06.2022
2904 Clear 30 1000 77 10000 5 160 14:28 25.06.2022
2905 Clear 32 999 71 10000 6 180 12:43 25.06.2022
2906 Clear 33 998 68 10000 6 190 11:39 25.06.2022
2907 Clear 34 998 64 10000 6.26 217 09:24 25.06.2022
2908 Clear 34 999 66 10000 7.15 216 08:48 25.06.2022
2909 Clear 34 998 68 10000 7.15 214 08:20 25.06.2022
2910 Clear 33 1004 69 10000 5 200 06:26 25.06.2022
2911 Clear 27 1000 81 10000 2.24 194 00:44 25.06.2022
2912 Clear 26 1000 84 10000 2.68 185 23:32 24.06.2022
2913 Clear 25 999 84 10000 5 170 21:59 24.06.2022
2914 Clear 26 999 83 10000 5 180 21:21 24.06.2022
2915 Clear 26 998 82 10000 3 220 20:22 24.06.2022
2916 Clear 26 1003 86 10000 4 190 19:23 24.06.2022
2917 Clear 27 999 81 10000 2.24 208 18:50 24.06.2022
2918 Clear 26 1003 85 10000 2.24 205 18:31 24.06.2022
2919 Rain 27 1000 82 10000 3 190 17:46 24.06.2022
2920 Rain 27 1000 81 10000 2 190 16:32 24.06.2022
2921 Clear 27 999 80 10000 4.02 211 14:29 24.06.2022
2922 Clear 27 999 79 10000 4.02 209 13:55 24.06.2022
2923 Clear 27 999 78 10000 3.58 231 12:26 24.06.2022
2924 Clear 26 999 78 10000 3 280 11:40 24.06.2022
2925 Rain 27 998 74 10000 2 0 10:22 24.06.2022
2926 Rain 27 998 76 10000 4 220 09:41 24.06.2022
2927 Rain 26 999 82 10000 6 230 08:52 24.06.2022
2928 Clouds 27 1000 85 10000 6 260 07:20 24.06.2022
2929 Clouds 27 1000 86 10000 4 290 06:42 24.06.2022
2930 Rain 27 1000 88 10000 4 290 06:18 24.06.2022
2931 Rain 25 999 90 10000 2 260 02:31 24.06.2022
2932 Clouds 29 1002 74 10000 5 320 22:57 23.06.2022
2933 Clear 29 1001 74 10000 3 220 22:38 23.06.2022
2934 Clouds 30 1001 83 10000 2 300 20:57 23.06.2022
2935 Clouds 30 997 77 10000 3.13 217 20:32 23.06.2022
2936 Clear 29 1002 74 10000 1 0 19:24 23.06.2022
2937 Clear 32 1003 58 10000 2 280 17:50 23.06.2022
2938 Rain 33 1003 52 10000 4 230 16:58 23.06.2022
2939 Clear 33 1003 55 10000 4 220 15:49 23.06.2022
2940 Rain 33 1003 55 10000 3 210 15:24 23.06.2022
2941 Clear 34 998 67 10000 3 230 13:32 23.06.2022
2942 Clear 36 997 63 10000 6 240 11:23 23.06.2022
2943 Clear 35 997 63 10000 6 230 10:31 23.06.2022
2944 Rain 35 996 45 10000 7 250 08:35 23.06.2022
2945 Clear 31 1000 71 10000 6 230 02:38 23.06.2022
2946 Clear 29 1000 72 10000 5 210 00:26 23.06.2022
2947 Clear 28 1004 77 10000 4 210 23:27 22.06.2022
2948 Clear 28 1004 80 10000 4 230 22:31 22.06.2022
2949 Clear 29 999 76 10000 4 230 21:21 22.06.2022
2950 Clear 29 999 76 10000 5 230 20:25 22.06.2022
2951 Clear 29 999 76 10000 4 230 19:50 22.06.2022
2952 Clear 30 1000 75 10000 6 200 18:21 22.06.2022
2953 Clear 30 1000 78 10000 4 200 17:26 22.06.2022
2954 Clear 30 1000 79 10000 4 200 16:18 22.06.2022
2955 Clear 30 1001 79 10000 4 180 15:25 22.06.2022
2956 Clouds 31 999 78 10000 3 210 13:52 22.06.2022
2957 Clouds 31 1000 80 10000 2 220 13:26 22.06.2022
2958 Clouds 32 1003 83 10000 3 250 12:56 22.06.2022
2959 Clear 33 999 68 10000 5 240 11:47 22.06.2022
2960 Clear 35 1002 73 10000 5 240 10:54 22.06.2022
2961 Clear 35 999 64 10000 6 240 09:44 22.06.2022
2962 Clear 34 1000 68 10000 5 220 07:56 22.06.2022
2963 Clear 31 1001 70 10000 4 200 03:30 22.06.2022
2964 Clear 27 1001 78 10000 3 160 01:22 22.06.2022
2965 Clear 26 1000 86 10000 3 130 23:39 21.06.2022
2966 Clear 26 999 86 10000 2 140 21:31 21.06.2022
2967 Clear 26 1000 84 10000 2 100 19:43 21.06.2022
2968 Clear 26 1000 85 10000 3 130 18:30 21.06.2022
2969 Clear 26 1000 83 10000 5 140 16:52 21.06.2022
2970 Clear 28 999 77 10000 4 160 12:40 21.06.2022
2971 Clouds 30 998 74 10000 4 160 10:55 21.06.2022
2972 Clouds 30 998 75 10000 4 160 09:40 21.06.2022
2973 Clouds 30 999 72 10000 3 150 07:56 21.06.2022
2974 Clouds 28 1000 74 10000 4 140 05:37 21.06.2022
2975 Clouds 26 998 84 10000 3 140 00:37 21.06.2022
2976 Clouds 25 1001 86 10000 3 110 22:23 20.06.2022
2977 Clouds 25 1001 84 10000 3 120 21:49 20.06.2022
2978 Clouds 25 1001 86 10000 2 110 20:30 20.06.2022
2979 Clouds 25 1001 86 10000 3 160 19:37 20.06.2022
2980 Clouds 26 1001 84 10000 3 160 18:44 20.06.2022
2981 Clouds 26 1001 84 10000 2 100 17:50 20.06.2022
2982 Clouds 26 1001 84 10000 2 60 16:55 20.06.2022
2983 Clouds 26 1001 83 10000 3 90 15:52 20.06.2022
2984 Clouds 28 999 79 10000 5 40 12:38 20.06.2022
2985 Clouds 30 999 76 10000 5 50 10:32 20.06.2022
2986 Clouds 31 995 66 10000 4 20 08:57 20.06.2022
2987 Clouds 31 995 66 10000 4 20 08:57 20.06.2022
2988 Clouds 31 999 72 10000 4 40 08:21 20.06.2022
2989 Clouds 30 996 69 10000 2 190 05:35 20.06.2022
2990 Clear 26 1001 86 10000 2.68 162 01:33 20.06.2022
2991 Rain 26 997 85 10000 2 140 00:25 20.06.2022
2992 Clouds 25 997 87 10000 5 150 22:50 19.06.2022
2993 Clouds 25 997 86 10000 4 150 21:51 19.06.2022
2994 Rain 25 997 86 10000 3 160 21:31 19.06.2022
2995 Rain 26 997 84 10000 3 140 20:38 19.06.2022
2996 Rain 26 998 83 10000 4 180 19:47 19.06.2022
2997 Rain 26 998 84 10000 3.13 183 18:43 19.06.2022
2998 Rain 26 998 80 10000 4 180 17:48 19.06.2022
2999 Rain 25 1003 85 10000 3.58 202 17:22 19.06.2022
3000 Clear 26 1003 83 10000 3.58 195 16:34 19.06.2022
3001 Rain 27 998 79 10000 3 190 15:41 19.06.2022
3002 Rain 27 998 80 10000 4 200 14:56 19.06.2022
3003 Clouds 28 998 79 10000 4 220 14:19 19.06.2022
3004 Rain 27 998 83 10000 4 130 12:56 19.06.2022
3005 Rain 28 1001 84 10000 5 80 10:55 19.06.2022
3006 Clouds 30 1002 77 10000 3 310 09:40 19.06.2022
3007 Clouds 30 1002 76 10000 3 260 08:47 19.06.2022
3008 Clouds 31 1002 72 10000 2 0 07:51 19.06.2022
3009 Clouds 30 999 71 10000 2 320 04:45 19.06.2022
3010 Clouds 25 1004 83 10000 1.79 86 01:29 19.06.2022
3011 Clouds 25 1003 88 10000 1 0 00:24 19.06.2022
3012 Clouds 25 1003 87 10000 1.79 83 23:35 18.06.2022
3013 Clouds 25 1003 87 10000 2 170 22:36 18.06.2022
3014 Clouds 25 1003 87 10000 2 80 20:56 18.06.2022
3015 Clouds 25 1003 87 10000 2 110 20:28 18.06.2022
3016 Clear 26 999 86 10000 3 160 19:37 18.06.2022
3017 Clear 26 999 85 10000 3 150 18:45 18.06.2022
3018 Clear 26 999 84 10000 3 150 17:31 18.06.2022
3019 Clear 27 999 81 10000 3 140 16:47 18.06.2022
3020 Clear 27 999 84 10000 4 140 15:31 18.06.2022
3021 Clear 27 997 81 10000 4 160 14:42 18.06.2022
3022 Clear 28 997 79 10000 6 150 13:22 18.06.2022
3023 Clear 29 1002 77 10000 5 110 11:38 18.06.2022
3024 Clear 31 1002 74 10000 5 120 10:46 18.06.2022
3025 Clear 32 1002 71 10000 4 100 09:20 18.06.2022
3026 Clear 33 1002 69 10000 3 140 08:19 18.06.2022
3027 Clear 32 1000 65 10000 4 130 06:44 18.06.2022
3028 Clear 27 1001 75 10000 4 160 03:24 18.06.2022
3029 Clear 24 1000 83 10000 4 160 01:24 18.06.2022
3030 Clear 23 1000 85 10000 4 150 00:45 18.06.2022
3031 Clear 23 1000 86 10000 4 130 23:52 17.06.2022
3032 Clear 23 1000 87 10000 3 150 23:19 17.06.2022
3033 Clear 23 999 86 10000 4 150 20:42 17.06.2022
3034 Clear 24 1000 85 10000 4 150 19:30 17.06.2022
3035 Clear 24 1000 85 10000 3 140 18:34 17.06.2022
3036 Clear 24 1001 84 10000 5 150 17:34 17.06.2022
3037 Clear 25 999 81 10000 6 140 16:42 17.06.2022
3038 Clear 25 999 80 10000 5 140 15:42 17.06.2022
3039 Clear 26 999 81 10000 5 140 14:50 17.06.2022
3040 Clear 26 1000 82 10000 6 140 14:19 17.06.2022
3041 Clear 27 1000 80 10000 5 150 13:44 17.06.2022
3042 Clear 28 1005 78 10000 5 150 12:45 17.06.2022
3043 Clear 31 998 60 10000 6 170 11:56 17.06.2022
3044 Clear 32 999 65 10000 6 170 11:35 17.06.2022
3045 Clear 34 999 59 10000 6 190 09:59 17.06.2022
3046 Clear 33 1003 70 10000 2 180 08:27 17.06.2022
3047 Clouds 34 1001 60 10000 2 290 06:58 17.06.2022
3048 Clear 32 1001 63 10000 1 0 05:35 17.06.2022
3049 Clear 29 999 71 10000 2 170 02:42 17.06.2022
3050 Clouds 24 1001 86 7000 3 140 00:33 17.06.2022
3051 Clear 23 1000 85 10000 2 150 22:44 16.06.2022
3052 Clear 24 1000 86 10000 2 150 21:26 16.06.2022
3053 Clear 24 1000 86 10000 3 150 20:59 16.06.2022
3054 Clear 24 1000 86 10000 3 150 20:36 16.06.2022
3055 Clear 24 1000 86 10000 3 160 19:53 16.06.2022
3056 Clear 25 1000 84 10000 5 160 18:27 16.06.2022
3057 Clear 26 1002 80 10000 4 160 17:43 16.06.2022
3058 Clear 26 1000 76 10000 3 150 16:39 16.06.2022
3059 Clear 27 1000 74 10000 4 160 15:24 16.06.2022
3060 Clear 28 999 73 10000 4 160 14:46 16.06.2022
3061 Clear 29 999 72 10000 4 150 13:32 16.06.2022
3062 Clear 30 1001 67 10000 5 190 12:36 16.06.2022
3063 Clear 32 1000 63 10000 5 180 11:52 16.06.2022
3064 Clear 33 1000 61 10000 5 180 10:56 16.06.2022
3065 Clear 33 998 63 10000 5 170 10:20 16.06.2022
3066 Clear 32 998 66 10000 4 180 09:21 16.06.2022
3067 Clear 33 1001 61 10000 4 190 08:30 16.06.2022
3068 Rain 33 1001 62 10000 5 210 07:26 16.06.2022
3069 Clear 31 1003 64 10000 5 190 04:50 16.06.2022
3070 Clear 27 1003 70 10000 3 180 02:21 16.06.2022
3071 Clear 27 1001 73 10000 2 160 01:35 16.06.2022
3072 Clear 26 1001 80 8000 2 150 00:56 16.06.2022
3073 Clear 23 1007 84 8000 2.24 163 23:43 15.06.2022
3074 Clear 24 1007 85 7000 2.68 160 22:35 15.06.2022
3075 Clear 24 1007 85 10000 2.68 157 21:22 15.06.2022
3076 Clear 24 1007 82 10000 3 140 20:44 15.06.2022
3077 Clear 24 1007 81 10000 3 140 20:25 15.06.2022
3078 Clear 25 1007 83 10000 3.13 158 19:29 15.06.2022
3079 Clear 25 1003 77 10000 3 150 17:56 15.06.2022
3080 Clear 26 1003 77 10000 4 150 17:25 15.06.2022
3081 Clear 27 1002 71 10000 4 150 15:38 15.06.2022
3082 Clear 28 1001 69 10000 4 150 14:18 15.06.2022
3083 Clear 29 1002 66 10000 5 150 12:54 15.06.2022
3084 Clear 31 1002 66 10000 5 120 11:53 15.06.2022
3085 Clear 33 1006 64 10000 3 330 10:24 15.06.2022
3086 Clear 33 1006 65 10000 4 360 09:43 15.06.2022
3087 Clear 34 1007 59 10000 2 0 08:40 15.06.2022
3088 Clouds 32 1003 52 10000 3 290 06:34 15.06.2022
3089 Clouds 30 1004 57 10000 5 310 04:34 15.06.2022
3090 Clear 25 1003 76 7000 2.68 264 01:54 15.06.2022
3091 Mist 24 1003 83 5000 2.24 237 00:50 15.06.2022
3092 Mist 23 1002 87 4000 2.24 220 23:39 14.06.2022
3093 Mist 23 1002 86 4000 1.79 219 23:19 14.06.2022
3094 Mist 23 1001 87 5000 2.24 205 22:21 14.06.2022
3095 Clear 23 1001 86 7000 2.24 206 21:36 14.06.2022
3096 Clear 23 1001 86 7000 3.13 210 20:54 14.06.2022
3097 Clouds 23 1001 85 8000 2.68 208 20:28 14.06.2022
3098 Clear 24 1001 84 10000 2.68 197 18:56 14.06.2022
3099 Clear 24 1002 82 10000 3 200 17:40 14.06.2022
3100 Clear 24 1002 80 10000 3 180 16:43 14.06.2022
3101 Clear 25 1001 78 10000 3 190 15:50 14.06.2022
3102 Clear 25 999 79 10000 4 190 15:22 14.06.2022
3103 Clear 25 999 76 10000 5 190 14:32 14.06.2022
3104 Clear 27 1005 72 10000 3 220 13:41 14.06.2022
3105 Clear 28 1004 70 10000 5 230 12:42 14.06.2022
3106 Clouds 29 1003 69 10000 5 240 11:31 14.06.2022
3107 Clouds 30 999 63 10000 5 230 10:47 14.06.2022
3108 Clouds 30 999 60 10000 5 240 09:48 14.06.2022
3109 Clouds 30 999 62 10000 5 230 08:46 14.06.2022
3110 Clouds 29 1000 64 10000 3 250 07:31 14.06.2022
3111 Clouds 27 999 67 8000 3 270 05:19 14.06.2022
3112 Clouds 23 1001 82 8000 2 230 02:49 14.06.2022
3113 Mist 21 1000 89 5000 1.79 198 00:28 14.06.2022
3114 Mist 21 1000 89 5000 2 160 23:22 13.06.2022
3115 Clouds 21 1000 88 6000 1 150 22:25 13.06.2022
3116 Rain 21 1000 88 6000 1 0 21:48 13.06.2022
3117 Clouds 21 1000 87 7000 1 270 20:31 13.06.2022
3118 Clouds 21 1000 87 7000 3 220 19:34 13.06.2022
3119 Clouds 21 1001 89 8000 2 140 17:58 13.06.2022
3120 Clouds 21 1000 88 8000 1.34 129 17:38 13.06.2022
3121 Clouds 22 1001 85 8000 1 0 16:40 13.06.2022
3122 Clouds 22 1000 85 10000 1.34 84 15:37 13.06.2022
3123 Clouds 21 1000 87 10000 1.34 99 14:42 13.06.2022
3124 Clouds 21 1000 87 10000 1.34 107 13:46 13.06.2022
3125 Clouds 22 999 86 10000 1.34 111 12:47 13.06.2022
3126 Clouds 22 999 84 10000 2.68 80 11:26 13.06.2022
3127 Clouds 22 999 85 8000 2.24 82 10:26 13.06.2022
3128 Clouds 22 999 86 8000 3 70 09:31 13.06.2022
3129 Clouds 22 999 86 10000 2 80 07:38 13.06.2022
3130 Rain 21 1005 89 6000 2 100 05:42 13.06.2022
3131 Rain 21 1000 86 10000 2 70 02:50 13.06.2022
3132 Rain 21 1000 87 10000 2 80 01:37 13.06.2022
3133 Rain 20 1000 88 8000 2 70 00:18 13.06.2022
3134 Rain 20 1000 87 10000 1 0 23:24 12.06.2022
3135 Clouds 20 1000 87 10000 2 90 22:22 12.06.2022
3136 Rain 20 1000 85 10000 3 90 21:20 12.06.2022
3137 Rain 20 1000 85 10000 3 90 20:27 12.06.2022
3138 Rain 20 1001 85 10000 4 120 19:30 12.06.2022
3139 Rain 21 1003 85 10000 4 130 17:51 12.06.2022
3140 Rain 21 1003 78 10000 4 140 16:24 12.06.2022
3141 Rain 21 1004 82 10000 3 120 14:57 12.06.2022
3142 Rain 21 1004 84 10000 2 130 14:21 12.06.2022
3143 Rain 21 1004 84 10000 3 130 13:51 12.06.2022
3144 Clouds 21 1003 84 10000 3 150 12:37 12.06.2022
3145 Clouds 21 1003 84 10000 4 140 11:37 12.06.2022
3146 Clouds 22 1004 83 10000 4 160 10:22 12.06.2022
3147 Clouds 22 1004 81 10000 3 160 08:54 12.06.2022
3148 Rain 22 1004 80 10000 4 150 08:35 12.06.2022
3149 Clouds 22 1004 81 10000 4 140 07:32 12.06.2022
3150 Rain 23 1005 79 10000 4 120 04:35 12.06.2022
3151 Rain 22 1007 78 10000 3 120 02:38 12.06.2022
3152 Rain 22 1006 76 10000 3 150 01:37 12.06.2022
3153 Rain 22 1006 82 10000 3 150 00:58 12.06.2022
3154 Rain 22 1005 82 10000 4 120 00:20 12.06.2022
3155 Clouds 21 1005 82 10000 2 110 23:29 11.06.2022
3156 Clouds 21 1006 81 10000 4 110 22:38 11.06.2022
3157 Clouds 22 1006 82 10000 3 110 21:37 11.06.2022
3158 Clouds 22 1006 83 10000 3 110 20:34 11.06.2022
3159 Clouds 22 1006 82 10000 3 110 19:46 11.06.2022
3160 Rain 22 1006 81 10000 3 100 18:56 11.06.2022
3161 Rain 22 1006 80 10000 3 120 18:33 11.06.2022
3162 Rain 22 1007 80 10000 3 100 17:50 11.06.2022
3163 Clouds 22 1007 78 10000 3 100 17:26 11.06.2022
3164 Clouds 22 1007 78 10000 4 90 16:52 11.06.2022
3165 Clouds 22 1007 78 10000 4 90 16:26 11.06.2022
3166 Rain 23 1007 77 10000 4 120 15:28 11.06.2022
3167 Clouds 23 1006 75 10000 4 110 13:53 11.06.2022
3168 Clouds 23 1006 75 10000 4 110 13:53 11.06.2022
3169 Clouds 25 1006 67 10000 5 110 12:36 11.06.2022
3170 Clouds 26 1010 68 10000 5 80 10:46 11.06.2022
3171 Clouds 26 1010 69 10000 5 90 09:43 11.06.2022
3172 Clouds 26 1010 67 10000 5 80 08:46 11.06.2022
3173 Clouds 27 1006 64 10000 5 90 06:47 11.06.2022
3174 Clouds 26 1007 63 10000 7 80 05:58 11.06.2022
3175 Clouds 24 1007 69 10000 5 70 03:45 11.06.2022
3176 Clouds 22 1006 82 10000 4 60 01:52 11.06.2022
3177 Clouds 22 1006 84 10000 4 30 01:26 11.06.2022
3178 Clouds 21 1005 84 10000 3 80 23:28 10.06.2022
3179 Clouds 21 1005 78 10000 0.45 67 22:29 10.06.2022
3180 Clouds 21 1004 78 10000 1 0 21:47 10.06.2022
3181 Clouds 20 1004 79 10000 2 50 20:39 10.06.2022
3182 Clouds 20 1004 79 10000 2 50 20:21 10.06.2022
3183 Rain 21 1005 77 10000 3 80 19:19 10.06.2022
3184 Rain 20 1005 83 10000 1 0 18:46 10.06.2022
3185 Clouds 21 1005 82 10000 1 80 17:54 10.06.2022
3186 Clouds 21 1005 82 10000 1 0 17:23 10.06.2022
3187 Clear 20 1005 77 10000 1 0 16:28 10.06.2022
3188 Clear 20 1006 81 10000 4.92 78 15:40 10.06.2022
3189 Clouds 20 1005 78 10000 2 140 14:28 10.06.2022
3190 Clouds 20 1005 82 7000 4 120 12:58 10.06.2022
3191 Rain 21 1005 78 10000 6 150 11:59 10.06.2022
3192 Clouds 23 1004 71 10000 6 120 10:51 10.06.2022
3193 Clouds 23 1004 70 10000 3 120 09:57 10.06.2022
3194 Clear 23 1004 71 10000 5 160 08:48 10.06.2022
3195 Clouds 23 1004 76 10000 4 150 07:41 10.06.2022
3196 Clouds 23 1004 74 10000 4 170 06:46 10.06.2022
3197 Clouds 24 1002 73 10000 4 160 06:27 10.06.2022
3198 Clouds 23 1003 87 10000 3 150 04:47 10.06.2022
3199 Rain 22 1004 82 10000 5 150 01:59 10.06.2022
3200 Clouds 22 1004 79 10000 4 140 01:36 10.06.2022
3201 Clouds 22 1004 79 10000 4 140 01:36 10.06.2022
3202 Clouds 22 1003 79 10000 4 130 23:57 09.06.2022
3203 Clear 22 1003 83 10000 4 130 22:22 09.06.2022
3204 Clear 22 1003 83 10000 5 130 21:37 09.06.2022
3205 Clear 22 1003 82 10000 5 130 20:58 09.06.2022
3206 Clear 22 1003 82 10000 5 130 20:27 09.06.2022
3207 Clear 22 1004 83 10000 5 150 19:31 09.06.2022
3208 Clear 22 1004 83 10000 5 150 19:31 09.06.2022
3209 Clear 22 1004 82 10000 5 140 18:34 09.06.2022
3210 Clear 22 1004 81 10000 6 140 17:25 09.06.2022
3211 Clear 23 1005 79 10000 5 140 16:21 09.06.2022
3212 Clear 23 1004 78 10000 6 130 14:39 09.06.2022
3213 Clear 24 1004 78 10000 5 150 13:55 09.06.2022
3214 Clear 24 1004 76 10000 5 130 13:29 09.06.2022
3215 Clear 25 1004 72 10000 5 130 12:21 09.06.2022
3216 Clear 27 1003 69 10000 5 150 11:19 09.06.2022
3217 Clear 28 1003 64 10000 6 130 09:50 09.06.2022
3218 Clear 28 1003 64 10000 6 130 09:50 09.06.2022
3219 Clear 28 1008 70 10000 5 150 09:31 09.06.2022
3220 Clear 28 1004 69 10000 6 140 07:56 09.06.2022
3221 Clear 28 1004 68 10000 5 140 06:55 09.06.2022
3222 Clouds 25 1005 71 10000 5 140 03:22 09.06.2022
3223 Clouds 21 1004 84 10000 5 130 23:49 08.06.2022
3224 Clouds 22 1003 83 10000 4 130 22:58 08.06.2022
3225 Clouds 21 1003 83 10000 5 130 22:27 08.06.2022
3226 Clouds 21 1003 83 10000 4 130 21:56 08.06.2022
3227 Clouds 21 1003 83 10000 5 130 21:23 08.06.2022
3228 Clouds 21 1004 82 10000 5 140 20:22 08.06.2022
3229 Clouds 21 1004 81 10000 5 140 19:39 08.06.2022
3230 Clouds 22 1004 83 10000 5 130 18:47 08.06.2022
3231 Clear 22 1005 81 10000 4 130 17:30 08.06.2022
3232 Clear 23 1004 73 10000 5 140 15:52 08.06.2022
3233 Clear 24 1004 71 10000 5 130 13:58 08.06.2022
3234 Clear 26 1003 59 10000 4 140 12:22 08.06.2022
3235 Clear 27 1006 60 10000 3 130 11:33 08.06.2022
3236 Clear 29 1002 52 10000 3 140 10:20 08.06.2022
3237 Clear 29 1003 55 10000 4 150 09:22 08.06.2022
3238 Clear 29 1003 56 10000 4 170 08:40 08.06.2022
3239 Clear 28 1005 55 10000 3 160 06:35 08.06.2022
3240 Clear 24 1005 65 10000 3 150 03:58 08.06.2022
3241 Clear 21 1005 75 10000 2 120 00:45 08.06.2022
3242 Clear 20 1004 77 10000 2 150 23:29 07.06.2022
3243 Clear 20 1004 76 10000 1 160 22:45 07.06.2022
3244 Clear 20 1004 76 10000 1 70 22:26 07.06.2022
3245 Clear 20 1004 77 10000 3 10 21:34 07.06.2022
3246 Clear 20 1004 76 10000 2 10 20:58 07.06.2022
3247 Clear 20 1004 73 10000 2 20 20:32 07.06.2022
3248 Clear 21 1004 69 10000 2.24 29 19:38 07.06.2022
3249 Clear 21 1004 70 10000 1 0 18:23 07.06.2022
3250 Clear 21 1004 73 10000 1 0 17:26 07.06.2022
3251 Clear 21 1004 74 10000 4 20 16:43 07.06.2022
3252 Clear 22 1005 74 10000 4 30 15:47 07.06.2022
3253 Clear 22 1004 73 10000 5 40 15:26 07.06.2022
3254 Clear 22 1004 73 10000 5 40 15:26 07.06.2022
3255 Clear 23 1004 71 10000 4 30 14:50 07.06.2022
3256 Clear 23 1004 70 10000 5 30 14:32 07.06.2022
3257 Clear 24 1001 63 10000 4 20 13:31 07.06.2022
3258 Clear 25 1008 62 10000 4 20 12:49 07.06.2022
3259 Clear 26 1008 55 10000 5 20 11:47 07.06.2022
3260 Clear 27 1007 62 10000 4 10 10:26 07.06.2022
3261 Clear 28 1007 63 10000 6 10 08:49 07.06.2022
3262 Clear 28 1002 58 10000 6 340 07:34 07.06.2022
3263 Clouds 27 1003 63 10000 5 360 05:58 07.06.2022
3264 Clouds 25 1002 69 10000 7 10 03:31 07.06.2022
3265 Clouds 22 1001 79 10000 5 360 00:45 07.06.2022
3266 Clouds 23 1000 82 8000 5 360 23:41 06.06.2022
3267 Clouds 23 999 83 10000 5 360 22:47 06.06.2022
3268 Clouds 23 998 83 10000 5 10 21:56 06.06.2022
3269 Clear 24 998 82 10000 4 10 20:35 06.06.2022
3270 Clear 25 998 81 10000 4 340 19:24 06.06.2022
3271 Clear 26 998 78 10000 1 0 18:47 06.06.2022
3272 Clear 26 998 78 10000 3.58 178 17:55 06.06.2022
3273 Clear 26 998 77 10000 3 240 16:51 06.06.2022
3274 Clear 26 998 77 10000 1 0 15:44 06.06.2022
3275 Clear 27 995 77 10000 4 180 14:57 06.06.2022
3276 Clear 28 996 73 10000 4 180 13:40 06.06.2022
3277 Clear 29 994 65 10000 4 180 12:59 06.06.2022
3278 Clear 30 995 56 10000 6 180 12:27 06.06.2022
3279 Clear 30 996 55 10000 6 180 11:45 06.06.2022
3280 Clear 32 994 60 10000 4 230 09:46 06.06.2022
3281 Clear 32 997 58 10000 4 230 08:36 06.06.2022
3282 Clear 31 997 59 10000 4 220 07:43 06.06.2022
3283 Clear 30 998 62 10000 4 220 06:44 06.06.2022
3284 Clear 27 995 68 10000 2 250 04:36 06.06.2022
3285 Clouds 23 998 81 10000 3 300 01:30 06.06.2022
3286 Clouds 22 997 82 10000 2 280 00:55 06.06.2022
3287 Clouds 22 997 82 10000 2 270 00:33 06.06.2022
3288 Clouds 21 997 85 10000 3 320 22:58 05.06.2022
3289 Clouds 22 996 84 10000 2 320 21:59 05.06.2022
3290 Clouds 22 996 83 10000 4 310 20:23 05.06.2022
3291 Clouds 22 996 83 10000 3 340 18:57 05.06.2022
3292 Clouds 22 996 83 10000 3 360 17:59 05.06.2022
3293 Clouds 22 996 83 10000 4 360 17:38 05.06.2022
3294 Clouds 22 997 83 10000 4 360 17:20 05.06.2022
3295 Clouds 22 997 85 10000 4 10 16:47 05.06.2022
3296 Clouds 22 996 87 10000 5 10 15:22 05.06.2022
3297 Clouds 23 995 86 10000 4 350 14:18 05.06.2022
3298 Clouds 23 993 88 8000 6 360 11:58 05.06.2022
3299 Clouds 23 992 87 10000 5 30 10:45 05.06.2022
3300 Clouds 23 993 88 10000 6 20 10:24 05.06.2022
3301 Mist 23 992 89 4000 7 20 09:29 05.06.2022
3302 Rain 25 992 90 4000 4.47 353 08:23 05.06.2022
3303 Rain 25 993 91 10000 2 230 05:58 05.06.2022
3304 Clouds 25 994 91 10000 3 240 05:19 05.06.2022
3305 Rain 24 994 91 7000 2.68 258 02:23 05.06.2022
3306 Rain 24 994 91 4500 2.68 264 01:23 05.06.2022
3307 Rain 24 994 91 4500 2.68 264 01:23 05.06.2022
3308 Thunderstorm 25 994 90 8000 2.24 216 22:49 04.06.2022
3309 Rain 25 994 89 10000 1.79 201 21:25 04.06.2022
3310 Rain 25 994 88 10000 3 180 19:26 04.06.2022
3311 Clear 26 996 86 10000 3 170 16:48 04.06.2022
3312 Clear 26 997 86 10000 3 160 16:20 04.06.2022
3313 Clear 26 997 86 10000 3 140 15:35 04.06.2022
3314 Clear 27 996 85 10000 3 170 13:59 04.06.2022
3315 Clear 28 996 81 10000 4 160 11:38 04.06.2022
3316 Clouds 29 996 77 10000 3 140 10:52 04.06.2022
3317 Clouds 30 997 75 10000 3 140 09:47 04.06.2022
3318 Clouds 29 997 78 10000 4 150 08:59 04.06.2022
3319 Clouds 29 997 77 10000 3 170 08:37 04.06.2022
3320 Clouds 28 997 80 10000 4 130 06:25 04.06.2022
3321 Clouds 24 1000 89 10000 6 160 03:52 04.06.2022
3322 Clouds 22 1000 89 6000 4 130 00:22 04.06.2022
3323 Clouds 23 1000 89 7000 4 130 22:56 03.06.2022
3324 Clouds 23 1000 88 10000 5 130 21:52 03.06.2022
3325 Clouds 23 1000 87 10000 5 150 20:40 03.06.2022
3326 Clouds 23 1000 87 10000 6 130 19:33 03.06.2022
3327 Clouds 23 1001 87 10000 6 130 16:58 03.06.2022
3328 Clouds 23 1001 87 10000 5 120 15:55 03.06.2022
3329 Clouds 23 1001 85 10000 5 130 14:25 03.06.2022
3330 Clouds 24 1000 86 10000 6 130 12:21 03.06.2022
3331 Clouds 26 1000 80 10000 5 130 09:57 03.06.2022
3332 Clouds 26 1000 80 10000 5 110 09:29 03.06.2022
3333 Clouds 25 1001 81 10000 5 120 07:45 03.06.2022
3334 Clouds 26 1000 79 10000 6 120 06:59 03.06.2022
3335 Clouds 26 1001 79 10000 6 140 06:28 03.06.2022
3336 Clouds 24 1002 76 10000 5 130 03:39 03.06.2022
3337 Clouds 22 1005 79 10000 4 120 23:52 02.06.2022
3338 Clouds 22 1005 75 10000 3 120 22:23 02.06.2022
3339 Clouds 22 1005 75 10000 5 120 20:38 02.06.2022
3340 Clouds 22 1005 75 10000 4 130 19:56 02.06.2022
3341 Clouds 22 1005 75 10000 5 140 19:38 02.06.2022
3342 Clouds 23 1005 84 10000 6 130 18:41 02.06.2022
3343 Clouds 23 1006 75 10000 5 150 16:28 02.06.2022
3344 Clouds 23 1006 77 10000 5 140 15:47 02.06.2022
3345 Clouds 25 1004 80 10000 6 140 13:31 02.06.2022
3346 Clear 25 1004 79 10000 5 150 12:49 02.06.2022
3347 Clouds 28 1004 75 10000 6 130 10:36 02.06.2022
3348 Clouds 28 1004 74 10000 5 130 09:30 02.06.2022
3349 Clouds 28 1004 73 10000 5 120 08:44 02.06.2022
3350 Clouds 28 1004 74 10000 5 120 08:23 02.06.2022
3351 Clouds 27 1005 76 7000 4 110 06:21 02.06.2022
3352 Mist 24 1007 87 4000 3 160 03:50 02.06.2022
3353 Mist 23 1005 86 3500 2.24 124 00:47 02.06.2022
3354 Mist 23 1004 82 3500 2 140 22:57 01.06.2022
3355 Mist 23 1004 82 3500 2 180 21:59 01.06.2022
3356 Mist 23 1000 86 3500 2.24 144 21:24 01.06.2022
3357 Mist 23 1000 86 3500 2 140 20:38 01.06.2022
3358 Mist 23 1000 85 3500 4 170 19:51 01.06.2022
3359 Mist 23 1000 86 5000 3 150 18:28 01.06.2022
3360 Clouds 24 1000 86 6000 3 190 16:56 01.06.2022
3361 Clouds 24 1000 84 6000 2 180 15:43 01.06.2022
3362 Clouds 25 1000 84 7000 3 190 14:46 01.06.2022
3363 Clouds 25 999 84 7000 3 170 13:18 01.06.2022
3364 Clouds 27 998 78 10000 4 230 10:44 01.06.2022
3365 Rain 28 999 76 10000 3 230 09:28 01.06.2022
3366 Clouds 29 999 73 10000 4 230 07:59 01.06.2022
3367 Clouds 29 999 70 10000 2 230 07:20 01.06.2022
3368 Rain 26 1000 79 10000 3 210 03:55 01.06.2022
3369 Clouds 22 1000 85 7000 3 190 23:47 31.05.2022
3370 Clouds 22 999 85 10000 3 190 22:38 31.05.2022
3371 Clouds 22 999 84 10000 3 190 22:19 31.05.2022
3372 Clouds 22 1000 83 10000 4 170 21:23 31.05.2022
3373 Rain 22 1000 82 10000 3 170 20:42 31.05.2022
3374 Clouds 22 1000 79 10000 4 150 19:22 31.05.2022
3375 Clouds 22 1001 76 10000 5 150 18:19 31.05.2022
3376 Clear 22 1001 70 10000 4 150 17:37 31.05.2022
3377 Clear 23 1002 64 10000 5 150 15:45 31.05.2022
3378 Clear 23 1002 63 10000 5 150 15:22 31.05.2022
3379 Clear 25 1002 48 10000 5 140 12:39 31.05.2022
3380 Clear 25 1002 47 10000 5 140 12:18 31.05.2022
3381 Clear 27 1002 41 10000 8 160 10:22 31.05.2022
3382 Clear 28 1003 43 10000 7 150 07:43 31.05.2022
3383 Clear 27 1005 43 10000 7 140 05:38 31.05.2022
3384 Clear 25 1005 45 10000 5 130 03:41 31.05.2022
3385 Clear 18 1005 58 10000 2.24 136 23:39 30.05.2022
3386 Clear 18 1005 57 10000 2.24 135 23:18 30.05.2022
3387 Clear 19 1004 55 10000 1 0 22:32 30.05.2022
3388 Clear 19 1004 52 10000 1.34 99 21:37 30.05.2022
3389 Clear 20 1004 52 10000 2 40 20:41 30.05.2022
3390 Clear 20 1004 51 10000 2 60 19:38 30.05.2022
3391 Clear 21 1004 59 10000 5 30 17:48 30.05.2022
3392 Clear 21 1004 61 10000 5 20 17:19 30.05.2022
3393 Clear 23 1004 64 10000 5 10 15:44 30.05.2022
3394 Clear 23 1002 71 10000 3 40 12:58 30.05.2022
3395 Clouds 24 1001 73 10000 5 40 11:26 30.05.2022
3396 Clouds 25 1000 73 8000 8 10 09:41 30.05.2022
3397 Clouds 30 1000 70 7000 8 30 07:29 30.05.2022
3398 Rain 31 1000 62 10000 5 10 05:52 30.05.2022
3399 Clouds 28 999 77 8000 3 340 03:18 30.05.2022
3400 Fog 22 998 88 1400 1.34 273 23:32 29.05.2022
3401 Mist 22 997 86 1800 1.79 266 22:40 29.05.2022
3402 Fog 22 997 86 1800 1.34 279 21:40 29.05.2022
3403 Mist 22 997 86 2500 1.34 319 19:57 29.05.2022
3404 Mist 22 997 86 2500 1.34 318 19:28 29.05.2022
3405 Mist 23 997 85 3000 1.79 234 17:48 29.05.2022
3406 Clouds 23 997 88 6000 2 180 15:50 29.05.2022
3407 Clouds 23 997 88 6000 2 170 15:32 29.05.2022
3408 Clouds 23 997 88 10000 2 190 14:31 29.05.2022
3409 Clouds 23 996 85 10000 4 220 11:55 29.05.2022
3410 Clouds 24 996 85 10000 4 230 10:45 29.05.2022
3411 Clouds 24 999 82 10000 3 240 09:52 29.05.2022
3412 Clouds 22 996 85 10000 3 230 07:28 29.05.2022
3413 Clouds 22 997 87 10000 2 200 04:50 29.05.2022
3414 Clouds 21 997 87 10000 3 210 04:31 29.05.2022
3415 Rain 20 997 86 4000 2 180 00:35 29.05.2022
3416 Mist 19 997 83 5000 2.24 127 23:42 28.05.2022
3417 Clouds 19 997 83 7000 2.24 134 22:46 28.05.2022
3418 Clouds 19 997 83 10000 2 150 21:42 28.05.2022
3419 Rain 19 998 83 10000 3 160 19:52 28.05.2022
3420 Rain 19 998 83 10000 4 150 19:18 28.05.2022
3421 Clouds 19 999 83 10000 3 150 17:44 28.05.2022
3422 Rain 19 1000 85 10000 4 160 16:50 28.05.2022
3423 Rain 20 1001 84 10000 4 150 15:44 28.05.2022
3424 Clouds 20 1000 82 10000 4 150 14:35 28.05.2022
3425 Clouds 21 1000 80 10000 4 150 13:21 28.05.2022
3426 Clouds 21 1000 79 10000 6 160 12:40 28.05.2022
3427 Clouds 21 999 76 10000 5 160 11:26 28.05.2022
3428 Rain 21 1000 78 10000 6 170 10:25 28.05.2022
3429 Clouds 22 1000 77 10000 7 170 09:22 28.05.2022
3430 Clear 23 1000 69 10000 7 160 07:23 28.05.2022
3431 Clouds 23 1001 68 10000 7 180 06:26 28.05.2022
3432 Clouds 22 1001 79 10000 6 190 03:48 28.05.2022
3433 Clear 22 1000 73 10000 5 170 00:33 28.05.2022
3434 Clear 21 1000 73 10000 3 160 23:32 27.05.2022
3435 Clear 22 999 70 10000 3 150 21:50 27.05.2022
3436 Clear 22 999 70 10000 3 150 21:50 27.05.2022
3437 Clear 22 1000 69 10000 4 150 20:56 27.05.2022
3438 Clear 22 1000 68 10000 4 140 20:25 27.05.2022
3439 Clear 22 1000 68 10000 5 160 19:48 27.05.2022
3440 Rain 22 1000 68 10000 4 150 19:29 27.05.2022
3441 Clear 23 1001 68 10000 3.58 149 18:24 27.05.2022
3442 Clear 23 1002 73 10000 5 150 16:40 27.05.2022
3443 Clear 23 1002 73 10000 5 140 15:33 27.05.2022
3444 Clear 24 1001 71 10000 5 150 14:26 27.05.2022
3445 Clear 24 1001 68 10000 4 140 13:18 27.05.2022
3446 Rain 26 1000 67 10000 6 140 11:34 27.05.2022
3447 Clouds 26 1000 68 10000 5 140 10:56 27.05.2022
3448 Clear 27 1000 68 10000 6 110 10:31 27.05.2022
3449 Clear 29 1000 61 10000 2 110 09:35 27.05.2022
3450 Clouds 28 1005 64 10000 2 310 07:55 27.05.2022
3451 Clouds 28 999 57 8000 1 0 05:44 27.05.2022
3452 Clear 23 1000 77 10000 2 200 02:26 27.05.2022
3453 Clear 19 1001 75 10000 2 160 00:29 27.05.2022
3454 Clear 18 1001 77 10000 1.79 179 22:39 26.05.2022
3455 Clear 19 1001 75 10000 1.79 161 21:39 26.05.2022
3456 Clear 19 1000 76 10000 1.79 157 20:30 26.05.2022
3457 Clear 19 1001 76 10000 2 140 19:19 26.05.2022
3458 Clear 19 1002 74 10000 2 150 17:51 26.05.2022
3459 Clear 20 1002 73 10000 2 160 16:42 26.05.2022
3460 Clear 20 1002 73 10000 2.68 118 15:45 26.05.2022
3461 Clear 21 1001 73 10000 4 140 14:28 26.05.2022
3462 Clear 22 1001 72 10000 3 110 12:37 26.05.2022
3463 Clouds 23 1001 72 10000 3 70 11:23 26.05.2022
3464 Clouds 23 1001 70 10000 2 120 09:41 26.05.2022
3465 Clouds 24 999 67 10000 2 120 09:23 26.05.2022
3466 Clouds 22 1007 70 10000 1 0 07:57 26.05.2022
3467 Clouds 21 1001 77 8000 3 50 03:53 26.05.2022
3468 Rain 20 1004 70 10000 1 0 00:33 26.05.2022
3469 Rain 20 1003 69 10000 2 40 23:39 25.05.2022
3470 Clear 20 1001 71 10000 1 0 21:47 25.05.2022
3471 Clear 20 1000 71 10000 2 30 21:28 25.05.2022
3472 Rain 20 1001 71 10000 1 0 20:34 25.05.2022
3473 Clear 20 1001 73 10000 1 0 19:21 25.05.2022
3474 Clear 20 1002 76 10000 3 160 17:33 25.05.2022
3475 Clear 20 1002 74 10000 3 160 16:36 25.05.2022
3476 Clear 21 1002 74 10000 3 150 15:53 25.05.2022
3477 Clear 21 1002 73 10000 2 110 14:51 25.05.2022
3478 Clear 22 1002 71 10000 3 120 14:32 25.05.2022
3479 Clouds 22 1002 68 10000 4 160 13:35 25.05.2022
3480 Clear 24 1002 60 10000 4 150 12:36 25.05.2022
3481 Clouds 26 1008 61 10000 1 0 10:43 25.05.2022
3482 Clouds 27 1001 58 10000 3 130 09:54 25.05.2022
3483 Clouds 28 997 52 10000 3.49 90 08:23 25.05.2022
3484 Clouds 24 997 65 10000 3.09 92 06:53 25.05.2022
3485 Clouds 22 1004 75 10000 3 170 03:20 25.05.2022
3486 Clear 18 1003 90 10000 0 0 23:55 24.05.2022
3487 Clouds 19 1003 89 10000 2 160 23:23 24.05.2022
3488 Clouds 19 1003 84 10000 2 150 22:19 24.05.2022
3489 Clouds 19 1003 82 10000 2 160 21:38 24.05.2022
3490 Clouds 19 1003 82 10000 2 160 21:19 24.05.2022
3491 Clouds 19 1004 79 10000 2 120 19:37 24.05.2022
3492 Clouds 19 1004 79 10000 2 130 18:50 24.05.2022
3493 Clouds 19 1005 86 10000 4 110 16:41 24.05.2022
3494 Clouds 18 1005 86 10000 4 110 16:18 24.05.2022
3495 Clouds 18 1005 88 10000 4 130 14:50 24.05.2022
3496 Clouds 18 1005 92 8000 5 120 13:48 24.05.2022
3497 Clouds 19 1005 94 8000 4 110 12:46 24.05.2022
3498 Clouds 19 1005 93 7000 5 120 10:29 24.05.2022
3499 Clouds 19 1005 92 6000 4 130 09:42 24.05.2022
3500 Clouds 19 1005 90 8000 5 120 08:49 24.05.2022
3501 Clouds 20 1005 92 8000 4 120 06:56 24.05.2022
3502 Clouds 20 1006 92 6000 4 130 03:48 24.05.2022
3503 Clouds 19 1006 93 6000 4 120 01:49 24.05.2022
3504 Clouds 19 1006 91 7000 4 130 01:18 24.05.2022
3505 Clouds 19 1005 83 10000 3 120 22:51 23.05.2022
3506 Clouds 19 1005 83 10000 4 120 21:55 23.05.2022
3507 Clouds 19 1005 83 10000 3 130 21:26 23.05.2022
3508 Clouds 19 1005 85 10000 3 130 20:26 23.05.2022
3509 Clouds 19 1005 89 10000 3 130 19:31 23.05.2022
3510 Clouds 18 1005 92 10000 4 130 18:54 23.05.2022
3511 Clouds 18 1005 88 10000 5 140 18:27 23.05.2022
3512 Clouds 19 1006 81 10000 5 140 17:18 23.05.2022
3513 Clouds 19 1006 77 10000 7 170 14:52 23.05.2022
3514 Clear 21 1006 65 10000 5 140 12:50 23.05.2022
3515 Clouds 21 1005 65 10000 9 130 11:26 23.05.2022
3516 Clouds 21 1005 64 10000 9 150 09:50 23.05.2022
3517 Clouds 23 1005 63 10000 9 160 09:23 23.05.2022
3518 Clouds 26 1005 46 10000 8 150 07:48 23.05.2022
3519 Clouds 25 1005 41 10000 9 130 06:45 23.05.2022
3520 Clear 24 1013 50 10000 8 150 05:25 23.05.2022
3521 Clear 22 1004 71 10000 7 160 02:23 23.05.2022
3522 Clear 21 1004 72 10000 5 140 01:37 23.05.2022
3523 Clear 20 1002 72 10000 5 150 23:51 22.05.2022
3524 Rain 21 1002 67 10000 5 140 22:35 22.05.2022
3525 Clear 21 1002 65 10000 4 140 21:55 22.05.2022
3526 Clear 21 1001 64 10000 5 140 20:53 22.05.2022
3527 Rain 21 1002 63 10000 6 150 20:27 22.05.2022
3528 Rain 21 1004 62 10000 7 150 19:56 22.05.2022
3529 Clear 21 1004 62 10000 6 150 18:55 22.05.2022
3530 Clear 21 1004 61 10000 6 150 18:25 22.05.2022
3531 Clear 22 1005 61 10000 6 150 17:33 22.05.2022
3532 Rain 22 1005 60 10000 7 150 16:31 22.05.2022
3533 Clear 23 1005 59 10000 5 150 14:48 22.05.2022
3534 Clear 23 1005 58 10000 6 130 13:45 22.05.2022
3535 Clear 24 1004 57 10000 5 150 12:50 22.05.2022
3536 Clear 25 1004 51 10000 5 150 11:42 22.05.2022
3537 Clear 28 1004 47 10000 5 150 09:43 22.05.2022
3538 Clear 27 1004 46 10000 5 130 08:35 22.05.2022
3539 Clear 27 1005 48 10000 5 170 07:21 22.05.2022
3540 Clear 26 1005 50 10000 5 130 05:44 22.05.2022
3541 Clear 21 1003 75 10000 3 150 01:43 22.05.2022
3542 Clouds 19 1006 79 8000 2.24 160 00:43 22.05.2022
3543 Clouds 18 1005 82 8000 1.79 161 23:54 21.05.2022
3544 Clouds 18 1005 82 8000 2 150 22:57 21.05.2022
3545 Clouds 18 1005 81 8000 2 150 21:42 21.05.2022
3546 Clouds 18 1005 79 8000 1 160 20:59 21.05.2022
3547 Clear 19 1005 79 10000 2 170 20:24 21.05.2022
3548 Clear 19 1005 79 10000 2 140 19:30 21.05.2022
3549 Clear 19 1006 77 10000 4 160 17:51 21.05.2022
3550 Clear 20 1006 77 10000 4 160 16:43 21.05.2022
3551 Clear 21 1006 74 10000 3 160 14:37 21.05.2022
3552 Clear 22 1005 73 10000 4 170 13:42 21.05.2022
3553 Clear 22 1005 70 10000 4 170 12:50 21.05.2022
3554 Clear 23 1005 69 10000 5 160 12:25 21.05.2022
3555 Clouds 26 1009 64 10000 3 110 10:24 21.05.2022
3556 Clouds 26 1009 62 10000 1.79 78 09:43 21.05.2022
3557 Clouds 26 1010 61 10000 1 0 08:57 21.05.2022
3558 Clouds 25 1010 63 10000 3 90 07:53 21.05.2022
3559 Clouds 23 1007 68 10000 1 0 03:58 21.05.2022
3560 Clouds 18 1006 85 7000 2 360 23:53 20.05.2022
3561 Clouds 18 1005 84 7000 2.24 54 22:57 20.05.2022
3562 Clouds 18 1005 84 6000 2.24 54 22:23 20.05.2022
3563 Clouds 18 1005 84 6000 2.24 73 21:41 20.05.2022
3564 Clouds 18 1005 82 6000 1.79 80 20:54 20.05.2022
3565 Rain 19 1005 82 7000 2.24 75 19:58 20.05.2022
3566 Clouds 19 1005 81 7000 2.24 72 19:26 20.05.2022
3567 Clouds 19 1006 81 10000 2.24 72 18:36 20.05.2022
3568 Clear 19 1006 85 10000 1.79 58 16:53 20.05.2022
3569 Clear 19 1006 84 10000 1.79 62 15:58 20.05.2022
3570 Clouds 19 1006 84 10000 1.79 64 15:40 20.05.2022
3571 Clouds 19 1006 86 10000 1.79 72 14:29 20.05.2022
3572 Clouds 19 1006 86 10000 2 180 13:54 20.05.2022
3573 Clouds 19 1005 85 6000 3 80 11:33 20.05.2022
3574 Rain 21 1006 79 10000 2.68 99 09:51 20.05.2022
3575 Clouds 21 1006 78 10000 3.13 86 08:43 20.05.2022
3576 Clouds 21 1011 79 8000 3.13 64 06:47 20.05.2022
3577 Rain 21 1011 78 10000 3.13 64 06:24 20.05.2022
3578 Clear 20 1012 78 10000 3 10 04:22 20.05.2022
3579 Clear 19 1008 80 10000 3 360 00:43 20.05.2022
3580 Clear 18 1007 73 10000 1 0 22:46 19.05.2022
3581 Clear 18 1007 73 10000 1 50 21:59 19.05.2022
3582 Clear 18 1007 73 10000 2 10 21:40 19.05.2022
3583 Clear 18 1007 74 10000 2 10 21:22 19.05.2022
3584 Clouds 18 1008 74 10000 3 10 20:25 19.05.2022
3585 Clouds 18 1008 69 10000 1.79 157 19:34 19.05.2022
3586 Rain 19 1009 75 10000 2.68 141 17:59 19.05.2022
3587 Clouds 20 1010 76 10000 3 110 16:29 19.05.2022
3588 Clouds 21 1010 73 10000 3 100 14:52 19.05.2022
3589 Clouds 21 1010 71 10000 4 110 14:21 19.05.2022
3590 Clear 22 1009 65 10000 4 150 12:23 19.05.2022
3591 Clear 22 1009 65 10000 5 150 10:40 19.05.2022
3592 Clear 22 1010 63 10000 6 160 08:59 19.05.2022
3593 Clear 23 1011 62 10000 5 140 07:48 19.05.2022
3594 Clear 21 1012 67 10000 4 150 04:44 19.05.2022
3595 Clear 19 1012 70 10000 5 160 01:57 19.05.2022
3596 Clear 19 1012 61 10000 4 140 23:53 18.05.2022
3597 Clear 19 1012 59 10000 3 130 22:46 18.05.2022
3598 Clear 19 1012 54 10000 5 130 21:47 18.05.2022
3599 Clear 19 1012 55 10000 3 140 21:25 18.05.2022
3600 Clear 19 1012 50 10000 4 150 20:24 18.05.2022
3601 Clear 19 1012 46 10000 4 140 19:37 18.05.2022
3602 Clear 20 1012 49 10000 5 140 18:21 18.05.2022
3603 Clear 20 1013 49 10000 4 160 17:41 18.05.2022
3604 Clear 20 1013 49 10000 4 160 17:23 18.05.2022
3605 Clear 21 1014 48 10000 4 150 15:59 18.05.2022
3606 Clear 21 1014 48 10000 4 150 15:59 18.05.2022
3607 Clear 21 1013 48 10000 5 140 15:38 18.05.2022
3608 Clear 22 1013 46 10000 4 130 14:34 18.05.2022
3609 Clear 22 1013 41 10000 4 150 13:20 18.05.2022
3610 Clear 23 1012 38 10000 5 150 12:39 18.05.2022
3611 Clear 24 1012 37 10000 5 130 11:34 18.05.2022
3612 Clear 25 1012 37 10000 6 150 10:52 18.05.2022
3613 Clear 27 1012 35 10000 6 160 08:29 18.05.2022
3614 Clear 27 1012 41 10000 5 180 07:28 18.05.2022
3615 Clear 26 1014 40 10000 4 190 04:33 18.05.2022
3616 Clear 19 1013 57 10000 2.24 168 00:52 18.05.2022
3617 Clear 18 1013 58 10000 2.24 169 00:18 18.05.2022
3618 Clear 19 1011 50 10000 2.68 175 21:24 17.05.2022
3619 Clear 19 1012 50 10000 3.58 176 20:57 17.05.2022
3620 Clear 20 1012 48 10000 4 180 19:45 17.05.2022
3621 Clear 20 1012 48 10000 4 190 19:25 17.05.2022
3622 Clear 20 1012 48 10000 4 160 17:49 17.05.2022
3623 Clear 21 1012 48 10000 5 170 16:58 17.05.2022
3624 Clear 21 1012 47 10000 5 170 16:24 17.05.2022
3625 Clear 21 1011 53 10000 4 160 14:56 17.05.2022
3626 Clear 22 1011 53 10000 4 150 14:29 17.05.2022
3627 Clear 23 1010 46 10000 5 170 13:30 17.05.2022
3628 Clouds 27 1009 43 10000 5 170 10:42 17.05.2022
3629 Clouds 27 1013 54 10000 5 150 08:53 17.05.2022
3630 Clouds 28 1009 40 10000 2 0 07:56 17.05.2022
3631 Clouds 28 1009 44 10000 3 0 06:26 17.05.2022
3632 Clear 20 1007 66 10000 3 220 01:34 17.05.2022
3633 Clear 17 1009 68 10000 2.24 219 23:46 16.05.2022
3634 Clear 17 1009 67 10000 2.68 206 22:39 16.05.2022
3635 Clear 18 1009 63 10000 3 170 21:24 16.05.2022
3636 Clear 18 1009 63 10000 3.13 190 20:42 16.05.2022
3637 Clear 18 1010 59 10000 3.13 189 18:53 16.05.2022
3638 Clear 19 1010 56 10000 3.58 186 17:26 16.05.2022
3639 Clear 20 1010 50 10000 2 170 15:35 16.05.2022
3640 Clear 21 1009 47 10000 5 160 13:48 16.05.2022
3641 Clear 22 1008 47 10000 7 150 12:41 16.05.2022
3642 Clear 25 1012 54 10000 3 260 10:38 16.05.2022
3643 Clear 26 1008 41 10000 3 260 08:32 16.05.2022
3644 Clear 26 1009 43 10000 2 0 06:30 16.05.2022
3645 Clear 18 1011 65 10000 3.13 264 01:43 16.05.2022
3646 Clear 17 1010 64 10000 2 250 22:45 15.05.2022
3647 Clear 17 1010 63 10000 2 250 22:20 15.05.2022
3648 Clear 17 1010 62 10000 3 230 21:37 15.05.2022
3649 Clear 17 1010 59 10000 3 240 20:47 15.05.2022
3650 Clear 18 1011 58 10000 2.68 217 18:46 15.05.2022
3651 Clear 18 1011 57 10000 2.68 189 16:54 15.05.2022
3652 Clear 19 1011 54 10000 2 290 14:34 15.05.2022
3653 Clear 20 1011 53 10000 2.68 77 13:46 15.05.2022
3654 Clear 21 1010 47 10000 4 270 12:19 15.05.2022
3655 Clear 23 1010 44 10000 3 30 10:49 15.05.2022
3656 Clear 23 1010 41 10000 1 0 09:57 15.05.2022
3657 Clear 22 1016 49 10000 2 0 07:24 15.05.2022
3658 Clear 21 1016 48 10000 3 10 06:56 15.05.2022
3659 Rain 19 1013 46 10000 3 300 03:38 15.05.2022
3660 Clear 17 1013 62 10000 1.34 236 00:26 15.05.2022
3661 Clouds 16 1012 57 10000 1.34 215 23:37 14.05.2022
3662 Clear 16 1012 60 10000 2 10 21:51 14.05.2022
3663 Clear 17 1012 60 10000 2 350 21:26 14.05.2022
3664 Rain 17 1012 56 10000 2 180 20:27 14.05.2022
3665 Clear 17 1012 56 10000 1 0 19:21 14.05.2022
3666 Clear 17 1013 55 10000 1 90 18:58 14.05.2022
3667 Clear 17 1013 55 10000 3 40 17:47 14.05.2022
3668 Clear 18 1013 46 10000 3 60 15:58 14.05.2022
3669 Clear 18 1012 48 10000 5 50 14:39 14.05.2022
3670 Clear 18 1013 49 10000 5 50 14:18 14.05.2022
3671 Clear 21 1011 54 10000 4 30 11:46 14.05.2022
3672 Clear 22 1011 49 10000 5 20 10:44 14.05.2022
3673 Clear 22 1015 57 10000 5 20 10:18 14.05.2022
3674 Clear 22 1015 53 10000 4 40 09:23 14.05.2022
3675 Clear 22 1016 52 10000 4 30 07:32 14.05.2022
3676 Clear 20 1012 52 10000 4 40 04:35 14.05.2022
3677 Clear 14 1011 77 10000 2.24 2 00:27 14.05.2022
3678 Clear 14 1010 77 10000 1 10 23:25 13.05.2022
3679 Clear 14 1010 77 10000 1 10 23:25 13.05.2022
3680 Clear 14 1010 76 10000 2.24 355 22:54 13.05.2022
3681 Clear 14 1010 74 10000 2.68 356 22:21 13.05.2022
3682 Clear 14 1009 74 10000 2.68 354 20:59 13.05.2022
3683 Clear 14 1009 72 10000 2.68 354 20:37 13.05.2022
3684 Clear 14 1009 72 10000 2.68 354 20:19 13.05.2022
3685 Clear 15 1009 70 10000 2.24 346 18:56 13.05.2022
3686 Clear 15 1009 68 10000 2.24 353 17:30 13.05.2022
3687 Clear 15 1009 68 10000 3 10 16:29 13.05.2022
3688 Clear 15 1009 65 10000 3 360 15:46 13.05.2022
3689 Clear 16 1008 64 10000 4 20 14:38 13.05.2022
3690 Clear 17 1007 66 10000 6 30 12:51 13.05.2022
3691 Clouds 17 1006 70 10000 7 10 11:39 13.05.2022
3692 Clouds 17 1005 76 10000 4 360 09:54 13.05.2022
3693 Rain 17 1005 79 8000 5 10 08:51 13.05.2022
3694 Rain 16 1005 83 4000 5 350 07:50 13.05.2022
3695 Rain 17 1005 81 8000 4 10 06:49 13.05.2022
3696 Rain 16 1005 83 8000 4 360 04:54 13.05.2022
3697 Rain 15 1004 81 7000 4.47 28 00:42 13.05.2022
3698 Clouds 15 1003 81 10000 4.02 32 22:47 12.05.2022
3699 Rain 15 1003 81 10000 5 30 22:29 12.05.2022
3700 Rain 16 1004 81 8000 5 40 20:41 12.05.2022
3701 Rain 16 1004 80 8000 3 50 19:24 12.05.2022
3702 Rain 16 1005 81 8000 2 50 18:19 12.05.2022
3703 Rain 17 1005 84 8000 3 70 16:34 12.05.2022
3704 Rain 17 1006 85 6000 3 60 14:51 12.05.2022
3705 Rain 17 1005 86 6000 2 60 13:48 12.05.2022
3706 Rain 17 1004 85 8000 3 30 11:31 12.05.2022
3707 Rain 18 1004 84 8000 4 30 10:22 12.05.2022
3708 Rain 19 1005 82 10000 4 30 08:52 12.05.2022
3709 Mist 19 1006 83 5000 4 20 07:57 12.05.2022
3710 Clouds 19 1006 80 10000 3 40 06:55 12.05.2022
3711 Clouds 19 1007 79 10000 3 50 03:31 12.05.2022
3712 Rain 18 1007 84 8000 4 40 00:41 12.05.2022
3713 Clouds 18 1007 81 8000 4 360 22:41 11.05.2022
3714 Clouds 18 1007 80 10000 3 360 21:56 11.05.2022
3715 Clouds 18 1007 82 10000 3 40 21:24 11.05.2022
3716 Clouds 18 1007 83 10000 4 50 19:36 11.05.2022
3717 Clouds 19 1008 81 10000 3 40 16:59 11.05.2022
3718 Clouds 19 1009 81 10000 2 40 15:59 11.05.2022
3719 Clouds 20 1008 77 10000 3 80 14:39 11.05.2022
3720 Clouds 20 1008 77 10000 3 80 14:39 11.05.2022
3721 Clouds 20 1008 76 10000 3 80 14:19 11.05.2022
3722 Clouds 21 1007 69 10000 5 40 11:55 11.05.2022
3723 Clouds 21 1007 68 10000 5 40 11:30 11.05.2022
3724 Clouds 23 1007 62 10000 4 80 08:55 11.05.2022
3725 Clouds 20 1009 78 10000 4 30 05:45 11.05.2022
3726 Clouds 19 1008 73 10000 2.24 61 01:28 11.05.2022
3727 Clouds 18 1007 75 10000 2 90 22:32 10.05.2022
3728 Clouds 18 1007 75 10000 2 90 21:58 10.05.2022
3729 Clouds 18 1007 77 10000 2 80 20:58 10.05.2022
3730 Clouds 18 1007 77 10000 3 120 20:19 10.05.2022
3731 Clouds 19 1007 77 10000 4 140 18:27 10.05.2022
3732 Rain 19 1007 77 10000 3 120 17:36 10.05.2022
3733 Clouds 19 1007 76 10000 4 130 15:42 10.05.2022
3734 Rain 20 1007 75 10000 4 130 12:48 10.05.2022
3735 Rain 20 1007 73 10000 4 130 11:51 10.05.2022
3736 Rain 20 1006 72 10000 4 130 11:21 10.05.2022
3737 Rain 20 1006 72 10000 5 140 10:54 10.05.2022
3738 Rain 21 1007 70 10000 4 160 09:26 10.05.2022
3739 Rain 21 1007 68 10000 4 140 07:26 10.05.2022
3740 Rain 19 1009 72 10000 5 140 04:32 10.05.2022
3741 Clouds 17 1009 76 10000 4 130 01:18 10.05.2022
3742 Clouds 18 1008 71 10000 4 100 23:26 09.05.2022
3743 Clouds 17 1008 69 10000 3 100 21:58 09.05.2022
3744 Rain 17 1008 73 10000 4 110 21:18 09.05.2022
3745 Rain 17 1009 73 10000 3 100 19:29 09.05.2022
3746 Rain 17 1010 68 10000 3 80 17:52 09.05.2022
3747 Clear 18 1011 65 10000 3 70 16:38 09.05.2022
3748 Rain 18 1011 65 10000 3 70 15:52 09.05.2022
3749 Rain 18 1011 64 10000 3 90 15:24 09.05.2022
3750 Clear 18 1011 65 10000 4 90 14:29 09.05.2022
3751 Clear 18 1011 63 10000 5 100 13:49 09.05.2022
3752 Clear 19 1011 60 10000 4 60 12:26 09.05.2022
3753 Clear 21 1015 59 10000 4 50 11:32 09.05.2022
3754 Clear 21 1014 56 10000 3 60 10:42 09.05.2022
3755 Clear 22 1015 53 10000 3 80 08:45 09.05.2022
3756 Clear 22 1015 53 10000 3 50 07:54 09.05.2022
3757 Clear 18 1012 58 10000 4 50 03:21 09.05.2022
3758 Clear 16 1012 65 10000 4 40 23:34 08.05.2022
3759 Clear 16 1011 63 10000 4 40 22:55 08.05.2022
3760 Clear 16 1011 64 10000 2 70 21:55 08.05.2022
3761 Clear 16 1011 64 10000 2 70 21:55 08.05.2022
3762 Clear 17 1011 66 10000 3 40 20:35 08.05.2022
3763 Clear 17 1011 67 10000 5 30 19:44 08.05.2022
3764 Clear 17 1012 65 10000 3 70 18:54 08.05.2022
3765 Clear 18 1012 63 10000 4 60 17:59 08.05.2022
3766 Clear 18 1012 61 10000 2 70 16:43 08.05.2022
3767 Clear 18 1012 58 10000 4 80 15:31 08.05.2022
3768 Clear 19 1011 57 10000 5 80 14:44 08.05.2022
3769 Clear 20 1014 62 10000 4 80 12:25 08.05.2022
3770 Clouds 23 1014 63 10000 4 120 10:31 08.05.2022
3771 Clouds 23 1014 64 10000 4 120 09:57 08.05.2022
3772 Clouds 23 1014 64 10000 4 120 09:57 08.05.2022
3773 Clouds 23 1015 62 10000 3 0 08:55 08.05.2022
3774 Clouds 24 1016 61 10000 5 0 06:57 08.05.2022
3775 Clouds 21 1013 60 10000 3 50 03:26 08.05.2022
3776 Clear 20 1013 64 10000 3 90 02:41 08.05.2022
3777 Clouds 18 1013 75 10000 3 40 00:21 08.05.2022
3778 Clouds 18 1012 72 10000 3 80 23:47 07.05.2022
3779 Clouds 18 1012 77 10000 3 120 22:46 07.05.2022
3780 Clouds 18 1012 78 10000 3 120 21:57 07.05.2022
3781 Clouds 18 1012 76 10000 4 110 21:33 07.05.2022
3782 Clouds 18 1013 77 10000 4 80 20:27 07.05.2022
3783 Clouds 19 1014 78 10000 4 90 18:59 07.05.2022
3784 Clouds 19 1014 77 10000 4 90 17:31 07.05.2022
3785 Clouds 20 1014 76 10000 4 60 15:34 07.05.2022
3786 Clouds 20 1012 76 10000 6 50 12:34 07.05.2022
3787 Clouds 22 1012 74 10000 5 70 10:23 07.05.2022
3788 Clear 24 1011 68 10000 6 50 08:37 07.05.2022
3789 Clear 24 1016 73 10000 7 50 07:37 07.05.2022
3790 Clouds 26 1012 66 10000 6 60 06:42 07.05.2022
3791 Clear 25 1012 67 10000 1 0 04:21 07.05.2022
3792 Mist 19 1010 85 3000 3 160 00:50 07.05.2022
3793 Clouds 18 1009 86 6000 3 140 22:55 06.05.2022
3794 Clouds 18 1009 86 6000 3 160 22:21 06.05.2022
3795 Clouds 18 1009 86 10000 3 160 21:36 06.05.2022
3796 Clear 19 1009 83 10000 2 150 20:18 06.05.2022
3797 Clear 19 1009 81 10000 3 140 19:27 06.05.2022
3798 Clear 20 1009 81 10000 4 130 18:49 06.05.2022
3799 Clear 20 1009 81 10000 3 140 17:38 06.05.2022
3800 Clear 21 1009 80 10000 5 140 15:55 06.05.2022
3801 Clear 21 1009 79 10000 4.02 136 15:32 06.05.2022
3802 Clear 22 1008 77 10000 6 130 14:22 06.05.2022
3803 Clear 24 1005 65 10000 4 130 12:52 06.05.2022
3804 Clear 27 1007 59 10000 6 140 11:58 06.05.2022
3805 Clear 28 1007 55 10000 6 140 11:27 06.05.2022
3806 Clear 30 1006 50 10000 4 160 09:48 06.05.2022
3807 Clear 30 1006 51 10000 4 140 09:18 06.05.2022
3808 Clear 30 1007 50 10000 2 250 07:54 06.05.2022
3809 Clear 29 1008 51 10000 3 180 06:26 06.05.2022
3810 Clear 23 1009 68 10000 4 170 03:42 06.05.2022
3811 Clear 21 1009 75 10000 5 160 02:38 06.05.2022
3812 Clear 18 1008 83 10000 3 150 22:58 05.05.2022
3813 Clear 18 1008 83 10000 4 150 21:50 05.05.2022
3814 Clear 19 1008 80 10000 3 140 20:37 05.05.2022
3815 Clear 19 1008 79 10000 4 140 18:56 05.05.2022
3816 Clear 20 1009 74 10000 5 130 16:42 05.05.2022
3817 Clear 20 1009 73 10000 5 130 15:30 05.05.2022
3818 Clear 22 1008 69 10000 6 130 13:30 05.05.2022
3819 Clear 22 1008 67 10000 6 150 12:56 05.05.2022
3820 Clear 26 1008 54 10000 6 160 11:22 05.05.2022
3821 Clear 27 1005 31 10000 6 140 09:40 05.05.2022
3822 Clear 27 1009 46 10000 6 120 08:34 05.05.2022
3823 Clear 25 1010 50 10000 5 140 06:23 05.05.2022
3824 Clear 19 1011 67 10000 4 160 02:23 05.05.2022
3825 Clear 18 1008 75 10000 4 150 01:37 05.05.2022
3826 Clear 15 1011 72 10000 2 150 23:57 04.05.2022
3827 Clear 15 1010 71 10000 2 160 22:54 04.05.2022
3828 Clear 15 1010 71 10000 3 140 21:59 04.05.2022
3829 Clear 16 1010 70 10000 3 150 21:30 04.05.2022
3830 Clear 16 1010 70 10000 3 130 20:42 04.05.2022
3831 Clear 16 1011 71 10000 4 140 19:56 04.05.2022
3832 Clear 16 1011 70 10000 4 140 19:35 04.05.2022
3833 Clear 17 1012 68 10000 4 150 18:22 04.05.2022
3834 Clear 17 1012 68 10000 3 150 17:59 04.05.2022
3835 Clear 18 1012 65 10000 4 140 15:57 04.05.2022
3836 Clear 18 1012 62 10000 4 130 15:30 04.05.2022
3837 Clear 20 1012 56 10000 5 130 14:21 04.05.2022
3838 Clear 20 1012 53 10000 4 150 13:50 04.05.2022
3839 Clear 23 1015 56 10000 6 130 12:34 04.05.2022
3840 Clear 25 1016 55 10000 6 160 10:57 04.05.2022
3841 Clear 26 1016 56 10000 5 160 09:45 04.05.2022
3842 Clear 27 1011 43 10000 5 170 08:48 04.05.2022
3843 Clear 26 1012 44 10000 5 140 07:33 04.05.2022
3844 Clear 22 1013 49 10000 3 180 02:59 04.05.2022
3845 Clear 18 1013 61 10000 3.13 154 01:24 04.05.2022
3846 Clouds 17 1012 67 8000 3.13 157 22:50 03.05.2022
3847 Clear 17 1012 68 10000 3 150 21:47 03.05.2022
3848 Clear 17 1012 68 10000 3 150 21:20 03.05.2022
3849 Clear 17 1012 68 10000 3.58 163 20:31 03.05.2022
3850 Clear 18 1013 68 10000 4 150 18:54 03.05.2022
3851 Clear 18 1013 68 10000 4 150 18:54 03.05.2022
3852 Clear 18 1013 68 10000 4 150 18:34 03.05.2022
3853 Clear 18 1015 67 10000 4 150 17:19 03.05.2022
3854 Clear 20 1014 63 10000 3 170 15:43 03.05.2022
3855 Clear 22 1013 53 10000 4 150 13:28 03.05.2022
3856 Clear 23 1013 48 10000 5 140 12:30 03.05.2022
3857 Clear 26 1013 49 10000 7 180 10:58 03.05.2022
3858 Clear 27 1017 57 10000 2 140 09:46 03.05.2022
3859 Clouds 26 1018 57 10000 2 0 07:59 03.05.2022
3860 Clear 27 1014 44 10000 1 0 06:45 03.05.2022
3861 Clear 21 1012 53 10000 1 0 01:52 03.05.2022
3862 Clear 17 1013 57 10000 0.89 50 22:45 02.05.2022
3863 Clear 17 1013 58 10000 2 360 21:55 02.05.2022
3864 Clear 17 1013 58 10000 1 20 21:24 02.05.2022
3865 Clear 18 1013 55 10000 1.34 256 18:57 02.05.2022
3866 Clear 18 1013 52 10000 1.34 258 18:25 02.05.2022
3867 Clear 17 1018 61 10000 2.24 238 17:37 02.05.2022
3868 Clear 19 1013 49 10000 2.24 229 16:24 02.05.2022
3869 Clear 19 1013 47 10000 1.79 220 15:37 02.05.2022
3870 Clear 21 1012 47 10000 2 230 13:58 02.05.2022
3871 Clear 22 1011 46 10000 3 250 12:45 02.05.2022
3872 Clear 24 1011 44 10000 3 250 11:20 02.05.2022
3873 Clear 24 1011 45 10000 3 0 09:31 02.05.2022
3874 Clear 24 1012 45 10000 3 260 07:57 02.05.2022
3875 Clouds 22 1012 49 8000 3 300 04:44 02.05.2022
3876 Mist 13 1012 76 5000 2.24 263 00:25 02.05.2022
3877 Clouds 13 1012 73 7000 2.24 244 23:52 01.05.2022
3878 Clear 13 1011 68 10000 2.24 228 22:45 01.05.2022
3879 Clear 14 1012 67 10000 1.79 215 21:30 01.05.2022
3880 Clear 14 1012 66 10000 1.79 203 20:19 01.05.2022
3881 Clear 14 1012 65 10000 2 200 19:18 01.05.2022
3882 Clear 14 1013 63 10000 2.68 210 18:46 01.05.2022
3883 Clear 15 1013 62 10000 2.24 196 17:46 01.05.2022
3884 Clear 15 1013 60 10000 3 160 16:24 01.05.2022
3885 Clear 16 1013 58 10000 3 150 15:38 01.05.2022
3886 Clear 16 1012 57 10000 4 160 13:52 01.05.2022
3887 Rain 19 1011 47 10000 3 350 11:28 01.05.2022
3888 Clear 20 1016 49 10000 2 330 09:32 01.05.2022
3889 Clear 20 1017 50 10000 3 310 08:42 01.05.2022
3890 Clouds 17 1015 56 10000 2 0 03:44 01.05.2022
3891 Clouds 13 1013 71 10000 2.24 346 00:29 01.05.2022
3892 Clouds 13 1014 68 10000 3 340 21:49 30.04.2022
3893 Clouds 13 1014 66 10000 4 340 21:18 30.04.2022
3894 Clouds 13 1015 67 10000 3 340 19:42 30.04.2022
3895 Rain 14 1015 66 10000 3 350 18:28 30.04.2022
3896 Clear 14 1015 66 10000 4 10 16:50 30.04.2022
3897 Rain 14 1015 65 10000 4 50 15:47 30.04.2022
3898 Clear 15 1014 64 10000 4 30 14:48 30.04.2022
3899 Rain 16 1014 64 10000 4 350 12:55 30.04.2022
3900 Rain 16 1013 61 10000 4 360 11:34 30.04.2022
3901 Clouds 17 1013 60 10000 4 360 10:45 30.04.2022
3902 Clouds 16 1017 61 10000 4 30 09:41 30.04.2022
3903 Clouds 16 1018 62 10000 4 50 06:43 30.04.2022
3904 Clear 15 1015 63 10000 3 20 02:36 30.04.2022
3905 Clear 13 1014 69 10000 2 350 23:37 29.04.2022
3906 Clear 13 1014 69 10000 2 360 22:31 29.04.2022
3907 Clear 12 1014 68 10000 2 360 21:39 29.04.2022
3908 Clouds 13 1014 68 10000 2 30 20:49 29.04.2022
3909 Clouds 13 1014 66 10000 2 60 19:45 29.04.2022
3910 Clouds 13 1015 69 10000 4 50 17:55 29.04.2022
3911 Clouds 13 1015 69 10000 3 50 17:23 29.04.2022
3912 Clouds 14 1015 67 10000 2 60 15:49 29.04.2022
3913 Clouds 15 1015 64 10000 3 70 14:22 29.04.2022
3914 Clouds 15 1014 64 10000 2 50 12:52 29.04.2022
3915 Clouds 15 1013 63 10000 4 40 11:49 29.04.2022
3916 Clouds 16 1013 62 10000 5 350 08:51 29.04.2022
3917 Clouds 15 1013 67 10000 6 20 07:28 29.04.2022
3918 Clouds 14 1014 67 10000 6 10 06:39 29.04.2022
3919 Clouds 14 1014 68 10000 6 10 04:53 29.04.2022
3920 Clouds 13 1011 73 10000 5 360 00:39 29.04.2022
3921 Clouds 13 1010 74 10000 7 10 23:27 28.04.2022
3922 Clouds 13 1009 73 10000 7 10 22:41 28.04.2022
3923 Clouds 13 1009 75 10000 7 10 21:47 28.04.2022
3924 Clouds 13 1008 76 10000 7 10 20:57 28.04.2022
3925 Clouds 13 1008 77 10000 9 10 20:24 28.04.2022
3926 Rain 14 1008 80 10000 8 360 19:41 28.04.2022
3927 Rain 14 1008 80 10000 8 360 19:21 28.04.2022
3928 Rain 15 1007 80 10000 6 20 18:35 28.04.2022
3929 Clouds 16 1006 85 10000 9 30 17:20 28.04.2022
3930 Rain 16 1007 85 6000 6 20 16:40 28.04.2022
3931 Rain 17 1007 85 6000 6 20 16:18 28.04.2022
3932 Clouds 17 1007 84 10000 6 10 15:27 28.04.2022
3933 Clouds 17 1007 84 10000 6 10 15:27 28.04.2022
3934 Clouds 18 1005 84 7000 2 90 13:44 28.04.2022
3935 Rain 18 1002 90 7000 3 90 12:42 28.04.2022
3936 Rain 19 1005 79 7000 4 120 11:56 28.04.2022
3937 Clouds 20 1005 75 10000 4 110 10:44 28.04.2022
3938 Clouds 21 1005 73 10000 4 120 09:52 28.04.2022
3939 Clouds 21 1006 69 10000 3 90 08:30 28.04.2022
3940 Clouds 20 1005 74 10000 3 80 06:58 28.04.2022
3941 Clouds 19 1009 74 10000 3 100 05:55 28.04.2022
3942 Rain 19 1009 72 10000 3 120 04:50 28.04.2022
3943 Clouds 19 1009 72 10000 4 90 04:31 28.04.2022
3944 Clear 16 1010 70 10000 3 80 00:22 28.04.2022
3945 Rain 16 1010 63 10000 3 70 22:38 27.04.2022
3946 Clear 16 1009 61 10000 4 80 21:51 27.04.2022
3947 Clear 16 1010 62 10000 4 70 20:56 27.04.2022
3948 Clear 16 1010 62 10000 4 60 20:35 27.04.2022
3949 Clear 16 1011 60 10000 3 70 19:37 27.04.2022
3950 Clear 16 1011 63 10000 4 80 18:52 27.04.2022
3951 Clear 16 1011 63 10000 4 80 18:22 27.04.2022
3952 Clear 16 1011 59 10000 4 50 16:27 27.04.2022
3953 Clear 17 1009 54 10000 6 60 14:26 27.04.2022
3954 Clear 20 1016 30 10000 5 30 11:45 27.04.2022
3955 Clear 20 1015 48 10000 5 50 11:20 27.04.2022
3956 Clear 21 1015 48 10000 6 60 08:58 27.04.2022
3957 Clear 22 1011 44 10000 5 80 07:18 27.04.2022
3958 Clear 20 1012 60 10000 6 70 03:41 27.04.2022
3959 Clouds 17 1009 77 10000 4 70 01:30 27.04.2022
3960 Clouds 16 1009 78 10000 3 70 00:36 27.04.2022
3961 Clouds 16 1009 75 10000 3 50 23:25 26.04.2022
3962 Clouds 16 1008 75 10000 2 70 22:57 26.04.2022
3963 Clouds 16 1008 75 10000 2 70 22:38 26.04.2022
3964 Clouds 17 1008 75 10000 2 70 21:26 26.04.2022
3965 Clouds 17 1008 77 10000 3 20 20:40 26.04.2022
3966 Clouds 17 1008 77 10000 3 20 19:48 26.04.2022
3967 Clouds 17 1008 76 10000 4 50 19:26 26.04.2022
3968 Clouds 17 1007 77 10000 3 40 18:42 26.04.2022
3969 Clouds 18 1007 80 10000 4 30 17:50 26.04.2022
3970 Clouds 18 1007 81 10000 3 30 16:26 26.04.2022
3971 Clouds 19 1004 77 10000 3.13 9 13:58 26.04.2022
3972 Clouds 19 1004 77 10000 2 360 13:29 26.04.2022
3973 Clouds 19 1003 77 10000 5 10 11:32 26.04.2022
3974 Clouds 19 1002 78 10000 7 360 10:31 26.04.2022
3975 Clouds 20 1001 79 10000 6 350 08:47 26.04.2022
3976 Clouds 20 1001 85 6000 6 350 05:46 26.04.2022
3977 Mist 21 1000 86 5000 5 330 04:23 26.04.2022
3978 Rain 22 998 85 10000 3.13 254 00:53 26.04.2022
3979 Rain 22 997 82 10000 4 230 23:52 25.04.2022
3980 Rain 22 997 82 10000 2.68 220 22:18 25.04.2022
3981 Clear 22 997 81 10000 4 210 21:33 25.04.2022
3982 Rain 22 997 81 10000 2 190 20:26 25.04.2022
3983 Clear 22 997 81 10000 3.58 237 18:52 25.04.2022
3984 Clear 21 997 86 10000 4.92 240 17:40 25.04.2022
3985 Clear 21 997 86 10000 4.92 240 17:40 25.04.2022
3986 Clear 21 997 87 10000 5.36 234 16:50 25.04.2022
3987 Clouds 22 998 85 10000 4.47 212 15:23 25.04.2022
3988 Rain 22 998 85 10000 6 180 14:34 25.04.2022
3989 Rain 22 996 86 10000 2.24 178 13:21 25.04.2022
3990 Thunderstorm 24 997 80 2500 8 270 10:44 25.04.2022
3991 Clear 25 996 74 10000 5 150 09:42 25.04.2022
3992 Clouds 27 997 73 10000 7 140 07:56 25.04.2022
3993 Clouds 25 1000 73 10000 5 150 05:55 25.04.2022
3994 Mist 18 1001 87 5000 5 130 01:30 25.04.2022
3995 Clouds 17 1001 84 6000 4 150 23:56 24.04.2022
3996 Clouds 17 1001 84 6000 5 150 23:25 24.04.2022
3997 Mist 17 1001 85 4000 5 140 22:39 24.04.2022
3998 Mist 17 1002 83 3000 4 130 21:56 24.04.2022
3999 Mist 17 1002 85 4000 4 140 21:22 24.04.2022
4000 Mist 17 1003 84 4000 4 130 20:46 24.04.2022
4001 Mist 17 1003 83 5000 4 150 20:20 24.04.2022
4002 Clouds 18 1004 83 10000 4 130 18:38 24.04.2022
4003 Clouds 18 1004 83 10000 4 110 17:42 24.04.2022
4004 Clouds 18 1005 83 10000 4 110 17:20 24.04.2022
4005 Clouds 18 1005 83 10000 5 130 16:51 24.04.2022
4006 Clouds 18 1005 83 10000 5 140 16:23 24.04.2022
4007 Clouds 18 1005 81 10000 5 130 15:39 24.04.2022
4008 Clouds 19 1005 81 10000 4 120 14:31 24.04.2022
4009 Clouds 19 1005 78 10000 5 110 13:26 24.04.2022
4010 Clouds 19 1005 78 10000 6 120 12:46 24.04.2022
4011 Clouds 20 1004 76 10000 5 130 11:46 24.04.2022
4012 Clouds 21 1004 75 10000 5 140 10:33 24.04.2022
4013 Clouds 21 1004 75 10000 6 150 09:42 24.04.2022
4014 Clouds 22 1005 70 10000 4 150 07:41 24.04.2022
4015 Clouds 21 1006 71 10000 3 150 05:32 24.04.2022
4016 Clouds 19 1006 76 10000 2.24 85 01:51 24.04.2022
4017 Clouds 18 1006 80 10000 2 190 00:38 24.04.2022
4018 Clouds 18 1005 77 10000 3 110 23:45 23.04.2022
4019 Clouds 18 1005 76 10000 3 110 23:22 23.04.2022
4020 Clouds 18 1005 78 10000 2 160 21:55 23.04.2022
4021 Clouds 18 1005 78 10000 2 180 21:35 23.04.2022
4022 Clouds 18 1004 76 10000 3 150 20:58 23.04.2022
4023 Clouds 18 1005 77 10000 2 120 19:54 23.04.2022
4024 Clouds 17 1005 81 10000 2 150 19:19 23.04.2022
4025 Clouds 17 1005 81 10000 2 130 18:53 23.04.2022
4026 Clouds 17 1005 82 10000 3 150 18:24 23.04.2022
4027 Clouds 18 1005 82 10000 2 80 17:43 23.04.2022
4028 Clouds 18 1006 82 10000 3 100 16:43 23.04.2022
4029 Clouds 18 1006 82 10000 4 100 15:32 23.04.2022
4030 Clouds 18 1005 79 10000 3 100 12:50 23.04.2022
4031 Clouds 19 1004 80 10000 4 120 10:50 23.04.2022
4032 Clouds 19 1009 81 10000 3 50 09:38 23.04.2022
4033 Clouds 20 1005 79 10000 3 360 07:21 23.04.2022
4034 Rain 19 1006 85 7000 3 160 03:54 23.04.2022
4035 Rain 19 1005 85 10000 3 140 01:25 23.04.2022
4036 Rain 19 1005 84 7000 5 130 23:31 22.04.2022
4037 Rain 20 1005 85 7000 3 170 22:20 22.04.2022
4038 Rain 20 1005 84 10000 3 180 21:44 22.04.2022
4039 Rain 20 1005 84 10000 4 160 20:48 22.04.2022
4040 Rain 20 1005 82 10000 4 170 20:27 22.04.2022
4041 Rain 21 1006 81 10000 5 180 19:20 22.04.2022
4042 Rain 22 1006 81 10000 5 190 18:42 22.04.2022
4043 Clear 22 1011 78 10000 3.58 194 17:41 22.04.2022
4044 Rain 22 1011 77 10000 3 190 16:46 22.04.2022
4045 Rain 23 1006 71 10000 3.58 210 15:44 22.04.2022
4046 Clear 23 1006 70 10000 3.58 212 15:18 22.04.2022
4047 Clear 24 1004 67 10000 2 160 13:50 22.04.2022
4048 Rain 25 1005 66 10000 4 180 12:58 22.04.2022
4049 Clear 26 1004 63 10000 4 190 11:50 22.04.2022
4050 Clear 27 1004 54 10000 2 240 11:21 22.04.2022
4051 Clear 27 1004 54 10000 3 220 10:50 22.04.2022
4052 Clear 28 1004 52 10000 3 230 10:30 22.04.2022
4053 Clear 28 1004 50 10000 3 230 09:50 22.04.2022
4054 Clear 29 1004 50 10000 2 0 08:50 22.04.2022
4055 Clear 28 1005 55 10000 3 220 06:58 22.04.2022
4056 Clear 21 1004 68 10000 2 170 02:45 22.04.2022
4057 Clear 18 1006 74 10000 3 160 00:51 22.04.2022
4058 Clear 18 1006 71 10000 2.68 163 23:24 21.04.2022
4059 Clear 18 1005 70 10000 3 160 22:27 21.04.2022
4060 Clear 18 1006 71 10000 3 150 20:36 21.04.2022
4061 Clear 18 1006 71 10000 3 150 20:36 21.04.2022
4062 Clear 18 1006 70 10000 3 150 20:18 21.04.2022
4063 Clear 19 1006 66 10000 4 150 18:35 21.04.2022
4064 Clear 19 1006 67 10000 5 160 17:54 21.04.2022
4065 Clear 19 1007 70 10000 5 150 16:30 21.04.2022
4066 Clear 19 1007 72 10000 5 160 15:21 21.04.2022
4067 Clear 20 1006 72 10000 5 160 14:47 21.04.2022
4068 Clear 21 1005 64 10000 5 150 13:23 21.04.2022
4069 Clear 22 1010 60 10000 5 170 12:53 21.04.2022
4070 Clear 25 1008 63 10000 4 240 10:47 21.04.2022
4071 Clear 27 1005 52 10000 3 250 08:55 21.04.2022
4072 Clear 25 1006 52 10000 3 260 07:24 21.04.2022
4073 Clouds 21 1008 66 10000 4 210 04:58 21.04.2022
4074 Clouds 18 1008 75 7000 3 210 03:28 21.04.2022
4075 Clouds 17 1008 78 6000 4 190 02:47 21.04.2022
4076 Clouds 17 1008 78 6000 4 190 02:47 21.04.2022
4077 Mist 15 1007 82 5000 3.13 156 00:43 21.04.2022
4078 Mist 15 1007 80 5000 3 160 23:50 20.04.2022
4079 Mist 15 1007 80 4800 4 170 23:22 20.04.2022
4080 Rain 15 1007 79 4800 4 160 22:45 20.04.2022
4081 Clouds 15 1007 80 6000 3 170 22:26 20.04.2022
4082 Clouds 15 1007 78 7000 2 170 21:27 20.04.2022
4083 Clear 15 1007 75 10000 4.92 179 20:23 20.04.2022
4084 Clear 15 1007 73 10000 3 150 19:51 20.04.2022
4085 Clouds 15 1008 74 10000 3 150 19:18 20.04.2022
4086 Clouds 17 1008 70 10000 4 160 17:55 20.04.2022
4087 Rain 18 1008 60 10000 6 150 16:40 20.04.2022
4088 Rain 19 1008 59 10000 6 150 16:18 20.04.2022
4089 Rain 20 1013 57 10000 6 150 13:50 20.04.2022
4090 Clear 22 1004 43 10000 6 150 11:44 20.04.2022
4091 Clear 23 1008 51 10000 6 170 10:56 20.04.2022
4092 Clear 24 1008 50 10000 6 160 09:58 20.04.2022
4093 Clear 24 1008 49 10000 6 160 09:24 20.04.2022
4094 Clear 24 1009 51 10000 4 190 08:20 20.04.2022
4095 Clear 23 1010 50 10000 2 210 06:56 20.04.2022
4096 Clear 20 1010 58 10000 2 200 03:34 20.04.2022
4097 Clear 14 1012 67 10000 2.24 164 00:22 20.04.2022
4098 Clear 14 1011 63 10000 2.24 166 23:35 19.04.2022
4099 Clear 15 1011 61 10000 2 150 22:24 19.04.2022
4100 Clear 15 1011 60 10000 2.68 164 21:55 19.04.2022
4101 Clear 14 1012 62 10000 2.68 163 21:19 19.04.2022
4102 Clear 14 1012 61 10000 3.13 153 20:41 19.04.2022
4103 Clear 15 1012 59 10000 3 150 19:43 19.04.2022
4104 Clear 15 1013 57 10000 3.13 151 18:47 19.04.2022
4105 Clear 16 1013 60 10000 4 140 17:28 19.04.2022
4106 Clear 16 1014 60 10000 3 150 16:43 19.04.2022
4107 Clear 16 1014 60 10000 3 150 16:21 19.04.2022
4108 Clear 17 1013 58 10000 4 150 14:48 19.04.2022
4109 Clear 19 1012 57 10000 4 130 13:34 19.04.2022
4110 Clear 19 1012 55 10000 5 130 12:50 19.04.2022
4111 Clear 20 1012 55 10000 5 140 11:55 19.04.2022
4112 Clear 21 1012 55 10000 4 120 10:23 19.04.2022
4113 Clear 22 1017 57 10000 2 220 08:54 19.04.2022
4114 Clear 21 1012 48 10000 2 220 04:42 19.04.2022
4115 Clear 18 1015 56 10000 3 180 03:25 19.04.2022
4116 Clear 13 1013 66 10000 1.34 206 00:27 19.04.2022
4117 Clear 13 1013 57 10000 2 170 23:25 18.04.2022
4118 Clear 13 1013 54 10000 1.34 199 21:29 18.04.2022
4119 Clear 13 1013 53 10000 1.79 195 20:53 18.04.2022
4120 Clear 13 1019 59 10000 2 150 20:27 18.04.2022
4121 Clear 14 1014 54 10000 2.24 176 19:42 18.04.2022
4122 Clear 14 1015 56 10000 1.79 147 18:53 18.04.2022
4123 Clear 15 1015 58 10000 2 170 17:53 18.04.2022
4124 Clear 15 1015 56 10000 1.79 175 17:33 18.04.2022
4125 Clear 15 1015 54 10000 2 140 16:44 18.04.2022
4126 Clear 15 1015 52 10000 3 130 15:54 18.04.2022
4127 Clear 16 1014 49 10000 4 130 14:42 18.04.2022
4128 Clear 16 1014 49 10000 4 130 14:42 18.04.2022
4129 Clear 17 1014 49 10000 3 130 13:34 18.04.2022
4130 Clear 17 1014 49 10000 3 130 13:34 18.04.2022
4131 Clear 19 1013 45 10000 3 50 12:29 18.04.2022
4132 Clear 19 1017 49 10000 3 30 11:27 18.04.2022
4133 Clear 20 1017 50 10000 3 350 10:29 18.04.2022
4134 Clear 20 1017 49 10000 2 0 09:30 18.04.2022
4135 Clear 20 1019 32 10000 3 350 07:35 18.04.2022
4136 Clear 15 1020 58 10000 1 0 04:40 18.04.2022
4137 Clear 14 1013 52 10000 2 110 23:42 17.04.2022
4138 Clear 14 1013 52 10000 3 120 22:40 17.04.2022
4139 Clear 14 1013 52 10000 3 130 21:42 17.04.2022
4140 Clear 14 1013 52 10000 3 130 21:21 17.04.2022
4141 Clear 14 1013 53 10000 3 120 20:32 17.04.2022
4142 Clear 14 1013 53 10000 3 140 19:21 17.04.2022
4143 Clear 14 1015 53 10000 4 150 17:38 17.04.2022
4144 Clear 14 1015 50 10000 4 110 15:38 17.04.2022
4145 Clear 15 1015 49 10000 4 110 14:54 17.04.2022
4146 Clear 15 1014 48 10000 4 110 13:45 17.04.2022
4147 Clear 15 1014 45 10000 5 110 12:56 17.04.2022
4148 Clear 17 1018 47 10000 6 130 11:24 17.04.2022
4149 Clear 18 1019 36 10000 5 110 10:40 17.04.2022
4150 Clear 18 1019 47 10000 5 110 10:19 17.04.2022
4151 Clear 20 1019 44 10000 5 100 09:23 17.04.2022
4152 Clear 19 1019 42 10000 3 0 08:41 17.04.2022
4153 Clear 19 1020 44 10000 5 110 06:52 17.04.2022
4154 Clear 16 1016 38 10000 1 0 03:20 17.04.2022
4155 Clear 12 1015 66 10000 2 360 00:53 17.04.2022
4156 Clear 11 1015 65 10000 2 10 23:48 16.04.2022
4157 Clear 12 1015 63 10000 3 360 21:55 16.04.2022
4158 Clear 12 1015 64 10000 2 360 21:23 16.04.2022
4159 Clear 12 1015 60 10000 3 10 19:33 16.04.2022
4160 Clear 12 1015 61 10000 2 10 18:45 16.04.2022
4161 Clear 13 1016 58 10000 3 30 17:21 16.04.2022
4162 Clear 13 1015 56 10000 2 50 16:31 16.04.2022
4163 Clear 14 1016 55 10000 3 50 15:23 16.04.2022
4164 Clear 14 1016 52 10000 3 40 14:43 16.04.2022
4165 Clear 15 1015 49 10000 3 50 13:55 16.04.2022
4166 Clear 15 1015 45 10000 4 60 13:24 16.04.2022
4167 Clear 15 1020 38 10000 4 40 11:58 16.04.2022
4168 Clear 16 1020 32 10000 4 20 10:35 16.04.2022
4169 Clear 17 1019 45 10000 4 20 09:38 16.04.2022
4170 Clear 17 1020 44 10000 5 40 08:54 16.04.2022
4171 Clear 17 1020 43 10000 4 10 07:31 16.04.2022
4172 Clear 16 1021 43 10000 6 40 06:18 16.04.2022
4173 Clear 13 1017 52 10000 3 30 01:53 16.04.2022
4174 Clear 12 1015 54 10000 3 40 23:53 15.04.2022
4175 Clear 12 1016 55 10000 4 20 22:51 15.04.2022
4176 Clear 12 1015 55 10000 3 30 22:31 15.04.2022
4177 Clear 12 1015 56 10000 4 30 21:34 15.04.2022
4178 Clear 13 1015 57 10000 5 30 20:44 15.04.2022
4179 Clear 13 1016 56 10000 4 20 19:49 15.04.2022
4180 Clear 13 1016 55 10000 4 20 19:30 15.04.2022
4181 Clear 13 1016 55 10000 4 20 18:45 15.04.2022
4182 Clear 13 1016 57 10000 4 20 18:23 15.04.2022
4183 Clear 13 1017 61 10000 5 10 17:28 15.04.2022
4184 Rain 14 1017 60 10000 7 20 16:25 15.04.2022
4185 Clear 14 1017 58 10000 6 360 15:52 15.04.2022
4186 Clear 14 1016 56 10000 6 10 14:20 15.04.2022
4187 Clear 15 1015 54 10000 6 10 12:53 15.04.2022
4188 Clear 15 1015 55 10000 7 20 12:26 15.04.2022
4189 Clear 16 1015 54 10000 7 10 11:52 15.04.2022
4190 Clear 16 1013 48 10000 7 10 10:48 15.04.2022
4191 Clear 16 1020 55 10000 8 20 10:21 15.04.2022
4192 Rain 17 1020 54 10000 8 10 09:23 15.04.2022
4193 Clear 17 1020 53 10000 8 10 08:49 15.04.2022
4194 Rain 18 1015 54 10000 8 20 06:51 15.04.2022
4195 Clouds 17 1013 59 10000 8 30 04:49 15.04.2022
4196 Clouds 12 1014 77 10000 5 10 00:51 15.04.2022
4197 Clouds 12 1014 74 10000 6 10 23:28 14.04.2022
4198 Rain 12 1013 73 10000 6 20 22:46 14.04.2022
4199 Clouds 13 1013 74 10000 6 350 22:27 14.04.2022
4200 Rain 13 1013 74 10000 5 360 21:50 14.04.2022
4201 Clouds 13 1012 78 10000 3 10 19:51 14.04.2022
4202 Clouds 13 1013 79 10000 3 10 19:22 14.04.2022
4203 Clouds 13 1014 83 10000 6 10 17:46 14.04.2022
4204 Clouds 13 1014 83 8000 6 10 16:51 14.04.2022
4205 Clouds 13 1014 82 10000 5 20 15:52 14.04.2022
4206 Clouds 13 1013 83 10000 6 30 13:54 14.04.2022
4207 Clouds 14 1012 82 8000 7 20 13:25 14.04.2022
4208 Mist 14 1012 83 2200 6 350 12:33 14.04.2022
4209 Clouds 14 1011 82 8000 5 340 11:47 14.04.2022
4210 Clouds 14 1011 83 8000 7 360 11:18 14.04.2022
4211 Clouds 15 1011 84 6000 6 350 10:31 14.04.2022
4212 Clouds 15 1010 83 8000 8 340 09:30 14.04.2022
4213 Clouds 15 1009 81 8000 7 340 08:24 14.04.2022
4214 Clouds 14 1009 84 8000 5 350 05:57 14.04.2022
4215 Mist 13 1007 80 4000 7 360 00:59 14.04.2022
4216 Rain 14 1005 81 8000 7 320 22:38 13.04.2022
4217 Clouds 14 1005 82 10000 9 340 21:43 13.04.2022
4218 Rain 15 1004 82 10000 7 330 20:41 13.04.2022
4219 Rain 15 1004 82 10000 7 350 19:49 13.04.2022
4220 Rain 15 1004 87 6000 8 350 18:37 13.04.2022
4221 Rain 15 1004 85 8000 9 20 17:25 13.04.2022
4222 Rain 14 1004 85 8000 10 20 16:53 13.04.2022
4223 Rain 14 1003 84 6000 10 20 15:47 13.04.2022
4224 Rain 14 1003 84 6000 10 30 15:27 13.04.2022
4225 Rain 13 1003 84 8000 10 20 14:40 13.04.2022
4226 Rain 13 1003 84 8000 5 20 13:43 13.04.2022
4227 Rain 13 1002 83 8000 8 30 12:52 13.04.2022
4228 Rain 14 1001 84 5000 8 30 11:47 13.04.2022
4229 Rain 14 1001 84 3000 8 20 10:31 13.04.2022
4230 Rain 15 1002 83 7000 8 30 08:45 13.04.2022
4231 Rain 15 1003 82 8000 7 40 07:57 13.04.2022
4232 Rain 15 1005 83 8000 6 10 06:48 13.04.2022
4233 Clouds 16 1005 81 10000 6 30 06:24 13.04.2022
4234 Mist 14 1005 83 4000 7 20 01:51 13.04.2022
4235 Mist 15 1004 80 5000 7 20 00:19 13.04.2022
4236 Clouds 16 1004 78 8000 6 40 22:33 12.04.2022
4237 Clouds 16 1004 77 8000 5 30 21:51 12.04.2022
4238 Clouds 16 1004 79 7000 7 20 20:48 12.04.2022
4239 Clouds 16 1004 80 7000 6 10 20:19 12.04.2022
4240 Clouds 16 1004 80 7000 7 10 19:40 12.04.2022
4241 Clouds 18 1004 81 7000 8 10 18:53 12.04.2022
4242 Clouds 20 1004 82 10000 6 10 17:38 12.04.2022
4243 Rain 21 1004 79 10000 6 30 16:38 12.04.2022
4244 Clear 23 1002 76 10000 6 360 15:34 12.04.2022
4245 Clear 26 1007 57 10000 4 150 14:41 12.04.2022
4246 Clear 26 1007 57 10000 4 150 13:45 12.04.2022
4247 Clear 27 1000 49 10000 5 150 13:23 12.04.2022
4248 Clear 30 1006 42 10000 5 140 11:49 12.04.2022
4249 Clear 29 1001 54 10000 6 150 11:28 12.04.2022
4250 Clear 31 1001 52 10000 5 180 09:47 12.04.2022
4251 Clear 33 1002 49 10000 4 160 08:32 12.04.2022
4252 Clear 32 1003 52 10000 3 210 06:46 12.04.2022
4253 Clear 30 1004 56 10000 3 200 05:38 12.04.2022
4254 Clear 21 1005 75 10000 3 160 01:48 12.04.2022
4255 Clear 20 1004 79 10000 3 150 23:20 11.04.2022
4256 Clear 20 1004 75 10000 4 160 21:51 11.04.2022
4257 Clear 20 1004 72 10000 3 150 21:18 11.04.2022
4258 Clear 21 1004 70 10000 3 150 20:30 11.04.2022
4259 Clear 21 1004 69 10000 3 150 19:58 11.04.2022
4260 Clear 21 1008 72 10000 3 150 19:25 11.04.2022
4261 Clear 21 1009 72 10000 3 150 18:52 11.04.2022
4262 Clear 22 1004 65 10000 3 150 17:57 11.04.2022
4263 Clear 22 1005 64 10000 3 140 17:30 11.04.2022
4264 Clear 23 1005 62 10000 4 150 16:25 11.04.2022
4265 Clear 25 1004 57 10000 3.13 146 14:40 11.04.2022
4266 Clear 27 1009 41 10000 3 140 13:19 11.04.2022
4267 Clear 29 1008 42 10000 5 140 12:36 11.04.2022
4268 Clear 31 1007 29 10000 3 180 11:42 11.04.2022
4269 Clear 31 1007 61 10000 2 160 10:34 11.04.2022
4270 Clear 32 1007 62 10000 2 0 09:30 11.04.2022
4271 Clear 32 1004 47 10000 3 270 07:19 11.04.2022
4272 Clear 22 1003 71 10000 3 190 02:32 11.04.2022
4273 Clear 18 1005 77 10000 2 150 22:54 10.04.2022
4274 Clear 18 1005 77 10000 3 150 22:26 10.04.2022
4275 Clear 18 1005 77 10000 3 150 21:35 10.04.2022
4276 Clear 18 1005 75 10000 3 150 20:33 10.04.2022
4277 Clear 18 1005 78 10000 3 150 19:45 10.04.2022
4278 Clear 19 1006 79 10000 3 150 19:23 10.04.2022
4279 Clear 19 1006 77 10000 3 150 18:45 10.04.2022
4280 Clear 19 1006 77 10000 3 150 17:55 10.04.2022
4281 Clear 19 1006 78 10000 4 150 17:35 10.04.2022
4282 Clear 20 1007 76 10000 4 150 16:25 10.04.2022
4283 Clear 20 1007 74 10000 5 150 15:30 10.04.2022
4284 Clear 20 1007 73 10000 6 150 14:25 10.04.2022
4285 Clear 22 1006 66 10000 4 140 12:35 10.04.2022
4286 Clear 24 1003 58 10000 6 160 11:49 10.04.2022
4287 Clear 24 1005 62 10000 6 150 11:29 10.04.2022
4288 Clear 25 1003 55 10000 6 150 10:54 10.04.2022
4289 Clear 25 1003 55 10000 6 150 10:54 10.04.2022
4290 Clear 25 1005 59 10000 5 160 09:56 10.04.2022
4291 Clear 26 1005 58 10000 6 170 09:28 10.04.2022
4292 Clear 26 1006 57 10000 6 180 08:22 10.04.2022
4293 Clear 27 1011 63 10000 5 160 07:27 10.04.2022
4294 Clear 25 1007 56 10000 4 160 05:46 10.04.2022
4295 Clear 19 1008 68 10000 5 160 02:21 10.04.2022
4296 Clear 17 1007 77 10000 4 150 00:25 10.04.2022
4297 Clear 17 1007 72 10000 4 150 23:43 09.04.2022
4298 Clear 17 1007 72 10000 4 140 22:45 09.04.2022
4299 Clear 17 1007 72 10000 4 150 21:34 09.04.2022
4300 Clear 17 1007 72 10000 4 150 20:48 09.04.2022
4301 Clear 17 1007 71 10000 4 150 20:23 09.04.2022
4302 Clear 17 1007 74 10000 5 150 19:41 09.04.2022
4303 Clear 17 1008 74 10000 5 150 18:54 09.04.2022
4304 Clear 17 1008 73 10000 5 150 18:18 09.04.2022
4305 Clear 18 1008 72 10000 5 150 17:34 09.04.2022
4306 Clear 18 1008 71 10000 5 150 16:47 09.04.2022
4307 Clear 18 1009 71 10000 6 150 15:53 09.04.2022
4308 Clear 19 1008 70 10000 7 150 15:28 09.04.2022
4309 Clear 19 1008 68 10000 6 150 14:27 09.04.2022
4310 Clear 20 1005 62 10000 7 150 13:47 09.04.2022
4311 Clear 22 1012 53 10000 6 140 12:59 09.04.2022
4312 Clear 24 1012 38 10000 6 160 11:56 09.04.2022
4313 Clear 27 1011 28 10000 6 140 10:55 09.04.2022
4314 Clear 27 1012 55 10000 5 170 10:19 09.04.2022
4315 Clear 28 1012 23 10000 4 180 09:36 09.04.2022
4316 Clear 27 1012 56 10000 5 150 08:45 09.04.2022
4317 Clear 25 1009 42 10000 5 200 05:35 09.04.2022
4318 Clear 15 1009 60 10000 3 150 00:36 09.04.2022
4319 Clear 15 1009 60 10000 3 150 00:36 09.04.2022
4320 Clear 15 1013 60 10000 3 150 23:25 08.04.2022
4321 Clear 16 1014 60 10000 3 150 21:57 08.04.2022
4322 Clear 16 1014 60 10000 3 160 20:47 08.04.2022
4323 Clear 17 1010 55 10000 4 140 19:57 08.04.2022
4324 Clear 17 1010 54 10000 4 150 18:59 08.04.2022
4325 Clear 17 1010 53 10000 4 150 18:25 08.04.2022
4326 Clear 17 1016 57 10000 4 150 17:38 08.04.2022
4327 Clear 18 1011 51 10000 4 150 17:19 08.04.2022
4328 Clear 18 1016 56 10000 4 150 16:32 08.04.2022
4329 Clear 19 1016 56 10000 5 150 15:38 08.04.2022
4330 Clear 20 1016 40 10000 6 150 14:52 08.04.2022
4331 Clear 20 1008 36 10000 6 150 14:21 08.04.2022
4332 Clear 21 1015 37 10000 6 150 13:36 08.04.2022
4333 Clear 21 1015 37 10000 6 150 13:18 08.04.2022
4334 Clear 25 1015 29 10000 6 150 11:43 08.04.2022
4335 Clear 26 1010 43 10000 7 140 10:26 08.04.2022
4336 Clear 26 1016 57 10000 6 160 09:20 08.04.2022
4337 Clear 27 1012 44 10000 6 180 07:58 08.04.2022
4338 Clear 27 1012 43 10000 7 160 06:46 08.04.2022
4339 Clear 23 1012 40 10000 3 170 03:35 08.04.2022
4340 Clear 15 1014 65 10000 2.68 140 00:31 08.04.2022
4341 Clear 15 1013 61 10000 2 150 23:53 07.04.2022
4342 Clear 15 1018 62 10000 2 150 22:55 07.04.2022
4343 Clear 15 1018 62 10000 2 150 22:36 07.04.2022
4344 Clear 16 1013 59 10000 2 150 22:18 07.04.2022
4345 Clear 16 1013 62 10000 2 150 21:30 07.04.2022
4346 Clear 16 1013 62 10000 3 130 20:56 07.04.2022
4347 Clear 16 1013 62 10000 3 140 20:26 07.04.2022
4348 Clear 17 1020 64 10000 1 0 17:45 07.04.2022
4349 Clear 17 1020 63 10000 1 0 17:23 07.04.2022
4350 Clear 18 1020 60 10000 1.79 114 16:42 07.04.2022
4351 Clear 19 1020 55 10000 2.68 119 15:56 07.04.2022
4352 Clear 21 1011 33 10000 3 140 13:59 07.04.2022
4353 Clear 22 1010 31 10000 4 150 13:26 07.04.2022
4354 Clear 23 1010 29 10000 5 170 12:28 07.04.2022
4355 Clear 27 1017 29 10000 2 180 10:56 07.04.2022
4356 Clear 27 1016 59 10000 2 230 09:28 07.04.2022
4357 Clear 26 1017 58 10000 2 80 07:38 07.04.2022
4358 Clear 26 1014 44 10000 2 190 05:32 07.04.2022
4359 Clear 18 1012 75 10000 1 0 02:38 07.04.2022
4360 Clear 14 1014 76 10000 1.79 188 00:47 07.04.2022
4361 Clear 14 1013 72 10000 2.24 157 23:39 06.04.2022
4362 Clear 15 1012 72 10000 2.24 171 22:45 06.04.2022
4363 Clear 15 1012 71 10000 2.24 172 22:21 06.04.2022
4364 Clear 15 1013 70 10000 1 160 20:53 06.04.2022
4365 Clear 15 1013 72 10000 1 200 20:26 06.04.2022
4366 Clear 15 1014 70 10000 2 150 19:48 06.04.2022
4367 Clear 15 1014 73 10000 2 150 18:48 06.04.2022
4368 Clear 15 1015 73 10000 2 160 17:38 06.04.2022
4369 Clear 15 1015 73 10000 2 160 17:20 06.04.2022
4370 Clear 16 1015 70 10000 2 160 16:34 06.04.2022
4371 Clear 16 1012 68 10000 3 140 15:45 06.04.2022
4372 Clear 18 1014 62 10000 3 140 13:53 06.04.2022
4373 Clear 19 1014 58 10000 6 130 12:37 06.04.2022
4374 Clear 20 1019 55 10000 7 150 11:44 06.04.2022
4375 Clear 23 1018 53 10000 2 0 10:37 06.04.2022
4376 Clear 23 1018 53 10000 2 0 10:18 06.04.2022
4377 Clear 24 1018 50 10000 3 0 09:25 06.04.2022
4378 Clear 25 1019 55 10000 3 30 08:18 06.04.2022
4379 Clear 23 1020 54 10000 2 30 06:40 06.04.2022
4380 Clear 14 1014 77 10000 1 10 01:44 06.04.2022
4381 Clear 12 1015 69 10000 1 350 23:50 05.04.2022
4382 Clear 12 1015 68 10000 1.79 149 21:59 05.04.2022
4383 Clear 12 1015 68 10000 1.79 148 21:18 05.04.2022
4384 Clear 12 1015 69 10000 1.79 142 20:24 05.04.2022
4385 Clear 13 1015 66 10000 1.34 174 18:45 05.04.2022
4386 Clear 13 1016 63 10000 2 170 17:22 05.04.2022
4387 Clear 13 1016 63 10000 2 160 16:44 05.04.2022
4388 Clear 13 1016 62 10000 1 0 15:52 05.04.2022
4389 Clear 13 1016 62 10000 1 180 15:31 05.04.2022
4390 Clear 14 1015 63 10000 3.13 155 13:55 05.04.2022
4391 Clear 15 1014 60 10000 3.58 155 12:41 05.04.2022
4392 Rain 16 1014 59 10000 1 0 11:43 05.04.2022
4393 Clear 16 1014 58 10000 1 0 11:25 05.04.2022
4394 Clear 16 1015 56 10000 4 190 09:41 05.04.2022
4395 Clear 17 1015 55 10000 4 190 08:51 05.04.2022
4396 Clear 14 1018 62 10000 3 160 04:25 05.04.2022
4397 Clear 12 1017 64 10000 3 140 23:48 04.04.2022
4398 Clear 12 1017 64 10000 4 150 22:41 04.04.2022
4399 Clear 11 1018 65 10000 4 160 21:51 04.04.2022
4400 Clear 11 1018 70 10000 3 150 21:20 04.04.2022
4401 Clear 11 1018 69 10000 5 160 20:48 04.04.2022
4402 Clear 11 1019 70 10000 4 140 19:38 04.04.2022
4403 Clear 11 1019 69 10000 4 140 18:46 04.04.2022
4404 Clear 12 1020 68 10000 4 140 17:33 04.04.2022
4405 Clear 12 1020 67 10000 5 130 16:36 04.04.2022
4406 Clear 12 1020 64 10000 5 130 15:34 04.04.2022
4407 Clear 12 1020 62 10000 5 140 14:49 04.04.2022
4408 Clear 12 1020 61 10000 6 140 14:31 04.04.2022
4409 Clear 13 1017 56 10000 5 130 13:18 04.04.2022
4410 Clear 17 1025 47 10000 5 140 11:29 04.04.2022
4411 Clear 17 1024 47 10000 4 140 10:49 04.04.2022
4412 Clear 18 1027 51 10000 3 140 07:36 04.04.2022
4413 Clear 13 1024 56 10000 4 120 03:18 04.04.2022
4414 Clear 9 1023 66 10000 1 0 23:48 03.04.2022
4415 Clear 9 1023 65 10000 2 160 22:31 03.04.2022
4416 Clear 9 1022 63 10000 2 110 21:32 03.04.2022
4417 Clear 10 1023 63 10000 2 90 20:36 03.04.2022
4418 Clear 10 1023 63 10000 2 110 19:45 03.04.2022
4419 Clear 10 1024 67 10000 3 110 18:29 03.04.2022
4420 Clear 10 1024 65 10000 4 110 17:44 03.04.2022
4421 Clear 10 1023 63 10000 3 100 16:50 03.04.2022
4422 Clear 10 1024 62 10000 3 100 16:21 03.04.2022
4423 Clear 11 1023 58 10000 4 110 14:28 03.04.2022
4424 Clear 12 1023 56 10000 4 120 13:44 03.04.2022
4425 Clear 13 1028 53 10000 4 90 12:19 03.04.2022
4426 Clear 16 1027 48 10000 3 70 10:32 03.04.2022
4427 Clear 17 1027 47 10000 4 30 09:23 03.04.2022
4428 Clear 16 1028 47 10000 2 0 07:24 03.04.2022
4429 Clear 13 1024 46 10000 1 0 03:37 03.04.2022
4430 Clear 8 1023 65 10000 1 350 00:36 03.04.2022
4431 Clear 8 1023 61 10000 2 10 22:54 02.04.2022
4432 Clear 8 1023 59 10000 2 10 21:57 02.04.2022
4433 Clear 8 1023 60 10000 2 20 21:28 02.04.2022
4434 Clear 9 1023 59 10000 2 10 20:41 02.04.2022
4435 Clear 9 1023 55 10000 1 80 18:57 02.04.2022
4436 Clear 9 1023 55 10000 1 100 18:20 02.04.2022
4437 Clear 9 1023 55 10000 1 100 18:20 02.04.2022
4438 Clear 9 1024 54 10000 1 90 17:46 02.04.2022
4439 Clear 10 1024 56 10000 3 110 15:59 02.04.2022
4440 Clear 10 1023 55 10000 4 110 15:21 02.04.2022
4441 Clear 11 1023 55 10000 4 110 14:42 02.04.2022
4442 Clear 12 1023 51 10000 3 110 13:34 02.04.2022
4443 Clear 13 1027 49 10000 4 30 12:34 02.04.2022
4444 Clear 15 1027 45 10000 3 340 10:50 02.04.2022
4445 Clear 15 1028 44 10000 2 0 08:44 02.04.2022
4446 Clear 14 1029 46 10000 2 0 06:43 02.04.2022
4447 Clear 12 1025 44 10000 4 10 03:31 02.04.2022
4448 Clear 7 1024 66 10000 2 360 23:55 01.04.2022
4449 Clear 7 1023 68 10000 2 10 22:55 01.04.2022
4450 Clear 8 1023 68 10000 2.24 350 21:31 01.04.2022
4451 Clear 8 1024 70 10000 3 360 20:50 01.04.2022
4452 Clear 8 1024 69 10000 3 10 19:51 01.04.2022
4453 Clear 8 1024 69 10000 4 360 19:27 01.04.2022
4454 Clear 8 1025 69 10000 4 10 18:42 01.04.2022
4455 Clear 9 1026 67 10000 4 360 17:45 01.04.2022
4456 Clear 9 1026 64 10000 5 30 16:34 01.04.2022
4457 Clear 10 1026 62 10000 3 50 15:19 01.04.2022
4458 Clear 10 1025 59 10000 4 40 14:18 01.04.2022
4459 Clear 11 1025 56 10000 5 40 13:32 01.04.2022
4460 Clear 12 1025 53 10000 5 20 12:32 01.04.2022
4461 Clear 13 1024 51 10000 6 30 11:18 01.04.2022
4462 Clear 13 1029 50 10000 5 360 09:53 01.04.2022
4463 Clear 13 1030 49 10000 6 360 07:50 01.04.2022
4464 Clear 12 1031 52 10000 5 360 06:30 01.04.2022
4465 Clear 13 1026 51 10000 5 20 04:45 01.04.2022
4466 Clear 12 1027 53 10000 7 10 03:21 01.04.2022
4467 Clear 10 1026 58 10000 6 360 01:53 01.04.2022
4468 Clear 8 1024 58 10000 5 360 22:56 31.03.2022
4469 Clear 8 1024 53 10000 4 360 21:49 31.03.2022
4470 Clear 9 1024 53 10000 5 10 21:21 31.03.2022
4471 Clear 9 1024 53 10000 5 10 20:28 31.03.2022
4472 Clear 9 1024 53 10000 5 10 19:44 31.03.2022
4473 Clear 9 1025 55 10000 6 10 18:35 31.03.2022
4474 Clear 9 1025 65 10000 7 360 17:25 31.03.2022
4475 Clouds 10 1025 70 10000 6 10 15:58 31.03.2022
4476 Clouds 10 1025 71 10000 5 360 15:29 31.03.2022
4477 Rain 10 1025 74 10000 5 360 14:49 31.03.2022
4478 Clouds 10 1023 76 10000 4 10 13:53 31.03.2022
4479 Rain 12 1022 66 10000 5 360 11:31 31.03.2022
4480 Rain 12 1021 64 10000 9 10 10:27 31.03.2022
4481 Rain 13 1021 63 10000 7 10 09:40 31.03.2022
4482 Clouds 13 1022 62 10000 8 10 07:49 31.03.2022
4483 Clouds 13 1021 67 10000 8 30 03:30 31.03.2022
4484 Rain 12 1018 72 10000 5 30 23:25 30.03.2022
4485 Rain 13 1017 72 10000 7 10 21:57 30.03.2022
4486 Clouds 13 1016 72 10000 6 10 21:31 30.03.2022
4487 Rain 13 1016 71 10000 6 10 20:44 30.03.2022
4488 Rain 14 1016 69 10000 5 20 19:48 30.03.2022
4489 Rain 14 1017 69 10000 4 10 18:41 30.03.2022
4490 Rain 14 1017 69 10000 5 10 17:51 30.03.2022
4491 Rain 15 1017 67 10000 4 20 17:20 30.03.2022
4492 Rain 15 1016 66 10000 6 30 16:40 30.03.2022
4493 Clear 16 1015 65 10000 5 20 15:55 30.03.2022
4494 Rain 17 1013 60 10000 5 40 14:35 30.03.2022
4495 Rain 17 1014 65 10000 5 40 13:21 30.03.2022
4496 Clear 18 1011 66 10000 8 30 12:19 30.03.2022
4497 Clear 23 1017 49 10000 5 350 10:48 30.03.2022
4498 Clear 24 1011 58 10000 3 320 09:43 30.03.2022
4499 Clouds 24 1016 64 10000 3 320 08:20 30.03.2022
4500 Clear 24 1012 58 10000 3 270 06:32 30.03.2022
4501 Clear 22 1012 61 10000 2 240 05:38 30.03.2022
4502 Clear 15 1013 78 10000 3 190 01:48 30.03.2022
4503 Clear 14 1011 77 10000 3 170 22:39 29.03.2022
4504 Clear 14 1011 76 10000 4 170 21:48 29.03.2022
4505 Clear 14 1012 76 10000 4 170 21:20 29.03.2022
4506 Clear 14 1012 78 10000 5 160 20:25 29.03.2022
4507 Clear 14 1012 77 10000 6 150 19:27 29.03.2022
4508 Clear 14 1013 77 10000 5 150 18:53 29.03.2022
4509 Clear 14 1013 75 10000 5 150 17:40 29.03.2022
4510 Clear 14 1014 74 10000 5 150 16:59 29.03.2022
4511 Clear 14 1014 72 10000 5 150 16:25 29.03.2022
4512 Clear 14 1014 69 10000 6 140 14:58 29.03.2022
4513 Clear 14 1014 66 10000 5 130 14:39 29.03.2022
4514 Clear 14 1011 60 10000 5 140 13:30 29.03.2022
4515 Clear 17 1018 55 10000 5 140 11:46 29.03.2022
4516 Clear 18 1018 50 10000 6 150 10:59 29.03.2022
4517 Clear 19 1019 51 10000 5 150 09:50 29.03.2022
4518 Clear 19 1014 40 10000 4 150 08:20 29.03.2022
4519 Clear 17 1016 47 10000 5 140 05:38 29.03.2022
4520 Clear 9 1018 64 10000 4 130 01:25 29.03.2022
4521 Clear 9 1018 58 10000 3 120 23:25 28.03.2022
4522 Clear 9 1018 58 10000 2 110 22:54 28.03.2022
4523 Clear 9 1018 58 10000 2 100 22:28 28.03.2022
4524 Clear 9 1018 57 10000 3 140 20:59 28.03.2022
4525 Clear 9 1018 57 10000 2 130 20:31 28.03.2022
4526 Clear 9 1019 62 10000 2.24 115 19:46 28.03.2022
4527 Clear 9 1019 62 10000 3 130 19:27 28.03.2022
4528 Clear 9 1020 60 10000 2 120 18:40 28.03.2022
4529 Clear 9 1020 59 10000 4 110 17:39 28.03.2022
4530 Clear 10 1020 58 10000 3 100 16:33 28.03.2022
4531 Clear 11 1020 57 10000 4 110 14:48 28.03.2022
4532 Clear 11 1020 57 10000 5 110 14:21 28.03.2022
4533 Clear 12 1024 57 10000 4 110 12:24 28.03.2022
4534 Clear 13 1024 53 10000 2 120 11:31 28.03.2022
4535 Clear 14 1023 52 10000 2 110 09:43 28.03.2022
4536 Clear 14 1023 52 10000 2 110 09:19 28.03.2022
4537 Clear 14 1024 53 10000 3 180 08:22 28.03.2022
4538 Rain 13 1024 50 10000 3 110 07:28 28.03.2022
4539 Clouds 12 1021 52 10000 4 70 03:44 28.03.2022
4540 Rain 10 1019 59 10000 4 60 23:30 27.03.2022
4541 Clouds 10 1019 62 10000 4 70 22:24 27.03.2022
4542 Clouds 10 1019 62 10000 4 70 22:24 27.03.2022
4543 Clouds 10 1018 63 10000 5 60 21:41 27.03.2022
4544 Clouds 10 1018 62 10000 5 70 20:54 27.03.2022
4545 Clouds 10 1018 62 10000 5 70 20:54 27.03.2022
4546 Clouds 11 1018 62 10000 4 60 19:48 27.03.2022
4547 Clouds 11 1018 62 10000 5 60 19:20 27.03.2022
4548 Clouds 10 1019 67 10000 5 60 18:27 27.03.2022
4549 Clouds 10 1019 67 10000 5 60 18:27 27.03.2022
4550 Clouds 10 1019 67 10000 5 60 18:27 27.03.2022
4551 Clear 10 1019 68 10000 5 50 17:38 27.03.2022
4552 Rain 11 1019 68 10000 6 40 16:21 27.03.2022
4553 Clear 11 1018 67 10000 4 50 15:18 27.03.2022
4554 Clear 12 1017 63 10000 6 20 13:55 27.03.2022
4555 Rain 14 1013 59 10000 6 30 12:20 27.03.2022
4556 Clear 17 1020 42 10000 4 10 10:47 27.03.2022
4557 Clear 19 1014 39 10000 6 20 08:37 27.03.2022
4558 Clear 18 1015 40 10000 3 340 05:45 27.03.2022
4559 Clear 13 1014 59 10000 2 200 00:47 27.03.2022
4560 Clear 13 1013 55 10000 1 330 23:34 26.03.2022
4561 Clear 12 1018 52 10000 2 290 22:35 26.03.2022
4562 Clear 12 1017 56 10000 1 20 21:33 26.03.2022
4563 Clear 13 1012 50 10000 2 20 20:20 26.03.2022
4564 Clear 13 1013 49 10000 1 30 18:59 26.03.2022
4565 Clear 13 1012 49 10000 1.79 340 17:47 26.03.2022
4566 Clear 13 1013 47 10000 1.79 340 17:28 26.03.2022
4567 Clear 13 1014 48 10000 1 0 16:24 26.03.2022
4568 Clear 13 1013 48 10000 2 20 14:50 26.03.2022
4569 Clear 14 1013 46 10000 3.58 354 13:52 26.03.2022
4570 Clear 14 1017 46 10000 5 20 12:44 26.03.2022
4571 Clear 15 1017 53 10000 5 350 11:28 26.03.2022
4572 Clouds 16 1010 53 10000 7 330 09:23 26.03.2022
4573 Clouds 17 1010 59 10000 6 330 08:28 26.03.2022
4574 Clouds 16 1015 60 10000 7 330 05:54 26.03.2022
4575 Clouds 15 1015 64 10000 7 310 03:58 26.03.2022
4576 Clouds 13 1006 71 10000 4 310 23:21 25.03.2022
4577 Clouds 14 1004 73 10000 6 300 20:59 25.03.2022
4578 Clouds 14 1003 74 10000 6 300 20:38 25.03.2022
4579 Clouds 15 1003 73 10000 9 320 19:27 25.03.2022
4580 Clouds 15 1002 76 10000 6 290 18:37 25.03.2022
4581 Clouds 16 1002 77 10000 5 290 17:35 25.03.2022
4582 Clouds 16 1002 79 10000 6 300 16:41 25.03.2022
4583 Clouds 17 1001 81 10000 4.47 283 15:50 25.03.2022
4584 Mist 18 999 88 3000 3.58 255 13:40 25.03.2022
4585 Clouds 18 998 87 10000 1 160 11:49 25.03.2022
4586 Clouds 18 998 84 10000 5 190 09:47 25.03.2022
4587 Clouds 18 997 84 10000 6 180 09:19 25.03.2022
4588 Rain 18 998 85 10000 8 170 07:48 25.03.2022
4589 Clouds 18 998 86 10000 8 170 07:21 25.03.2022
4590 Clouds 17 1002 85 4000 9 170 03:58 25.03.2022
4591 Rain 16 1004 81 8000 8 150 23:55 24.03.2022
4592 Rain 15 1005 79 10000 6 160 22:24 24.03.2022
4593 Rain 15 1005 78 10000 9 160 21:29 24.03.2022
4594 Rain 15 1007 78 10000 8 160 19:50 24.03.2022
4595 Clear 14 1007 74 10000 7 150 18:45 24.03.2022
4596 Clear 14 1007 71 10000 7 160 17:38 24.03.2022
4597 Clear 14 1008 68 10000 9 150 16:39 24.03.2022
4598 Clear 14 1009 70 10000 10 150 14:53 24.03.2022
4599 Clear 14 1009 70 10000 9 150 14:32 24.03.2022
4600 Clear 14 1009 70 10000 7 140 13:36 24.03.2022
4601 Clear 14 1009 68 10000 8 150 12:35 24.03.2022
4602 Clear 14 1009 64 10000 7 140 11:31 24.03.2022
4603 Clear 17 1014 57 10000 7 160 09:34 24.03.2022
4604 Clear 17 1015 55 10000 9 150 08:38 24.03.2022
4605 Clear 17 1012 48 10000 7 160 05:44 24.03.2022
4606 Clear 9 1013 66 10000 4 150 00:47 24.03.2022
4607 Clear 8 1013 63 10000 2.24 128 22:21 23.03.2022
4608 Clear 8 1012 62 10000 2.24 138 21:24 23.03.2022
4609 Clear 8 1013 59 10000 2.24 155 20:36 23.03.2022
4610 Clear 8 1013 58 10000 2.24 164 19:33 23.03.2022
4611 Clear 8 1013 57 10000 2 150 18:18 23.03.2022
4612 Clear 8 1014 55 10000 2 150 17:25 23.03.2022
4613 Clear 9 1015 56 10000 4 150 15:43 23.03.2022
4614 Clear 9 1015 56 10000 3 160 14:47 23.03.2022
4615 Clear 10 1015 57 10000 4 150 13:31 23.03.2022
4616 Clear 12 1019 54 10000 2 50 11:24 23.03.2022
4617 Clear 13 1019 46 10000 2 40 08:41 23.03.2022
4618 Clear 13 1020 50 10000 2 350 05:50 23.03.2022
4619 Clear 13 1020 49 10000 2 350 05:50 23.03.2022
4620 Clouds 11 1016 53 10000 2 340 02:50 23.03.2022
4621 Clear 8 1021 64 10000 2 300 00:26 23.03.2022
4622 Clouds 8 1015 62 10000 1 10 21:52 22.03.2022
4623 Clouds 8 1015 63 10000 2 350 21:23 22.03.2022
4624 Clouds 8 1016 60 10000 3 10 20:23 22.03.2022
4625 Clouds 8 1016 60 10000 4 10 19:27 22.03.2022
4626 Clouds 8 1017 58 10000 5 360 18:48 22.03.2022
4627 Clouds 8 1017 60 10000 4.02 11 17:44 22.03.2022
4628 Clouds 8 1023 54 10000 4.02 1 16:58 22.03.2022
4629 Clouds 9 1017 61 10000 3 20 15:42 22.03.2022
4630 Clouds 9 1017 65 10000 3 20 15:20 22.03.2022
4631 Clouds 9 1018 65 10000 3 40 14:44 22.03.2022
4632 Clouds 9 1018 64 10000 3 30 13:42 22.03.2022
4633 Clouds 9 1017 64 10000 2 70 12:18 22.03.2022
4634 Clouds 10 1017 61 10000 3 40 11:20 22.03.2022
4635 Rain 10 1017 60 10000 5 60 09:28 22.03.2022
4636 Rain 10 1018 59 10000 4 50 07:30 22.03.2022
4637 Clouds 10 1019 62 10000 5 50 03:57 22.03.2022
4638 Rain 8 1018 74 10000 7 20 00:50 22.03.2022
4639 Rain 8 1017 75 10000 5 20 22:48 21.03.2022
4640 Rain 8 1016 75 10000 4 30 21:30 21.03.2022
4641 Rain 8 1016 77 10000 5 30 20:44 21.03.2022
4642 Rain 8 1016 77 10000 5 30 20:23 21.03.2022
4643 Rain 8 1016 76 10000 6 30 19:45 21.03.2022
4644 Clouds 8 1016 73 10000 5 40 18:47 21.03.2022
4645 Clouds 8 1016 75 10000 4 40 17:36 21.03.2022
4646 Clouds 8 1016 75 10000 4 60 16:59 21.03.2022
4647 Rain 8 1016 76 10000 7 50 16:27 21.03.2022
4648 Rain 8 1016 76 10000 6 40 15:43 21.03.2022
4649 Rain 8 1015 76 10000 6 50 14:36 21.03.2022
4650 Rain 8 1014 75 10000 8 60 13:20 21.03.2022
4651 Rain 8 1013 82 10000 6 30 11:58 21.03.2022
4652 Rain 8 1012 81 7000 6 30 11:20 21.03.2022
4653 Rain 8 1012 81 7000 6 50 09:49 21.03.2022
4654 Rain 8 1012 80 8000 6 70 07:33 21.03.2022
4655 Rain 8 1014 79 5000 4 60 05:56 21.03.2022
4656 Clouds 8 1016 79 8000 3 70 01:39 21.03.2022
4657 Clouds 8 1015 76 10000 4 80 22:57 20.03.2022
4658 Clouds 8 1015 75 10000 3 80 22:23 20.03.2022
4659 Rain 8 1015 75 10000 4 70 21:37 20.03.2022
4660 Rain 8 1014 78 10000 4 80 20:54 20.03.2022
4661 Rain 8 1015 78 10000 3 80 20:27 20.03.2022
4662 Rain 8 1015 78 10000 3 70 19:48 20.03.2022
4663 Rain 8 1016 78 10000 2 70 19:19 20.03.2022
4664 Rain 8 1016 78 10000 4 70 17:43 20.03.2022
4665 Rain 8 1016 78 10000 4 70 17:24 20.03.2022
4666 Rain 8 1016 78 10000 2 30 15:58 20.03.2022
4667 Clouds 8 1016 75 10000 4 60 14:38 20.03.2022
4668 Clouds 8 1015 80 10000 3 60 13:38 20.03.2022
4669 Clouds 7 1015 81 10000 2 30 11:58 20.03.2022
4670 Rain 7 1013 78 6000 5 60 09:59 20.03.2022
4671 Rain 7 1013 78 6000 3 50 08:19 20.03.2022
4672 Rain 8 1014 76 10000 3 70 05:49 20.03.2022
4673 Clouds 8 1015 67 10000 5 100 03:18 20.03.2022
4674 Clouds 8 1015 68 10000 6 40 00:53 20.03.2022
4675 Clouds 8 1014 62 10000 3 60 23:37 19.03.2022
4676 Clouds 8 1012 62 10000 3 90 21:58 19.03.2022
4677 Clouds 8 1012 61 10000 3 40 21:25 19.03.2022
4678 Clear 8 1014 58 10000 3 90 19:22 19.03.2022
4679 Clear 8 1014 58 10000 2 90 18:30 19.03.2022
4680 Clear 8 1014 58 10000 2 80 17:45 19.03.2022
4681 Clear 8 1015 59 10000 3 60 16:45 19.03.2022
4682 Clouds 7 1015 63 10000 6 40 15:22 19.03.2022
4683 Clouds 8 1014 63 10000 5 40 13:40 19.03.2022
4684 Clouds 8 1012 64 10000 4 50 12:42 19.03.2022
4685 Clouds 8 1012 64 10000 4 50 12:19 19.03.2022
4686 Clouds 8 1011 65 10000 5 30 11:42 19.03.2022
4687 Clouds 9 1011 66 8000 5 30 08:57 19.03.2022
4688 Clouds 12 1010 68 6000 8 20 04:24 19.03.2022
4689 Clouds 13 1009 68 7000 5 340 02:32 19.03.2022
4690 Clouds 11 1007 74 6000 2 250 23:50 18.03.2022
4691 Clouds 11 1007 70 10000 2 270 22:43 18.03.2022
4692 Clouds 11 1007 70 10000 2 270 22:20 18.03.2022
4693 Clouds 11 1006 70 10000 2 210 20:25 18.03.2022
4694 Clouds 11 1005 70 10000 1 0 19:23 18.03.2022
4695 Clouds 11 1005 68 10000 2 220 18:34 18.03.2022
4696 Clouds 11 1006 68 10000 2 210 16:52 18.03.2022
4697 Clouds 10 1006 68 10000 1 190 15:52 18.03.2022
4698 Clouds 10 1007 72 10000 1 210 14:25 18.03.2022
4699 Clouds 10 1006 71 10000 2 300 12:39 18.03.2022
4700 Clouds 10 1007 70 10000 3 300 11:28 18.03.2022
4701 Clouds 10 1006 69 10000 3 320 09:41 18.03.2022
4702 Rain 10 1006 69 10000 3 340 08:45 18.03.2022
4703 Clouds 10 1008 69 10000 3 320 06:42 18.03.2022
4704 Clouds 8 1010 74 10000 5 340 04:38 18.03.2022
4705 Clouds 7 1009 80 6000 6 320 00:54 18.03.2022
4706 Mist 8 1008 75 4000 6 320 23:52 17.03.2022
4707 Clouds 8 1007 74 10000 8 330 22:26 17.03.2022
4708 Clouds 8 1007 74 10000 7 330 21:51 17.03.2022
4709 Clouds 8 1006 75 7000 7 320 21:27 17.03.2022
4710 Clouds 8 1006 77 7000 6 320 20:52 17.03.2022
4711 Clouds 9 1006 78 6000 7 320 19:55 17.03.2022
4712 Rain 9 1006 76 6000 8 320 19:33 17.03.2022
4713 Rain 10 1006 78 7000 8 320 18:51 17.03.2022
4714 Clouds 10 1006 76 10000 6 320 17:26 17.03.2022
4715 Clouds 10 1005 74 10000 9 330 15:52 17.03.2022
4716 Clouds 10 1005 79 10000 8 320 15:33 17.03.2022
4717 Clouds 11 1005 80 7000 8 320 14:48 17.03.2022
4718 Clouds 11 1003 80 10000 9 330 12:59 17.03.2022
4719 Rain 12 1002 82 10000 7 320 12:37 17.03.2022
4720 Rain 12 1001 81 10000 7 330 11:30 17.03.2022
4721 Clouds 12 998 94 10000 8 360 10:34 17.03.2022
4722 Clouds 17 1005 98 8000 2 10 08:41 17.03.2022
4723 Rain 17 1004 85 10000 2 10 07:52 17.03.2022
4724 Rain 17 1001 85 10000 5 130 05:48 17.03.2022
4725 Rain 16 1004 85 8000 2 100 03:41 17.03.2022
4726 Rain 17 1004 83 6000 5 110 23:57 16.03.2022
4727 Rain 18 1004 82 10000 4 100 22:51 16.03.2022
4728 Rain 18 1004 81 10000 6 100 22:33 16.03.2022
4729 Clouds 19 1004 82 10000 6 120 21:46 16.03.2022
4730 Clouds 19 1004 82 10000 5 130 20:26 16.03.2022
4731 Clouds 19 1005 80 10000 4 120 19:21 16.03.2022
4732 Clouds 19 1005 82 10000 4 130 18:38 16.03.2022
4733 Clear 19 1005 83 10000 6 140 17:43 16.03.2022
4734 Clear 19 1005 82 10000 6 140 17:20 16.03.2022
4735 Clouds 19 1006 80 10000 6 140 15:56 16.03.2022
4736 Clear 20 1006 77 10000 6 140 14:28 16.03.2022
4737 Rain 21 1003 73 10000 4 140 13:32 16.03.2022
4738 Clear 23 1010 56 10000 4 150 11:57 16.03.2022
4739 Clear 23 1002 55 10000 3 150 11:21 16.03.2022
4740 Clear 25 1002 50 10000 6 160 10:23 16.03.2022
4741 Clear 28 1002 42 10000 5 130 08:53 16.03.2022
4742 Clear 26 1010 66 10000 4 160 06:27 16.03.2022
4743 Clear 19 1005 72 10000 3 160 01:45 16.03.2022
4744 Clear 14 1011 65 10000 2 150 22:41 15.03.2022
4745 Clear 14 1011 68 10000 1 160 21:55 15.03.2022
4746 Clear 14 1011 65 10000 2 150 20:28 15.03.2022
4747 Clear 15 1006 68 10000 3 150 18:58 15.03.2022
4748 Clear 15 1007 68 10000 2 130 16:59 15.03.2022
4749 Clear 15 1007 68 10000 2 150 16:32 15.03.2022
4750 Clear 15 1007 66 10000 3 150 15:21 15.03.2022
4751 Clear 16 1007 65 10000 4 160 14:40 15.03.2022
4752 Clear 16 1007 62 10000 4 150 13:38 15.03.2022
4753 Clear 18 1007 58 10000 4 150 12:24 15.03.2022
4754 Clear 18 1012 55 10000 3 180 11:31 15.03.2022
4755 Clear 21 1011 30 10000 5 150 09:45 15.03.2022
4756 Clear 21 1007 45 10000 4 160 08:42 15.03.2022
4757 Clear 21 1007 49 10000 3 200 07:50 15.03.2022
4758 Clear 22 1007 45 10000 4 170 07:28 15.03.2022
4759 Clear 17 1011 53 10000 3 100 03:30 15.03.2022
4760 Clear 11 1011 74 10000 4 130 23:40 14.03.2022
4761 Clear 11 1011 70 10000 4 130 23:21 14.03.2022
4762 Clear 11 1010 67 10000 4 140 22:26 14.03.2022
4763 Clear 11 1010 66 10000 3 70 21:26 14.03.2022
4764 Clear 12 1011 70 10000 4 30 20:35 14.03.2022
4765 Clear 12 1011 66 10000 4 20 19:59 14.03.2022
4766 Clear 13 1012 63 10000 6 10 18:37 14.03.2022
4767 Clear 13 1012 59 10000 4 20 17:44 14.03.2022
4768 Clear 14 1012 62 10000 3 30 16:57 14.03.2022
4769 Rain 14 1009 61 10000 3 60 15:37 14.03.2022
4770 Rain 14 1009 58 10000 5 10 14:38 14.03.2022
4771 Rain 16 1009 63 8000 6 30 12:21 14.03.2022
4772 Clouds 17 1009 67 8000 9 30 10:50 14.03.2022
4773 Clouds 19 1008 67 8000 8 20 09:41 14.03.2022
4774 Clouds 19 1008 66 8000 8 20 09:20 14.03.2022
4775 Clouds 20 1008 69 7000 10 10 08:55 14.03.2022
4776 Haze 22 1007 70 4000 9 20 07:21 14.03.2022
4777 Clear 28 1011 82 10000 4 260 05:22 14.03.2022
4778 Clear 20 1007 75 10000 1.34 155 01:52 14.03.2022
4779 Clear 17 1006 81 8000 3 160 00:40 14.03.2022
4780 Clear 16 1011 72 10000 1 120 21:56 13.03.2022
4781 Clear 16 1011 72 10000 2 90 21:28 13.03.2022
4782 Clear 16 1010 72 10000 2 70 20:53 13.03.2022
4783 Clear 16 1011 72 10000 1 100 20:29 13.03.2022
4784 Clear 16 1011 73 10000 1 0 19:48 13.03.2022
4785 Clear 17 1006 76 10000 1 0 19:25 13.03.2022
4786 Clear 17 1007 76 10000 2 100 18:50 13.03.2022
4787 Clear 16 1011 72 10000 2 140 18:27 13.03.2022
4788 Clear 18 1012 82 10000 2 100 17:40 13.03.2022
4789 Clouds 17 1007 79 8000 4 100 16:48 13.03.2022
4790 Clouds 17 1005 88 8000 3 110 16:27 13.03.2022
4791 Clear 17 1013 87 10000 3 110 15:44 13.03.2022
4792 Clear 18 1013 84 10000 3 80 14:49 13.03.2022
4793 Clear 20 1013 77 10000 4 80 13:30 13.03.2022
4794 Clear 23 1011 68 10000 6 50 12:26 13.03.2022
4795 Clear 24 1011 60 10000 4 50 11:45 13.03.2022
4796 Clear 26 1010 53 10000 4 30 10:51 13.03.2022
4797 Clear 27 1010 47 10000 3 340 10:30 13.03.2022
4798 Clear 28 1009 44 10000 4 300 09:43 13.03.2022
4799 Clear 28 1009 44 10000 4 310 08:50 13.03.2022
4800 Clear 28 1009 44 10000 4 270 08:31 13.03.2022
4801 Clear 26 1008 67 10000 3 260 07:34 13.03.2022
4802 Clear 22 1010 69 10000 3 170 04:59 13.03.2022
4803 Clear 20 1012 68 10000 6 350 01:48 13.03.2022
4804 Clear 18 1009 67 10000 4 180 23:28 12.03.2022
4805 Clear 18 1008 67 10000 4.92 188 21:39 12.03.2022
4806 Clear 19 1003 69 10000 5 170 20:20 12.03.2022
4807 Clear 19 1003 69 10000 6 170 19:46 12.03.2022
4808 Clear 19 1004 71 10000 5 160 18:41 12.03.2022
4809 Clear 19 1005 72 10000 6 160 17:53 12.03.2022
4810 Clear 18 1006 76 10000 6 160 16:28 12.03.2022
4811 Clear 18 1006 76 10000 6 160 16:28 12.03.2022
4812 Clear 18 1006 76 10000 4 150 15:50 12.03.2022
4813 Clear 19 1006 76 10000 5 150 15:21 12.03.2022
4814 Clear 19 1006 76 10000 6 150 13:53 12.03.2022
4815 Clear 20 1006 74 10000 8 140 12:27 12.03.2022
4816 Clear 21 1005 71 10000 5 140 11:52 12.03.2022
4817 Clear 21 1002 69 10000 6 150 11:32 12.03.2022
4818 Clear 23 1005 64 10000 7 140 10:24 12.03.2022
4819 Clear 24 1005 62 10000 6 150 09:41 12.03.2022
4820 Clear 25 1006 59 10000 7 160 07:52 12.03.2022
4821 Clear 24 1012 63 10000 5 180 06:30 12.03.2022
4822 Clear 14 1010 85 6000 2 140 00:31 12.03.2022
4823 Clear 15 1009 81 8000 2 130 23:38 11.03.2022
4824 Clear 15 1009 81 10000 2.24 135 22:29 11.03.2022
4825 Clear 16 1009 79 10000 1 0 21:23 11.03.2022
4826 Clear 16 1009 77 10000 2 140 20:42 11.03.2022
4827 Clear 16 1009 77 10000 2 140 20:22 11.03.2022
4828 Clear 16 1010 75 10000 2.24 124 19:29 11.03.2022
4829 Clear 17 1010 72 10000 1.79 100 17:50 11.03.2022
4830 Clear 17 1010 69 10000 1.79 102 17:21 11.03.2022
4831 Clear 18 1011 66 10000 2 140 15:57 11.03.2022
4832 Clear 18 1011 70 10000 2 150 15:29 11.03.2022
4833 Clear 19 1010 68 10000 4 100 13:27 11.03.2022
4834 Clear 20 1007 64 10000 4 100 12:23 11.03.2022
4835 Clear 20 1007 61 10000 4 110 11:56 11.03.2022
4836 Clear 25 1014 38 10000 4 70 10:24 11.03.2022
4837 Clear 26 1014 36 10000 5 50 09:27 11.03.2022
4838 Clear 25 1013 59 10000 2 0 08:24 11.03.2022
4839 Clear 25 1013 59 10000 2 50 07:46 11.03.2022
4840 Clear 23 1014 59 10000 1 0 05:49 11.03.2022
4841 Clear 21 1015 60 10000 2 0 04:22 11.03.2022
4842 Clear 14 1013 70 10000 2 160 23:49 10.03.2022
4843 Clear 14 1013 70 10000 2.24 190 22:31 10.03.2022
4844 Clear 13 1013 69 10000 1 160 21:48 10.03.2022
4845 Clear 14 1013 70 10000 1 160 21:20 10.03.2022
4846 Clear 14 1013 70 10000 2.24 174 19:48 10.03.2022
4847 Clear 14 1013 70 10000 2.24 175 18:55 10.03.2022
4848 Clear 15 1013 69 10000 3 150 17:36 10.03.2022
4849 Clear 15 1015 69 10000 2.24 153 15:55 10.03.2022
4850 Clear 16 1015 71 10000 2 170 14:48 10.03.2022
4851 Clear 17 1009 71 10000 4 140 13:21 10.03.2022
4852 Clear 18 1006 67 10000 4 140 11:58 10.03.2022
4853 Clear 20 1014 52 10000 4 140 10:53 10.03.2022
4854 Clear 21 1008 58 10000 5 180 09:21 10.03.2022
4855 Clear 21 1006 48 10000 5 170 07:38 10.03.2022
4856 Clear 20 1009 55 10000 6 170 04:36 10.03.2022
4857 Clear 14 1010 72 10000 6 160 01:46 10.03.2022
4858 Clear 12 1010 72 10000 5 150 23:18 09.03.2022
4859 Clear 12 1009 70 10000 6 150 21:49 09.03.2022
4860 Clear 12 1009 69 10000 5 150 21:27 09.03.2022
4861 Clear 12 1009 65 10000 5 150 19:43 09.03.2022
4862 Clear 12 1010 64 10000 6 140 18:29 09.03.2022
4863 Clear 13 1010 63 10000 5 140 17:26 09.03.2022
4864 Clear 13 1010 63 10000 5 140 17:26 09.03.2022
4865 Clear 13 1010 63 10000 5 140 17:26 09.03.2022
4866 Clear 13 1011 65 10000 7 140 16:30 09.03.2022
4867 Clear 13 1011 63 10000 6 140 14:56 09.03.2022
4868 Clear 14 1012 66 10000 7 140 13:52 09.03.2022
4869 Clear 14 1012 72 10000 6 130 12:39 09.03.2022
4870 Clear 15 1011 69 10000 6 120 11:52 09.03.2022
4871 Clear 15 1011 66 10000 6 140 11:32 09.03.2022
4872 Clear 19 1018 37 10000 6 160 09:45 09.03.2022
4873 Clear 21 1019 30 10000 6 150 08:47 09.03.2022
4874 Clear 21 1019 30 10000 5 150 06:51 09.03.2022
4875 Clear 13 1016 59 8000 4 150 01:54 09.03.2022
4876 Clear 10 1015 67 10000 2 150 00:26 09.03.2022
4877 Clear 10 1014 60 10000 2.68 135 22:46 08.03.2022
4878 Clear 10 1013 57 10000 3 150 21:52 08.03.2022
4879 Clear 10 1013 57 10000 2 150 21:21 08.03.2022
4880 Clear 11 1013 54 10000 3 160 20:22 08.03.2022
4881 Clear 11 1013 52 10000 3 150 19:24 08.03.2022
4882 Clear 11 1013 53 10000 3 150 18:22 08.03.2022
4883 Clear 11 1014 50 10000 3 150 16:44 08.03.2022
4884 Clear 13 1013 54 10000 3 150 14:57 08.03.2022
4885 Clear 13 1013 49 10000 4 150 13:45 08.03.2022
4886 Clear 15 1012 45 10000 3 160 12:20 08.03.2022
4887 Clear 16 1018 44 10000 5 180 11:42 08.03.2022
4888 Clear 18 1012 47 10000 4 190 10:28 08.03.2022
4889 Clear 19 1017 52 10000 3 190 08:56 08.03.2022
4890 Clear 18 1018 53 10000 3 0 06:30 08.03.2022
4891 Clear 13 1015 61 10000 4 230 02:37 08.03.2022
4892 Clear 8 1015 65 10000 3.13 225 22:43 07.03.2022
4893 Clear 8 1020 62 10000 2 220 21:44 07.03.2022
4894 Clear 8 1020 59 10000 1 200 20:56 07.03.2022
4895 Clear 9 1015 61 10000 1 220 20:29 07.03.2022
4896 Clear 9 1015 61 10000 1 200 19:48 07.03.2022
4897 Clear 8 1020 60 10000 2.24 226 18:50 07.03.2022
4898 Clear 10 1015 59 10000 2.24 226 18:28 07.03.2022
4899 Clear 9 1020 56 10000 1.79 206 16:56 07.03.2022
4900 Clear 9 1021 54 10000 2 0 16:37 07.03.2022
4901 Clear 10 1021 53 10000 2 0 14:41 07.03.2022
4902 Clear 12 1020 59 10000 3 270 12:34 07.03.2022
4903 Clear 13 1020 53 10000 4 260 11:21 07.03.2022
4904 Clear 15 1021 31 10000 3 330 10:26 07.03.2022
4905 Clear 14 1020 47 10000 4 320 07:42 07.03.2022
4906 Clouds 7 1022 54 10000 3 10 00:37 07.03.2022
4907 Clouds 7 1022 54 10000 3 10 00:19 07.03.2022
4908 Clouds 7 1021 52 10000 1 40 23:19 06.03.2022
4909 Clouds 7 1021 52 10000 2.24 61 22:25 06.03.2022
4910 Rain 7 1021 52 10000 1.34 44 20:56 06.03.2022
4911 Clear 8 1016 56 10000 2 70 20:28 06.03.2022
4912 Clear 8 1016 56 10000 3 130 19:35 06.03.2022
4913 Clear 8 1017 56 10000 0.89 82 18:40 06.03.2022
4914 Clear 8 1017 54 10000 3 100 17:22 06.03.2022
4915 Clear 8 1017 54 10000 4 140 16:52 06.03.2022
4916 Clear 8 1017 54 10000 3 110 16:24 06.03.2022
4917 Clear 8 1018 53 10000 2 120 15:19 06.03.2022
4918 Clear 8 1017 54 10000 3 110 14:41 06.03.2022
4919 Clear 8 1018 53 10000 3 110 13:47 06.03.2022
4920 Clear 8 1017 54 10000 4 80 12:36 06.03.2022
4921 Clear 9 1017 51 10000 3 80 11:30 06.03.2022
4922 Clear 9 1017 46 10000 4 80 10:30 06.03.2022
4923 Clear 11 1017 42 10000 4 70 08:51 06.03.2022
4924 Clear 11 1016 44 10000 4 90 08:27 06.03.2022
4925 Clear 12 1018 39 10000 5 110 06:33 06.03.2022
4926 Clear 8 1020 46 10000 4 70 01:32 06.03.2022
4927 Clear 8 1019 44 10000 3 90 00:33 06.03.2022
4928 Clear 8 1019 45 10000 3 80 23:41 05.03.2022
4929 Clear 8 1019 45 10000 3 80 23:18 05.03.2022
4930 Clear 8 1019 46 10000 3 70 22:25 05.03.2022
4931 Clear 8 1018 43 10000 2 80 21:24 05.03.2022
4932 Clear 8 1018 44 10000 4 70 19:56 05.03.2022
4933 Clear 8 1019 46 10000 3 40 18:56 05.03.2022
4934 Clear 8 1019 50 10000 3 40 18:34 05.03.2022
4935 Clear 8 1019 55 10000 4 30 16:57 05.03.2022
4936 Clear 8 1019 54 10000 3 50 15:43 05.03.2022
4937 Clear 9 1019 53 10000 4 50 14:52 05.03.2022
4938 Clear 9 1018 49 10000 4 50 14:34 05.03.2022
4939 Clear 9 1017 49 10000 4 50 13:34 05.03.2022
4940 Clear 10 1014 41 10000 5 40 11:49 05.03.2022
4941 Clear 11 1016 42 10000 5 40 11:20 05.03.2022
4942 Clear 12 1021 46 10000 5 50 10:20 05.03.2022
4943 Clear 12 1020 43 10000 7 30 09:26 05.03.2022
4944 Clear 14 1020 41 10000 6 60 07:51 05.03.2022
4945 Clear 15 1020 42 10000 7 40 05:43 05.03.2022
4946 Clear 14 1020 44 10000 8 30 04:33 05.03.2022
4947 Mist 11 1008 87 3000 6 360 23:38 04.03.2022
4948 Mist 12 1015 73 3000 2.68 318 22:44 04.03.2022
4949 Mist 12 1010 79 3000 2.24 312 22:23 04.03.2022
4950 Mist 13 1009 79 4000 1 0 20:57 04.03.2022
4951 Mist 13 1009 79 4000 2.68 252 20:27 04.03.2022
4952 Mist 12 1009 77 4000 3.13 236 19:36 04.03.2022
4953 Mist 13 1009 78 4000 2.68 237 18:45 04.03.2022
4954 Mist 12 1009 78 4500 2.68 215 17:48 04.03.2022
4955 Mist 12 1009 77 5000 2.68 213 17:28 04.03.2022
4956 Mist 13 1010 78 5000 3.13 199 15:30 04.03.2022
4957 Clear 13 1009 77 6000 2 180 14:33 04.03.2022
4958 Clouds 14 1009 76 8000 4 170 13:26 04.03.2022
4959 Clouds 15 1006 81 8000 4 180 11:46 04.03.2022
4960 Clear 18 1008 68 10000 3 200 10:52 04.03.2022
4961 Clear 18 1013 66 10000 4 210 09:58 04.03.2022
4962 Clear 18 1013 65 10000 2 230 08:39 04.03.2022
4963 Clouds 17 1014 69 10000 2 270 07:36 04.03.2022
4964 Clouds 13 1016 76 7000 3 0 03:56 04.03.2022
4965 Mist 11 1009 80 5000 2 0 00:28 04.03.2022
4966 Rain 11 1010 79 10000 3.13 175 22:28 03.03.2022
4967 Rain 11 1009 77 10000 2 160 21:44 03.03.2022
4968 Rain 11 1009 76 10000 2.68 166 21:26 03.03.2022
4969 Rain 12 1010 68 10000 3 170 19:55 03.03.2022
4970 Rain 12 1010 61 10000 2 130 18:54 03.03.2022
4971 Clear 12 1011 59 10000 2 140 18:24 03.03.2022
4972 Clear 12 1010 58 10000 4 150 17:30 03.03.2022
4973 Clear 12 1011 58 10000 5 150 16:24 03.03.2022
4974 Clear 12 1012 60 10000 4 150 15:23 03.03.2022
4975 Clear 13 1012 63 10000 4 150 14:43 03.03.2022
4976 Clear 14 1012 64 10000 5 160 13:24 03.03.2022
4977 Clear 14 1011 63 10000 5 150 12:21 03.03.2022
4978 Clear 17 1008 49 10000 5 150 10:47 03.03.2022
4979 Clear 19 1011 50 10000 5 160 09:38 03.03.2022
4980 Clear 19 1016 54 10000 2 200 07:48 03.03.2022
4981 Clear 18 1017 53 10000 4 170 06:35 03.03.2022
4982 Clouds 12 1015 57 8000 4 160 02:42 03.03.2022
4983 Clear 9 1015 63 10000 2 140 23:34 02.03.2022
4984 Clear 8 1014 62 10000 2 150 22:52 02.03.2022
4985 Clear 9 1014 61 10000 2.24 156 21:34 02.03.2022
4986 Clear 9 1014 62 10000 2 160 20:53 02.03.2022
4987 Clear 9 1014 61 10000 2 140 20:24 02.03.2022
4988 Clear 9 1015 58 10000 3 150 19:36 02.03.2022
4989 Clear 9 1015 57 10000 3 150 18:46 02.03.2022
4990 Clear 9 1015 57 10000 3 150 18:18 02.03.2022
4991 Clear 9 1015 55 10000 4 150 17:32 02.03.2022
4992 Clear 10 1015 54 10000 3 150 16:51 02.03.2022
4993 Clear 10 1016 50 10000 3 150 14:48 02.03.2022
4994 Clear 11 1016 52 10000 4 140 13:25 02.03.2022
4995 Clear 12 1015 50 10000 2.24 133 12:44 02.03.2022
4996 Clear 13 1015 47 8000 3 230 11:51 02.03.2022
4997 Clear 14 1015 45 7000 2 230 11:24 02.03.2022
4998 Clear 14 1015 45 7000 2 230 11:24 02.03.2022
4999 Clear 16 1015 41 6000 3 290 09:46 02.03.2022
5000 Clear 16 1015 38 7000 4 260 08:59 02.03.2022
5001 Clear 16 1015 37 10000 5 280 07:39 02.03.2022
5002 Clear 16 1016 36 10000 5 300 06:51 02.03.2022
5003 Clear 11 1019 49 6000 2 0 02:54 02.03.2022
5004 Clouds 7 1018 60 8000 1 0 23:55 01.03.2022
5005 Clouds 7 1017 59 8000 1 0 22:46 01.03.2022
5006 Clouds 7 1017 60 8000 1 340 22:20 01.03.2022
5007 Clouds 8 1017 59 8000 2 360 21:25 01.03.2022
5008 Clouds 8 1017 61 6000 2 10 20:30 01.03.2022
5009 Clouds 7 1017 61 6000 2 10 20:30 01.03.2022
5010 Clouds 8 1017 61 6000 2 10 20:30 01.03.2022
5011 Clouds 8 1018 63 6000 3 360 19:38 01.03.2022
5012 Clouds 8 1018 63 6000 3 10 18:50 01.03.2022
5013 Clouds 8 1018 62 6000 4 10 18:21 01.03.2022
5014 Mist 8 1018 63 5000 4 360 17:30 01.03.2022
5015 Mist 8 1018 63 5000 4 20 16:33 01.03.2022
5016 Mist 8 1018 63 4500 5 30 15:38 01.03.2022
5017 Mist 8 1018 64 4500 6 10 14:35 01.03.2022
5018 Mist 8 1017 66 4000 6 10 13:52 01.03.2022
5019 Mist 8 1017 66 4000 7 10 13:24 01.03.2022
5020 Rain 9 1017 66 4000 7 20 12:32 01.03.2022
5021 Haze 11 1015 68 4000 9 20 10:36 01.03.2022
5022 Haze 14 1010 67 4000 8 20 08:42 01.03.2022
5023 Haze 15 1010 65 5000 11 360 07:52 01.03.2022
5024 Clouds 18 1013 58 6000 4 310 05:54 01.03.2022
5025 Mist 15 1014 74 4200 4 300 02:33 01.03.2022
5026 Mist 13 1012 81 3500 2 290 00:34 01.03.2022
5027 Mist 13 1012 77 5000 3 350 23:29 28.02.2022
5028 Mist 14 1011 71 5000 8 340 21:59 28.02.2022
5029 Mist 15 1011 70 5000 7 340 21:25 28.02.2022
5030 Mist 15 1010 67 5000 5 330 19:55 28.02.2022
5031 Clouds 15 1009 70 6000 3.13 314 19:33 28.02.2022
5032 Clouds 15 1009 69 6000 1.79 275 18:40 28.02.2022
5033 Clear 15 1013 64 10000 1 0 17:30 28.02.2022
5034 Clear 15 1009 68 10000 2 170 16:33 28.02.2022
5035 Clear 16 1010 67 10000 2 160 15:23 28.02.2022
5036 Clear 15 1010 67 10000 2 170 14:31 28.02.2022
5037 Clear 16 1010 66 10000 2 140 13:47 28.02.2022
5038 Clear 16 1007 63 10000 3 150 12:41 28.02.2022
5039 Clear 17 1007 61 10000 4 150 11:55 28.02.2022
5040 Clear 19 1014 52 10000 4 150 10:48 28.02.2022
5041 Clear 20 1009 55 10000 3 160 10:20 28.02.2022
5042 Clear 21 1014 57 10000 1 0 09:32 28.02.2022
5043 Clear 21 1014 57 10000 2 230 08:29 28.02.2022
5044 Clear 20 1014 58 10000 3 220 07:28 28.02.2022
5045 Clear 17 1012 58 10000 5 190 04:44 28.02.2022
5046 Clear 17 1018 58 10000 5 190 04:23 28.02.2022
5047 Clear 11 1014 68 10000 6 150 23:27 27.02.2022
5048 Clear 10 1013 67 10000 5 160 22:33 27.02.2022
5049 Clear 10 1014 65 10000 6 140 21:51 27.02.2022
5050 Clear 10 1014 66 10000 5 140 20:59 27.02.2022
5051 Clear 10 1014 63 10000 5 140 20:27 27.02.2022
5052 Clear 9 1015 63 10000 5 140 19:57 27.02.2022
5053 Clear 9 1015 63 10000 5 140 19:26 27.02.2022
5054 Clear 9 1015 63 10000 5 130 18:40 27.02.2022
5055 Clear 10 1015 62 10000 6 140 17:54 27.02.2022
5056 Clear 9 1016 61 10000 5 130 16:38 27.02.2022
5057 Clear 9 1017 59 10000 6 130 15:59 27.02.2022
5058 Clear 10 1017 64 10000 7 130 13:21 27.02.2022
5059 Clear 10 1017 58 10000 5 140 12:32 27.02.2022
5060 Clear 13 1013 49 10000 6 150 10:54 27.02.2022
5061 Clear 14 1016 46 10000 5 130 09:58 27.02.2022
5062 Clear 15 1021 49 10000 3 130 09:37 27.02.2022
5063 Clear 14 1021 50 10000 3 130 09:18 27.02.2022
5064 Clear 14 1022 51 10000 2 0 07:34 27.02.2022
5065 Clear 13 1024 49 10000 3 180 05:38 27.02.2022
5066 Clear 8 1020 61 10000 1.79 63 00:53 27.02.2022
5067 Clear 7 1019 55 8000 2 60 22:58 26.02.2022
5068 Clear 7 1019 54 8000 3 30 21:44 26.02.2022
5069 Clear 8 1019 53 8000 3 40 20:52 26.02.2022
5070 Clear 8 1019 53 8000 4 40 20:19 26.02.2022
5071 Clear 8 1019 52 8000 3 40 19:46 26.02.2022
5072 Clear 8 1019 50 8000 4 40 19:19 26.02.2022
5073 Clear 9 1019 50 10000 5 40 17:45 26.02.2022
5074 Clear 10 1019 47 10000 6 40 16:51 26.02.2022
5075 Clear 11 1018 47 10000 3.13 330 15:57 26.02.2022
5076 Clear 12 1018 50 10000 2.68 325 15:23 26.02.2022
5077 Clear 12 1017 49 10000 2 280 14:54 26.02.2022
5078 Clear 12 1017 49 10000 2.24 286 14:33 26.02.2022
5079 Clear 13 1016 48 10000 2.24 273 13:19 26.02.2022
5080 Clear 14 1016 48 10000 2.24 266 12:23 26.02.2022
5081 Clear 14 1015 46 10000 3 290 11:28 26.02.2022
5082 Clear 16 1015 45 10000 4 280 10:40 26.02.2022
5083 Clear 17 1015 43 10000 6 300 08:53 26.02.2022
5084 Clear 17 1015 41 10000 5 270 06:51 26.02.2022
5085 Clear 6 1019 71 10000 1.79 197 00:56 26.02.2022
5086 Clear 6 1018 67 10000 2.24 163 22:49 25.02.2022
5087 Clear 6 1018 67 10000 1.79 163 21:43 25.02.2022
5088 Clear 6 1018 67 10000 1.79 163 21:23 25.02.2022
5089 Clear 6 1018 67 10000 3 160 20:32 25.02.2022
5090 Clear 6 1019 67 10000 2 150 18:59 25.02.2022
5091 Clear 7 1019 64 10000 4 150 17:27 25.02.2022
5092 Clear 7 1020 63 10000 4 150 16:24 25.02.2022
5093 Clear 7 1020 64 10000 4 150 15:43 25.02.2022
5094 Clear 7 1021 64 10000 5 150 15:20 25.02.2022
5095 Clear 8 1021 62 10000 5 150 14:42 25.02.2022
5096 Clear 8 1021 60 10000 5 140 13:36 25.02.2022
5097 Clear 8 1021 61 10000 6 150 12:55 25.02.2022
5098 Clear 9 1021 57 10000 5 150 11:28 25.02.2022
5099 Clear 11 1020 48 10000 6 150 10:29 25.02.2022
5100 Clear 12 1025 49 10000 6 160 09:57 25.02.2022
5101 Clear 13 1021 38 10000 6 160 08:46 25.02.2022
5102 Clear 12 1026 45 10000 6 150 07:41 25.02.2022
5103 Clear 11 1028 47 10000 4 150 05:48 25.02.2022
5104 Clear 10 1025 37 10000 4 140 03:34 25.02.2022
5105 Clear 3 1025 59 10000 1 0 23:42 24.02.2022
5106 Clear 3 1024 57 10000 1.34 134 21:56 24.02.2022
5107 Clear 3 1024 58 10000 1.34 133 21:37 24.02.2022
5108 Clear 3 1024 58 10000 1.34 136 21:18 24.02.2022
5109 Clear 3 1025 55 10000 1.34 157 19:38 24.02.2022
5110 Clear 3 1025 53 10000 2 160 18:38 24.02.2022
5111 Clear 3 1025 52 10000 2 160 18:18 24.02.2022
5112 Clear 3 1026 52 10000 2 150 17:33 24.02.2022
5113 Clear 4 1026 52 10000 3 150 16:45 24.02.2022
5114 Clear 4 1027 52 10000 3 150 16:21 24.02.2022
5115 Clear 5 1027 53 10000 3 160 14:53 24.02.2022
5116 Clear 5 1026 52 10000 2 180 14:26 24.02.2022
5117 Clear 5 1026 50 10000 3 150 13:39 24.02.2022
5118 Clear 5 1026 50 10000 3 150 13:39 24.02.2022
5119 Clear 7 1027 49 10000 3 140 12:49 24.02.2022
5120 Clear 8 1031 46 10000 2 10 10:40 24.02.2022
5121 Clear 8 1031 40 10000 2 10 08:58 24.02.2022
5122 Clear 8 1031 40 10000 3 10 08:39 24.02.2022
5123 Clear 7 1033 42 10000 2 0 05:52 24.02.2022
5124 Clear 4 1030 58 10000 3 10 01:56 24.02.2022
5125 Clear 4 1030 58 10000 3 10 01:56 24.02.2022
5126 Clear 1 1028 57 10000 2 350 22:38 23.02.2022
5127 Clear 1 1028 55 10000 2 330 21:40 23.02.2022
5128 Clear 1 1028 53 10000 2 350 20:31 23.02.2022
5129 Clear 1 1028 53 10000 2 340 19:46 23.02.2022
5130 Clear 2 1028 52 10000 1 50 18:32 23.02.2022
5131 Clear 2 1028 51 10000 2 20 17:36 23.02.2022
5132 Clear 3 1030 47 10000 4 40 14:42 23.02.2022
5133 Clear 4 1029 47 10000 5 40 12:42 23.02.2022
5134 Clear 5 1028 50 10000 6 40 11:34 23.02.2022
5135 Clear 6 1028 47 10000 6 40 10:31 23.02.2022
5136 Clear 7 1027 44 10000 7 10 08:59 23.02.2022
5137 Clear 7 1032 48 10000 6 20 07:58 23.02.2022
5138 Clear 6 1035 50 10000 4 60 03:49 23.02.2022
5139 Clear 3 1030 63 10000 2 260 00:28 23.02.2022
5140 Clear 3 1028 64 10000 3.13 21 23:36 22.02.2022
5141 Rain 3 1029 65 10000 0.45 6 22:31 22.02.2022
5142 Clear 3 1029 65 10000 2 270 21:49 22.02.2022
5143 Clear 3 1029 66 10000 2 250 21:30 22.02.2022
5144 Clear 3 1028 66 10000 1 210 20:52 22.02.2022
5145 Rain 3 1028 63 10000 2 180 20:29 22.02.2022
5146 Clouds 3 1028 62 10000 2 140 19:36 22.02.2022
5147 Snow 3 1028 60 10000 2 140 19:18 22.02.2022
5148 Rain 4 1028 59 10000 5 30 17:46 22.02.2022
5149 Clouds 5 1028 57 10000 5 40 17:20 22.02.2022
5150 Rain 6 1028 57 10000 6 30 16:36 22.02.2022
5151 Rain 6 1029 55 10000 5 30 15:39 22.02.2022
5152 Clouds 6 1034 54 10000 4 40 14:44 22.02.2022
5153 Clear 7 1027 48 10000 5 40 12:21 22.02.2022
5154 Clear 8 1032 41 10000 3 50 10:39 22.02.2022
5155 Clear 8 1031 39 10000 4 20 07:52 22.02.2022
5156 Clear 8 1031 38 10000 1.34 45 07:25 22.02.2022
5157 Clear 8 1028 39 10000 2 350 02:52 22.02.2022
5158 Clear 5 1027 45 10000 1.34 358 00:49 22.02.2022
5159 Clear 4 1026 49 10000 2 10 22:41 21.02.2022
5160 Clear 4 1026 52 10000 1 360 21:30 21.02.2022
5161 Clear 4 1026 46 10000 0.45 354 20:34 21.02.2022
5162 Clear 4 1027 44 10000 0.89 153 18:42 21.02.2022
5163 Clear 5 1027 40 10000 2 150 16:50 21.02.2022
5164 Clear 6 1027 40 10000 3 150 14:24 21.02.2022
5165 Clear 6 1027 40 10000 4 150 13:59 21.02.2022
5166 Rain 6 1027 41 10000 4 160 12:59 21.02.2022
5167 Clear 6 1026 40 10000 4 170 12:23 21.02.2022
5168 Clear 8 1025 34 10000 5 140 10:45 21.02.2022
5169 Clear 8 1029 35 10000 2 230 08:44 21.02.2022
5170 Clear 5 1028 34 10000 1 0 02:31 21.02.2022
5171 Clear 1 1026 45 10000 2 230 22:45 20.02.2022
5172 Clear 2 1026 46 10000 2 230 22:19 20.02.2022
5173 Clear 2 1026 46 10000 2 230 22:18 20.02.2022
5174 Clear 2 1026 43 10000 1 230 21:41 20.02.2022
5175 Clear 2 1026 42 10000 2 240 20:51 20.02.2022
5176 Clear 2 1026 40 10000 1 0 20:21 20.02.2022
5177 Clear 2 1027 42 10000 1.34 2 19:21 20.02.2022
5178 Clear 2 1027 44 10000 1 0 18:42 20.02.2022
5179 Clear 2 1027 44 10000 1 0 18:23 20.02.2022
5180 Clear 2 1027 45 10000 2 110 17:30 20.02.2022
5181 Clear 3 1027 42 10000 0.89 29 15:30 20.02.2022
5182 Clear 3 1027 42 10000 2 70 14:33 20.02.2022
5183 Clear 3 1027 40 10000 2 40 12:51 20.02.2022
5184 Clear 4 1026 39 10000 4 20 11:56 20.02.2022
5185 Clear 4 1026 39 10000 4 20 11:56 20.02.2022
5186 Clear 4 1025 38 10000 5 20 10:21 20.02.2022
5187 Clear 5 1026 37 10000 6 10 09:46 20.02.2022
5188 Clear 4 1032 42 10000 1.34 357 06:30 20.02.2022
5189 Clear 0 1028 48 10000 4 320 00:32 20.02.2022
5190 Clear 1 1027 47 10000 4 320 23:33 19.02.2022
5191 Clear 1 1026 49 10000 4 320 22:24 19.02.2022
5192 Clear 1 1026 48 10000 4 320 21:47 19.02.2022
5193 Clear 2 1025 46 10000 4 340 20:41 19.02.2022
5194 Clear 1 1025 50 10000 5 350 19:35 19.02.2022
5195 Clear 1 1026 50 10000 6 360 18:41 19.02.2022
5196 Clear 1 1025 48 10000 7 360 17:57 19.02.2022
5197 Clear 1 1026 50 10000 6 360 17:21 19.02.2022
5198 Clear 2 1026 52 10000 6 360 15:59 19.02.2022
5199 Clear 2 1026 51 10000 7 360 14:54 19.02.2022
5200 Clear 3 1025 50 10000 7 10 13:57 19.02.2022
5201 Clouds 4 1024 47 10000 7 360 11:47 19.02.2022
5202 Clouds 4 1023 53 10000 8 10 10:48 19.02.2022
5203 Clouds 5 1022 56 10000 7 360 08:56 19.02.2022
5204 Clouds 5 1022 60 10000 1.34 350 06:48 19.02.2022
5205 Clouds 4 1022 69 10000 6 350 00:38 19.02.2022
5206 Clouds 4 1021 72 10000 5 340 22:24 18.02.2022
5207 Clouds 4 1020 73 10000 5 360 21:21 18.02.2022
5208 Clouds 3 1020 71 10000 6 360 19:57 18.02.2022
5209 Rain 4 1021 76 10000 6.71 0 18:51 18.02.2022
5210 Clouds 3 1021 76 10000 6 360 18:28 18.02.2022
5211 Clouds 3 1020 75 10000 6 360 17:56 18.02.2022
5212 Clouds 4 1020 74 10000 6 10 15:57 18.02.2022
5213 Clouds 4 1019 74 10000 6 30 13:56 18.02.2022
5214 Clouds 4 1019 74 10000 6 40 13:28 18.02.2022
5215 Clouds 5 1019 75 10000 7 30 12:42 18.02.2022
5216 Clouds 5 1019 73 10000 6 40 11:56 18.02.2022
5217 Clouds 5 1019 72 10000 5 40 10:42 18.02.2022
5218 Clouds 7 1019 62 10000 4 60 06:58 18.02.2022
5219 Clouds 7 1020 60 10000 4 70 05:42 18.02.2022
5220 Clouds 5 1021 62 10000 4 40 23:53 17.02.2022
5221 Clouds 5 1021 64 10000 3 350 21:50 17.02.2022
5222 Clouds 5 1021 65 10000 2 340 21:26 17.02.2022
5223 Clear 4 1021 68 10000 2 30 20:40 17.02.2022
5224 Clear 3 1022 69 10000 2 10 19:52 17.02.2022
5225 Clouds 3 1022 74 10000 3 20 18:54 17.02.2022
5226 Clouds 3 1022 74 10000 3 50 17:59 17.02.2022
5227 Clouds 3 1023 73 10000 3 60 16:43 17.02.2022
5228 Clouds 3 1023 72 10000 3 40 15:40 17.02.2022
5229 Clouds 3 1023 71 10000 3 40 14:28 17.02.2022
5230 Rain 4 1022 67 10000 5 60 12:50 17.02.2022
5231 Rain 5 1021 57 10000 5 70 11:27 17.02.2022
5232 Clouds 5 1020 56 10000 5 60 09:30 17.02.2022
5233 Rain 5 1023 54 10000 4 70 04:41 17.02.2022
5234 Clear 3 1022 50 10000 7 40 23:21 16.02.2022
5235 Clear 3 1021 49 10000 5 40 21:45 16.02.2022
5236 Clear 4 1021 52 10000 7 50 19:57 16.02.2022
5237 Clouds 4 1022 56 10000 8.94 38 18:43 16.02.2022
5238 Clouds 4 1022 59 10000 5 30 17:53 16.02.2022
5239 Clouds 5 1022 62 10000 6 40 15:40 16.02.2022
5240 Rain 5 1021 62 10000 6 40 15:19 16.02.2022
5241 Clouds 5 1020 59 10000 6 50 13:28 16.02.2022
5242 Rain 6 1020 61 10000 5 60 12:19 16.02.2022
5243 Clouds 6 1019 61 10000 5 70 11:26 16.02.2022
5244 Clouds 7 1019 58 10000 3 70 10:33 16.02.2022
5245 Clouds 8 1019 56 10000 5 60 07:54 16.02.2022
5246 Clouds 7 1024 58 10000 6 40 06:26 16.02.2022
5247 Clear 5 1019 61 10000 2 70 23:45 15.02.2022
5248 Clear 5 1019 61 10000 2 20 22:29 15.02.2022
5249 Clear 5 1019 61 10000 2 30 21:47 15.02.2022
5250 Clear 5 1019 61 10000 2 40 21:27 15.02.2022
5251 Clear 5 1019 61 10000 3 30 20:56 15.02.2022
5252 Clouds 5 1019 61 10000 2 360 19:57 15.02.2022
5253 Clouds 5 1020 65 10000 1 0 18:56 15.02.2022
5254 Clouds 4 1020 64 10000 2 100 18:21 15.02.2022
5255 Clouds 4 1019 64 10000 1 0 17:49 15.02.2022
5256 Clouds 4 1020 63 10000 1 0 16:38 15.02.2022
5257 Clear 4 1020 63 10000 2 80 15:26 15.02.2022
5258 Clear 4 1019 61 10000 4 70 13:27 15.02.2022
5259 Clear 5 1019 60 10000 4 70 12:37 15.02.2022
5260 Clear 6 1019 60 10000 3 70 11:27 15.02.2022
5261 Clear 6 1019 56 10000 4 40 09:31 15.02.2022
5262 Clouds 6 1019 58 10000 4 40 06:52 15.02.2022
5263 Clouds 7 1021 59 10000 5 30 03:55 15.02.2022
5264 Mist 6 1019 63 4000 4 40 22:36 14.02.2022
5265 Mist 7 1019 63 4000 3.58 24 21:35 14.02.2022
5266 Mist 7 1019 64 4000 3 20 20:30 14.02.2022
5267 Mist 7 1020 64 4000 4 40 19:32 14.02.2022
5268 Mist 7 1021 68 5000 4 30 18:30 14.02.2022
5269 Mist 7 1021 68 5000 4 20 17:58 14.02.2022
5270 Clouds 7 1020 68 7000 4 30 17:24 14.02.2022
5271 Clear 8 1019 60 10000 3 50 15:59 14.02.2022
5272 Clear 9 1019 53 10000 3 20 13:53 14.02.2022
5273 Clear 10 1019 54 10000 3 10 13:26 14.02.2022
5274 Clear 10 1019 55 10000 3 360 12:33 14.02.2022
5275 Clear 10 1018 53 10000 4 340 11:54 14.02.2022
5276 Clear 10 1017 49 10000 4 360 10:37 14.02.2022
5277 Clear 11 1022 50 10000 4 360 08:43 14.02.2022
5278 Clear 11 1022 49 10000 5 20 07:30 14.02.2022
5279 Clear 4 1018 67 10000 3 330 23:45 13.02.2022
5280 Clear 4 1017 67 10000 2 320 22:42 13.02.2022
5281 Clear 4 1017 67 10000 2 320 22:23 13.02.2022
5282 Clear 5 1017 68 10000 2 330 21:30 13.02.2022
5283 Clear 5 1017 66 10000 2 310 20:33 13.02.2022
5284 Clear 6 1017 69 10000 2 320 19:29 13.02.2022
5285 Clear 6 1017 68 10000 3 330 18:44 13.02.2022
5286 Clear 7 1017 68 10000 2 350 17:57 13.02.2022
5287 Clear 7 1017 66 10000 3 10 15:54 13.02.2022
5288 Clear 7 1017 66 10000 3 10 15:54 13.02.2022
5289 Rain 7 1017 66 10000 4 360 14:58 13.02.2022
5290 Clear 7 1017 68 10000 3 360 13:59 13.02.2022
5291 Clear 7 1017 68 10000 3 360 13:59 13.02.2022
5292 Rain 7 1016 68 10000 2 360 12:50 13.02.2022
5293 Rain 7 1016 66 10000 3 360 11:26 13.02.2022
5294 Rain 7 1016 67 10000 4 360 10:30 13.02.2022
5295 Rain 8 1015 67 10000 4 360 09:41 13.02.2022
5296 Rain 7 1015 72 10000 5 10 07:19 13.02.2022
5297 Mist 8 1015 70 5000 4 10 00:35 13.02.2022
5298 Clouds 8 1014 71 6000 3.58 15 23:39 12.02.2022
5299 Clouds 8 1014 70 6000 3.58 14 22:33 12.02.2022
5300 Clouds 8 1014 70 6000 2 10 21:19 12.02.2022
5301 Clouds 8 1015 70 6000 2 360 20:32 12.02.2022
5302 Clouds 8 1015 70 6000 2 350 19:21 12.02.2022
5303 Clouds 8 1015 70 6000 2 330 18:50 12.02.2022
5304 Clouds 8 1015 70 8000 3 340 18:32 12.02.2022
5305 Clouds 8 1016 73 8000 3 20 16:55 12.02.2022
5306 Clouds 8 1016 72 8000 3 10 16:25 12.02.2022
5307 Clouds 8 1016 72 8000 2 20 15:49 12.02.2022
5308 Clouds 8 1016 71 8000 2 20 14:30 12.02.2022
5309 Clouds 8 1016 71 10000 3 30 12:55 12.02.2022
5310 Clouds 9 1016 67 10000 4 30 10:36 12.02.2022
5311 Clouds 9 1016 66 10000 3 50 09:39 12.02.2022
5312 Clouds 9 1016 66 10000 4 50 08:48 12.02.2022
5313 Clouds 9 1016 66 10000 4 30 07:50 12.02.2022
5314 Clouds 9 1018 67 10000 4 10 05:33 12.02.2022
5315 Clouds 9 1019 67 10000 2 50 03:32 12.02.2022
5316 Clouds 8 1019 68 10000 4 20 02:18 12.02.2022
5317 Clouds 7 1017 68 10000 3 20 22:28 11.02.2022
5318 Clouds 7 1017 68 10000 3 10 21:47 11.02.2022
5319 Clouds 7 1017 66 10000 4 50 20:39 11.02.2022
5320 Clouds 7 1018 67 10000 3 60 19:35 11.02.2022
5321 Clouds 6 1018 69 10000 4 40 18:59 11.02.2022
5322 Clouds 6 1018 73 7000 2 50 17:41 11.02.2022
5323 Clouds 6 1018 73 7000 2 50 17:22 11.02.2022
5324 Clouds 7 1018 72 7000 3 60 15:55 11.02.2022
5325 Rain 6 1018 75 6000 4 80 14:38 11.02.2022
5326 Clouds 6 1018 76 6000 4 80 14:20 11.02.2022
5327 Rain 6 1018 74 6000 4 80 13:50 11.02.2022
5328 Clouds 6 1018 74 6000 4 80 13:31 11.02.2022
5329 Rain 7 1018 73 7000 4 80 11:27 11.02.2022
5330 Rain 7 1017 70 8000 3 90 09:39 11.02.2022
5331 Rain 7 1017 70 10000 5 80 08:39 11.02.2022
5332 Rain 7 1023 68 10000 5 80 08:21 11.02.2022
5333 Rain 8 1018 64 10000 4 100 06:31 11.02.2022
5334 Rain 8 1020 65 10000 4 80 02:25 11.02.2022
5335 Rain 7 1019 63 10000 3 80 00:46 11.02.2022
5336 Rain 7 1019 60 10000 2 70 22:45 10.02.2022
5337 Rain 7 1018 61 10000 3 70 21:44 10.02.2022
5338 Clear 7 1018 59 10000 3 70 20:52 10.02.2022
5339 Rain 6 1018 60 10000 3 50 20:24 10.02.2022
5340 Clear 6 1018 60 10000 2 30 19:24 10.02.2022
5341 Clear 6 1019 65 10000 4.02 78 18:33 10.02.2022
5342 Rain 6 1019 63 10000 2 10 17:25 10.02.2022
5343 Clear 6 1019 62 10000 2 80 16:47 10.02.2022
5344 Clear 6 1019 62 10000 4 80 15:42 10.02.2022
5345 Clear 6 1019 62 10000 4 80 15:24 10.02.2022
5346 Clouds 6 1020 62 10000 3 70 14:35 10.02.2022
5347 Clouds 6 1019 61 10000 4 70 13:59 10.02.2022
5348 Clouds 6 1020 62 10000 4 110 13:19 10.02.2022
5349 Clouds 8 1019 60 10000 5 110 11:57 10.02.2022
5350 Clouds 7 1024 58 10000 2 60 11:32 10.02.2022
5351 Clear 8 1024 55 10000 3 30 10:25 10.02.2022
5352 Clear 8 1023 51 10000 3 40 09:46 10.02.2022
5353 Clear 9 1023 50 10000 2 320 08:42 10.02.2022
5354 Clouds 8 1024 51 10000 3 10 06:33 10.02.2022
5355 Clouds 6 1026 61 10000 6.71 355 03:33 10.02.2022
5356 Clouds 5 1021 70 10000 3 10 00:56 10.02.2022
5357 Clouds 5 1021 69 10000 0.45 342 00:38 10.02.2022
5358 Clouds 5 1021 69 10000 3 340 00:20 10.02.2022
5359 Clouds 5 1019 69 10000 1 0 22:56 09.02.2022
5360 Clouds 5 1019 69 10000 2 350 22:33 09.02.2022
5361 Clouds 5 1019 69 10000 2 340 21:47 09.02.2022
5362 Clouds 5 1019 69 10000 2 350 21:27 09.02.2022
5363 Clouds 5 1019 69 10000 4 10 20:44 09.02.2022
5364 Clouds 5 1019 69 10000 4 10 20:44 09.02.2022
5365 Clouds 5 1019 69 10000 4 10 20:22 09.02.2022
5366 Clouds 5 1019 70 10000 3 10 19:41 09.02.2022
5367 Clouds 5 1019 70 8000 2.24 350 18:38 09.02.2022
5368 Clouds 4 1019 74 10000 3 360 16:55 09.02.2022
5369 Clouds 5 1019 73 10000 3 10 15:59 09.02.2022
5370 Clouds 5 1019 74 10000 3 10 15:23 09.02.2022
5371 Rain 5 1019 75 10000 0.45 52 12:43 09.02.2022
5372 Clouds 5 1019 75 10000 4 10 11:29 09.02.2022
5373 Rain 5 1018 74 10000 4 10 10:33 09.02.2022
5374 Rain 6 1018 74 10000 3 30 09:47 09.02.2022
5375 Rain 6 1018 71 10000 4 40 09:21 09.02.2022
5376 Rain 6 1018 70 10000 3 30 08:43 09.02.2022
5377 Rain 7 1019 68 10000 2 20 05:55 09.02.2022
5378 Rain 7 1021 62 10000 2 10 03:51 09.02.2022
5379 Clear 6 1021 64 10000 2 50 01:55 09.02.2022
5380 Clear 5 1020 64 10000 2 10 23:42 08.02.2022
5381 Clear 4 1020 65 10000 2 360 22:53 08.02.2022
5382 Clear 4 1020 63 10000 2 50 22:27 08.02.2022
5383 Clear 4 1020 64 10000 2 10 21:58 08.02.2022
5384 Clear 4 1021 62 10000 2 10 21:22 08.02.2022
5385 Clear 4 1021 63 10000 2.24 35 20:55 08.02.2022
5386 Clear 4 1021 63 10000 2.24 35 20:23 08.02.2022
5387 Clear 4 1022 62 10000 1.79 44 18:53 08.02.2022
5388 Clear 4 1022 67 10000 3 350 17:50 08.02.2022
5389 Clear 5 1023 66 10000 2 40 16:35 08.02.2022
5390 Clear 5 1023 65 10000 3 40 15:39 08.02.2022
5391 Clear 5 1023 65 10000 4 60 14:56 08.02.2022
5392 Clear 6 1023 62 10000 3 60 13:29 08.02.2022
5393 Clouds 6 1023 62 10000 4 40 12:18 08.02.2022
5394 Clouds 6 1022 64 10000 5 40 10:39 08.02.2022
5395 Rain 7 1021 63 10000 4 40 09:46 08.02.2022
5396 Clouds 8 1021 58 10000 5 40 08:25 08.02.2022
5397 Clouds 8 1022 65 10000 5 30 05:41 08.02.2022
5398 Clouds 8 1024 66 10000 4 350 04:39 08.02.2022
5399 Clouds 7 1024 66 10000 4 350 04:21 08.02.2022
5400 Clouds 7 1025 70 10000 5 360 03:36 08.02.2022
5401 Clouds 7 1025 71 10000 5 360 03:18 08.02.2022
5402 Clouds 6 1025 71 10000 3.13 328 02:59 08.02.2022
5403 Clouds 6 1025 72 10000 4 360 02:36 08.02.2022
5404 Clouds 6 1024 72 10000 4 360 02:18 08.02.2022
5405 Clouds 6 1024 75 10000 3.13 333 01:44 08.02.2022
5406 Clouds 5 1023 75 10000 3.13 333 01:24 08.02.2022
5407 Clouds 5 1023 74 10000 4 340 00:54 08.02.2022
5408 Clouds 5 1022 71 10000 3.13 336 23:57 07.02.2022
5409 Clouds 5 1021 72 10000 2 350 23:39 07.02.2022
5410 Clouds 5 1021 72 10000 2 350 23:18 07.02.2022
5411 Clouds 5 1020 73 10000 3.13 357 22:20 07.02.2022
5412 Clouds 5 1020 74 10000 3 350 21:55 07.02.2022
5413 Clouds 5 1020 71 10000 3 350 21:29 07.02.2022
5414 Clouds 5 1020 72 10000 3 350 20:59 07.02.2022
5415 Clouds 5 1020 72 10000 3.13 3 20:40 07.02.2022
5416 Clouds 5 1021 72 10000 2 40 19:51 07.02.2022
5417 Clouds 5 1021 72 10000 3 30 19:32 07.02.2022
5418 Clouds 5 1021 78 10000 3 360 17:52 07.02.2022
5419 Rain 5 1021 78 10000 4 340 16:53 07.02.2022
5420 Rain 5 1020 78 10000 3 30 15:49 07.02.2022
5421 Rain 5 1020 77 10000 3 40 14:55 07.02.2022
5422 Clouds 4 1019 78 10000 3 20 13:28 07.02.2022
5423 Rain 4 1019 78 10000 0.45 34 12:42 07.02.2022
5424 Rain 4 1018 77 10000 1.79 34 11:57 07.02.2022
5425 Rain 4 1019 77 10000 1.79 38 11:34 07.02.2022
5426 Rain 4 1018 76 10000 0.45 43 10:49 07.02.2022
5427 Rain 4 1018 76 10000 0.45 45 10:29 07.02.2022
5428 Rain 4 1018 76 10000 0.45 51 09:53 07.02.2022
5429 Rain 4 1017 75 10000 0.89 60 09:18 07.02.2022
5430 Rain 4 1017 75 10000 0.89 66 08:36 07.02.2022
5431 Rain 4 1017 74 10000 1.34 86 06:54 07.02.2022
5432 Rain 4 1017 74 10000 1.34 87 06:33 07.02.2022
5433 Rain 4 1021 74 10000 0.89 61 02:58 07.02.2022
5434 Rain 4 1020 67 10000 0.45 66 00:44 07.02.2022
5435 Rain 4 1020 64 10000 0.89 69 23:42 06.02.2022
5436 Rain 4 1021 61 10000 1.79 72 22:47 06.02.2022
5437 Rain 5 1021 57 10000 1.79 70 21:52 06.02.2022
5438 Rain 5 1021 56 10000 0.89 73 21:30 06.02.2022
5439 Rain 5 1021 54 10000 0.45 73 20:53 06.02.2022
5440 Rain 5 1022 53 10000 1.34 72 20:31 06.02.2022
5441 Clear 5 1022 52 10000 1.79 72 19:37 06.02.2022
5442 Clear 5 1023 51 10000 1.79 74 18:38 06.02.2022
5443 Rain 5 1023 51 10000 1.79 73 17:55 06.02.2022
5444 Clear 5 1023 54 10000 0.45 81 16:56 06.02.2022
5445 Clear 5 1024 54 10000 0.45 100 16:38 06.02.2022
5446 Clear 5 1024 52 10000 0.89 86 15:47 06.02.2022
5447 Clear 5 1025 52 10000 0.89 82 15:26 06.02.2022
5448 Rain 5 1025 51 10000 0.45 76 14:27 06.02.2022
5449 Rain 5 1025 51 10000 0.45 70 13:24 06.02.2022
5450 Rain 5 1025 53 10000 0.89 65 12:45 06.02.2022
5451 Clear 5 1024 51 10000 0.45 57 11:23 06.02.2022
5452 Clear 6 1024 50 10000 0.45 55 09:56 06.02.2022
5453 Clear 6 1024 45 10000 0.45 53 08:47 06.02.2022
5454 Clear 7 1024 44 10000 1.34 46 07:36 06.02.2022
5455 Clear 7 1024 44 10000 1.34 46 07:36 06.02.2022
5456 Clear 6 1032 46 10000 0.89 36 05:29 06.02.2022
5457 Clear 3 1033 51 10000 0.45 28 02:26 06.02.2022
5458 Clear 3 1028 53 10000 0.45 18 01:21 06.02.2022
5459 Clear 2 1027 55 10000 0.45 13 00:24 06.02.2022
5460 Clear 2 1027 42 10000 0.45 16 22:18 05.02.2022
5461 Clear 3 1027 40 10000 0.45 9 20:48 05.02.2022
5462 Clear 3 1027 40 10000 0.45 8 20:23 05.02.2022
5463 Clear 3 1027 41 10000 0.45 5 19:44 05.02.2022
5464 Clear 2 1027 50 10000 0.45 3 18:48 05.02.2022
5465 Clear 2 1027 52 10000 0.45 4 17:37 05.02.2022
5466 Clear 3 1027 51 10000 0.45 4 16:33 05.02.2022
5467 Clear 3 1027 49 10000 0.45 6 15:31 05.02.2022
5468 Clear 3 1027 50 10000 0.89 9 13:58 05.02.2022
5469 Clear 3 1027 51 10000 0.89 11 12:46 05.02.2022
5470 Clear 4 1027 47 10000 0.45 10 11:47 05.02.2022
5471 Clear 5 1031 45 10000 2.24 8 10:44 05.02.2022
5472 Clear 6 1031 42 10000 1.34 7 09:51 05.02.2022
5473 Clear 6 1031 40 10000 1.79 1 08:51 05.02.2022
5474 Clear 6 1031 43 10000 1.34 349 07:27 05.02.2022
5475 Clouds 6 1031 46 10000 1.34 344 06:55 05.02.2022
5476 Clouds 4 1032 58 8000 0.45 2 02:43 05.02.2022
5477 Clouds 4 1026 65 8000 0.45 1 01:18 05.02.2022
5478 Clouds 3 1025 67 6000 0.45 0 00:36 05.02.2022
5479 Clouds 3 1025 63 10000 0.45 0 23:33 04.02.2022
5480 Clear 3 1025 63 10000 3.13 359 22:45 04.02.2022
5481 Clear 3 1024 63 10000 0.45 358 21:36 04.02.2022
5482 Clear 3 1024 63 10000 0.45 0 21:18 04.02.2022
5483 Clear 3 1024 62 10000 0.45 2 20:36 04.02.2022
5484 Clear 3 1024 62 10000 1.79 5 19:18 04.02.2022
5485 Clear 4 1024 58 10000 0.89 317 16:22 04.02.2022
5486 Clear 5 1024 50 10000 0.89 332 15:18 04.02.2022
5487 Clear 5 1023 51 10000 0.45 7 14:40 04.02.2022
5488 Clear 6 1023 44 10000 0.45 352 12:43 04.02.2022
5489 Clear 7 1023 44 10000 0.45 343 11:45 04.02.2022
5490 Clear 8 1022 40 10000 0.89 344 10:53 04.02.2022
5491 Clear 8 1027 43 10000 0.89 348 09:35 04.02.2022
5492 Clear 8 1027 42 10000 1.79 349 07:44 04.02.2022
5493 Clear 6 1029 51 10000 0.45 356 03:28 04.02.2022
5494 Clear 5 1029 57 10000 3.13 350 02:33 04.02.2022
5495 Clear 2 1022 70 10000 2.24 350 23:34 03.02.2022
5496 Clear 2 1022 68 10000 2.68 349 22:48 03.02.2022
5497 Clear 3 1022 71 10000 2.24 348 21:51 03.02.2022
5498 Clear 3 1022 69 10000 0.45 346 20:50 03.02.2022
5499 Clear 3 1022 69 10000 0.45 345 20:21 03.02.2022
5500 Clear 4 1022 66 10000 0.45 338 19:34 03.02.2022
5501 Clear 4 1022 68 10000 2.24 326 18:48 03.02.2022
5502 Rain 4 1022 69 10000 0.89 319 17:47 03.02.2022
5503 Clear 4 1022 67 10000 0.89 54 16:39 03.02.2022
5504 Rain 4 1023 68 10000 0.45 31 14:54 03.02.2022
5505 Rain 4 1022 68 10000 0.89 29 13:19 03.02.2022
5506 Rain 5 1022 69 10000 0.45 29 11:43 03.02.2022
5507 Rain 7 1019 60 10000 0.89 49 08:40 03.02.2022
5508 Rain 7 1020 58 10000 0.45 44 07:20 03.02.2022
5509 Clouds 4 1022 69 10000 2.68 12 00:33 03.02.2022
5510 Clear 4 1022 70 10000 0.45 18 23:45 02.02.2022
5511 Clear 3 1021 69 10000 3.13 27 22:35 02.02.2022
5512 Rain 4 1022 69 10000 0.45 16 21:37 02.02.2022
5513 Clear 4 1022 69 10000 0.45 16 21:37 02.02.2022
5514 Rain 4 1022 70 10000 0.45 20 20:53 02.02.2022
5515 Clouds 3 1022 69 10000 0.45 23 19:59 02.02.2022
5516 Clouds 3 1022 69 10000 0.45 20 19:32 02.02.2022
5517 Clouds 3 1022 69 10000 0.45 17 18:50 02.02.2022
5518 Rain 3 1023 69 10000 0.45 18 18:22 02.02.2022
5519 Rain 3 1023 70 10000 0.45 29 17:19 02.02.2022
5520 Rain 3 1023 70 10000 0.45 29 16:42 02.02.2022
5521 Rain 3 1023 75 10000 0.45 32 13:57 02.02.2022
5522 Rain 3 1023 74 10000 0.89 32 12:25 02.02.2022
5523 Rain 4 1022 74 8000 0.89 33 11:34 02.02.2022
5524 Rain 4 1022 70 5000 0.45 33 10:31 02.02.2022
5525 Clouds 6 1022 61 10000 0.89 29 07:40 02.02.2022
5526 Rain 4 1024 57 10000 0.45 9 22:52 01.02.2022
5527 Rain 5 1024 57 10000 0.45 19 21:52 01.02.2022
5528 Clear 5 1024 55 10000 0.45 24 20:36 01.02.2022
5529 Rain 4 1024 60 10000 0.45 18 17:50 01.02.2022
5530 Rain 5 1025 60 10000 0.45 25 16:42 01.02.2022
5531 Clear 5 1025 57 10000 0.45 27 14:49 01.02.2022
5532 Clear 5 1024 55 10000 0.45 28 12:47 01.02.2022
5533 Clear 5 1024 53 10000 0.45 26 11:34 01.02.2022
5534 Clouds 8 1024 44 7000 0.45 14 05:43 01.02.2022
5535 Clouds 6 1023 57 8000 0.89 352 23:51 31.01.2022
5536 Clouds 6 1022 57 8000 3.13 352 23:28 31.01.2022
5537 Clear 6 1021 56 10000 2.24 341 21:59 31.01.2022
5538 Clear 6 1021 55 10000 0.45 342 21:32 31.01.2022
5539 Rain 6 1022 53 10000 0.45 345 20:33 31.01.2022
5540 Rain 6 1022 53 10000 0.45 335 19:45 31.01.2022
5541 Rain 6 1022 56 10000 1.34 324 18:26 31.01.2022
5542 Clear 6 1022 58 10000 0.89 318 17:41 31.01.2022
5543 Rain 6 1022 56 10000 0.89 305 16:43 31.01.2022
5544 Clear 6 1023 56 10000 0 0 15:43 31.01.2022
5545 Clear 6 1022 54 10000 0.45 142 14:22 31.01.2022
5546 Rain 7 1022 48 10000 1.34 136 12:39 31.01.2022
5547 Clear 7 1021 47 10000 0.45 116 11:56 31.01.2022
5548 Clear 8 1021 45 10000 0.45 38 10:50 31.01.2022
5549 Clear 8 1021 44 10000 0.45 27 10:30 31.01.2022
5550 Clear 8 1021 42 10000 0.89 334 09:26 31.01.2022
5551 Clear 9 1021 40 10000 0.45 311 08:50 31.01.2022
5552 Clear 9 1020 39 10000 0.89 323 08:20 31.01.2022
5553 Clear 8 1026 44 10000 0.89 261 06:18 31.01.2022
5554 Clear 1 1023 64 10000 0.45 342 00:55 31.01.2022
5555 Clear 1 1021 61 10000 0.45 348 22:55 30.01.2022
5556 Clear 1 1021 61 10000 1.34 334 22:25 30.01.2022
5557 Clear 1 1022 59 10000 1.79 332 21:40 30.01.2022
5558 Clear 1 1022 58 10000 1.34 332 21:19 30.01.2022
5559 Clear 2 1022 62 10000 1.34 321 20:46 30.01.2022
5560 Clear 2 1022 59 10000 0.45 1 20:27 30.01.2022
5561 Clear 3 1022 58 10000 0.45 327 19:45 30.01.2022
5562 Clear 2 1022 59 10000 0.45 2 18:43 30.01.2022
5563 Clear 2 1022 59 10000 1.79 10 18:18 30.01.2022
5564 Clear 2 1019 71 10000 2 10 17:22 30.01.2022
5565 Clear 3 1019 68 10000 0 0 16:40 30.01.2022
5566 Clear 3 1019 68 10000 0 0 16:21 30.01.2022
5567 Clear 3 1019 66 10000 1 60 15:50 30.01.2022
5568 Clear 3 1019 65 10000 1 0 15:31 30.01.2022
5569 Clear 3 1019 64 10000 1 0 14:46 30.01.2022
5570 Clear 5 1018 61 10000 2 310 12:47 30.01.2022
5571 Clear 5 1021 54 10000 0.45 354 11:57 30.01.2022
5572 Clouds 6 1020 50 10000 0.45 348 10:32 30.01.2022
5573 Clouds 6 1024 53 10000 0.45 346 09:50 30.01.2022
5574 Clouds 6 1020 52 10000 0.45 328 08:54 30.01.2022
5575 Clouds 6 1020 55 10000 0.45 294 07:28 30.01.2022
5576 Rain 3 1020 76 10000 0.89 336 01:56 30.01.2022
5577 Rain 3 1020 76 10000 0.89 336 01:56 30.01.2022
5578 Rain 2 1019 70 8000 0.45 334 00:23 30.01.2022
5579 Rain 2 1018 71 10000 0.89 335 23:18 29.01.2022
5580 Rain 2 1017 69 10000 0.89 332 21:49 29.01.2022
5581 Rain 2 1017 69 10000 0.45 300 21:24 29.01.2022
5582 Rain 3 1017 70 10000 0.45 334 20:28 29.01.2022
5583 Rain 3 1018 70 10000 0.45 334 19:34 29.01.2022
5584 Rain 3 1018 70 8000 4.02 334 18:52 29.01.2022
5585 Rain 3 1018 69 8000 0.89 337 18:18 29.01.2022
5586 Rain 3 1018 69 6000 0.89 342 17:28 29.01.2022
5587 Rain 3 1018 74 6000 0.45 342 15:50 29.01.2022
5588 Rain 3 1018 73 7000 0.45 355 13:59 29.01.2022
5589 Rain 3 1018 72 7000 0.45 356 13:41 29.01.2022
5590 Rain 3 1018 71 7000 0.45 358 13:22 29.01.2022
5591 Rain 4 1017 66 7000 4.02 5 11:40 29.01.2022
5592 Rain 4 1016 65 8000 0.45 12 10:54 29.01.2022
5593 Rain 4 1016 65 10000 0.89 19 08:42 29.01.2022
5594 Rain 6 1017 61 10000 0.45 11 06:37 29.01.2022
5595 Clear 3 1019 73 10000 0.45 4 00:34 29.01.2022
5596 Rain 3 1019 69 10000 0.89 359 23:44 28.01.2022
5597 Rain 3 1019 72 10000 0.45 4 22:48 28.01.2022
5598 Snow 3 1019 73 10000 0.45 9 22:20 28.01.2022
5599 Snow 2 1019 74 5000 0.45 2 20:42 28.01.2022
5600 Snow 2 1019 74 5000 0.45 2 20:23 28.01.2022
5601 Snow 2 1020 74 5000 0.89 12 19:28 28.01.2022
5602 Snow 2 1020 73 4000 0.45 4 18:38 28.01.2022
5603 Snow 2 1021 71 10000 0.89 1 16:39 28.01.2022
5604 Snow 3 1021 74 10000 0.45 2 14:59 28.01.2022
5605 Rain 4 1021 71 10000 0.89 8 13:23 28.01.2022
5606 Rain 4 1020 66 10000 0.45 16 11:52 28.01.2022
5607 Rain 4 1020 65 10000 0.89 14 10:32 28.01.2022
5608 Rain 5 1020 65 10000 0.45 315 09:47 28.01.2022
5609 Rain 6 1020 60 10000 0.45 272 07:43 28.01.2022
5610 Clouds 6 1020 59 10000 0.89 14 06:30 28.01.2022
5611 Rain 6 1023 62 10000 0.45 23 03:51 28.01.2022
5612 Clouds 5 1023 64 10000 0.89 19 02:28 28.01.2022
5613 Clouds 5 1023 65 10000 0.89 6 01:38 28.01.2022
5614 Clouds 5 1022 60 10000 0.89 12 00:46 28.01.2022
5615 Rain 5 1022 69 10000 0.45 22 22:20 27.01.2022
5616 Rain 5 1022 71 10000 0.45 5 21:37 27.01.2022
5617 Rain 5 1022 67 10000 0.45 0 20:59 27.01.2022
5618 Rain 5 1022 67 10000 0.45 0 20:59 27.01.2022
5619 Rain 5 1022 66 10000 0.89 7 19:45 27.01.2022
5620 Rain 5 1022 64 10000 0.45 8 18:20 27.01.2022
5621 Clear 5 1022 66 10000 0.45 9 16:55 27.01.2022
5622 Clouds 5 1022 75 8000 0.89 19 13:58 27.01.2022
5623 Rain 6 1021 74 10000 0.45 281 12:49 27.01.2022
5624 Rain 6 1021 73 10000 0.45 29 11:54 27.01.2022
5625 Rain 7 1019 69 10000 1.79 23 09:48 27.01.2022
5626 Rain 7 1019 69 10000 1.79 23 09:48 27.01.2022
5627 Clouds 7 1019 71 8000 0.45 27 08:40 27.01.2022
5628 Clouds 7 1019 74 7000 0.45 29 07:52 27.01.2022
5629 Mist 7 1021 76 4000 1.34 21 03:34 27.01.2022
5630 Rain 7 1019 75 5000 1.79 35 00:23 27.01.2022
5631 Rain 7 1017 75 8000 1.34 46 22:27 26.01.2022
5632 Rain 7 1017 75 8000 0.45 48 21:44 26.01.2022
5633 Rain 7 1018 75 8000 0.45 45 20:43 26.01.2022
5634 Clouds 7 1018 74 8000 2.68 44 20:24 26.01.2022
5635 Rain 7 1018 75 8000 1.34 48 19:30 26.01.2022
5636 Rain 7 1018 75 8000 2.24 50 18:46 26.01.2022
5637 Rain 7 1018 75 8000 2.24 48 18:18 26.01.2022
5638 Rain 7 1018 75 8000 1.34 46 17:33 26.01.2022
5639 Rain 7 1018 75 8000 0.45 41 16:47 26.01.2022
5640 Rain 7 1018 75 8000 1.34 43 15:56 26.01.2022
5641 Rain 7 1018 78 8000 1.79 44 14:30 26.01.2022
5642 Rain 7 1018 79 7000 1.79 55 12:18 26.01.2022
5643 Rain 7 1017 77 4000 1.79 55 10:49 26.01.2022
5644 Rain 7 1017 78 4000 0.89 52 09:50 26.01.2022
5645 Rain 8 1017 77 5000 0.89 50 08:32 26.01.2022
5646 Rain 8 1017 74 8000 2.68 55 06:27 26.01.2022
5647 Rain 8 1017 74 8000 2.68 55 06:27 26.01.2022
5648 Rain 8 1017 74 8000 2.68 55 06:27 26.01.2022
5649 Rain 8 1017 74 8000 2.68 55 06:27 26.01.2022
5650 Clouds 6 1019 66 8000 0.45 27 00:21 26.01.2022
5651 Clouds 6 1019 66 7000 0.89 32 23:34 25.01.2022
5652 Clouds 6 1019 65 7000 0.89 35 22:48 25.01.2022
5653 Clouds 6 1018 67 7000 0.45 33 22:18 25.01.2022
5654 Clouds 6 1019 66 7000 0.45 28 21:22 25.01.2022
5655 Clouds 6 1019 67 7000 0.45 27 20:44 25.01.2022
5656 Clouds 6 1019 69 7000 0.45 26 19:53 25.01.2022
5657 Clouds 6 1019 70 7000 0.45 13 18:46 25.01.2022
5658 Rain 6 1020 70 7000 2.24 4 17:45 25.01.2022
5659 Rain 6 1020 71 6000 2.24 356 16:58 25.01.2022
5660 Rain 6 1020 74 6000 0.45 355 16:34 25.01.2022
5661 Rain 7 1019 74 6000 2.24 13 15:39 25.01.2022
5662 Rain 7 1019 72 7000 0.45 19 14:58 25.01.2022
5663 Rain 7 1019 66 7000 0.45 19 13:47 25.01.2022
5664 Clouds 8 1017 62 7000 0.89 3 10:59 25.01.2022
5665 Clouds 8 1017 61 7000 0.89 1 09:20 25.01.2022
5666 Clouds 7 1022 61 6000 0.89 359 07:30 25.01.2022
5667 Clouds 7 1022 62 6000 0.45 359 06:51 25.01.2022
5668 Clouds 7 1023 63 6000 0.89 355 05:22 25.01.2022
5669 Clouds 6 1018 65 8000 0.45 358 23:37 24.01.2022
5670 Clouds 5 1018 64 8000 0.89 0 23:19 24.01.2022
5671 Clouds 5 1017 64 8000 2.68 359 22:59 24.01.2022
5672 Clouds 5 1017 64 8000 2.68 359 22:41 24.01.2022
5673 Clouds 6 1017 64 8000 0.45 357 21:55 24.01.2022
5674 Clouds 6 1017 64 8000 0.45 359 21:29 24.01.2022
5675 Clouds 6 1017 64 8000 0.89 10 20:33 24.01.2022
5676 Clouds 5 1018 69 8000 0.45 11 19:52 24.01.2022
5677 Clouds 5 1018 69 8000 0.45 9 19:30 24.01.2022
5678 Clouds 6 1018 62 8000 0.45 9 18:19 24.01.2022
5679 Clouds 6 1018 64 8000 0.45 11 17:24 24.01.2022
5680 Clouds 6 1018 64 8000 0.45 358 16:55 24.01.2022
5681 Clouds 6 1018 64 8000 0.45 355 16:19 24.01.2022
5682 Clouds 6 1018 67 8000 0.45 5 14:43 24.01.2022
5683 Clouds 6 1018 62 8000 0.45 13 13:24 24.01.2022
5684 Clouds 6 1017 62 8000 0.45 10 12:23 24.01.2022
5685 Clouds 7 1017 65 8000 1.34 76 10:46 24.01.2022
5686 Rain 7 1016 66 8000 0.89 98 09:48 24.01.2022
5687 Clouds 8 1016 66 6000 6.71 180 08:41 24.01.2022
5688 Clouds 8 1016 67 6000 0.45 88 06:41 24.01.2022
5689 Mist 7 1017 75 3500 0.45 3 01:31 24.01.2022
5690 Mist 7 1016 76 4000 0.45 2 00:38 24.01.2022
5691 Mist 7 1016 72 4000 0.45 3 00:20 24.01.2022
5692 Clouds 8 1015 73 8000 0.45 11 22:37 23.01.2022
5693 Rain 8 1015 77 10000 0.45 12 21:50 23.01.2022
5694 Rain 8 1015 77 10000 0.89 13 21:26 23.01.2022
5695 Rain 8 1015 78 10000 0.45 289 20:45 23.01.2022
5696 Rain 8 1014 74 10000 0.45 19 19:52 23.01.2022
5697 Rain 8 1015 75 10000 0.89 18 18:52 23.01.2022
5698 Rain 8 1014 79 10000 0.45 21 17:49 23.01.2022
5699 Clouds 9 1014 79 10000 0.45 22 16:47 23.01.2022
5700 Rain 9 1014 81 10000 0.45 28 14:59 23.01.2022
5701 Rain 9 1014 80 10000 0.89 28 14:25 23.01.2022
5702 Clouds 9 1013 81 10000 0.45 33 12:59 23.01.2022
5703 Clouds 9 1013 83 10000 0.89 34 12:22 23.01.2022
5704 Clouds 10 1013 82 10000 0.45 35 11:59 23.01.2022
5705 Rain 10 1012 82 10000 0.89 35 11:19 23.01.2022
5706 Rain 10 1012 82 8000 1.79 32 10:27 23.01.2022
5707 Rain 10 1011 83 8000 0.89 32 09:51 23.01.2022
5708 Rain 11 1011 84 7000 1.79 26 08:54 23.01.2022
5709 Rain 11 1011 84 7000 0.45 28 05:57 23.01.2022
5710 Rain 11 1011 85 4000 0.45 9 01:52 23.01.2022
5711 Rain 10 1011 84 3500 3.13 8 01:27 23.01.2022
5712 Rain 11 1010 80 4000 0.45 359 00:23 23.01.2022
5713 Rain 11 1010 80 3000 0.45 358 23:57 22.01.2022
5714 Rain 10 1010 84 3000 0.45 15 22:46 22.01.2022
5715 Rain 10 1011 80 2800 2.24 341 21:36 22.01.2022
5716 Rain 10 1011 83 3500 0.45 16 20:21 22.01.2022
5717 Mist 10 1011 83 2800 1.79 71 18:56 22.01.2022
5718 Mist 10 1011 83 3200 1.34 74 18:24 22.01.2022
5719 Clouds 10 1011 83 6000 1.79 67 17:40 22.01.2022
5720 Clouds 10 1012 83 6000 2.24 32 16:56 22.01.2022
5721 Rain 10 1012 83 5000 1.79 29 15:53 22.01.2022
5722 Rain 10 1012 83 6000 1.79 26 15:26 22.01.2022
5723 Rain 10 1012 82 5000 2.24 65 13:46 22.01.2022
5724 Rain 10 1013 82 6000 0.45 62 12:52 22.01.2022
5725 Rain 10 1013 82 6000 1.34 69 12:29 22.01.2022
5726 Rain 10 1013 81 6000 0.45 76 11:31 22.01.2022
5727 Rain 10 1012 81 7000 0.89 82 10:29 22.01.2022
5728 Rain 10 1012 81 7000 0.89 84 09:59 22.01.2022
5729 Clouds 11 1012 78 6000 0.89 83 08:52 22.01.2022
5730 Clouds 11 1013 76 8000 0.89 84 07:39 22.01.2022
5731 Clouds 11 1015 72 10000 0.45 93 04:53 22.01.2022
5732 Clouds 9 1016 73 10000 0.45 90 01:35 22.01.2022
5733 Clear 8 1016 73 10000 0.45 92 23:45 21.01.2022
5734 Rain 8 1016 73 10000 0.45 101 22:36 21.01.2022
5735 Rain 8 1017 69 10000 0.45 97 20:28 21.01.2022
5736 Rain 8 1018 65 10000 0.89 95 18:40 21.01.2022
5737 Clear 8 1018 65 10000 0.45 94 17:41 21.01.2022
5738 Clear 8 1019 65 10000 0.89 98 15:44 21.01.2022
5739 Rain 8 1020 62 10000 0.45 93 13:51 21.01.2022
5740 Rain 8 1020 62 10000 0.45 93 13:51 21.01.2022
5741 Rain 8 1020 60 10000 1.34 86 12:38 21.01.2022
5742 Clear 8 1020 60 10000 0.89 85 11:28 21.01.2022
5743 Clouds 8 1020 58 10000 1.79 86 10:19 21.01.2022
5744 Clouds 9 1020 55 10000 0.45 1 08:24 21.01.2022
5745 Clouds 10 1020 53 10000 0.89 79 06:57 21.01.2022
5746 Clear 5 1023 60 10000 0.89 88 23:36 20.01.2022
5747 Clear 5 1023 60 10000 0.89 87 22:24 20.01.2022
5748 Clear 5 1023 59 10000 1.79 111 21:43 20.01.2022
5749 Rain 5 1023 58 10000 0.89 106 20:53 20.01.2022
5750 Clear 5 1023 58 10000 1.34 110 19:20 20.01.2022
5751 Rain 5 1023 58 10000 1.79 99 18:50 20.01.2022
5752 Clear 5 1023 58 10000 1.79 78 17:29 20.01.2022
5753 Clear 5 1023 58 10000 0.45 225 15:43 20.01.2022
5754 Clear 5 1024 58 10000 2.68 69 15:19 20.01.2022
5755 Clear 5 1024 58 10000 2.24 83 13:41 20.01.2022
5756 Clear 5 1023 56 10000 1.79 81 12:35 20.01.2022
5757 Clear 6 1023 57 10000 0.45 43 11:50 20.01.2022
5758 Clear 7 1022 53 10000 1.34 45 10:40 20.01.2022
5759 Clear 7 1027 53 10000 0.89 45 09:37 20.01.2022
5760 Clear 8 1027 51 10000 0.89 44 07:51 20.01.2022
5761 Clouds 6 1023 63 6000 0.89 25 00:46 20.01.2022
5762 Clouds 6 1021 66 10000 0.89 24 22:59 19.01.2022
5763 Clouds 6 1021 66 10000 0.89 25 22:21 19.01.2022
5764 Clouds 6 1021 67 10000 0.89 25 21:23 19.01.2022
5765 Clouds 7 1021 70 10000 0.45 24 20:46 19.01.2022
5766 Clouds 7 1021 71 10000 0.89 22 19:45 19.01.2022
5767 Clouds 7 1021 70 10000 1.34 27 18:29 19.01.2022
5768 Clouds 7 1021 72 10000 1.79 36 17:44 19.01.2022
5769 Clear 8 1021 72 10000 0.45 31 16:47 19.01.2022
5770 Clear 9 1020 70 10000 0.45 33 14:42 19.01.2022
5771 Clouds 10 1019 68 10000 0.45 35 12:42 19.01.2022
5772 Clear 11 1018 65 10000 0.45 28 11:39 19.01.2022
5773 Clear 12 1018 58 10000 2.68 32 10:20 19.01.2022
5774 Clouds 12 1022 60 10000 2.68 42 09:34 19.01.2022
5775 Clouds 13 1022 57 10000 0.45 34 06:35 19.01.2022
5776 Clear 8 1024 67 10000 1 0 02:38 19.01.2022
5777 Clear 6 1018 72 10000 0.45 292 23:19 18.01.2022
5778 Clear 6 1018 72 10000 0.45 77 22:19 18.01.2022
5779 Clear 6 1018 71 10000 0.45 299 20:55 18.01.2022
5780 Clear 7 1018 68 10000 0.45 97 19:54 18.01.2022
5781 Clear 6 1019 69 10000 0.45 99 19:36 18.01.2022
5782 Clear 7 1019 66 10000 0.45 106 18:38 18.01.2022
5783 Clear 7 1019 66 10000 0.45 106 17:57 18.01.2022
5784 Clear 7 1019 65 10000 0.89 70 16:38 18.01.2022
5785 Clear 7 1019 64 10000 0.89 70 15:40 18.01.2022
5786 Clear 7 1019 65 10000 0.89 81 15:20 18.01.2022
5787 Clear 8 1017 69 10000 0.45 287 12:30 18.01.2022
5788 Clear 9 1017 62 10000 5 120 10:46 18.01.2022
5789 Clouds 12 1016 50 8000 2 130 08:49 18.01.2022
5790 Clouds 10 1025 56 8000 2 230 07:46 18.01.2022
5791 Clear 7 1029 69 10000 3 80 02:32 18.01.2022
5792 Clear 6 1020 73 10000 2 70 23:22 17.01.2022
5793 Clear 6 1020 72 10000 2 80 22:23 17.01.2022
5794 Clouds 7 1020 71 10000 3 70 21:33 17.01.2022
5795 Clouds 7 1020 70 10000 4 60 19:56 17.01.2022
5796 Clouds 7 1021 74 10000 3 70 18:29 17.01.2022
5797 Clouds 8 1021 73 10000 3 70 17:24 17.01.2022
5798 Clouds 8 1021 73 10000 3 40 16:27 17.01.2022
5799 Clear 8 1021 71 10000 2 80 14:59 17.01.2022
5800 Clear 8 1021 73 10000 3 70 14:33 17.01.2022
5801 Clear 8 1021 73 10000 2 100 13:20 17.01.2022
5802 Clear 8 1021 72 10000 2 80 12:54 17.01.2022
5803 Clear 9 1020 68 10000 4 40 11:48 17.01.2022
5804 Clear 10 1019 63 10000 3 20 10:21 17.01.2022
5805 Clouds 12 1019 58 10000 2 340 08:51 17.01.2022
5806 Clouds 12 1019 56 10000 1 0 07:22 17.01.2022
5807 Clear 9 1021 67 10000 3 90 02:23 17.01.2022
5808 Clouds 8 1020 72 10000 2 70 00:53 17.01.2022
5809 Clear 7 1019 74 10000 2 30 21:26 16.01.2022
5810 Rain 7 1022 63 10000 0.45 76 20:33 16.01.2022
5811 Rain 7 1022 63 10000 0.45 76 20:33 16.01.2022
5812 Clear 7 1022 63 10000 0.45 91 18:50 16.01.2022
5813 Clear 7 1023 62 10000 0.89 37 17:55 16.01.2022
5814 Clear 7 1023 62 10000 0.45 47 16:56 16.01.2022
5815 Clear 7 1023 62 10000 0.89 65 15:50 16.01.2022
5816 Clear 7 1023 62 10000 1.34 112 14:30 16.01.2022
5817 Clouds 7 1023 62 8000 0.89 110 13:33 16.01.2022
5818 Clouds 8 1023 61 6000 1.79 75 12:27 16.01.2022
5819 Clouds 8 1023 61 6000 0.45 348 11:38 16.01.2022
5820 Clouds 9 1023 59 6000 3.58 50 10:45 16.01.2022
5821 Haze 9 1022 57 5000 0.45 225 09:59 16.01.2022
5822 Haze 9 1022 56 5000 0.89 102 09:38 16.01.2022
5823 Haze 9 1022 55 5000 0.89 102 09:20 16.01.2022
5824 Haze 10 1026 56 5000 0.89 114 07:21 16.01.2022
5825 Mist 7 1022 65 5000 2 350 00:36 16.01.2022
5826 Clouds 7 1021 65 7000 2 340 22:55 15.01.2022
5827 Clouds 7 1021 65 7000 2.24 349 21:22 15.01.2022
5828 Clouds 7 1020 65 7000 1 0 20:45 15.01.2022
5829 Clouds 7 1021 65 7000 2 190 20:22 15.01.2022
5830 Clouds 7 1021 65 7000 1.79 355 19:27 15.01.2022
5831 Rain 7 1021 63 8000 1.34 351 18:20 15.01.2022
5832 Clear 6 1020 62 10000 1 0 16:49 15.01.2022
5833 Clear 7 1020 60 10000 0.45 140 14:38 15.01.2022
5834 Clear 8 1019 60 10000 0.45 67 12:40 15.01.2022
5835 Clouds 8 1019 56 8000 1.34 10 11:26 15.01.2022
5836 Clouds 10 1017 49 8000 0.45 1 09:46 15.01.2022
5837 Mist 5 1019 69 4000 2 290 01:58 15.01.2022
5838 Clouds 5 1018 69 8000 0.45 104 23:20 14.01.2022
5839 Clouds 4 1017 69 10000 0.45 5 21:18 14.01.2022
5840 Clouds 5 1018 71 10000 0.45 306 20:25 14.01.2022
5841 Clouds 5 1018 71 10000 0.45 47 19:50 14.01.2022
5842 Clouds 5 1018 71 10000 2.24 224 18:38 14.01.2022
5843 Clouds 4 1018 69 10000 0.89 273 17:21 14.01.2022
5844 Clouds 5 1019 69 10000 0.89 273 16:40 14.01.2022
5845 Rain 6 1019 60 10000 0.45 336 14:50 14.01.2022
5846 Rain 6 1019 58 10000 0.45 335 14:25 14.01.2022
5847 Rain 6 1019 57 10000 0.45 278 12:47 14.01.2022
5848 Clear 6 1019 54 10000 0.45 313 11:51 14.01.2022
5849 Clear 6 1018 51 10000 0.89 312 10:24 14.01.2022
5850 Rain 7 1018 47 10000 0.45 314 08:52 14.01.2022
5851 Rain 6 1018 45 10000 0.45 325 07:29 14.01.2022
5852 Clear 1 1028 57 10000 0.45 20 01:43 14.01.2022
5853 Clear 1 1023 54 10000 0.89 58 23:39 13.01.2022
5854 Clear 1 1023 53 10000 0.89 104 21:45 13.01.2022
5855 Clear 1 1023 54 10000 0.45 79 21:27 13.01.2022
5856 Clear 1 1023 56 10000 0.45 50 19:44 13.01.2022
5857 Clear 1 1023 56 10000 0.45 50 19:22 13.01.2022
5858 Clear 1 1024 55 10000 0.45 84 18:33 13.01.2022
5859 Clear 2 1024 55 10000 0.45 70 16:43 13.01.2022
5860 Clear 2 1024 54 10000 0.45 54 15:38 13.01.2022
5861 Clear 2 1024 53 10000 0.45 54 14:50 13.01.2022
5862 Clear 3 1024 53 10000 0.89 150 12:54 13.01.2022
5863 Clear 5 1023 45 10000 0.89 111 10:25 13.01.2022
5864 Clear 5 1028 47 10000 2.68 20 09:20 13.01.2022
5865 Clear 5 1027 46 10000 1.34 352 08:27 13.01.2022
5866 Clear 5 1028 47 10000 2.24 311 07:24 13.01.2022
5867 Clear 5 1028 48 10000 1.34 257 06:38 13.01.2022
5868 Clouds 4 1028 51 8000 0.89 192 05:20 13.01.2022
5869 Haze 4 1023 59 3000 0.45 287 02:33 13.01.2022
5870 Mist 4 1021 65 3200 0.45 337 00:56 13.01.2022
5871 Clouds 4 1020 61 6000 0.45 286 23:49 12.01.2022
5872 Clouds 4 1020 61 6000 0.45 283 23:24 12.01.2022
5873 Clouds 3 1018 58 7000 1.34 330 21:58 12.01.2022
5874 Clear 3 1018 56 10000 1.34 52 21:23 12.01.2022
5875 Clear 3 1018 55 10000 0.45 354 20:57 12.01.2022
5876 Clear 3 1018 55 10000 0.89 11 19:55 12.01.2022
5877 Clear 3 1018 51 10000 0.45 23 18:43 12.01.2022
5878 Clear 3 1018 50 10000 2.24 268 17:38 12.01.2022
5879 Clear 3 1019 47 10000 0.45 2 16:33 12.01.2022
5880 Clear 4 1018 47 10000 0.45 326 14:48 12.01.2022
5881 Clear 5 1019 49 10000 0.45 289 13:24 12.01.2022
5882 Clear 6 1018 47 10000 2 230 11:59 12.01.2022
5883 Clear 8 1022 40 10000 0.89 15 08:43 12.01.2022
5884 Clear 8 1022 42 10000 0.89 15 07:50 12.01.2022
5885 Clear 8 1023 42 10000 0.89 346 07:31 12.01.2022
5886 Clear 1 1022 58 10000 0.45 64 23:53 11.01.2022
5887 Clear 1 1021 58 10000 0 0 22:56 11.01.2022
5888 Clear 1 1021 57 10000 0 0 22:23 11.01.2022
5889 Clear 1 1021 53 10000 1.79 6 20:56 11.01.2022
5890 Clear 1 1021 52 10000 0.45 79 20:20 11.01.2022
5891 Clear 2 1022 52 10000 0.45 113 18:32 11.01.2022
5892 Clear 2 1022 51 10000 0.45 104 17:35 11.01.2022
5893 Clear 2 1022 51 10000 0.89 106 16:38 11.01.2022
5894 Clear 2 1023 52 10000 1.34 64 15:47 11.01.2022
5895 Clear 3 1023 52 10000 0.89 117 14:42 11.01.2022
5896 Clear 3 1023 52 10000 0.89 117 13:56 11.01.2022
5897 Clear 3 1023 52 10000 0.89 80 13:36 11.01.2022
5898 Clear 3 1023 51 10000 0.89 80 12:48 11.01.2022
5899 Clear 4 1023 48 10000 0.45 135 11:45 11.01.2022
5900 Clear 5 1027 45 10000 1.34 98 09:39 11.01.2022
5901 Clear 5 1026 44 10000 1.79 190 07:18 11.01.2022
5902 Clouds 4 1022 62 7000 0.45 299 00:33 11.01.2022
5903 Clouds 4 1021 62 7000 0.45 310 23:44 10.01.2022
5904 Clouds 4 1021 64 7000 0.45 306 23:24 10.01.2022
5905 Mist 5 1020 66 5000 0.45 309 22:19 10.01.2022
5906 Mist 5 1020 66 5000 0.45 309 22:19 10.01.2022
5907 Mist 5 1020 67 4000 0.45 311 21:54 10.01.2022
5908 Mist 5 1020 69 3500 0.45 324 21:21 10.01.2022
5909 Mist 5 1020 67 3500 0.89 83 20:57 10.01.2022
5910 Mist 5 1019 68 3500 0.45 298 20:28 10.01.2022
5911 Mist 5 1019 69 3500 0.89 9 19:44 10.01.2022
5912 Mist 5 1019 69 3500 0.45 302 19:21 10.01.2022
5913 Mist 5 1019 69 3500 0.45 302 19:21 10.01.2022
5914 Mist 5 1019 69 3500 0.45 333 18:49 10.01.2022
5915 Mist 6 1018 70 3500 0.45 303 17:41 10.01.2022
5916 Mist 6 1019 68 3500 0.45 307 16:42 10.01.2022
5917 Mist 6 1019 65 3500 0.45 309 15:49 10.01.2022
5918 Haze 7 1018 64 3500 0.89 313 14:30 10.01.2022
5919 Haze 7 1017 60 4000 0.45 169 11:58 10.01.2022
5920 Haze 7 1016 59 4000 0.89 24 11:25 10.01.2022
5921 Haze 8 1015 59 3500 0.45 214 09:50 10.01.2022
5922 Haze 8 1015 58 3500 0.89 324 07:18 10.01.2022
5923 Haze 8 1016 58 3500 0.89 259 05:49 10.01.2022
5924 Haze 8 1016 58 3500 0.89 259 05:49 10.01.2022
5925 Haze 7 1017 64 2800 0.45 225 01:30 10.01.2022
5926 Mist 6 1017 66 3500 0.45 89 00:25 10.01.2022
5927 Mist 6 1017 67 4000 2 10 23:33 09.01.2022
5928 Mist 6 1017 65 4000 1.34 14 22:37 09.01.2022
5929 Mist 6 1017 65 4000 0.45 335 21:46 09.01.2022
5930 Mist 6 1017 65 4000 0.89 332 21:23 09.01.2022
5931 Mist 6 1017 65 4000 0.89 107 20:51 09.01.2022
5932 Mist 6 1017 64 4000 0.89 107 20:33 09.01.2022
5933 Mist 7 1017 65 4000 0.45 108 19:44 09.01.2022
5934 Mist 7 1017 65 4000 0.45 108 19:23 09.01.2022
5935 Haze 7 1018 64 4000 0.45 108 18:52 09.01.2022
5936 Haze 7 1018 64 4000 2 30 18:33 09.01.2022
5937 Haze 7 1018 64 4200 0.45 180 17:31 09.01.2022
5938 Haze 7 1018 63 4500 0.45 278 16:53 09.01.2022
5939 Haze 7 1018 62 5000 0.45 309 15:57 09.01.2022
5940 Haze 7 1019 62 5000 3 350 15:35 09.01.2022
5941 Clouds 7 1019 62 6000 0.45 31 14:40 09.01.2022
5942 Clouds 7 1019 60 6000 0.45 31 13:50 09.01.2022
5943 Clouds 7 1018 60 6000 2 350 12:50 09.01.2022
5944 Clouds 7 1018 60 6000 0.45 110 11:51 09.01.2022
5945 Clouds 7 1017 60 6000 0.89 300 10:52 09.01.2022
5946 Clouds 7 1017 59 6000 0.45 135 09:42 09.01.2022
5947 Clouds 7 1017 61 6000 0.45 5 08:34 09.01.2022
5948 Rain 8 1019 57 10000 0.89 89 03:55 09.01.2022
5949 Rain 7 1019 60 10000 0.45 8 01:23 09.01.2022
5950 Rain 6 1019 60 10000 0.45 270 23:39 08.01.2022
5951 Rain 6 1018 60 10000 0.89 119 22:59 08.01.2022
5952 Rain 6 1018 60 10000 0.89 113 22:19 08.01.2022
5953 Rain 6 1018 60 10000 0.89 92 21:25 08.01.2022
5954 Rain 6 1019 60 10000 1.34 104 20:41 08.01.2022
5955 Clear 6 1019 60 10000 1.34 104 20:19 08.01.2022
5956 Clear 6 1019 59 10000 0.89 118 18:34 08.01.2022
5957 Rain 7 1019 60 10000 0.89 102 17:22 08.01.2022
5958 Clear 7 1020 60 10000 0.89 90 15:51 08.01.2022
5959 Clear 7 1020 61 10000 0.45 270 14:43 08.01.2022
5960 Clear 7 1021 59 10000 0.89 235 13:25 08.01.2022
5961 Rain 8 1020 57 10000 0.45 123 11:25 08.01.2022
5962 Clear 8 1019 56 10000 0.89 173 10:25 08.01.2022
5963 Clear 8 1019 55 10000 0.89 113 09:47 08.01.2022
5964 Clear 8 1020 53 10000 1.34 233 07:21 08.01.2022
5965 Clear 8 1023 59 10000 0.45 95 02:45 08.01.2022
5966 Clear 7 1022 65 10000 0.45 88 00:41 08.01.2022
5967 Clear 7 1022 67 10000 0.45 69 22:47 07.01.2022
5968 Clouds 6 1022 67 10000 1.79 11 20:58 07.01.2022
5969 Clouds 6 1022 69 10000 1.79 12 20:19 07.01.2022
5970 Clear 5 1023 68 10000 1.79 24 19:18 07.01.2022
5971 Clear 6 1023 67 10000 1.79 26 18:44 07.01.2022
5972 Clear 7 1023 66 10000 0.89 100 17:26 07.01.2022
5973 Clear 7 1023 66 10000 1.79 67 16:30 07.01.2022
5974 Clear 7 1024 62 10000 0.89 114 13:54 07.01.2022
5975 Clear 7 1024 61 10000 1.79 89 13:22 07.01.2022
5976 Clear 8 1024 61 10000 0.45 270 12:49 07.01.2022
5977 Clear 10 1022 52 10000 0.45 225 09:37 07.01.2022
5978 Clear 8 1031 58 10000 0.89 101 02:55 07.01.2022
5979 Clear 7 1031 61 10000 0.45 90 01:54 07.01.2022
5980 Clear 7 1026 65 10000 3 360 01:27 07.01.2022
5981 Clear 6 1025 65 10000 3 350 00:58 07.01.2022
5982 Clear 5 1025 65 10000 0.45 90 22:54 06.01.2022
5983 Clear 6 1025 64 10000 0.45 180 21:28 06.01.2022
5984 Clear 6 1026 62 10000 0.89 6 20:21 06.01.2022
5985 Clear 6 1026 61 10000 2 350 19:44 06.01.2022
5986 Clear 6 1026 61 10000 0.45 276 17:54 06.01.2022
5987 Clouds 6 1027 61 10000 0.45 269 17:34 06.01.2022
5988 Clouds 6 1027 60 10000 0.89 235 16:42 06.01.2022
5989 Clouds 7 1026 61 10000 0.45 180 15:46 06.01.2022
5990 Clouds 7 1026 60 10000 0.89 19 15:25 06.01.2022
5991 Clouds 7 1026 59 10000 0.45 68 14:43 06.01.2022
5992 Clouds 7 1026 58 10000 0.45 68 14:18 06.01.2022
5993 Clouds 7 1025 58 10000 1.34 78 12:43 06.01.2022
5994 Clouds 7 1025 58 10000 0.89 80 11:42 06.01.2022
5995 Clouds 7 1025 58 10000 0.89 80 11:42 06.01.2022
5996 Clouds 7 1025 57 10000 0.89 80 11:22 06.01.2022
5997 Clouds 8 1024 54 10000 0.89 91 08:51 06.01.2022
5998 Clouds 7 1024 64 10000 1.34 1 00:43 06.01.2022
5999 Clouds 7 1024 67 10000 0.45 278 23:36 05.01.2022
6000 Clouds 7 1023 68 10000 0.45 49 22:54 05.01.2022
6001 Clouds 7 1023 68 10000 0.45 7 22:30 05.01.2022
6002 Clouds 7 1023 69 10000 0.45 7 21:47 05.01.2022
6003 Clouds 7 1022 70 10000 0.89 73 20:50 05.01.2022
6004 Clouds 7 1022 73 10000 0.45 94 19:59 05.01.2022
6005 Clouds 7 1022 78 10000 0.89 85 18:38 05.01.2022
6006 Clouds 7 1021 77 10000 0.45 316 17:23 05.01.2022
6007 Clouds 7 1021 78 10000 0.45 307 16:38 05.01.2022
6008 Clouds 7 1020 80 10000 0.89 111 15:20 05.01.2022
6009 Clouds 7 1019 79 10000 1.34 109 13:51 05.01.2022
6010 Clouds 7 1019 79 10000 0.89 91 12:51 05.01.2022
6011 Rain 9 1016 80 10000 1.79 93 09:30 05.01.2022
6012 Rain 9 1014 80 8000 1.34 104 07:42 05.01.2022
6013 Rain 10 1015 79 7000 1.79 64 04:58 05.01.2022
6014 Clouds 11 1014 68 10000 0.45 270 00:44 05.01.2022
6015 Clouds 11 1015 68 10000 0.89 21 23:27 04.01.2022
6016 Clouds 11 1015 68 10000 0.89 21 22:40 04.01.2022
6017 Clouds 11 1015 68 10000 0.45 308 21:18 04.01.2022
6018 Clouds 11 1016 69 10000 1.34 53 19:19 04.01.2022
6019 Rain 11 1017 68 10000 1.34 34 17:39 04.01.2022
6020 Clouds 11 1018 68 10000 1.34 64 16:41 04.01.2022
6021 Clouds 11 1018 68 10000 0.89 63 16:22 04.01.2022
6022 Clouds 11 1019 69 10000 1.34 70 14:52 04.01.2022
6023 Clouds 10 1019 70 10000 1.79 77 14:34 04.01.2022
6024 Rain 11 1019 70 10000 1.79 72 13:26 04.01.2022
6025 Clouds 11 1019 66 10000 2.24 77 10:40 04.01.2022
6026 Clouds 12 1019 65 10000 2.24 60 09:20 04.01.2022
6027 Clouds 12 1018 63 10000 1.34 94 08:25 04.01.2022
6028 Mist 9 1021 75 4000 0.45 92 01:51 04.01.2022
6029 Mist 7 1021 79 4000 0.89 102 00:40 04.01.2022
6030 Mist 6 1020 76 4000 1.79 63 22:51 03.01.2022
6031 Clear 6 1020 75 6000 2.24 59 21:42 03.01.2022
6032 Clear 6 1020 74 6000 2.24 59 21:24 03.01.2022
6033 Clear 7 1020 71 8000 1.34 103 19:47 03.01.2022
6034 Clear 7 1020 72 10000 1.34 112 18:33 03.01.2022
6035 Clear 7 1020 69 10000 1.79 107 17:40 03.01.2022
6036 Clear 7 1020 69 10000 1.79 107 17:40 03.01.2022
6037 Clear 8 1020 69 10000 1.79 117 16:57 03.01.2022
6038 Clear 9 1020 65 10000 0.45 78 14:55 03.01.2022
6039 Clear 8 1020 66 10000 0.45 54 14:29 03.01.2022
6040 Clear 10 1020 61 10000 0.45 67 12:35 03.01.2022
6041 Clear 11 1019 59 10000 2 350 11:33 03.01.2022
6042 Clear 12 1023 55 10000 0.45 294 09:49 03.01.2022
6043 Clear 13 1023 52 10000 0.89 244 08:46 03.01.2022
6044 Clear 13 1024 52 10000 0.89 85 06:47 03.01.2022
6045 Mist 5 1020 75 4000 0.89 62 23:47 02.01.2022
6046 Mist 5 1020 73 4000 0.89 62 23:18 02.01.2022
6047 Fog 5 1020 73 4000 0.45 45 22:42 02.01.2022
6048 Mist 5 1020 73 5000 0 0 21:32 02.01.2022
6049 Mist 5 1021 73 5000 1.34 116 20:31 02.01.2022
6050 Mist 5 1021 73 5000 1.34 116 20:30 02.01.2022
6051 Mist 5 1021 73 5000 1.34 116 20:30 02.01.2022
6052 Mist 5 1021 73 5000 1.34 116 20:30 02.01.2022
6053 Clear 6 1021 73 6000 1 10 19:31 02.01.2022
6054 Clouds 6 1021 72 7000 1 10 18:56 02.01.2022
6055 Clouds 6 1021 70 7000 1.34 55 17:58 02.01.2022
6056 Clouds 7 1021 70 7000 1 0 17:39 02.01.2022
6057 Clouds 7 1022 70 7000 0.89 81 17:21 02.01.2022
6058 Clouds 7 1022 68 8000 0.89 114 16:28 02.01.2022
6059 Clear 8 1023 66 10000 1.34 92 14:44 02.01.2022
6060 Clear 8 1023 63 10000 3 50 13:37 02.01.2022
6061 Clear 9 1023 61 10000 0.45 60 12:32 02.01.2022
6062 Clear 9 1023 58 10000 0.89 96 11:49 02.01.2022
6063 Clear 10 1022 54 10000 0.89 84 10:53 02.01.2022
6064 Clear 11 1022 49 10000 0.89 84 09:56 02.01.2022
6065 Clouds 11 1027 48 8000 0.89 50 07:34 02.01.2022
6066 Haze 7 1030 59 5000 1.79 38 02:56 02.01.2022
6067 Clear 5 1028 63 8000 0.45 195 23:42 01.01.2022
6068 Clear 5 1028 63 8000 0.45 195 23:24 01.01.2022
6069 Clear 5 1027 64 8000 0.45 342 22:25 01.01.2022
6070 Clear 5 1027 64 8000 0.45 135 21:45 01.01.2022
6071 Clear 5 1027 63 8000 2.24 299 21:21 01.01.2022
6072 Clear 6 1027 61 10000 2 300 20:20 01.01.2022
6073 Clear 6 1027 61 10000 0.45 330 19:33 01.01.2022
6074 Clear 7 1027 56 10000 0.45 284 18:29 01.01.2022
6075 Clear 8 1027 54 10000 0.45 95 16:55 01.01.2022
6076 Clear 8 1027 57 10000 0.45 303 16:34 01.01.2022
6077 Clear 8 1027 57 10000 0.45 348 15:33 01.01.2022
6078 Clear 8 1027 60 10000 0.45 291 14:22 01.01.2022
6079 Clear 9 1027 58 10000 0.45 99 13:28 01.01.2022
6080 Clear 9 1026 58 10000 0.45 99 11:59 01.01.2022
6081 Clear 9 1026 58 10000 0.45 8 11:24 01.01.2022
6082 Clear 9 1026 58 10000 0.45 8 10:43 01.01.2022
6083 Clear 9 1026 56 10000 0.89 1 09:47 01.01.2022
6084 Clear 10 1026 55 10000 0.89 7 08:27 01.01.2022
6085 Clear 10 1026 55 10000 0.89 7 07:56 01.01.2022
6086 Clear 10 1026 55 10000 0.89 18 07:37 01.01.2022
6087 Clear 10 1026 53 10000 0.45 274 06:42 01.01.2022
6088 Clear 10 1028 53 10000 1.34 18 04:38 01.01.2022
6089 Clear 9 1029 52 10000 0.89 29 03:38 01.01.2022
6090 Clear 6 1029 51 10000 3 110 23:52 31.12.2021
6091 Clear 6 1029 49 10000 1 0 21:55 31.12.2021
6092 Clear 6 1030 49 10000 0.45 0 20:48 31.12.2021
6093 Clear 6 1030 47 10000 0.89 109 19:31 31.12.2021
6094 Clear 7 1031 53 10000 3 120 18:46 31.12.2021
6095 Clear 6 1031 48 10000 0.45 81 17:45 31.12.2021
6096 Clear 6 1031 48 10000 0.45 81 17:19 31.12.2021
6097 Clear 6 1031 46 10000 0.89 110 16:46 31.12.2021
6098 Clear 6 1032 46 10000 0.89 110 15:59 31.12.2021
6099 Clear 6 1032 46 10000 0.89 110 15:40 31.12.2021
6100 Clear 6 1032 46 10000 1.34 23 15:19 31.12.2021
6101 Clear 6 1032 47 10000 1.34 52 14:33 31.12.2021
6102 Clear 6 1032 46 10000 1.34 52 13:44 31.12.2021
6103 Clear 7 1032 47 10000 0.45 270 12:49 31.12.2021
6104 Clear 7 1032 47 10000 1.34 63 12:19 31.12.2021
6105 Clear 7 1032 44 10000 0.89 98 11:33 31.12.2021
6106 Clear 8 1031 44 10000 0.89 98 10:41 31.12.2021
6107 Clear 8 1031 44 10000 1.34 32 10:23 31.12.2021
6108 Clear 9 1031 42 10000 1.34 77 09:33 31.12.2021
6109 Clear 9 1031 41 10000 1.34 77 08:49 31.12.2021
6110 Clear 9 1031 43 10000 0.89 94 07:49 31.12.2021
6111 Clear 2 1034 58 8000 1.79 18 00:47 31.12.2021
6112 Clear 2 1033 61 10000 1.79 6 22:50 30.12.2021
6113 Clear 2 1032 62 10000 1.79 7 22:26 30.12.2021
6114 Clear 2 1032 60 10000 1.79 356 21:37 30.12.2021
6115 Clear 2 1032 61 10000 1.34 354 20:49 30.12.2021
6116 Clear 2 1032 61 10000 1.34 354 20:28 30.12.2021
6117 Clear 2 1032 63 10000 1.34 353 19:48 30.12.2021
6118 Clear 3 1032 60 10000 1.34 353 19:18 30.12.2021
6119 Clear 3 1032 59 10000 0.45 260 18:21 30.12.2021
6120 Clear 4 1032 54 10000 1 360 16:37 30.12.2021
6121 Clear 5 1032 52 10000 1 20 15:53 30.12.2021
6122 Clear 5 1032 50 10000 0.45 260 14:49 30.12.2021
6123 Clear 5 1032 48 10000 3 330 14:30 30.12.2021
6124 Clear 6 1032 45 10000 2 340 13:24 30.12.2021
6125 Clear 7 1031 43 10000 0.45 186 11:35 30.12.2021
6126 Clear 8 1030 40 10000 0.89 348 10:27 30.12.2021
6127 Clear 9 1029 38 10000 1.79 47 09:27 30.12.2021
6128 Clear 9 1029 38 10000 0.89 346 06:55 30.12.2021
6129 Clear 8 1031 43 8000 0.89 253 04:25 30.12.2021
6130 Clear 7 1027 43 8000 0.45 351 03:40 30.12.2021
6131 Clear 5 1023 52 7000 3 280 01:56 30.12.2021
6132 Clear 3 1025 56 10000 0.45 287 23:36 29.12.2021
6133 Clear 3 1024 55 10000 1 0 22:32 29.12.2021
6134 Clear 3 1024 53 10000 0 0 21:54 29.12.2021
6135 Clear 3 1024 53 10000 0.45 255 20:56 29.12.2021
6136 Clear 3 1024 52 10000 0 0 20:18 29.12.2021
6137 Clear 4 1024 49 10000 1 0 19:30 29.12.2021
6138 Clear 5 1023 45 10000 0.45 281 18:30 29.12.2021
6139 Clear 5 1023 45 10000 0.89 251 17:30 29.12.2021
6140 Clear 6 1024 44 10000 0.89 251 16:58 29.12.2021
6141 Clear 6 1024 45 10000 0.45 219 16:19 29.12.2021
6142 Clear 7 1023 42 10000 0.45 135 14:47 29.12.2021
6143 Clear 8 1023 41 10000 3 310 12:50 29.12.2021
6144 Clear 8 1023 41 10000 3 290 12:27 29.12.2021
6145 Clear 9 1021 40 10000 1.34 316 10:38 29.12.2021
6146 Clear 10 1019 35 10000 1.34 311 08:37 29.12.2021
6147 Clear 11 1019 39 10000 1.34 325 06:49 29.12.2021
6148 Clear 10 1020 38 10000 1.34 316 06:28 29.12.2021
6149 Clear 10 1020 39 10000 2.24 292 05:50 29.12.2021
6150 Clear 8 1022 39 10000 1.34 313 03:46 29.12.2021
6151 Clear 5 1021 54 10000 0.45 354 00:28 29.12.2021
6152 Clear 4 1021 56 10000 0.45 350 23:56 28.12.2021
6153 Clear 4 1020 57 10000 0.89 16 22:50 28.12.2021
6154 Clear 4 1020 56 10000 0.45 359 22:24 28.12.2021
6155 Clear 4 1020 55 10000 0.45 23 21:53 28.12.2021
6156 Clear 4 1020 53 10000 0.89 15 20:49 28.12.2021
6157 Clear 4 1020 51 10000 0.45 43 19:44 28.12.2021
6158 Clear 4 1020 51 10000 0.45 330 18:44 28.12.2021
6159 Clear 4 1020 51 10000 0.45 330 18:23 28.12.2021
6160 Clear 4 1021 50 10000 2 210 16:35 28.12.2021
6161 Clear 4 1021 49 10000 2 230 15:52 28.12.2021
6162 Clear 4 1021 50 10000 2 240 15:25 28.12.2021
6163 Clear 4 1022 51 10000 1 260 14:52 28.12.2021
6164 Clear 4 1022 55 10000 2.24 229 14:21 28.12.2021
6165 Clear 4 1022 54 10000 2.24 208 13:54 28.12.2021
6166 Clear 5 1022 54 10000 0.45 45 13:31 28.12.2021
6167 Clear 5 1021 52 10000 0.45 90 12:55 28.12.2021
6168 Clear 5 1021 52 10000 0.45 79 11:51 28.12.2021
6169 Clear 6 1021 51 10000 0.89 286 09:30 28.12.2021
6170 Clear 6 1022 49 10000 0.45 39 07:31 28.12.2021
6171 Clear 4 1026 42 10000 0.45 30 02:22 28.12.2021
6172 Clear 1 1023 51 10000 2 10 23:26 27.12.2021
6173 Clear 0 1026 47 10000 0.45 81 22:20 27.12.2021
6174 Clear 0 1026 41 10000 0.45 89 21:29 27.12.2021
6175 Clear 1 1027 38 10000 0 0 20:24 27.12.2021
6176 Clear 1 1027 38 10000 0 0 20:24 27.12.2021
6177 Clear 0 1027 43 10000 1 180 19:45 27.12.2021
6178 Clear 1 1027 44 10000 1 240 18:54 27.12.2021
6179 Clear 1 1028 41 10000 1 200 17:50 27.12.2021
6180 Clear 1 1028 40 10000 1 170 17:18 27.12.2021
6181 Clear 1 1029 38 10000 0.89 21 15:53 27.12.2021
6182 Clear 2 1029 34 10000 0.45 45 14:34 27.12.2021
6183 Rain 2 1029 34 10000 0.45 253 13:58 27.12.2021
6184 Clear 2 1029 32 10000 0.89 228 12:47 27.12.2021
6185 Clear 3 1028 31 10000 0.45 48 10:36 27.12.2021
6186 Clear 3 1028 31 10000 0.45 48 10:18 27.12.2021
6187 Clear 4 1034 33 10000 1.34 17 08:39 27.12.2021
6188 Clear 3 1034 34 10000 1.34 81 07:32 27.12.2021
6189 Clear -1 1038 36 10000 0.89 264 02:26 27.12.2021
6190 Clear -2 1032 34 10000 0.89 261 00:23 27.12.2021
6191 Clear -2 1032 34 10000 0.45 333 23:41 26.12.2021
6192 Clear -2 1032 33 10000 0.45 313 22:47 26.12.2021
6193 Clear -2 1032 33 10000 0.89 144 21:30 26.12.2021
6194 Clear -2 1032 35 10000 0.45 325 19:52 26.12.2021
6195 Clear -2 1033 36 10000 0.89 80 18:25 26.12.2021
6196 Clear -2 1033 34 10000 0.45 307 17:44 26.12.2021
6197 Clear -1 1033 33 10000 0.45 321 14:38 26.12.2021
6198 Clear 0 1034 32 10000 0.89 19 13:43 26.12.2021
6199 Clear 0 1034 33 10000 0.45 284 13:21 26.12.2021
6200 Clear 0 1033 34 10000 0.45 281 12:34 26.12.2021
6201 Clear 1 1033 33 10000 0.45 314 10:48 26.12.2021
6202 Clear 2 1032 32 10000 0.45 314 09:29 26.12.2021
6203 Clear 1 1037 34 10000 1.79 72 08:44 26.12.2021
6204 Clear 2 1037 34 10000 1.79 72 08:23 26.12.2021
6205 Clear 0 1034 52 10000 1.34 71 01:36 26.12.2021
6206 Clear -1 1034 55 10000 0.45 300 00:20 26.12.2021
6207 Clear -1 1034 55 10000 0.45 305 23:28 25.12.2021
6208 Clear -1 1034 55 10000 0.45 319 22:29 25.12.2021
6209 Clear -1 1034 54 10000 1.79 30 21:25 25.12.2021
6210 Clear -1 1033 56 10000 0.45 312 19:28 25.12.2021
6211 Clear -1 1033 55 10000 0.45 320 18:57 25.12.2021
6212 Clear 0 1033 55 10000 0.45 323 18:25 25.12.2021
6213 Clear 0 1033 55 10000 0.45 294 16:46 25.12.2021
6214 Clouds 1 1033 54 10000 0.45 311 15:26 25.12.2021
6215 Clouds 2 1033 56 10000 0.45 334 13:43 25.12.2021
6216 Clouds 3 1032 50 10000 1.34 70 12:18 25.12.2021
6217 Clouds 3 1030 52 10000 1.79 348 10:32 25.12.2021
6218 Clouds 3 1030 53 10000 1.79 348 09:48 25.12.2021
6219 Clouds 4 1029 53 10000 1.34 271 05:39 25.12.2021
6220 Clouds 4 1029 58 10000 1.34 356 01:31 25.12.2021
6221 Clouds 4 1028 60 10000 0.89 64 23:55 24.12.2021
6222 Clouds 4 1027 62 10000 1.34 54 21:46 24.12.2021
6223 Clouds 5 1026 64 8000 0.45 8 19:26 24.12.2021
6224 Rain 6 1025 64 8000 0.45 282 18:34 24.12.2021
6225 Clouds 6 1025 71 7000 1.34 56 16:40 24.12.2021
6226 Clouds 7 1024 70 8000 0.45 265 15:49 24.12.2021
6227 Clouds 7 1024 69 10000 0.45 297 15:20 24.12.2021
6228 Clouds 7 1023 72 10000 0.45 270 14:31 24.12.2021
6229 Clouds 7 1023 74 10000 0.45 278 13:45 24.12.2021
6230 Rain 8 1022 74 10000 0.45 288 12:55 24.12.2021
6231 Clouds 8 1022 74 10000 0.45 295 12:34 24.12.2021
6232 Clouds 9 1020 77 6000 0.45 269 11:42 24.12.2021
6233 Rain 9 1020 77 6000 0.89 322 11:19 24.12.2021
6234 Rain 10 1019 73 6000 0.45 303 10:33 24.12.2021
6235 Clouds 10 1017 75 7000 0.45 269 08:38 24.12.2021
6236 Mist 10 1016 78 5000 0.89 41 07:58 24.12.2021
6237 Clouds 13 1015 72 10000 1.34 86 06:18 24.12.2021
6238 Clear 13 1013 75 10000 0.89 64 00:20 24.12.2021
6239 Clouds 13 1012 75 10000 1.34 69 23:33 23.12.2021
6240 Clear 13 1012 73 10000 1.34 72 22:50 23.12.2021
6241 Clouds 13 1012 71 10000 0 0 22:22 23.12.2021
6242 Clouds 13 1012 71 10000 2 30 21:39 23.12.2021
6243 Clouds 13 1012 71 10000 1 0 20:27 23.12.2021
6244 Clear 13 1012 71 10000 0.45 89 19:28 23.12.2021
6245 Clear 13 1013 71 10000 0.45 36 17:58 23.12.2021
6246 Clear 13 1013 71 10000 3.13 96 17:18 23.12.2021
6247 Clear 12 1013 70 10000 0.45 30 16:26 23.12.2021
6248 Clear 12 1014 70 10000 0.45 55 15:32 23.12.2021
6249 Clear 12 1014 69 10000 0.45 55 14:58 23.12.2021
6250 Clear 12 1013 69 10000 0.45 42 14:38 23.12.2021
6251 Clear 12 1014 67 10000 0.45 61 13:25 23.12.2021
6252 Clear 13 1014 63 10000 0.89 49 11:20 23.12.2021
6253 Clear 15 1014 55 10000 1.34 11 09:53 23.12.2021
6254 Clear 15 1019 57 10000 1.79 29 09:33 23.12.2021
6255 Clear 16 1019 54 10000 1.34 15 08:25 23.12.2021
6256 Clear 15 1021 57 10000 1.79 30 05:23 23.12.2021
6257 Clear 8 1017 75 6000 1.79 77 00:34 23.12.2021
6258 Fog 8 1017 79 5000 1.79 75 22:50 22.12.2021
6259 Clear 8 1017 79 8000 1.79 75 21:59 22.12.2021
6260 Clear 8 1017 79 7000 0.45 98 21:30 22.12.2021
6261 Clear 8 1017 79 7000 0.45 98 20:58 22.12.2021
6262 Clear 8 1017 79 7000 3 360 20:40 22.12.2021
6263 Clear 8 1017 77 7000 1.79 66 19:42 22.12.2021
6264 Clear 8 1017 76 7000 1.34 61 18:25 22.12.2021
6265 Clear 9 1018 75 10000 1.79 65 17:38 22.12.2021
6266 Clear 10 1018 73 8000 0.89 96 15:50 22.12.2021
6267 Clear 10 1018 72 7000 0.45 99 13:57 22.12.2021
6268 Clear 11 1017 70 7000 0.89 66 12:47 22.12.2021
6269 Clear 12 1017 68 7000 1.34 45 11:37 22.12.2021
6270 Clear 14 1021 61 8000 0.45 102 09:43 22.12.2021
6271 Clear 15 1020 58 6000 0.89 77 07:55 22.12.2021
6272 Haze 14 1021 57 4500 0.45 225 05:51 22.12.2021
6273 Haze 14 1021 59 4500 0.45 77 05:31 22.12.2021
6274 Haze 14 1022 63 4000 0.45 104 04:55 22.12.2021
6275 Haze 13 1022 66 3500 0.45 104 04:31 22.12.2021
6276 Mist 11 1022 72 3000 0.45 108 03:34 22.12.2021
6277 Mist 11 1014 86 2500 3 360 01:37 22.12.2021
6278 Mist 8 1015 76 5000 1.79 12 23:33 21.12.2021
6279 Clear 8 1015 72 6000 1.79 14 22:29 21.12.2021
6280 Clear 8 1015 71 6000 1 350 21:51 21.12.2021
6281 Rain 8 1015 70 6000 1.79 18 21:24 21.12.2021
6282 Clear 8 1015 65 6000 1.79 23 20:23 21.12.2021
6283 Rain 8 1015 64 7000 1.34 32 19:46 21.12.2021
6284 Rain 8 1015 63 7000 1.34 34 19:19 21.12.2021
6285 Clear 8 1015 63 8000 1.34 41 18:22 21.12.2021
6286 Clear 9 1015 64 8000 2 10 17:47 21.12.2021
6287 Rain 9 1015 60 8000 0.45 0 16:39 21.12.2021
6288 Rain 10 1015 57 8000 1.79 47 15:29 21.12.2021
6289 Clear 11 1014 54 8000 1.34 33 13:51 21.12.2021
6290 Clear 11 1014 52 8000 1.34 34 13:31 21.12.2021
6291 Clear 13 1013 49 8000 1.34 18 11:57 21.12.2021
6292 Clear 15 1013 46 8000 0.45 318 10:25 21.12.2021
6293 Clear 15 1013 44 8000 0.45 318 09:33 21.12.2021
6294 Clear 16 1012 43 8000 0.45 246 08:28 21.12.2021
6295 Clear 17 1012 41 8000 0.89 327 07:32 21.12.2021
6296 Clouds 16 1018 47 8000 0.89 327 06:50 21.12.2021
6297 Clouds 12 1012 53 7000 0.45 40 03:18 21.12.2021
6298 Clear 10 1013 61 10000 0.89 22 23:59 20.12.2021
6299 Rain 10 1013 59 10000 0.89 21 23:32 20.12.2021
6300 Clear 9 1013 60 10000 0.45 1 22:33 20.12.2021
6301 Rain 10 1012 60 10000 0.45 42 21:48 20.12.2021
6302 Rain 10 1013 60 10000 1.79 244 21:23 20.12.2021
6303 Clear 10 1013 61 10000 1.79 245 20:45 20.12.2021
6304 Clear 10 1013 57 10000 0.45 44 19:54 20.12.2021
6305 Clear 10 1010 63 10000 1 170 19:31 20.12.2021
6306 Clear 10 1011 61 10000 0.45 43 18:54 20.12.2021
6307 Rain 10 1013 56 10000 0.45 31 17:53 20.12.2021
6308 Clear 10 1014 53 10000 0.45 2 17:25 20.12.2021
6309 Clear 10 1014 50 10000 2.24 214 16:40 20.12.2021
6310 Clear 10 1014 49 10000 1.79 204 15:51 20.12.2021
6311 Clear 10 1014 47 10000 0.45 10 14:51 20.12.2021
6312 Rain 11 1014 43 10000 0.45 314 12:53 20.12.2021
6313 Clear 12 1014 44 10000 3 180 11:19 20.12.2021
6314 Clear 14 1013 41 10000 0.89 276 09:47 20.12.2021
6315 Clear 14 1013 39 10000 0.89 276 09:28 20.12.2021
6316 Clear 15 1013 36 10000 0.45 40 08:41 20.12.2021
6317 Clear 16 1013 36 10000 0.45 34 07:49 20.12.2021
6318 Clear 15 1018 43 10000 0.89 328 07:29 20.12.2021
6319 Clear 13 1017 43 10000 0.45 8 03:59 20.12.2021
6320 Clear 6 1017 59 10000 0.45 343 23:58 19.12.2021
6321 Clear 6 1017 58 10000 0.45 321 22:45 19.12.2021
6322 Clear 6 1017 56 10000 0.45 314 21:50 19.12.2021
6323 Clear 6 1017 56 10000 0.45 314 21:29 19.12.2021
6324 Clear 6 1017 52 10000 0.45 314 20:30 19.12.2021
6325 Clear 7 1017 50 10000 0.45 45 19:46 19.12.2021
6326 Clear 7 1018 48 10000 0.45 314 18:58 19.12.2021
6327 Clear 7 1018 47 10000 1.79 186 18:27 19.12.2021
6328 Clear 7 1018 49 10000 0.45 319 17:49 19.12.2021
6329 Clear 7 1019 48 10000 2.24 191 17:18 19.12.2021
6330 Clear 7 1019 48 10000 0.45 22 16:24 19.12.2021
6331 Clear 7 1019 44 10000 0.45 50 15:28 19.12.2021
6332 Clear 7 1019 44 10000 1.34 227 14:50 19.12.2021
6333 Clear 8 1019 39 10000 0.45 3 13:46 19.12.2021
6334 Clear 8 1019 38 10000 1.34 231 13:21 19.12.2021
6335 Clear 8 1019 38 10000 1.34 236 12:33 19.12.2021
6336 Clear 9 1020 35 10000 0.45 180 11:40 19.12.2021
6337 Clear 9 1019 34 10000 0.45 23 10:52 19.12.2021
6338 Clear 10 1019 34 10000 0.45 43 10:23 19.12.2021
6339 Clear 11 1020 32 10000 0.89 26 09:20 19.12.2021
6340 Clear 12 1020 31 10000 0.89 342 07:35 19.12.2021
6341 Clear 7 1024 50 10000 0.45 357 02:35 19.12.2021
6342 Clear 3 1020 68 10000 0.45 20 00:55 19.12.2021
6343 Clear 3 1023 54 10000 0.45 347 23:31 18.12.2021
6344 Clear 3 1023 53 10000 0.45 358 22:30 18.12.2021
6345 Clear 3 1023 54 10000 2.24 287 21:51 18.12.2021
6346 Clear 3 1023 54 10000 1 220 21:30 18.12.2021
6347 Clear 3 1023 54 10000 0.45 333 20:43 18.12.2021
6348 Clear 3 1023 53 10000 0.45 13 19:50 18.12.2021
6349 Clear 4 1021 58 10000 0.45 318 18:26 18.12.2021
6350 Clear 4 1021 58 10000 0.45 320 17:49 18.12.2021
6351 Clear 4 1021 55 10000 0.45 336 16:55 18.12.2021
6352 Clear 4 1024 47 10000 0.45 344 16:21 18.12.2021
6353 Clear 4 1023 47 10000 0.45 314 15:25 18.12.2021
6354 Clear 4 1023 44 10000 0.89 7 14:19 18.12.2021
6355 Clear 5 1023 39 10000 0.89 347 11:59 18.12.2021
6356 Clear 6 1023 39 10000 0.45 25 10:42 18.12.2021
6357 Clear 7 1023 31 10000 1.34 317 09:32 18.12.2021
6358 Clear 8 1023 30 10000 0.45 354 08:36 18.12.2021
6359 Clear 8 1023 28 10000 0.89 322 07:41 18.12.2021
6360 Clear 3 1028 42 10000 0.89 135 01:47 18.12.2021
6361 Clouds 1 1027 48 10000 0.89 322 23:56 17.12.2021
6362 Clear 1 1027 46 10000 0.45 328 22:51 17.12.2021
6363 Clear 2 1027 46 10000 0.89 314 21:49 17.12.2021
6364 Clear 2 1027 47 10000 0.45 319 20:44 17.12.2021
6365 Clear 2 1028 47 10000 0.89 305 19:57 17.12.2021
6366 Clear 2 1028 44 10000 1.79 10 18:40 17.12.2021
6367 Clear 2 1028 44 10000 1.79 10 17:59 17.12.2021
6368 Clear 3 1029 47 10000 0.89 40 16:57 17.12.2021
6369 Clear 3 1029 45 10000 1.79 240 16:28 17.12.2021
6370 Clear 3 1029 45 10000 1.79 29 15:49 17.12.2021
6371 Clear 3 1028 44 10000 0.45 90 14:43 17.12.2021
6372 Clear 4 1028 44 10000 0.89 78 13:51 17.12.2021
6373 Clear 5 1027 45 10000 2.24 358 12:37 17.12.2021
6374 Clear 7 1026 45 10000 2.24 90 10:42 17.12.2021
6375 Clear 8 1025 41 10000 0.45 287 09:47 17.12.2021
6376 Clear 9 1029 40 10000 2.24 57 08:32 17.12.2021
6377 Clear 9 1029 39 10000 2.24 90 07:38 17.12.2021
6378 Clear 10 1030 46 10000 2.24 90 04:41 17.12.2021
6379 Mist 8 1023 64 5000 0.89 242 00:28 17.12.2021
6380 Mist 9 1021 66 5000 0.89 336 22:25 16.12.2021
6381 Mist 9 1020 67 5000 0.89 336 21:54 16.12.2021
6382 Mist 10 1020 69 5000 0.89 94 21:36 16.12.2021
6383 Mist 10 1020 71 5000 1.34 61 20:40 16.12.2021
6384 Mist 10 1020 73 5000 0.89 71 19:51 16.12.2021
6385 Clouds 10 1019 76 6000 0.89 114 18:45 16.12.2021
6386 Mist 10 1019 77 5000 0.89 114 18:26 16.12.2021
6387 Mist 11 1019 79 4000 6 360 17:35 16.12.2021
6388 Clouds 11 1019 80 7000 0.45 295 16:23 16.12.2021
6389 Rain 11 1018 79 5000 0.45 319 15:22 16.12.2021
6390 Rain 11 1017 76 6000 0.45 135 13:44 16.12.2021
6391 Clouds 12 1016 78 7000 0.45 234 11:48 16.12.2021
6392 Clouds 12 1016 79 6000 0.45 234 11:18 16.12.2021
6393 Mist 12 1015 79 5000 0.45 135 10:32 16.12.2021
6394 Mist 11 1014 81 4500 0.89 279 08:56 16.12.2021
6395 Clouds 12 1014 80 6000 3 30 06:22 16.12.2021
6396 Clouds 12 1015 82 8000 3.58 13 02:59 16.12.2021
6397 Mist 12 1013 85 2000 0.89 8 23:35 15.12.2021
6398 Mist 13 1012 85 2000 0.89 8 22:48 15.12.2021
6399 Rain 13 1010 77 10000 3.58 344 21:58 15.12.2021
6400 Mist 13 1012 85 4000 4 330 21:28 15.12.2021
6401 Rain 13 1012 85 4000 2.24 312 20:31 15.12.2021
6402 Rain 13 1012 84 4000 1.79 337 19:52 15.12.2021
6403 Clouds 14 1012 81 7000 1 0 18:39 15.12.2021
6404 Rain 14 1012 79 7000 0 0 17:56 15.12.2021
6405 Rain 14 1012 79 7000 0.45 93 17:37 15.12.2021
6406 Clouds 14 1013 78 10000 0.89 69 16:35 15.12.2021
6407 Clouds 14 1013 74 10000 0.89 69 15:47 15.12.2021
6408 Rain 14 1013 74 10000 0.89 69 15:47 15.12.2021
6409 Clouds 14 1013 75 10000 0.89 81 15:28 15.12.2021
6410 Clouds 14 1013 72 10000 0.89 81 14:42 15.12.2021
6411 Clouds 13 1014 67 10000 0.89 88 12:52 15.12.2021
6412 Clouds 13 1013 69 10000 0.89 110 10:44 15.12.2021
6413 Clouds 14 1013 67 8000 0.89 27 08:55 15.12.2021
6414 Clouds 14 1013 67 8000 0.45 105 07:43 15.12.2021
6415 Clouds 11 1013 79 6000 1 0 01:35 15.12.2021
6416 Mist 9 1016 70 4500 1.79 132 23:42 14.12.2021
6417 Mist 9 1016 69 4500 1.34 141 22:49 14.12.2021
6418 Mist 8 1015 67 4500 1.34 141 22:25 14.12.2021
6419 Mist 8 1015 69 4500 1 180 20:55 14.12.2021
6420 Rain 8 1016 68 7000 0.89 184 19:44 14.12.2021
6421 Clouds 8 1016 72 7000 1.34 186 19:20 14.12.2021
6422 Clear 8 1016 72 10000 1.34 187 18:28 14.12.2021
6423 Clear 8 1016 71 10000 1.79 184 17:33 14.12.2021
6424 Clear 8 1016 64 10000 1.34 149 16:40 14.12.2021
6425 Clear 8 1016 68 10000 1.34 181 15:36 14.12.2021
6426 Clear 9 1016 65 10000 1.79 199 13:31 14.12.2021
6427 Clear 10 1013 69 10000 2 180 12:00 14.12.2021
6428 Clear 10 1015 63 10000 0.45 343 11:24 14.12.2021
6429 Clear 11 1015 61 10000 2 200 10:24 14.12.2021
6430 Clear 11 1015 58 10000 2 200 09:51 14.12.2021
6431 Clear 13 1015 54 10000 0.45 39 08:28 14.12.2021
6432 Clear 13 1015 55 10000 0.45 8 07:43 14.12.2021
6433 Clear 11 1022 66 10000 3 190 05:35 14.12.2021
6434 Clear 6 1019 63 10000 0.45 88 22:56 13.12.2021
6435 Clear 6 1018 62 10000 0 0 21:53 13.12.2021
6436 Clear 6 1019 61 10000 1 20 21:32 13.12.2021
6437 Clear 6 1019 61 10000 0 0 20:42 13.12.2021
6438 Clear 6 1019 62 10000 1.79 132 19:52 13.12.2021
6439 Clear 6 1020 58 10000 1.79 135 18:24 13.12.2021
6440 Clear 7 1021 54 10000 1 110 17:26 13.12.2021
6441 Clear 7 1022 58 10000 0.45 67 15:54 13.12.2021
6442 Clear 8 1022 54 10000 0.89 9 15:25 13.12.2021
6443 Clear 8 1022 54 10000 1 0 13:45 13.12.2021
6444 Clear 8 1022 50 10000 2 360 12:49 13.12.2021
6445 Clear 8 1022 49 10000 0.45 269 11:56 13.12.2021
6446 Clear 8 1022 47 10000 3 10 11:35 13.12.2021
6447 Clear 9 1022 43 10000 0.45 90 10:44 13.12.2021
6448 Clear 10 1027 44 10000 0.89 88 09:29 13.12.2021
6449 Clear 10 1027 41 10000 1.34 281 07:48 13.12.2021
6450 Clear 9 1029 44 10000 0.89 111 05:35 13.12.2021
6451 Clear 8 1031 53 10000 0.89 279 03:26 13.12.2021
6452 Clear 6 1026 63 10000 0.89 28 23:22 12.12.2021
6453 Clear 7 1025 65 10000 0.89 11 21:40 12.12.2021
6454 Clear 7 1026 61 10000 0.45 309 19:57 12.12.2021
6455 Clear 8 1026 60 10000 0.89 85 18:36 12.12.2021
6456 Clear 8 1026 60 10000 0.89 85 18:36 12.12.2021
6457 Clear 9 1026 60 10000 0.89 71 17:31 12.12.2021
6458 Clear 9 1026 60 10000 0.89 97 16:27 12.12.2021
6459 Clouds 9 1026 61 10000 0.89 40 15:45 12.12.2021
6460 Clouds 9 1026 60 10000 0.89 40 15:25 12.12.2021
6461 Clouds 10 1026 63 10000 0.89 44 14:34 12.12.2021
6462 Clouds 10 1026 63 10000 0.89 336 13:22 12.12.2021
6463 Clouds 10 1025 65 10000 0.89 358 12:27 12.12.2021
6464 Clear 10 1025 66 10000 0.45 1 11:44 12.12.2021
6465 Clear 10 1025 66 10000 0.45 1 11:20 12.12.2021
6466 Mist 10 1025 71 5000 1.34 350 10:22 12.12.2021
6467 Rain 10 1024 75 3500 0.45 62 08:58 12.12.2021
6468 Rain 10 1023 76 4000 0.89 226 07:32 12.12.2021
6469 Rain 10 1024 76 6000 0.45 349 05:57 12.12.2021
6470 Clouds 10 1024 75 8000 0.45 311 04:55 12.12.2021
6471 Clouds 10 1025 74 10000 0.45 29 02:58 12.12.2021
6472 Clear 11 1022 63 10000 0.45 272 23:31 11.12.2021
6473 Clouds 12 1022 69 7000 0.45 87 22:22 11.12.2021
6474 Clouds 12 1021 71 7000 0.45 87 21:51 11.12.2021
6475 Clouds 12 1021 72 6000 5 20 20:24 11.12.2021
6476 Clouds 12 1021 71 10000 0.45 288 19:21 11.12.2021
6477 Clouds 12 1021 69 10000 0.45 288 18:50 11.12.2021
6478 Clouds 12 1021 68 10000 0.45 106 18:19 11.12.2021
6479 Clear 13 1021 69 10000 0.89 93 16:59 11.12.2021
6480 Clear 13 1022 68 10000 0.89 99 15:48 11.12.2021
6481 Clear 13 1021 67 10000 0.89 82 14:54 11.12.2021
6482 Clouds 14 1021 67 10000 0.45 74 12:42 11.12.2021
6483 Clouds 14 1020 65 10000 0.89 77 11:24 11.12.2021
6484 Clouds 15 1019 63 10000 0.45 90 09:45 11.12.2021
6485 Clouds 15 1019 63 10000 0.45 90 09:45 11.12.2021
6486 Clouds 15 1019 63 10000 0.45 90 09:45 11.12.2021
6487 Clouds 15 1019 63 10000 0.45 90 09:45 11.12.2021
6488 Clouds 16 1024 61 10000 0.89 45 07:30 11.12.2021
6489 Mist 11 1022 78 3500 1.34 53 00:51 11.12.2021
6490 Mist 10 1021 81 3000 0.45 64 23:49 10.12.2021
6491 Mist 10 1021 79 3000 1.34 75 23:18 10.12.2021
6492 Mist 9 1021 79 2800 1.34 95 21:52 10.12.2021
6493 Mist 9 1020 77 2800 1.34 90 20:56 10.12.2021
6494 Mist 10 1021 77 3300 1.34 91 19:20 10.12.2021
6495 Mist 10 1021 78 5000 0.89 97 17:54 10.12.2021
6496 Clouds 11 1022 75 6000 0.89 97 16:55 10.12.2021
6497 Clouds 11 1022 75 6000 1.34 71 15:47 10.12.2021
6498 Clouds 11 1022 75 6000 1.34 71 15:29 10.12.2021
6499 Clouds 11 1022 75 6000 1.34 71 14:57 10.12.2021
6500 Clouds 12 1022 73 6000 1.34 83 13:50 10.12.2021
6501 Clouds 12 1022 72 6000 1.34 83 13:20 10.12.2021
6502 Clouds 13 1022 70 6000 0.89 16 12:23 10.12.2021
6503 Clouds 14 1021 65 6000 0.89 106 11:27 10.12.2021
6504 Haze 15 1020 59 5000 0.45 143 09:54 10.12.2021
6505 Haze 15 1025 58 5000 0.45 143 08:30 10.12.2021
6506 Haze 15 1026 60 5000 0.89 89 05:56 10.12.2021
6507 Mist 12 1027 68 3500 2 350 02:47 10.12.2021
6508 Mist 10 1021 77 4000 1.79 331 23:44 09.12.2021
6509 Mist 10 1021 73 5000 1.79 344 22:49 09.12.2021
6510 Mist 10 1021 75 5000 1.79 344 22:23 09.12.2021
6511 Mist 10 1021 75 5000 1.79 333 21:48 09.12.2021
6512 Mist 10 1020 73 5000 1.79 332 20:40 09.12.2021
6513 Mist 10 1021 73 5000 1.79 326 19:46 09.12.2021
6514 Clear 10 1021 73 6000 1.79 326 19:21 09.12.2021
6515 Clear 11 1020 72 6000 1.79 319 18:24 09.12.2021
6516 Clear 11 1020 72 6000 1.79 302 17:51 09.12.2021
6517 Clear 11 1020 71 7000 1.79 301 17:25 09.12.2021
6518 Clear 12 1021 71 7000 1.79 289 16:43 09.12.2021
6519 Clear 12 1021 68 8000 1.79 277 15:31 09.12.2021
6520 Clear 13 1021 65 10000 1.34 266 14:43 09.12.2021
6521 Clear 14 1020 64 10000 0.45 314 13:18 09.12.2021
6522 Clear 14 1020 63 10000 0.45 359 12:31 09.12.2021
6523 Clear 15 1020 61 10000 2.68 284 10:47 09.12.2021
6524 Clear 17 1019 59 10000 0.45 47 08:19 09.12.2021
6525 Clear 16 1021 65 10000 0.89 107 03:59 09.12.2021
6526 Clear 14 1019 76 10000 2 220 01:43 09.12.2021
6527 Clear 12 1021 67 10000 1 0 23:38 08.12.2021
6528 Clear 13 1021 66 10000 0 0 22:59 08.12.2021
6529 Clear 12 1021 66 10000 0.89 102 22:37 08.12.2021
6530 Clear 13 1021 60 10000 3.13 151 21:39 08.12.2021
6531 Clear 12 1021 59 10000 3.58 155 20:58 08.12.2021
6532 Clear 12 1022 64 10000 2.68 152 19:57 08.12.2021
6533 Clear 12 1022 65 10000 3.13 153 19:29 08.12.2021
6534 Clear 12 1022 63 10000 2.24 146 18:22 08.12.2021
6535 Clouds 12 1023 63 10000 1.34 97 16:55 08.12.2021
6536 Clouds 12 1023 63 10000 2.24 95 15:45 08.12.2021
6537 Clouds 13 1023 61 10000 0.89 52 15:23 08.12.2021
6538 Clouds 13 1024 62 10000 1.34 28 13:27 08.12.2021
6539 Clouds 13 1023 61 10000 0.89 48 10:45 08.12.2021
6540 Clouds 13 1023 61 10000 0.89 48 10:45 08.12.2021
6541 Clouds 13 1023 61 10000 0.89 73 10:23 08.12.2021
6542 Clouds 14 1023 58 10000 1.34 42 08:54 08.12.2021
6543 Clouds 15 1024 57 10000 0.89 2 06:36 08.12.2021
6544 Clear 12 1026 67 10000 3 10 01:20 08.12.2021
6545 Clear 11 1025 72 10000 2 340 23:23 07.12.2021
6546 Clear 11 1024 69 10000 0.89 95 21:25 07.12.2021
6547 Clouds 11 1024 69 10000 0.45 48 20:25 07.12.2021
6548 Clouds 11 1024 69 10000 0.45 116 19:21 07.12.2021
6549 Clouds 11 1024 71 8000 0.45 86 18:23 07.12.2021
6550 Clouds 11 1025 74 7000 2 360 17:27 07.12.2021
6551 Clouds 11 1024 74 7000 2 340 16:53 07.12.2021
6552 Clouds 11 1025 74 7000 0.45 104 16:25 07.12.2021
6553 Clear 12 1024 71 10000 0.45 82 14:38 07.12.2021
6554 Clouds 12 1024 68 10000 0.89 114 13:40 07.12.2021
6555 Clouds 12 1024 66 10000 0.45 291 12:22 07.12.2021
6556 Clear 13 1023 63 10000 0.89 306 10:56 07.12.2021
6557 Clouds 14 1023 56 10000 0.45 211 09:36 07.12.2021
6558 Clouds 14 1028 57 8000 0.89 133 07:35 07.12.2021
6559 Clouds 14 1028 57 8000 0.89 61 05:51 07.12.2021
6560 Clear 13 1030 61 8000 0.45 64 03:25 07.12.2021
6561 Clear 9 1023 76 10000 2.24 12 23:23 06.12.2021
6562 Clear 9 1023 74 10000 2.24 14 22:40 06.12.2021
6563 Clear 10 1022 73 10000 2.24 15 21:59 06.12.2021
6564 Clear 10 1022 73 10000 2.24 15 21:27 06.12.2021
6565 Clear 10 1022 72 10000 1.79 9 20:32 06.12.2021
6566 Clear 10 1022 72 10000 1.79 9 20:32 06.12.2021
6567 Clear 10 1022 72 10000 1.79 9 20:32 06.12.2021
6568 Clear 10 1022 72 10000 0.45 345 19:24 06.12.2021
6569 Clear 10 1022 69 10000 0.45 119 18:34 06.12.2021
6570 Clear 10 1022 69 10000 0.89 103 17:53 06.12.2021
6571 Clear 10 1022 68 10000 0.89 103 17:33 06.12.2021
6572 Clear 11 1022 68 10000 0.45 270 15:51 06.12.2021
6573 Clear 12 1022 66 10000 1 0 14:35 06.12.2021
6574 Clear 13 1021 62 10000 0.89 56 12:40 06.12.2021
6575 Clear 13 1020 62 10000 4.47 135 11:55 06.12.2021
6576 Clear 16 1019 52 10000 3 270 09:56 06.12.2021
6577 Clear 16 1024 53 10000 0.89 21 07:38 06.12.2021
6578 Clear 13 1026 64 10000 1.79 133 02:20 06.12.2021
6579 Clear 10 1019 73 10000 2.24 120 22:20 05.12.2021
6580 Clear 10 1019 72 10000 2.24 115 21:25 05.12.2021
6581 Clear 10 1019 72 10000 1.79 110 20:20 05.12.2021
6582 Clear 10 1019 71 10000 1.79 106 19:58 05.12.2021
6583 Clear 11 1019 70 10000 1.79 106 19:23 05.12.2021
6584 Clear 11 1020 70 10000 2.24 104 18:26 05.12.2021
6585 Clear 11 1020 69 10000 0.45 270 17:49 05.12.2021
6586 Clear 11 1020 68 10000 2 110 16:58 05.12.2021
6587 Clear 12 1020 68 10000 2 110 16:28 05.12.2021
6588 Clear 12 1020 67 10000 2 110 15:58 05.12.2021
6589 Clear 12 1020 66 10000 3 120 14:47 05.12.2021
6590 Clear 12 1020 66 10000 3 120 14:29 05.12.2021
6591 Clear 12 1021 63 10000 3.58 113 13:31 05.12.2021
6592 Clear 12 1020 63 10000 0.45 36 12:41 05.12.2021
6593 Clear 12 1020 63 10000 0.45 36 12:23 05.12.2021
6594 Clear 13 1020 62 10000 0.45 51 11:41 05.12.2021
6595 Clear 14 1019 57 10000 0.89 27 10:21 05.12.2021
6596 Clear 16 1019 52 10000 0.89 254 09:26 05.12.2021
6597 Clear 16 1022 47 10000 0.45 298 04:56 05.12.2021
6598 Clear 10 1029 82 10000 1 0 01:23 05.12.2021
6599 Clear 8 1022 65 10000 1.79 120 22:42 04.12.2021
6600 Clear 8 1022 69 10000 1.79 119 21:37 04.12.2021
6601 Clear 9 1022 66 10000 1.79 118 20:40 04.12.2021
6602 Clear 9 1022 65 10000 0.45 270 19:33 04.12.2021
6603 Clear 9 1022 64 10000 1.79 128 18:43 04.12.2021
6604 Clear 9 1023 63 10000 1.79 126 17:47 04.12.2021
6605 Clear 9 1023 63 10000 1.79 126 17:20 04.12.2021
6606 Clear 9 1023 61 10000 0.45 96 16:46 04.12.2021
6607 Clear 9 1023 60 10000 0.45 96 16:27 04.12.2021
6608 Clear 11 1023 52 10000 0.45 56 12:44 04.12.2021
6609 Clear 12 1023 48 10000 4 150 11:34 04.12.2021
6610 Clear 12 1022 45 10000 3 110 10:57 04.12.2021
6611 Clear 14 1026 44 10000 0.89 17 08:53 04.12.2021
6612 Clear 14 1026 44 10000 0.45 103 08:27 04.12.2021
6613 Clear 13 1028 45 10000 0.45 81 04:42 04.12.2021
6614 Mist 9 1021 61 5000 0 0 00:49 04.12.2021
6615 Clear 7 1023 60 6000 0.45 45 23:29 03.12.2021
6616 Clear 7 1022 56 6000 1.34 21 22:50 03.12.2021
6617 Clear 7 1022 63 6000 1.34 29 21:54 03.12.2021
6618 Clear 7 1019 73 6000 1 0 21:20 03.12.2021
6619 Clear 7 1021 63 6000 1.34 25 20:27 03.12.2021
6620 Clear 8 1021 60 6000 1.34 6 19:20 03.12.2021
6621 Clear 8 1021 57 10000 1.34 11 18:22 03.12.2021
6622 Clear 8 1021 53 10000 1.79 22 17:30 03.12.2021
6623 Clear 10 1021 45 10000 0.89 86 13:35 03.12.2021
6624 Clear 11 1020 44 10000 0.45 269 12:21 03.12.2021
6625 Clear 12 1019 40 10000 2 360 11:19 03.12.2021
6626 Clear 14 1023 40 10000 0.89 73 08:40 03.12.2021
6627 Clear 15 1017 33 10000 0.89 300 07:43 03.12.2021
6628 Clear 14 1022 40 10000 1.34 53 06:40 03.12.2021
6629 Clear 8 1016 61 10000 1.34 321 00:49 03.12.2021
6630 Clear 6 1018 58 10000 1.34 344 23:48 02.12.2021
6631 Clear 6 1017 58 10000 0.89 29 22:48 02.12.2021
6632 Clear 7 1017 55 10000 1.34 30 21:41 02.12.2021
6633 Clear 7 1017 55 10000 0.89 36 20:45 02.12.2021
6634 Clear 7 1017 53 10000 0.45 48 20:22 02.12.2021
6635 Clear 7 1017 49 10000 1.34 358 18:47 02.12.2021
6636 Clear 7 1015 43 10000 0.45 54 16:35 02.12.2021
6637 Clear 7 1015 41 10000 2 230 15:41 02.12.2021
6638 Clear 7 1015 41 10000 2 230 15:41 02.12.2021
6639 Clear 8 1014 39 10000 2 220 14:52 02.12.2021
6640 Clear 8 1014 36 10000 0.89 8 13:36 02.12.2021
6641 Clear 8 1014 36 10000 0.45 45 12:24 02.12.2021
6642 Clear 9 1014 32 10000 0.45 42 10:42 02.12.2021
6643 Clear 10 1014 28 10000 0.45 51 09:26 02.12.2021
6644 Clear 12 1014 29 10000 0.89 21 06:59 02.12.2021
6645 Clear 7 1019 49 10000 0.45 14 01:26 02.12.2021
6646 Clear 5 1018 56 10000 0 0 00:26 02.12.2021
6647 Clear 5 1018 56 10000 2 30 22:25 01.12.2021
6648 Clear 5 1018 54 10000 1 0 21:43 01.12.2021
6649 Clear 5 1019 55 10000 3 300 20:23 01.12.2021
6650 Clear 6 1019 55 10000 3 310 19:40 01.12.2021
6651 Clear 6 1020 56 10000 0.45 313 18:42 01.12.2021
6652 Clear 6 1020 55 10000 4 320 16:59 01.12.2021
6653 Clear 7 1020 53 10000 3 310 15:47 01.12.2021
6654 Clear 8 1020 52 10000 3 300 14:30 01.12.2021
6655 Clear 8 1020 52 10000 3 10 13:36 01.12.2021
6656 Clear 9 1020 45 10000 4 330 10:44 01.12.2021
6657 Clear 9 1020 44 10000 5 330 10:20 01.12.2021
6658 Clear 9 1028 46 10000 6 340 08:51 01.12.2021
6659 Clear 10 1028 42 10000 7 340 07:56 01.12.2021
6660 Clear 10 1029 42 10000 6 320 07:19 01.12.2021
6661 Clear 8 1031 50 10000 5 340 03:53 01.12.2021
6662 Clear 7 1031 53 10000 5 320 03:19 01.12.2021
6663 Clear 5 1021 60 10000 0.45 315 00:20 01.12.2021
6664 Clear 5 1020 58 10000 0.45 301 23:28 30.11.2021
6665 Clear 5 1020 56 10000 0.45 300 22:29 30.11.2021
6666 Clear 6 1020 50 10000 5 320 20:46 30.11.2021
6667 Clear 6 1020 48 10000 0.45 301 20:24 30.11.2021
6668 Clear 6 1020 46 10000 0.45 301 19:39 30.11.2021
6669 Clear 6 1019 45 10000 0.45 301 18:52 30.11.2021
6670 Clear 7 1019 45 10000 0.45 327 17:23 30.11.2021
6671 Clear 8 1019 45 10000 0.45 329 15:54 30.11.2021
6672 Clear 9 1019 48 10000 0.45 295 14:33 30.11.2021
6673 Clear 9 1019 48 10000 0.45 300 13:40 30.11.2021
6674 Clear 9 1018 46 10000 0.45 300 12:53 30.11.2021
6675 Clear 10 1017 41 10000 0.45 287 11:54 30.11.2021
6676 Clear 10 1017 41 10000 0.45 312 11:25 30.11.2021
6677 Clear 10 1016 41 10000 0.89 310 10:35 30.11.2021
6678 Clouds 12 1016 40 10000 0.89 290 08:55 30.11.2021
6679 Clouds 12 1015 42 10000 0.89 305 08:32 30.11.2021
6680 Clouds 13 1015 42 10000 0.45 312 07:49 30.11.2021
6681 Clouds 11 1014 51 10000 1.79 267 06:32 30.11.2021
6682 Rain 11 1014 70 7000 2.24 265 01:46 30.11.2021
6683 Rain 11 1014 77 5000 2.24 327 01:26 30.11.2021
6684 Rain 12 1012 74 6000 1.34 261 23:27 29.11.2021
6685 Clouds 13 1012 78 6000 0.89 119 22:59 29.11.2021
6686 Rain 13 1012 81 6000 0.89 316 22:36 29.11.2021
6687 Rain 13 1012 83 7000 0.89 310 21:46 29.11.2021
6688 Clouds 12 1012 83 6000 0.89 288 21:19 29.11.2021
6689 Clouds 12 1012 86 6000 0.89 343 20:44 29.11.2021
6690 Rain 12 1012 92 6000 0.45 291 19:57 29.11.2021
6691 Clouds 14 1012 96 7000 0.89 338 19:38 29.11.2021
6692 Clouds 15 1012 97 7000 1.34 247 18:56 29.11.2021
6693 Clouds 15 1019 91 10000 3.64 262 18:37 29.11.2021
6694 Clouds 15 1021 92 10000 2.24 227 17:21 29.11.2021
6695 Clouds 15 1021 92 10000 2.24 227 16:33 29.11.2021
6696 Clouds 15 1021 91 10000 1.84 207 15:55 29.11.2021
6697 Rain 15 1022 92 10000 1.68 196 14:45 29.11.2021
6698 Rain 15 1022 92 7925 1.56 182 13:47 29.11.2021
6699 Rain 16 1022 88 10000 1.29 187 12:44 29.11.2021
6700 Clouds 16 1022 89 10000 1.29 161 11:43 29.11.2021
6701 Clouds 16 1022 87 10000 1.3 144 10:59 29.11.2021
6702 Rain 18 1022 72 10000 3 160 09:50 29.11.2021
6703 Clouds 20 1022 68 10000 4 180 06:43 29.11.2021
6704 Clear 19 1023 72 10000 3 160 04:53 29.11.2021
6705 Clear 16 1025 94 10000 1 0 00:44 29.11.2021
6706 Clouds 15 1025 94 10000 1 0 23:44 28.11.2021
6707 Clouds 15 1024 88 10000 1 0 23:25 28.11.2021
6708 Clouds 15 1025 88 10000 1 20 21:53 28.11.2021
6709 Rain 15 1025 88 10000 1 30 21:26 28.11.2021
6710 Clouds 15 1025 88 10000 1 60 20:35 28.11.2021
6711 Clear 16 1025 82 10000 2 100 19:28 28.11.2021
6712 Clear 16 1026 82 10000 3 120 18:35 28.11.2021
6713 Clear 16 1026 77 10000 2 110 17:56 28.11.2021
6714 Clear 16 1026 77 10000 2 110 17:32 28.11.2021
6715 Clear 16 1027 77 10000 3 110 16:44 28.11.2021
6716 Clear 16 1027 77 10000 3 110 16:22 28.11.2021
6717 Clear 16 1027 72 10000 3 120 15:32 28.11.2021
6718 Clear 17 1027 72 10000 3 120 14:48 28.11.2021
6719 Clear 17 1027 67 10000 3 120 13:22 28.11.2021
6720 Clear 17 1027 67 10000 3 130 12:48 28.11.2021
6721 Clear 17 1027 67 10000 3 100 11:18 28.11.2021
6722 Clear 17 1027 63 10000 4 110 10:21 28.11.2021
6723 Clouds 18 1027 55 10000 5 130 09:37 28.11.2021
6724 Clouds 18 1027 55 10000 4 130 07:49 28.11.2021
6725 Clear 12 1030 71 10000 2 70 23:58 27.11.2021
6726 Clear 13 1031 67 10000 2 50 21:20 27.11.2021
6727 Clouds 12 1031 66 10000 1 70 19:47 27.11.2021
6728 Clouds 13 1032 67 10000 1 0 17:27 27.11.2021
6729 Clouds 14 1032 62 10000 3 90 15:58 27.11.2021
6730 Clouds 14 1033 58 10000 3 80 13:58 27.11.2021
6731 Clouds 14 1033 58 10000 3 80 12:57 27.11.2021
6732 Clouds 15 1032 55 10000 4 80 10:52 27.11.2021
6733 Clear 15 1032 51 10000 4 70 09:53 27.11.2021
6734 Clear 17 1031 48 10000 4 80 08:44 27.11.2021
6735 Clear 18 1031 45 10000 4 80 06:34 27.11.2021
6736 Clear 14 1033 67 10000 2 40 01:58 27.11.2021
6737 Clear 8 1031 93 10000 2 10 23:38 26.11.2021
6738 Clear 8 1031 93 10000 3 10 22:25 26.11.2021
6739 Clear 8 1031 93 10000 3 360 21:38 26.11.2021
6740 Clear 8 1031 93 10000 3 360 21:18 26.11.2021
6741 Clear 8 1031 87 10000 3 10 20:29 26.11.2021
6742 Clear 8 1030 87 10000 3 360 19:49 26.11.2021
6743 Clear 9 1030 87 10000 2 20 18:41 26.11.2021
6744 Clear 11 1030 76 10000 3 30 17:23 26.11.2021
6745 Clear 13 1030 71 10000 3 50 15:59 26.11.2021
6746 Clear 14 1020 64 8000 3 40 13:36 26.11.2021
6747 Clouds 14 1020 63 7000 4 50 12:51 26.11.2021
6748 Clouds 15 1019 57 8000 2 50 10:39 26.11.2021
6749 Clouds 17 1026 44 8000 4 10 08:59 26.11.2021
6750 Clouds 17 1026 36 8000 4 40 08:39 26.11.2021
6751 Clouds 18 1026 35 8000 4 40 08:19 26.11.2021
6752 Clear 18 1026 35 8000 3 360 06:28 26.11.2021
6753 Clear 18 1026 38 8000 2 20 04:52 26.11.2021
6754 Clear 16 1026 50 8000 2 350 03:26 26.11.2021
6755 Rain 10 1016 61 8000 1 40 23:27 25.11.2021
6756 Clear 10 1015